<?xml version="1.0" encoding="utf-8"?>
<gpx xmlns:xsi="http://www.w3.org/2001/XMLSchema-instance" xmlns:xsd="http://www.w3.org/2001/XMLSchema" version="1.1" creator="Shapelink.com" xmlns="http://www.topografix.com/GPX/1/1" xmlns:gpxtpx="http://www.garmin.com/xmlschemas/TrackPointExtension/v1">
  <metadata>
    <name>Sykling 170.04 km, 2012-05-20</name>
    <desc></desc>
    <author><name>Mikael Blom</name></author> 
    <time>2012-05-20T08:04:02Z</time>
  </metadata>
  <trk>
    <name>Sykling 170.04 km, 2012-05-20</name>
    <trkseg>
      <trkpt lat="59.9787991" lon="17.7392917">
        <ele>44.358</ele>
        <time>2012-05-20T08:04:02Z</time>
      </trkpt>
      <trkpt lat="59.9785569" lon="17.7392523">
        <ele>43.3966</ele>
        <time>2012-05-20T08:04:08Z</time>
      </trkpt>
      <trkpt lat="59.9782269" lon="17.7391854">
        <ele>42.916</ele>
        <time>2012-05-20T08:04:15Z</time>
      </trkpt>
      <trkpt lat="59.9781732" lon="17.7391685">
        <ele>42.916</ele>
        <time>2012-05-20T08:04:16Z</time>
      </trkpt>
      <trkpt lat="59.977742" lon="17.7389778">
        <ele>40.9934</ele>
        <time>2012-05-20T08:04:24Z</time>
      </trkpt>
      <trkpt lat="59.9774143" lon="17.7390372">
        <ele>38.5901</ele>
        <time>2012-05-20T08:04:29Z</time>
      </trkpt>
      <trkpt lat="59.9769604" lon="17.7392523">
        <ele>36.6675</ele>
        <time>2012-05-20T08:04:35Z</time>
      </trkpt>
      <trkpt lat="59.9766734" lon="17.7393823">
        <ele>34.7449</ele>
        <time>2012-05-20T08:04:39Z</time>
      </trkpt>
      <trkpt lat="59.9764271" lon="17.7396413">
        <ele>33.7834</ele>
        <time>2012-05-20T08:04:43Z</time>
      </trkpt>
      <trkpt lat="59.9761937" lon="17.7397043">
        <ele>32.8223</ele>
        <time>2012-05-20T08:04:47Z</time>
      </trkpt>
      <trkpt lat="59.976087" lon="17.7395024">
        <ele>31.8607</ele>
        <time>2012-05-20T08:04:49Z</time>
      </trkpt>
      <trkpt lat="59.975611" lon="17.7386465">
        <ele>29.4575</ele>
        <time>2012-05-20T08:04:57Z</time>
      </trkpt>
      <trkpt lat="59.975216" lon="17.7379588">
        <ele>28.9769</ele>
        <time>2012-05-20T08:05:04Z</time>
      </trkpt>
      <trkpt lat="59.974784" lon="17.7371065">
        <ele>28.9769</ele>
        <time>2012-05-20T08:05:13Z</time>
      </trkpt>
      <trkpt lat="59.9745668" lon="17.7364261">
        <ele>28.9769</ele>
        <time>2012-05-20T08:05:19Z</time>
      </trkpt>
      <trkpt lat="59.9744025" lon="17.7356449">
        <ele>28.9769</ele>
        <time>2012-05-20T08:05:26Z</time>
      </trkpt>
      <trkpt lat="59.9743228" lon="17.7348663">
        <ele>28.4962</ele>
        <time>2012-05-20T08:05:32Z</time>
      </trkpt>
      <trkpt lat="59.9743241" lon="17.7340925">
        <ele>29.4575</ele>
        <time>2012-05-20T08:05:38Z</time>
      </trkpt>
      <trkpt lat="59.9743766" lon="17.7330888">
        <ele>30.8995</ele>
        <time>2012-05-20T08:05:46Z</time>
      </trkpt>
      <trkpt lat="59.9743725" lon="17.7320904">
        <ele>31.3801</ele>
        <time>2012-05-20T08:05:54Z</time>
      </trkpt>
      <trkpt lat="59.9743772" lon="17.731306">
        <ele>30.8995</ele>
        <time>2012-05-20T08:06:01Z</time>
      </trkpt>
      <trkpt lat="59.9744552" lon="17.7301202">
        <ele>30.4188</ele>
        <time>2012-05-20T08:06:11Z</time>
      </trkpt>
      <trkpt lat="59.9744961" lon="17.7291164">
        <ele>30.4188</ele>
        <time>2012-05-20T08:06:19Z</time>
      </trkpt>
      <trkpt lat="59.9744712" lon="17.7281491">
        <ele>29.9381</ele>
        <time>2012-05-20T08:06:27Z</time>
      </trkpt>
      <trkpt lat="59.9744548" lon="17.7273461">
        <ele>30.4188</ele>
        <time>2012-05-20T08:06:34Z</time>
      </trkpt>
      <trkpt lat="59.9744346" lon="17.7264254">
        <ele>30.8995</ele>
        <time>2012-05-20T08:06:43Z</time>
      </trkpt>
      <trkpt lat="59.9743713" lon="17.7254747">
        <ele>30.4188</ele>
        <time>2012-05-20T08:06:51Z</time>
      </trkpt>
      <trkpt lat="59.9741987" lon="17.724187">
        <ele>29.9381</ele>
        <time>2012-05-20T08:07:01Z</time>
      </trkpt>
      <trkpt lat="59.9739938" lon="17.7229366">
        <ele>29.9381</ele>
        <time>2012-05-20T08:07:11Z</time>
      </trkpt>
      <trkpt lat="59.9738098" lon="17.7222993">
        <ele>30.4188</ele>
        <time>2012-05-20T08:07:17Z</time>
      </trkpt>
      <trkpt lat="59.973541" lon="17.7215569">
        <ele>30.4188</ele>
        <time>2012-05-20T08:07:25Z</time>
      </trkpt>
      <trkpt lat="59.9732015" lon="17.7209445">
        <ele>30.4188</ele>
        <time>2012-05-20T08:07:33Z</time>
      </trkpt>
      <trkpt lat="59.9727814" lon="17.7203983">
        <ele>30.4188</ele>
        <time>2012-05-20T08:07:42Z</time>
      </trkpt>
      <trkpt lat="59.9722831" lon="17.719944">
        <ele>30.4188</ele>
        <time>2012-05-20T08:07:52Z</time>
      </trkpt>
      <trkpt lat="59.9719616" lon="17.7196522">
        <ele>30.8995</ele>
        <time>2012-05-20T08:07:59Z</time>
      </trkpt>
      <trkpt lat="59.9715042" lon="17.7192406">
        <ele>30.8995</ele>
        <time>2012-05-20T08:08:09Z</time>
      </trkpt>
      <trkpt lat="59.9709868" lon="17.7187753">
        <ele>30.8995</ele>
        <time>2012-05-20T08:08:20Z</time>
      </trkpt>
      <trkpt lat="59.9704503" lon="17.7182934">
        <ele>30.4188</ele>
        <time>2012-05-20T08:08:31Z</time>
      </trkpt>
      <trkpt lat="59.9699994" lon="17.7178894">
        <ele>30.8995</ele>
        <time>2012-05-20T08:08:40Z</time>
      </trkpt>
      <trkpt lat="59.9694829" lon="17.7175009">
        <ele>31.8607</ele>
        <time>2012-05-20T08:08:50Z</time>
      </trkpt>
      <trkpt lat="59.9690302" lon="17.7172968">
        <ele>32.3416</ele>
        <time>2012-05-20T08:08:59Z</time>
      </trkpt>
      <trkpt lat="59.96854" lon="17.7170911">
        <ele>31.8607</ele>
        <time>2012-05-20T08:09:08Z</time>
      </trkpt>
      <trkpt lat="59.9681875" lon="17.7168034">
        <ele>30.4188</ele>
        <time>2012-05-20T08:09:14Z</time>
      </trkpt>
      <trkpt lat="59.9679" lon="17.7163531">
        <ele>28.0155</ele>
        <time>2012-05-20T08:09:19Z</time>
      </trkpt>
      <trkpt lat="59.9676937" lon="17.715821">
        <ele>26.0929</ele>
        <time>2012-05-20T08:09:23Z</time>
      </trkpt>
      <trkpt lat="59.9675736" lon="17.7153563">
        <ele>25.1317</ele>
        <time>2012-05-20T08:09:26Z</time>
      </trkpt>
      <trkpt lat="59.9674676" lon="17.7146265">
        <ele>24.651</ele>
        <time>2012-05-20T08:09:31Z</time>
      </trkpt>
      <trkpt lat="59.9673969" lon="17.7140677">
        <ele>26.5736</ele>
        <time>2012-05-20T08:09:36Z</time>
      </trkpt>
      <trkpt lat="59.96732" lon="17.7134699">
        <ele>28.4962</ele>
        <time>2012-05-20T08:09:43Z</time>
      </trkpt>
      <trkpt lat="59.9671818" lon="17.7127965">
        <ele>31.3801</ele>
        <time>2012-05-20T08:09:52Z</time>
      </trkpt>
      <trkpt lat="59.9669908" lon="17.7122034">
        <ele>31.8607</ele>
        <time>2012-05-20T08:10:00Z</time>
      </trkpt>
      <trkpt lat="59.96672" lon="17.7114636">
        <ele>30.8995</ele>
        <time>2012-05-20T08:10:09Z</time>
      </trkpt>
      <trkpt lat="59.9665199" lon="17.7107777">
        <ele>29.9381</ele>
        <time>2012-05-20T08:10:16Z</time>
      </trkpt>
      <trkpt lat="59.9662441" lon="17.7097842">
        <ele>27.5349</ele>
        <time>2012-05-20T08:10:25Z</time>
      </trkpt>
      <trkpt lat="59.9658833" lon="17.708645">
        <ele>26.5736</ele>
        <time>2012-05-20T08:10:35Z</time>
      </trkpt>
      <trkpt lat="59.9657102" lon="17.7082742">
        <ele>26.5736</ele>
        <time>2012-05-20T08:10:39Z</time>
      </trkpt>
      <trkpt lat="59.9653374" lon="17.7078768">
        <ele>27.0543</ele>
        <time>2012-05-20T08:10:46Z</time>
      </trkpt>
      <trkpt lat="59.9647429" lon="17.7074253">
        <ele>28.4962</ele>
        <time>2012-05-20T08:10:57Z</time>
      </trkpt>
      <trkpt lat="59.9642563" lon="17.7072113">
        <ele>28.9769</ele>
        <time>2012-05-20T08:11:06Z</time>
      </trkpt>
      <trkpt lat="59.9637457" lon="17.7071196">
        <ele>28.9769</ele>
        <time>2012-05-20T08:11:15Z</time>
      </trkpt>
      <trkpt lat="59.9632115" lon="17.7070989">
        <ele>28.9769</ele>
        <time>2012-05-20T08:11:24Z</time>
      </trkpt>
      <trkpt lat="59.9628041" lon="17.7070901">
        <ele>28.4962</ele>
        <time>2012-05-20T08:11:31Z</time>
      </trkpt>
      <trkpt lat="59.962353" lon="17.706956">
        <ele>28.9769</ele>
        <time>2012-05-20T08:11:39Z</time>
      </trkpt>
      <trkpt lat="59.9619065" lon="17.7066865">
        <ele>29.9381</ele>
        <time>2012-05-20T08:11:47Z</time>
      </trkpt>
      <trkpt lat="59.9615953" lon="17.7063473">
        <ele>29.9381</ele>
        <time>2012-05-20T08:11:53Z</time>
      </trkpt>
      <trkpt lat="59.9612305" lon="17.7057055">
        <ele>30.4188</ele>
        <time>2012-05-20T08:12:01Z</time>
      </trkpt>
      <trkpt lat="59.9608591" lon="17.7051064">
        <ele>30.4188</ele>
        <time>2012-05-20T08:12:09Z</time>
      </trkpt>
      <trkpt lat="59.9604446" lon="17.7046005">
        <ele>28.9769</ele>
        <time>2012-05-20T08:12:17Z</time>
      </trkpt>
      <trkpt lat="59.960053" lon="17.7040562">
        <ele>28.9769</ele>
        <time>2012-05-20T08:12:25Z</time>
      </trkpt>
      <trkpt lat="59.960014" lon="17.7039689">
        <ele>28.9769</ele>
        <time>2012-05-20T08:12:26Z</time>
      </trkpt>
      <trkpt lat="59.959779" lon="17.7031931">
        <ele>28.9769</ele>
        <time>2012-05-20T08:12:34Z</time>
      </trkpt>
      <trkpt lat="59.9595609" lon="17.7024742">
        <ele>28.9769</ele>
        <time>2012-05-20T08:12:42Z</time>
      </trkpt>
      <trkpt lat="59.9593162" lon="17.7015328">
        <ele>27.5349</ele>
        <time>2012-05-20T08:12:51Z</time>
      </trkpt>
      <trkpt lat="59.9592045" lon="17.7008109">
        <ele>27.0543</ele>
        <time>2012-05-20T08:12:57Z</time>
      </trkpt>
      <trkpt lat="59.9590969" lon="17.6996181">
        <ele>26.0929</ele>
        <time>2012-05-20T08:13:06Z</time>
      </trkpt>
      <trkpt lat="59.9590577" lon="17.6987118">
        <ele>26.5736</ele>
        <time>2012-05-20T08:13:13Z</time>
      </trkpt>
      <trkpt lat="59.9590087" lon="17.697765">
        <ele>26.0929</ele>
        <time>2012-05-20T08:13:20Z</time>
      </trkpt>
      <trkpt lat="59.9588943" lon="17.697036">
        <ele>25.1317</ele>
        <time>2012-05-20T08:13:25Z</time>
      </trkpt>
      <trkpt lat="59.9586753" lon="17.6962308">
        <ele>25.1317</ele>
        <time>2012-05-20T08:13:31Z</time>
      </trkpt>
      <trkpt lat="59.9582701" lon="17.6951922">
        <ele>24.651</ele>
        <time>2012-05-20T08:13:40Z</time>
      </trkpt>
      <trkpt lat="59.9578268" lon="17.6939547">
        <ele>24.1703</ele>
        <time>2012-05-20T08:13:51Z</time>
      </trkpt>
      <trkpt lat="59.9574771" lon="17.6929549">
        <ele>23.209</ele>
        <time>2012-05-20T08:14:00Z</time>
      </trkpt>
      <trkpt lat="59.9571258" lon="17.6919718">
        <ele>23.209</ele>
        <time>2012-05-20T08:14:09Z</time>
      </trkpt>
      <trkpt lat="59.956951" lon="17.6916241">
        <ele>23.6896</ele>
        <time>2012-05-20T08:14:13Z</time>
      </trkpt>
      <trkpt lat="59.9567829" lon="17.6913373">
        <ele>23.6896</ele>
        <time>2012-05-20T08:14:17Z</time>
      </trkpt>
      <trkpt lat="59.9565076" lon="17.690623">
        <ele>24.651</ele>
        <time>2012-05-20T08:14:26Z</time>
      </trkpt>
      <trkpt lat="59.9562838" lon="17.6898647">
        <ele>25.1317</ele>
        <time>2012-05-20T08:14:35Z</time>
      </trkpt>
      <trkpt lat="59.9561245" lon="17.6890254">
        <ele>24.651</ele>
        <time>2012-05-20T08:14:43Z</time>
      </trkpt>
      <trkpt lat="59.9561038" lon="17.6889172">
        <ele>24.651</ele>
        <time>2012-05-20T08:14:44Z</time>
      </trkpt>
      <trkpt lat="59.9559753" lon="17.6880238">
        <ele>24.1703</ele>
        <time>2012-05-20T08:14:51Z</time>
      </trkpt>
      <trkpt lat="59.9558038" lon="17.6868918">
        <ele>23.6896</ele>
        <time>2012-05-20T08:14:59Z</time>
      </trkpt>
      <trkpt lat="59.9555993" lon="17.6854739">
        <ele>23.209</ele>
        <time>2012-05-20T08:15:09Z</time>
      </trkpt>
      <trkpt lat="59.9553961" lon="17.6841982">
        <ele>22.7283</ele>
        <time>2012-05-20T08:15:18Z</time>
      </trkpt>
      <trkpt lat="59.9551278" lon="17.6829871">
        <ele>22.7283</ele>
        <time>2012-05-20T08:15:27Z</time>
      </trkpt>
      <trkpt lat="59.9548753" lon="17.6821464">
        <ele>22.7283</ele>
        <time>2012-05-20T08:15:34Z</time>
      </trkpt>
      <trkpt lat="59.9547222" lon="17.6818705">
        <ele>23.209</ele>
        <time>2012-05-20T08:15:37Z</time>
      </trkpt>
      <trkpt lat="59.9544763" lon="17.6812311">
        <ele>23.209</ele>
        <time>2012-05-20T08:15:43Z</time>
      </trkpt>
      <trkpt lat="59.95413" lon="17.6801856">
        <ele>22.7283</ele>
        <time>2012-05-20T08:15:52Z</time>
      </trkpt>
      <trkpt lat="59.9537909" lon="17.6791704">
        <ele>22.7283</ele>
        <time>2012-05-20T08:16:01Z</time>
      </trkpt>
      <trkpt lat="59.9535099" lon="17.6783367">
        <ele>23.209</ele>
        <time>2012-05-20T08:16:09Z</time>
      </trkpt>
      <trkpt lat="59.9531698" lon="17.677346">
        <ele>23.6896</ele>
        <time>2012-05-20T08:16:19Z</time>
      </trkpt>
      <trkpt lat="59.9528326" lon="17.6765071">
        <ele>24.651</ele>
        <time>2012-05-20T08:16:28Z</time>
      </trkpt>
      <trkpt lat="59.952565" lon="17.6757627">
        <ele>26.0929</ele>
        <time>2012-05-20T08:16:36Z</time>
      </trkpt>
      <trkpt lat="59.9523604" lon="17.6752267">
        <ele>27.5349</ele>
        <time>2012-05-20T08:16:43Z</time>
      </trkpt>
      <trkpt lat="59.9522487" lon="17.6746671">
        <ele>27.5349</ele>
        <time>2012-05-20T08:16:49Z</time>
      </trkpt>
      <trkpt lat="59.9521074" lon="17.6739505">
        <ele>26.0929</ele>
        <time>2012-05-20T08:16:55Z</time>
      </trkpt>
      <trkpt lat="59.9519253" lon="17.6728232">
        <ele>23.6896</ele>
        <time>2012-05-20T08:17:04Z</time>
      </trkpt>
      <trkpt lat="59.9518359" lon="17.6720316">
        <ele>22.7283</ele>
        <time>2012-05-20T08:17:10Z</time>
      </trkpt>
      <trkpt lat="59.9518172" lon="17.6714878">
        <ele>22.2476</ele>
        <time>2012-05-20T08:17:14Z</time>
      </trkpt>
      <trkpt lat="59.9517549" lon="17.6710604">
        <ele>21.2864</ele>
        <time>2012-05-20T08:17:17Z</time>
      </trkpt>
      <trkpt lat="59.9517555" lon="17.6704068">
        <ele>20.325</ele>
        <time>2012-05-20T08:17:21Z</time>
      </trkpt>
      <trkpt lat="59.9518219" lon="17.6693062">
        <ele>19.8444</ele>
        <time>2012-05-20T08:17:28Z</time>
      </trkpt>
      <trkpt lat="59.9518271" lon="17.6688851">
        <ele>19.8444</ele>
        <time>2012-05-20T08:17:31Z</time>
      </trkpt>
      <trkpt lat="59.9516893" lon="17.6682223">
        <ele>18.8831</ele>
        <time>2012-05-20T08:17:36Z</time>
      </trkpt>
      <trkpt lat="59.9514997" lon="17.6680475">
        <ele>18.8831</ele>
        <time>2012-05-20T08:17:39Z</time>
      </trkpt>
      <trkpt lat="59.9514298" lon="17.6680516">
        <ele>18.8831</ele>
        <time>2012-05-20T08:17:40Z</time>
      </trkpt>
      <trkpt lat="59.9509098" lon="17.6682025">
        <ele>19.8444</ele>
        <time>2012-05-20T08:17:48Z</time>
      </trkpt>
      <trkpt lat="59.9504407" lon="17.6682668">
        <ele>20.325</ele>
        <time>2012-05-20T08:17:56Z</time>
      </trkpt>
      <trkpt lat="59.950004" lon="17.6681902">
        <ele>20.8057</ele>
        <time>2012-05-20T08:18:04Z</time>
      </trkpt>
      <trkpt lat="59.9495609" lon="17.6679944">
        <ele>21.2864</ele>
        <time>2012-05-20T08:18:12Z</time>
      </trkpt>
      <trkpt lat="59.9489369" lon="17.6676419">
        <ele>21.767</ele>
        <time>2012-05-20T08:18:24Z</time>
      </trkpt>
      <trkpt lat="59.9483011" lon="17.6672856">
        <ele>22.7283</ele>
        <time>2012-05-20T08:18:37Z</time>
      </trkpt>
      <trkpt lat="59.9477677" lon="17.6669997">
        <ele>23.209</ele>
        <time>2012-05-20T08:18:48Z</time>
      </trkpt>
      <trkpt lat="59.9472215" lon="17.6667335">
        <ele>24.1703</ele>
        <time>2012-05-20T08:18:59Z</time>
      </trkpt>
      <trkpt lat="59.9466685" lon="17.6665211">
        <ele>24.651</ele>
        <time>2012-05-20T08:19:10Z</time>
      </trkpt>
      <trkpt lat="59.9465659" lon="17.6665164">
        <ele>24.651</ele>
        <time>2012-05-20T08:19:12Z</time>
      </trkpt>
      <trkpt lat="59.9463656" lon="17.6664417">
        <ele>24.651</ele>
        <time>2012-05-20T08:19:16Z</time>
      </trkpt>
      <trkpt lat="59.9462212" lon="17.6663299">
        <ele>24.651</ele>
        <time>2012-05-20T08:19:19Z</time>
      </trkpt>
      <trkpt lat="59.9458218" lon="17.6661652">
        <ele>25.1317</ele>
        <time>2012-05-20T08:19:27Z</time>
      </trkpt>
      <trkpt lat="59.9451618" lon="17.6659132">
        <ele>25.6123</ele>
        <time>2012-05-20T08:19:40Z</time>
      </trkpt>
      <trkpt lat="59.944648" lon="17.6657187">
        <ele>26.0929</ele>
        <time>2012-05-20T08:19:50Z</time>
      </trkpt>
      <trkpt lat="59.9441356" lon="17.665513">
        <ele>26.5736</ele>
        <time>2012-05-20T08:20:00Z</time>
      </trkpt>
      <trkpt lat="59.9435358" lon="17.6651601">
        <ele>28.0155</ele>
        <time>2012-05-20T08:20:12Z</time>
      </trkpt>
      <trkpt lat="59.9430121" lon="17.6647261">
        <ele>28.9769</ele>
        <time>2012-05-20T08:20:23Z</time>
      </trkpt>
      <trkpt lat="59.9425279" lon="17.6641986">
        <ele>29.9381</ele>
        <time>2012-05-20T08:20:34Z</time>
      </trkpt>
      <trkpt lat="59.942125" lon="17.6636529">
        <ele>30.4188</ele>
        <time>2012-05-20T08:20:44Z</time>
      </trkpt>
      <trkpt lat="59.9417724" lon="17.6630718">
        <ele>29.9381</ele>
        <time>2012-05-20T08:20:53Z</time>
      </trkpt>
      <trkpt lat="59.941438" lon="17.6625101">
        <ele>30.4188</ele>
        <time>2012-05-20T08:21:01Z</time>
      </trkpt>
      <trkpt lat="59.9411243" lon="17.6622231">
        <ele>30.4188</ele>
        <time>2012-05-20T08:21:07Z</time>
      </trkpt>
      <trkpt lat="59.9407223" lon="17.6620865">
        <ele>30.4188</ele>
        <time>2012-05-20T08:21:14Z</time>
      </trkpt>
      <trkpt lat="59.9405022" lon="17.6618807">
        <ele>29.9381</ele>
        <time>2012-05-20T08:21:18Z</time>
      </trkpt>
      <trkpt lat="59.940417" lon="17.6615197">
        <ele>29.4575</ele>
        <time>2012-05-20T08:21:21Z</time>
      </trkpt>
      <trkpt lat="59.9404085" lon="17.661386">
        <ele>29.4575</ele>
        <time>2012-05-20T08:21:22Z</time>
      </trkpt>
      <trkpt lat="59.9404805" lon="17.660729">
        <ele>28.4962</ele>
        <time>2012-05-20T08:21:27Z</time>
      </trkpt>
      <trkpt lat="59.9405293" lon="17.6602402">
        <ele>28.9769</ele>
        <time>2012-05-20T08:21:31Z</time>
      </trkpt>
      <trkpt lat="59.9404821" lon="17.6600198">
        <ele>28.9769</ele>
        <time>2012-05-20T08:21:33Z</time>
      </trkpt>
      <trkpt lat="59.940383" lon="17.6594829">
        <ele>29.4575</ele>
        <time>2012-05-20T08:21:38Z</time>
      </trkpt>
      <trkpt lat="59.9402341" lon="17.6587094">
        <ele>28.4962</ele>
        <time>2012-05-20T08:21:44Z</time>
      </trkpt>
      <trkpt lat="59.9399738" lon="17.6575425">
        <ele>29.9381</ele>
        <time>2012-05-20T08:21:54Z</time>
      </trkpt>
      <trkpt lat="59.9397538" lon="17.65647">
        <ele>30.8995</ele>
        <time>2012-05-20T08:22:04Z</time>
      </trkpt>
      <trkpt lat="59.9395407" lon="17.655404">
        <ele>31.3801</ele>
        <time>2012-05-20T08:22:14Z</time>
      </trkpt>
      <trkpt lat="59.9393005" lon="17.6542361">
        <ele>31.8607</ele>
        <time>2012-05-20T08:22:25Z</time>
      </trkpt>
      <trkpt lat="59.9390301" lon="17.6530107">
        <ele>32.3416</ele>
        <time>2012-05-20T08:22:36Z</time>
      </trkpt>
      <trkpt lat="59.9387689" lon="17.6520468">
        <ele>31.3801</ele>
        <time>2012-05-20T08:22:45Z</time>
      </trkpt>
      <trkpt lat="59.9384758" lon="17.6511102">
        <ele>31.3801</ele>
        <time>2012-05-20T08:22:54Z</time>
      </trkpt>
      <trkpt lat="59.9381799" lon="17.6504248">
        <ele>30.8995</ele>
        <time>2012-05-20T08:23:01Z</time>
      </trkpt>
      <trkpt lat="59.937835" lon="17.6495229">
        <ele>30.8995</ele>
        <time>2012-05-20T08:23:10Z</time>
      </trkpt>
      <trkpt lat="59.9376456" lon="17.6490698">
        <ele>31.3801</ele>
        <time>2012-05-20T08:23:15Z</time>
      </trkpt>
      <trkpt lat="59.9373425" lon="17.6485735">
        <ele>31.8607</ele>
        <time>2012-05-20T08:23:22Z</time>
      </trkpt>
      <trkpt lat="59.9371651" lon="17.6481638">
        <ele>32.3416</ele>
        <time>2012-05-20T08:23:27Z</time>
      </trkpt>
      <trkpt lat="59.9371155" lon="17.6480985">
        <ele>32.3416</ele>
        <time>2012-05-20T08:23:28Z</time>
      </trkpt>
      <trkpt lat="59.936581" lon="17.6474293">
        <ele>33.3029</ele>
        <time>2012-05-20T08:23:38Z</time>
      </trkpt>
      <trkpt lat="59.9358977" lon="17.6465715">
        <ele>33.3029</ele>
        <time>2012-05-20T08:23:50Z</time>
      </trkpt>
      <trkpt lat="59.9352115" lon="17.6456819">
        <ele>33.3029</ele>
        <time>2012-05-20T08:24:02Z</time>
      </trkpt>
      <trkpt lat="59.9348245" lon="17.6451733">
        <ele>33.3029</ele>
        <time>2012-05-20T08:24:09Z</time>
      </trkpt>
      <trkpt lat="59.9344317" lon="17.6446379">
        <ele>31.8607</ele>
        <time>2012-05-20T08:24:16Z</time>
      </trkpt>
      <trkpt lat="59.934119" lon="17.6441757">
        <ele>30.4188</ele>
        <time>2012-05-20T08:24:21Z</time>
      </trkpt>
      <trkpt lat="59.9336402" lon="17.6436619">
        <ele>28.9769</ele>
        <time>2012-05-20T08:24:28Z</time>
      </trkpt>
      <trkpt lat="59.9332298" lon="17.6430935">
        <ele>26.5736</ele>
        <time>2012-05-20T08:24:34Z</time>
      </trkpt>
      <trkpt lat="59.9329244" lon="17.6426677">
        <ele>25.1317</ele>
        <time>2012-05-20T08:24:38Z</time>
      </trkpt>
      <trkpt lat="59.9326472" lon="17.6422181">
        <ele>24.1703</ele>
        <time>2012-05-20T08:24:42Z</time>
      </trkpt>
      <trkpt lat="59.9321381" lon="17.6417126">
        <ele>24.1703</ele>
        <time>2012-05-20T08:24:49Z</time>
      </trkpt>
      <trkpt lat="59.9318029" lon="17.6414493">
        <ele>23.6896</ele>
        <time>2012-05-20T08:24:54Z</time>
      </trkpt>
      <trkpt lat="59.9312522" lon="17.6410536">
        <ele>22.7283</ele>
        <time>2012-05-20T08:25:02Z</time>
      </trkpt>
      <trkpt lat="59.9309543" lon="17.6408444">
        <ele>21.2864</ele>
        <time>2012-05-20T08:25:06Z</time>
      </trkpt>
      <trkpt lat="59.9306523" lon="17.6407869">
        <ele>21.2864</ele>
        <time>2012-05-20T08:25:10Z</time>
      </trkpt>
      <trkpt lat="59.9301375" lon="17.6408128">
        <ele>19.8444</ele>
        <time>2012-05-20T08:25:17Z</time>
      </trkpt>
      <trkpt lat="59.9296514" lon="17.6408374">
        <ele>19.8444</ele>
        <time>2012-05-20T08:25:24Z</time>
      </trkpt>
      <trkpt lat="59.9291223" lon="17.640903">
        <ele>19.3638</ele>
        <time>2012-05-20T08:25:32Z</time>
      </trkpt>
      <trkpt lat="59.9286227" lon="17.6409889">
        <ele>19.3638</ele>
        <time>2012-05-20T08:25:40Z</time>
      </trkpt>
      <trkpt lat="59.9281959" lon="17.6410479">
        <ele>19.3638</ele>
        <time>2012-05-20T08:25:47Z</time>
      </trkpt>
      <trkpt lat="59.9274773" lon="17.6411349">
        <ele>19.3638</ele>
        <time>2012-05-20T08:25:59Z</time>
      </trkpt>
      <trkpt lat="59.9268958" lon="17.6411769">
        <ele>19.3638</ele>
        <time>2012-05-20T08:26:09Z</time>
      </trkpt>
      <trkpt lat="59.9261839" lon="17.6412663">
        <ele>19.8444</ele>
        <time>2012-05-20T08:26:21Z</time>
      </trkpt>
      <trkpt lat="59.9256791" lon="17.6413415">
        <ele>20.325</ele>
        <time>2012-05-20T08:26:30Z</time>
      </trkpt>
      <trkpt lat="59.9251056" lon="17.641383">
        <ele>20.8057</ele>
        <time>2012-05-20T08:26:41Z</time>
      </trkpt>
      <trkpt lat="59.9245946" lon="17.6414608">
        <ele>21.767</ele>
        <time>2012-05-20T08:26:51Z</time>
      </trkpt>
      <trkpt lat="59.9242273" lon="17.6415033">
        <ele>21.767</ele>
        <time>2012-05-20T08:26:58Z</time>
      </trkpt>
      <trkpt lat="59.9237411" lon="17.6415547">
        <ele>22.7283</ele>
        <time>2012-05-20T08:27:07Z</time>
      </trkpt>
      <trkpt lat="59.9232943" lon="17.6416209">
        <ele>23.6896</ele>
        <time>2012-05-20T08:27:16Z</time>
      </trkpt>
      <trkpt lat="59.9227962" lon="17.6416835">
        <ele>25.1317</ele>
        <time>2012-05-20T08:27:27Z</time>
      </trkpt>
      <trkpt lat="59.9224146" lon="17.641745">
        <ele>25.6123</ele>
        <time>2012-05-20T08:27:35Z</time>
      </trkpt>
      <trkpt lat="59.92188" lon="17.6418139">
        <ele>26.5736</ele>
        <time>2012-05-20T08:27:46Z</time>
      </trkpt>
      <trkpt lat="59.9214896" lon="17.6418672">
        <ele>27.0543</ele>
        <time>2012-05-20T08:27:54Z</time>
      </trkpt>
      <trkpt lat="59.9211552" lon="17.6419036">
        <ele>25.6123</ele>
        <time>2012-05-20T08:28:00Z</time>
      </trkpt>
      <trkpt lat="59.9206489" lon="17.6418971">
        <ele>24.1703</ele>
        <time>2012-05-20T08:28:08Z</time>
      </trkpt>
      <trkpt lat="59.9200995" lon="17.6419138">
        <ele>24.651</ele>
        <time>2012-05-20T08:28:17Z</time>
      </trkpt>
      <trkpt lat="59.9196251" lon="17.642005">
        <ele>25.1317</ele>
        <time>2012-05-20T08:28:25Z</time>
      </trkpt>
      <trkpt lat="59.919112" lon="17.6420524">
        <ele>25.6123</ele>
        <time>2012-05-20T08:28:34Z</time>
      </trkpt>
      <trkpt lat="59.9186227" lon="17.6421202">
        <ele>25.6123</ele>
        <time>2012-05-20T08:28:42Z</time>
      </trkpt>
      <trkpt lat="59.9180189" lon="17.6421866">
        <ele>23.6896</ele>
        <time>2012-05-20T08:28:51Z</time>
      </trkpt>
      <trkpt lat="59.9173955" lon="17.6422167">
        <ele>22.7283</ele>
        <time>2012-05-20T08:29:00Z</time>
      </trkpt>
      <trkpt lat="59.9172586" lon="17.6422135">
        <ele>22.7283</ele>
        <time>2012-05-20T08:29:02Z</time>
      </trkpt>
      <trkpt lat="59.9168672" lon="17.6423014">
        <ele>23.6896</ele>
        <time>2012-05-20T08:29:08Z</time>
      </trkpt>
      <trkpt lat="59.9163267" lon="17.6423782">
        <ele>24.651</ele>
        <time>2012-05-20T08:29:17Z</time>
      </trkpt>
      <trkpt lat="59.9157588" lon="17.6423948">
        <ele>23.6896</ele>
        <time>2012-05-20T08:29:26Z</time>
      </trkpt>
      <trkpt lat="59.9153095" lon="17.6425004">
        <ele>24.1703</ele>
        <time>2012-05-20T08:29:33Z</time>
      </trkpt>
      <trkpt lat="59.9151562" lon="17.64261">
        <ele>25.1317</ele>
        <time>2012-05-20T08:29:36Z</time>
      </trkpt>
      <trkpt lat="59.9148166" lon="17.6426888">
        <ele>26.0929</ele>
        <time>2012-05-20T08:29:43Z</time>
      </trkpt>
      <trkpt lat="59.9142843" lon="17.6427878">
        <ele>27.0543</ele>
        <time>2012-05-20T08:29:54Z</time>
      </trkpt>
      <trkpt lat="59.9138466" lon="17.6428765">
        <ele>27.5349</ele>
        <time>2012-05-20T08:30:03Z</time>
      </trkpt>
      <trkpt lat="59.913434" lon="17.6429567">
        <ele>28.0155</ele>
        <time>2012-05-20T08:30:11Z</time>
      </trkpt>
      <trkpt lat="59.9131647" lon="17.6430077">
        <ele>28.4962</ele>
        <time>2012-05-20T08:30:16Z</time>
      </trkpt>
      <trkpt lat="59.9128383" lon="17.6430749">
        <ele>28.4962</ele>
        <time>2012-05-20T08:30:22Z</time>
      </trkpt>
      <trkpt lat="59.9125925" lon="17.6430129">
        <ele>27.5349</ele>
        <time>2012-05-20T08:30:26Z</time>
      </trkpt>
      <trkpt lat="59.9121299" lon="17.6430678">
        <ele>27.5349</ele>
        <time>2012-05-20T08:30:33Z</time>
      </trkpt>
      <trkpt lat="59.9117863" lon="17.6431702">
        <ele>27.5349</ele>
        <time>2012-05-20T08:30:39Z</time>
      </trkpt>
      <trkpt lat="59.9112493" lon="17.6432781">
        <ele>28.4962</ele>
        <time>2012-05-20T08:30:48Z</time>
      </trkpt>
      <trkpt lat="59.9106915" lon="17.6433825">
        <ele>27.5349</ele>
        <time>2012-05-20T08:30:57Z</time>
      </trkpt>
      <trkpt lat="59.9103175" lon="17.643535">
        <ele>28.0155</ele>
        <time>2012-05-20T08:31:03Z</time>
      </trkpt>
      <trkpt lat="59.9100656" lon="17.6435432">
        <ele>27.0543</ele>
        <time>2012-05-20T08:31:07Z</time>
      </trkpt>
      <trkpt lat="59.9098501" lon="17.6434722">
        <ele>26.0929</ele>
        <time>2012-05-20T08:31:10Z</time>
      </trkpt>
      <trkpt lat="59.9093906" lon="17.6435394">
        <ele>25.6123</ele>
        <time>2012-05-20T08:31:16Z</time>
      </trkpt>
      <trkpt lat="59.9085928" lon="17.6436329">
        <ele>26.0929</ele>
        <time>2012-05-20T08:31:27Z</time>
      </trkpt>
      <trkpt lat="59.9084002" lon="17.6436507">
        <ele>26.5736</ele>
        <time>2012-05-20T08:31:30Z</time>
      </trkpt>
      <trkpt lat="59.9081215" lon="17.6437562">
        <ele>26.5736</ele>
        <time>2012-05-20T08:31:35Z</time>
      </trkpt>
      <trkpt lat="59.907445" lon="17.6436519">
        <ele>25.6123</ele>
        <time>2012-05-20T08:31:46Z</time>
      </trkpt>
      <trkpt lat="59.9067892" lon="17.6435033">
        <ele>24.651</ele>
        <time>2012-05-20T08:31:56Z</time>
      </trkpt>
      <trkpt lat="59.9064031" lon="17.6434727">
        <ele>24.1703</ele>
        <time>2012-05-20T08:32:02Z</time>
      </trkpt>
      <trkpt lat="59.9060194" lon="17.6433317">
        <ele>23.6896</ele>
        <time>2012-05-20T08:32:08Z</time>
      </trkpt>
      <trkpt lat="59.9058546" lon="17.6433489">
        <ele>23.209</ele>
        <time>2012-05-20T08:32:11Z</time>
      </trkpt>
      <trkpt lat="59.9058159" lon="17.6435441">
        <ele>22.7283</ele>
        <time>2012-05-20T08:32:13Z</time>
      </trkpt>
      <trkpt lat="59.9058559" lon="17.6437574">
        <ele>22.7283</ele>
        <time>2012-05-20T08:32:15Z</time>
      </trkpt>
      <trkpt lat="59.9060831" lon="17.6445958">
        <ele>24.1703</ele>
        <time>2012-05-20T08:32:23Z</time>
      </trkpt>
      <trkpt lat="59.9061275" lon="17.6451677">
        <ele>24.651</ele>
        <time>2012-05-20T08:32:28Z</time>
      </trkpt>
      <trkpt lat="59.9060407" lon="17.6459238">
        <ele>25.1317</ele>
        <time>2012-05-20T08:32:35Z</time>
      </trkpt>
      <trkpt lat="59.9059179" lon="17.6469991">
        <ele>25.1317</ele>
        <time>2012-05-20T08:32:45Z</time>
      </trkpt>
      <trkpt lat="59.9059127" lon="17.6474454">
        <ele>25.6123</ele>
        <time>2012-05-20T08:32:49Z</time>
      </trkpt>
      <trkpt lat="59.9060354" lon="17.6482058">
        <ele>26.0929</ele>
        <time>2012-05-20T08:32:56Z</time>
      </trkpt>
      <trkpt lat="59.9062489" lon="17.6487811">
        <ele>26.5736</ele>
        <time>2012-05-20T08:33:02Z</time>
      </trkpt>
      <trkpt lat="59.906481" lon="17.6494846">
        <ele>27.5349</ele>
        <time>2012-05-20T08:33:09Z</time>
      </trkpt>
      <trkpt lat="59.9066642" lon="17.6502639">
        <ele>28.9769</ele>
        <time>2012-05-20T08:33:17Z</time>
      </trkpt>
      <trkpt lat="59.906956" lon="17.6515417">
        <ele>29.9381</ele>
        <time>2012-05-20T08:33:30Z</time>
      </trkpt>
      <trkpt lat="59.9070632" lon="17.6524183">
        <ele>30.4188</ele>
        <time>2012-05-20T08:33:38Z</time>
      </trkpt>
      <trkpt lat="59.9070563" lon="17.6532118">
        <ele>30.4188</ele>
        <time>2012-05-20T08:33:45Z</time>
      </trkpt>
      <trkpt lat="59.9070182" lon="17.6544857">
        <ele>30.4188</ele>
        <time>2012-05-20T08:33:56Z</time>
      </trkpt>
      <trkpt lat="59.9070088" lon="17.6556175">
        <ele>31.3801</ele>
        <time>2012-05-20T08:34:06Z</time>
      </trkpt>
      <trkpt lat="59.9070361" lon="17.6565235">
        <ele>33.3029</ele>
        <time>2012-05-20T08:34:15Z</time>
      </trkpt>
      <trkpt lat="59.9071301" lon="17.6573348">
        <ele>33.3029</ele>
        <time>2012-05-20T08:34:23Z</time>
      </trkpt>
      <trkpt lat="59.9072883" lon="17.658323">
        <ele>34.2642</ele>
        <time>2012-05-20T08:34:32Z</time>
      </trkpt>
      <trkpt lat="59.9073891" lon="17.6591771">
        <ele>35.2255</ele>
        <time>2012-05-20T08:34:40Z</time>
      </trkpt>
      <trkpt lat="59.9075038" lon="17.6601915">
        <ele>35.7061</ele>
        <time>2012-05-20T08:34:49Z</time>
      </trkpt>
      <trkpt lat="59.907624" lon="17.660941">
        <ele>36.6675</ele>
        <time>2012-05-20T08:34:56Z</time>
      </trkpt>
      <trkpt lat="59.907696" lon="17.6616514">
        <ele>37.1481</ele>
        <time>2012-05-20T08:35:02Z</time>
      </trkpt>
      <trkpt lat="59.9077772" lon="17.6624992">
        <ele>36.6675</ele>
        <time>2012-05-20T08:35:09Z</time>
      </trkpt>
      <trkpt lat="59.9079246" lon="17.6637395">
        <ele>37.6287</ele>
        <time>2012-05-20T08:35:20Z</time>
      </trkpt>
      <trkpt lat="59.9079678" lon="17.6644673">
        <ele>38.5901</ele>
        <time>2012-05-20T08:35:26Z</time>
      </trkpt>
      <trkpt lat="59.9078957" lon="17.6652707">
        <ele>38.1094</ele>
        <time>2012-05-20T08:35:33Z</time>
      </trkpt>
      <trkpt lat="59.907806" lon="17.6659678">
        <ele>38.1094</ele>
        <time>2012-05-20T08:35:39Z</time>
      </trkpt>
      <trkpt lat="59.9077559" lon="17.6665571">
        <ele>38.1094</ele>
        <time>2012-05-20T08:35:44Z</time>
      </trkpt>
      <trkpt lat="59.907711" lon="17.6674381">
        <ele>38.1094</ele>
        <time>2012-05-20T08:35:51Z</time>
      </trkpt>
      <trkpt lat="59.9077019" lon="17.6675726">
        <ele>38.1094</ele>
        <time>2012-05-20T08:35:52Z</time>
      </trkpt>
      <trkpt lat="59.907603" lon="17.6680501">
        <ele>37.1481</ele>
        <time>2012-05-20T08:35:56Z</time>
      </trkpt>
      <trkpt lat="59.9074282" lon="17.6682205">
        <ele>36.6675</ele>
        <time>2012-05-20T08:35:59Z</time>
      </trkpt>
      <trkpt lat="59.9073658" lon="17.6682388">
        <ele>36.6675</ele>
        <time>2012-05-20T08:36:00Z</time>
      </trkpt>
      <trkpt lat="59.9068698" lon="17.6683966">
        <ele>36.6675</ele>
        <time>2012-05-20T08:36:08Z</time>
      </trkpt>
      <trkpt lat="59.9064758" lon="17.6684994">
        <ele>35.2255</ele>
        <time>2012-05-20T08:36:15Z</time>
      </trkpt>
      <trkpt lat="59.9060913" lon="17.6684143">
        <ele>33.7834</ele>
        <time>2012-05-20T08:36:21Z</time>
      </trkpt>
      <trkpt lat="59.9055194" lon="17.6681772">
        <ele>32.8223</ele>
        <time>2012-05-20T08:36:29Z</time>
      </trkpt>
      <trkpt lat="59.9049698" lon="17.6678601">
        <ele>34.2642</ele>
        <time>2012-05-20T08:36:37Z</time>
      </trkpt>
      <trkpt lat="59.9048428" lon="17.667802">
        <ele>34.7449</ele>
        <time>2012-05-20T08:36:39Z</time>
      </trkpt>
      <trkpt lat="59.9044522" lon="17.6678105">
        <ele>36.1868</ele>
        <time>2012-05-20T08:36:46Z</time>
      </trkpt>
      <trkpt lat="59.9041686" lon="17.6679037">
        <ele>38.5901</ele>
        <time>2012-05-20T08:36:52Z</time>
      </trkpt>
      <trkpt lat="59.9040364" lon="17.6680322">
        <ele>39.0707</ele>
        <time>2012-05-20T08:36:55Z</time>
      </trkpt>
      <trkpt lat="59.9037887" lon="17.6685232">
        <ele>38.5901</ele>
        <time>2012-05-20T08:37:01Z</time>
      </trkpt>
      <trkpt lat="59.9035682" lon="17.6691697">
        <ele>38.5901</ele>
        <time>2012-05-20T08:37:07Z</time>
      </trkpt>
      <trkpt lat="59.903425" lon="17.6697172">
        <ele>38.5901</ele>
        <time>2012-05-20T08:37:12Z</time>
      </trkpt>
      <trkpt lat="59.9032627" lon="17.6698819">
        <ele>37.6287</ele>
        <time>2012-05-20T08:37:15Z</time>
      </trkpt>
      <trkpt lat="59.9030868" lon="17.66984">
        <ele>36.6675</ele>
        <time>2012-05-20T08:37:18Z</time>
      </trkpt>
      <trkpt lat="59.9027788" lon="17.6697835">
        <ele>36.6675</ele>
        <time>2012-05-20T08:37:24Z</time>
      </trkpt>
      <trkpt lat="59.9027218" lon="17.6698072">
        <ele>36.6675</ele>
        <time>2012-05-20T08:37:25Z</time>
      </trkpt>
      <trkpt lat="59.902326" lon="17.6699289">
        <ele>36.6675</ele>
        <time>2012-05-20T08:37:31Z</time>
      </trkpt>
      <trkpt lat="59.9020649" lon="17.6698261">
        <ele>36.1868</ele>
        <time>2012-05-20T08:37:35Z</time>
      </trkpt>
      <trkpt lat="59.901719" lon="17.6695773">
        <ele>36.1868</ele>
        <time>2012-05-20T08:37:41Z</time>
      </trkpt>
      <trkpt lat="59.9015973" lon="17.6695291">
        <ele>35.7061</ele>
        <time>2012-05-20T08:37:43Z</time>
      </trkpt>
      <trkpt lat="59.9012097" lon="17.6695525">
        <ele>34.7449</ele>
        <time>2012-05-20T08:37:49Z</time>
      </trkpt>
      <trkpt lat="59.9009392" lon="17.669616">
        <ele>35.2255</ele>
        <time>2012-05-20T08:37:54Z</time>
      </trkpt>
      <trkpt lat="59.9006298" lon="17.6696914">
        <ele>35.2255</ele>
        <time>2012-05-20T08:37:59Z</time>
      </trkpt>
      <trkpt lat="59.9001157" lon="17.6698501">
        <ele>35.2255</ele>
        <time>2012-05-20T08:38:06Z</time>
      </trkpt>
      <trkpt lat="59.899763" lon="17.6699882">
        <ele>35.2255</ele>
        <time>2012-05-20T08:38:12Z</time>
      </trkpt>
      <trkpt lat="59.8995184" lon="17.6701265">
        <ele>34.7449</ele>
        <time>2012-05-20T08:38:16Z</time>
      </trkpt>
      <trkpt lat="59.8992589" lon="17.670632">
        <ele>33.7834</ele>
        <time>2012-05-20T08:38:21Z</time>
      </trkpt>
      <trkpt lat="59.8992049" lon="17.6710032">
        <ele>32.3416</ele>
        <time>2012-05-20T08:38:24Z</time>
      </trkpt>
      <trkpt lat="59.8992256" lon="17.6716049">
        <ele>31.8607</ele>
        <time>2012-05-20T08:38:28Z</time>
      </trkpt>
      <trkpt lat="59.8992522" lon="17.6720387">
        <ele>31.8607</ele>
        <time>2012-05-20T08:38:31Z</time>
      </trkpt>
      <trkpt lat="59.8991709" lon="17.6726534">
        <ele>33.3029</ele>
        <time>2012-05-20T08:38:36Z</time>
      </trkpt>
      <trkpt lat="59.8990756" lon="17.6731932">
        <ele>35.7061</ele>
        <time>2012-05-20T08:38:41Z</time>
      </trkpt>
      <trkpt lat="59.8990443" lon="17.6738754">
        <ele>34.2642</ele>
        <time>2012-05-20T08:38:47Z</time>
      </trkpt>
      <trkpt lat="59.8988978" lon="17.6743366">
        <ele>35.2255</ele>
        <time>2012-05-20T08:38:51Z</time>
      </trkpt>
      <trkpt lat="59.8988533" lon="17.6744165">
        <ele>34.7449</ele>
        <time>2012-05-20T08:38:52Z</time>
      </trkpt>
      <trkpt lat="59.8985829" lon="17.6747797">
        <ele>33.3029</ele>
        <time>2012-05-20T08:38:57Z</time>
      </trkpt>
      <trkpt lat="59.8984088" lon="17.6752923">
        <ele>33.3029</ele>
        <time>2012-05-20T08:39:01Z</time>
      </trkpt>
      <trkpt lat="59.8983885" lon="17.6754397">
        <ele>33.3029</ele>
        <time>2012-05-20T08:39:02Z</time>
      </trkpt>
      <trkpt lat="59.8983507" lon="17.6760512">
        <ele>31.3801</ele>
        <time>2012-05-20T08:39:06Z</time>
      </trkpt>
      <trkpt lat="59.8982323" lon="17.6772877">
        <ele>29.4575</ele>
        <time>2012-05-20T08:39:14Z</time>
      </trkpt>
      <trkpt lat="59.8980669" lon="17.6780851">
        <ele>28.9769</ele>
        <time>2012-05-20T08:39:20Z</time>
      </trkpt>
      <trkpt lat="59.8978442" lon="17.6787496">
        <ele>28.9769</ele>
        <time>2012-05-20T08:39:26Z</time>
      </trkpt>
      <trkpt lat="59.8974301" lon="17.6798422">
        <ele>28.9769</ele>
        <time>2012-05-20T08:39:37Z</time>
      </trkpt>
      <trkpt lat="59.8970506" lon="17.6808327">
        <ele>28.9769</ele>
        <time>2012-05-20T08:39:47Z</time>
      </trkpt>
      <trkpt lat="59.8968767" lon="17.6812227">
        <ele>29.4575</ele>
        <time>2012-05-20T08:39:51Z</time>
      </trkpt>
      <trkpt lat="59.8964718" lon="17.6818573">
        <ele>30.8995</ele>
        <time>2012-05-20T08:39:59Z</time>
      </trkpt>
      <trkpt lat="59.8961042" lon="17.6822919">
        <ele>31.3801</ele>
        <time>2012-05-20T08:40:06Z</time>
      </trkpt>
      <trkpt lat="59.8957655" lon="17.6825719">
        <ele>31.3801</ele>
        <time>2012-05-20T08:40:13Z</time>
      </trkpt>
      <trkpt lat="59.8954382" lon="17.682862">
        <ele>29.9381</ele>
        <time>2012-05-20T08:40:19Z</time>
      </trkpt>
      <trkpt lat="59.8952018" lon="17.6831848">
        <ele>29.9381</ele>
        <time>2012-05-20T08:40:24Z</time>
      </trkpt>
      <trkpt lat="59.895106" lon="17.6833195">
        <ele>29.4575</ele>
        <time>2012-05-20T08:40:26Z</time>
      </trkpt>
      <trkpt lat="59.8949049" lon="17.6838008">
        <ele>29.9381</ele>
        <time>2012-05-20T08:40:31Z</time>
      </trkpt>
      <trkpt lat="59.8948469" lon="17.6841314">
        <ele>30.8995</ele>
        <time>2012-05-20T08:40:34Z</time>
      </trkpt>
      <trkpt lat="59.8947822" lon="17.6847385">
        <ele>30.8995</ele>
        <time>2012-05-20T08:40:39Z</time>
      </trkpt>
      <trkpt lat="59.8947153" lon="17.6857719">
        <ele>31.3801</ele>
        <time>2012-05-20T08:40:47Z</time>
      </trkpt>
      <trkpt lat="59.8946143" lon="17.6867228">
        <ele>30.4188</ele>
        <time>2012-05-20T08:40:54Z</time>
      </trkpt>
      <trkpt lat="59.8944181" lon="17.6877117">
        <ele>31.3801</ele>
        <time>2012-05-20T08:41:02Z</time>
      </trkpt>
      <trkpt lat="59.8942158" lon="17.6886955">
        <ele>32.8223</ele>
        <time>2012-05-20T08:41:11Z</time>
      </trkpt>
      <trkpt lat="59.894118" lon="17.6895255">
        <ele>33.3029</ele>
        <time>2012-05-20T08:41:19Z</time>
      </trkpt>
      <trkpt lat="59.8940503" lon="17.6901057">
        <ele>34.2642</ele>
        <time>2012-05-20T08:41:25Z</time>
      </trkpt>
      <trkpt lat="59.8939745" lon="17.6906491">
        <ele>35.2255</ele>
        <time>2012-05-20T08:41:30Z</time>
      </trkpt>
      <trkpt lat="59.8938871" lon="17.6915643">
        <ele>34.7449</ele>
        <time>2012-05-20T08:41:37Z</time>
      </trkpt>
      <trkpt lat="59.8938807" lon="17.6922973">
        <ele>33.3029</ele>
        <time>2012-05-20T08:41:42Z</time>
      </trkpt>
      <trkpt lat="59.8938415" lon="17.6936223">
        <ele>32.8223</ele>
        <time>2012-05-20T08:41:51Z</time>
      </trkpt>
      <trkpt lat="59.8937907" lon="17.6953027">
        <ele>32.3416</ele>
        <time>2012-05-20T08:42:03Z</time>
      </trkpt>
      <trkpt lat="59.8937593" lon="17.6962589">
        <ele>34.2642</ele>
        <time>2012-05-20T08:42:11Z</time>
      </trkpt>
      <trkpt lat="59.8937487" lon="17.69686">
        <ele>34.7449</ele>
        <time>2012-05-20T08:42:16Z</time>
      </trkpt>
      <trkpt lat="59.8936906" lon="17.6974411">
        <ele>33.3029</ele>
        <time>2012-05-20T08:42:20Z</time>
      </trkpt>
      <trkpt lat="59.8934494" lon="17.6982953">
        <ele>32.3416</ele>
        <time>2012-05-20T08:42:27Z</time>
      </trkpt>
      <trkpt lat="59.8933117" lon="17.6985973">
        <ele>31.8607</ele>
        <time>2012-05-20T08:42:30Z</time>
      </trkpt>
      <trkpt lat="59.8932013" lon="17.6990619">
        <ele>31.3801</ele>
        <time>2012-05-20T08:42:34Z</time>
      </trkpt>
      <trkpt lat="59.8931075" lon="17.6994102">
        <ele>30.8995</ele>
        <time>2012-05-20T08:42:37Z</time>
      </trkpt>
      <trkpt lat="59.8926335" lon="17.700516">
        <ele>30.8995</ele>
        <time>2012-05-20T08:42:48Z</time>
      </trkpt>
      <trkpt lat="59.8924942" lon="17.7008392">
        <ele>30.4188</ele>
        <time>2012-05-20T08:42:52Z</time>
      </trkpt>
      <trkpt lat="59.8924548" lon="17.7009111">
        <ele>30.8995</ele>
        <time>2012-05-20T08:42:54Z</time>
      </trkpt>
      <trkpt lat="59.8924118" lon="17.701059">
        <ele>30.8995</ele>
        <time>2012-05-20T08:42:59Z</time>
      </trkpt>
      <trkpt lat="59.8924367" lon="17.7012925">
        <ele>30.8995</ele>
        <time>2012-05-20T08:43:03Z</time>
      </trkpt>
      <trkpt lat="59.8924983" lon="17.7014198">
        <ele>30.8995</ele>
        <time>2012-05-20T08:43:05Z</time>
      </trkpt>
      <trkpt lat="59.892808" lon="17.7018637">
        <ele>30.8995</ele>
        <time>2012-05-20T08:43:12Z</time>
      </trkpt>
      <trkpt lat="59.8932498" lon="17.7024395">
        <ele>30.8995</ele>
        <time>2012-05-20T08:43:20Z</time>
      </trkpt>
      <trkpt lat="59.8937409" lon="17.703103">
        <ele>30.4188</ele>
        <time>2012-05-20T08:43:28Z</time>
      </trkpt>
      <trkpt lat="59.8938515" lon="17.7033261">
        <ele>29.9381</ele>
        <time>2012-05-20T08:43:30Z</time>
      </trkpt>
      <trkpt lat="59.8942346" lon="17.7039006">
        <ele>29.4575</ele>
        <time>2012-05-20T08:43:36Z</time>
      </trkpt>
      <trkpt lat="59.8947626" lon="17.7046223">
        <ele>28.9769</ele>
        <time>2012-05-20T08:43:44Z</time>
      </trkpt>
      <trkpt lat="59.8952973" lon="17.7053805">
        <ele>28.0155</ele>
        <time>2012-05-20T08:43:52Z</time>
      </trkpt>
      <trkpt lat="59.8957228" lon="17.7058904">
        <ele>28.0155</ele>
        <time>2012-05-20T08:43:58Z</time>
      </trkpt>
      <trkpt lat="59.8963042" lon="17.7066752">
        <ele>28.0155</ele>
        <time>2012-05-20T08:44:07Z</time>
      </trkpt>
      <trkpt lat="59.8968465" lon="17.7074138">
        <ele>28.0155</ele>
        <time>2012-05-20T08:44:16Z</time>
      </trkpt>
      <trkpt lat="59.8974553" lon="17.7082611">
        <ele>27.5349</ele>
        <time>2012-05-20T08:44:26Z</time>
      </trkpt>
      <trkpt lat="59.8978411" lon="17.708746">
        <ele>27.0543</ele>
        <time>2012-05-20T08:44:32Z</time>
      </trkpt>
      <trkpt lat="59.898411" lon="17.7095053">
        <ele>28.0155</ele>
        <time>2012-05-20T08:44:41Z</time>
      </trkpt>
      <trkpt lat="59.8991228" lon="17.7104253">
        <ele>28.4962</ele>
        <time>2012-05-20T08:44:52Z</time>
      </trkpt>
      <trkpt lat="59.8998235" lon="17.7112828">
        <ele>28.9769</ele>
        <time>2012-05-20T08:45:03Z</time>
      </trkpt>
      <trkpt lat="59.9005542" lon="17.7121057">
        <ele>29.4575</ele>
        <time>2012-05-20T08:45:15Z</time>
      </trkpt>
      <trkpt lat="59.9009801" lon="17.7125738">
        <ele>29.4575</ele>
        <time>2012-05-20T08:45:23Z</time>
      </trkpt>
      <trkpt lat="59.9010687" lon="17.7128063">
        <ele>29.4575</ele>
        <time>2012-05-20T08:45:26Z</time>
      </trkpt>
      <trkpt lat="59.9010205" lon="17.7129978">
        <ele>28.9769</ele>
        <time>2012-05-20T08:45:28Z</time>
      </trkpt>
      <trkpt lat="59.9007006" lon="17.7139139">
        <ele>28.9769</ele>
        <time>2012-05-20T08:45:37Z</time>
      </trkpt>
      <trkpt lat="59.9004658" lon="17.7146326">
        <ele>29.4575</ele>
        <time>2012-05-20T08:45:44Z</time>
      </trkpt>
      <trkpt lat="59.9002362" lon="17.7155464">
        <ele>30.4188</ele>
        <time>2012-05-20T08:45:53Z</time>
      </trkpt>
      <trkpt lat="59.9001276" lon="17.7163312">
        <ele>30.4188</ele>
        <time>2012-05-20T08:46:00Z</time>
      </trkpt>
      <trkpt lat="59.9000652" lon="17.7174659">
        <ele>29.9381</ele>
        <time>2012-05-20T08:46:09Z</time>
      </trkpt>
      <trkpt lat="59.8999378" lon="17.7181718">
        <ele>30.4188</ele>
        <time>2012-05-20T08:46:15Z</time>
      </trkpt>
      <trkpt lat="59.8996747" lon="17.7190054">
        <ele>32.3416</ele>
        <time>2012-05-20T08:46:23Z</time>
      </trkpt>
      <trkpt lat="59.8994718" lon="17.7198852">
        <ele>32.8223</ele>
        <time>2012-05-20T08:46:31Z</time>
      </trkpt>
      <trkpt lat="59.8992485" lon="17.7210971">
        <ele>32.8223</ele>
        <time>2012-05-20T08:46:41Z</time>
      </trkpt>
      <trkpt lat="59.8990629" lon="17.7222328">
        <ele>32.3416</ele>
        <time>2012-05-20T08:46:50Z</time>
      </trkpt>
      <trkpt lat="59.8988532" lon="17.7236047">
        <ele>31.3801</ele>
        <time>2012-05-20T08:47:01Z</time>
      </trkpt>
      <trkpt lat="59.8986412" lon="17.7248521">
        <ele>29.4575</ele>
        <time>2012-05-20T08:47:11Z</time>
      </trkpt>
      <trkpt lat="59.898402" lon="17.7261535">
        <ele>28.4962</ele>
        <time>2012-05-20T08:47:21Z</time>
      </trkpt>
      <trkpt lat="59.8981299" lon="17.7271349">
        <ele>28.4962</ele>
        <time>2012-05-20T08:47:29Z</time>
      </trkpt>
      <trkpt lat="59.8978267" lon="17.7279673">
        <ele>28.4962</ele>
        <time>2012-05-20T08:47:37Z</time>
      </trkpt>
      <trkpt lat="59.8976696" lon="17.7286222">
        <ele>28.4962</ele>
        <time>2012-05-20T08:47:43Z</time>
      </trkpt>
      <trkpt lat="59.8974929" lon="17.729586">
        <ele>28.4962</ele>
        <time>2012-05-20T08:47:52Z</time>
      </trkpt>
      <trkpt lat="59.8974547" lon="17.7298898">
        <ele>28.9769</ele>
        <time>2012-05-20T08:47:55Z</time>
      </trkpt>
      <trkpt lat="59.8974599" lon="17.7302613">
        <ele>29.9381</ele>
        <time>2012-05-20T08:47:59Z</time>
      </trkpt>
      <trkpt lat="59.8974794" lon="17.730418">
        <ele>30.4188</ele>
        <time>2012-05-20T08:48:01Z</time>
      </trkpt>
      <trkpt lat="59.8975311" lon="17.7307191">
        <ele>30.8995</ele>
        <time>2012-05-20T08:48:05Z</time>
      </trkpt>
      <trkpt lat="59.8975458" lon="17.7308676">
        <ele>31.3801</ele>
        <time>2012-05-20T08:48:07Z</time>
      </trkpt>
      <trkpt lat="59.8975749" lon="17.7315101">
        <ele>30.8995</ele>
        <time>2012-05-20T08:48:14Z</time>
      </trkpt>
      <trkpt lat="59.8975277" lon="17.7322383">
        <ele>30.8995</ele>
        <time>2012-05-20T08:48:21Z</time>
      </trkpt>
      <trkpt lat="59.8974677" lon="17.7332476">
        <ele>30.8995</ele>
        <time>2012-05-20T08:48:30Z</time>
      </trkpt>
      <trkpt lat="59.8973519" lon="17.7340137">
        <ele>30.8995</ele>
        <time>2012-05-20T08:48:37Z</time>
      </trkpt>
      <trkpt lat="59.8971894" lon="17.7348464">
        <ele>29.9381</ele>
        <time>2012-05-20T08:48:45Z</time>
      </trkpt>
      <trkpt lat="59.8971682" lon="17.7355812">
        <ele>27.5349</ele>
        <time>2012-05-20T08:48:51Z</time>
      </trkpt>
      <trkpt lat="59.8971039" lon="17.7364764">
        <ele>26.5736</ele>
        <time>2012-05-20T08:48:58Z</time>
      </trkpt>
      <trkpt lat="59.8970823" lon="17.7365834">
        <ele>26.5736</ele>
        <time>2012-05-20T08:48:59Z</time>
      </trkpt>
      <trkpt lat="59.8968064" lon="17.7374035">
        <ele>28.4962</ele>
        <time>2012-05-20T08:49:08Z</time>
      </trkpt>
      <trkpt lat="59.8966228" lon="17.7379868">
        <ele>28.4962</ele>
        <time>2012-05-20T08:49:14Z</time>
      </trkpt>
      <trkpt lat="59.8965181" lon="17.7384628">
        <ele>28.0155</ele>
        <time>2012-05-20T08:49:18Z</time>
      </trkpt>
      <trkpt lat="59.8962911" lon="17.7388077">
        <ele>28.4962</ele>
        <time>2012-05-20T08:49:23Z</time>
      </trkpt>
      <trkpt lat="59.8962262" lon="17.7388296">
        <ele>28.4962</ele>
        <time>2012-05-20T08:49:24Z</time>
      </trkpt>
      <trkpt lat="59.895441" lon="17.7390216">
        <ele>25.1317</ele>
        <time>2012-05-20T08:49:35Z</time>
      </trkpt>
      <trkpt lat="59.8950682" lon="17.7391155">
        <ele>24.651</ele>
        <time>2012-05-20T08:49:41Z</time>
      </trkpt>
      <trkpt lat="59.8948652" lon="17.7391873">
        <ele>25.6123</ele>
        <time>2012-05-20T08:49:45Z</time>
      </trkpt>
      <trkpt lat="59.8947486" lon="17.7392745">
        <ele>26.0929</ele>
        <time>2012-05-20T08:49:48Z</time>
      </trkpt>
      <trkpt lat="59.8946906" lon="17.7395142">
        <ele>26.5736</ele>
        <time>2012-05-20T08:49:53Z</time>
      </trkpt>
      <trkpt lat="59.8946967" lon="17.7395595">
        <ele>27.0543</ele>
        <time>2012-05-20T08:49:54Z</time>
      </trkpt>
      <trkpt lat="59.8947087" lon="17.7396527">
        <ele>27.0543</ele>
        <time>2012-05-20T08:49:59Z</time>
      </trkpt>
      <trkpt lat="59.8947077" lon="17.7396662">
        <ele>27.5349</ele>
        <time>2012-05-20T08:50:00Z</time>
      </trkpt>
      <trkpt lat="59.8946118" lon="17.7394104">
        <ele>27.0543</ele>
        <time>2012-05-20T08:54:52Z</time>
      </trkpt>
      <trkpt lat="59.8944604" lon="17.7395226">
        <ele>27.5349</ele>
        <time>2012-05-20T08:54:57Z</time>
      </trkpt>
      <trkpt lat="59.8942636" lon="17.7398143">
        <ele>26.0929</ele>
        <time>2012-05-20T08:55:04Z</time>
      </trkpt>
      <trkpt lat="59.8941226" lon="17.740182">
        <ele>25.6123</ele>
        <time>2012-05-20T08:55:09Z</time>
      </trkpt>
      <trkpt lat="59.8939102" lon="17.7408343">
        <ele>24.651</ele>
        <time>2012-05-20T08:55:16Z</time>
      </trkpt>
      <trkpt lat="59.8936774" lon="17.7415584">
        <ele>24.1703</ele>
        <time>2012-05-20T08:55:24Z</time>
      </trkpt>
      <trkpt lat="59.8934694" lon="17.7421871">
        <ele>25.1317</ele>
        <time>2012-05-20T08:55:31Z</time>
      </trkpt>
      <trkpt lat="59.8932831" lon="17.7427323">
        <ele>27.0543</ele>
        <time>2012-05-20T08:55:38Z</time>
      </trkpt>
      <trkpt lat="59.8930811" lon="17.7433868">
        <ele>28.4962</ele>
        <time>2012-05-20T08:55:47Z</time>
      </trkpt>
      <trkpt lat="59.8929029" lon="17.7439535">
        <ele>30.4188</ele>
        <time>2012-05-20T08:55:54Z</time>
      </trkpt>
      <trkpt lat="59.892732" lon="17.744498">
        <ele>28.9769</ele>
        <time>2012-05-20T08:55:59Z</time>
      </trkpt>
      <trkpt lat="59.8924507" lon="17.7453824">
        <ele>26.5736</ele>
        <time>2012-05-20T08:56:06Z</time>
      </trkpt>
      <trkpt lat="59.8921358" lon="17.7462842">
        <ele>24.651</ele>
        <time>2012-05-20T08:56:14Z</time>
      </trkpt>
      <trkpt lat="59.8920472" lon="17.7464583">
        <ele>24.651</ele>
        <time>2012-05-20T08:56:16Z</time>
      </trkpt>
      <trkpt lat="59.8917286" lon="17.7469025">
        <ele>23.6896</ele>
        <time>2012-05-20T08:56:23Z</time>
      </trkpt>
      <trkpt lat="59.8913715" lon="17.7474069">
        <ele>23.209</ele>
        <time>2012-05-20T08:56:31Z</time>
      </trkpt>
      <trkpt lat="59.8909482" lon="17.7479548">
        <ele>22.7283</ele>
        <time>2012-05-20T08:56:40Z</time>
      </trkpt>
      <trkpt lat="59.8906827" lon="17.7482837">
        <ele>22.7283</ele>
        <time>2012-05-20T08:56:46Z</time>
      </trkpt>
      <trkpt lat="59.8905952" lon="17.748377">
        <ele>22.7283</ele>
        <time>2012-05-20T08:56:48Z</time>
      </trkpt>
      <trkpt lat="59.8903538" lon="17.7483527">
        <ele>22.7283</ele>
        <time>2012-05-20T08:56:53Z</time>
      </trkpt>
      <trkpt lat="59.8900046" lon="17.7477951">
        <ele>20.8057</ele>
        <time>2012-05-20T08:57:01Z</time>
      </trkpt>
      <trkpt lat="59.8895768" lon="17.7470571">
        <ele>19.3638</ele>
        <time>2012-05-20T08:57:10Z</time>
      </trkpt>
      <trkpt lat="59.8891634" lon="17.7463541">
        <ele>18.8831</ele>
        <time>2012-05-20T08:57:19Z</time>
      </trkpt>
      <trkpt lat="59.8887985" lon="17.7457192">
        <ele>18.4023</ele>
        <time>2012-05-20T08:57:27Z</time>
      </trkpt>
      <trkpt lat="59.8883361" lon="17.7449258">
        <ele>17.9218</ele>
        <time>2012-05-20T08:57:37Z</time>
      </trkpt>
      <trkpt lat="59.8880124" lon="17.7443701">
        <ele>16.9604</ele>
        <time>2012-05-20T08:57:44Z</time>
      </trkpt>
      <trkpt lat="59.8876407" lon="17.7437393">
        <ele>16.4797</ele>
        <time>2012-05-20T08:57:52Z</time>
      </trkpt>
      <trkpt lat="59.8872612" lon="17.7430952">
        <ele>15.5184</ele>
        <time>2012-05-20T08:58:00Z</time>
      </trkpt>
      <trkpt lat="59.8868867" lon="17.742482">
        <ele>15.999</ele>
        <time>2012-05-20T08:58:08Z</time>
      </trkpt>
      <trkpt lat="59.8864412" lon="17.7418936">
        <ele>15.999</ele>
        <time>2012-05-20T08:58:17Z</time>
      </trkpt>
      <trkpt lat="59.8859341" lon="17.7413295">
        <ele>16.9604</ele>
        <time>2012-05-20T08:58:27Z</time>
      </trkpt>
      <trkpt lat="59.8856125" lon="17.7410175">
        <ele>18.4023</ele>
        <time>2012-05-20T08:58:34Z</time>
      </trkpt>
      <trkpt lat="59.8854545" lon="17.7406348">
        <ele>18.8831</ele>
        <time>2012-05-20T08:58:39Z</time>
      </trkpt>
      <trkpt lat="59.8852976" lon="17.7398354">
        <ele>17.9218</ele>
        <time>2012-05-20T08:58:47Z</time>
      </trkpt>
      <trkpt lat="59.8852554" lon="17.7396245">
        <ele>17.9218</ele>
        <time>2012-05-20T08:58:49Z</time>
      </trkpt>
      <trkpt lat="59.8850989" lon="17.7393277">
        <ele>17.9218</ele>
        <time>2012-05-20T08:58:53Z</time>
      </trkpt>
      <trkpt lat="59.8849404" lon="17.7393212">
        <ele>18.4023</ele>
        <time>2012-05-20T08:58:56Z</time>
      </trkpt>
      <trkpt lat="59.884655" lon="17.7394701">
        <ele>19.3638</ele>
        <time>2012-05-20T08:59:02Z</time>
      </trkpt>
      <trkpt lat="59.8843501" lon="17.739674">
        <ele>20.325</ele>
        <time>2012-05-20T08:59:09Z</time>
      </trkpt>
      <trkpt lat="59.8842268" lon="17.7397439">
        <ele>21.2864</ele>
        <time>2012-05-20T08:59:12Z</time>
      </trkpt>
      <trkpt lat="59.8840635" lon="17.7396782">
        <ele>21.2864</ele>
        <time>2012-05-20T08:59:16Z</time>
      </trkpt>
      <trkpt lat="59.8839989" lon="17.7393995">
        <ele>21.2864</ele>
        <time>2012-05-20T08:59:19Z</time>
      </trkpt>
      <trkpt lat="59.8839153" lon="17.7384479">
        <ele>21.2864</ele>
        <time>2012-05-20T08:59:27Z</time>
      </trkpt>
      <trkpt lat="59.8838289" lon="17.7375983">
        <ele>20.8057</ele>
        <time>2012-05-20T08:59:34Z</time>
      </trkpt>
      <trkpt lat="59.8836542" lon="17.7368715">
        <ele>20.325</ele>
        <time>2012-05-20T08:59:41Z</time>
      </trkpt>
      <trkpt lat="59.8835312" lon="17.7364926">
        <ele>19.3638</ele>
        <time>2012-05-20T08:59:45Z</time>
      </trkpt>
      <trkpt lat="59.8833472" lon="17.7356503">
        <ele>16.9604</ele>
        <time>2012-05-20T08:59:52Z</time>
      </trkpt>
      <trkpt lat="59.8833616" lon="17.735094">
        <ele>15.999</ele>
        <time>2012-05-20T08:59:56Z</time>
      </trkpt>
      <trkpt lat="59.8835119" lon="17.7345853">
        <ele>15.5184</ele>
        <time>2012-05-20T09:00:00Z</time>
      </trkpt>
      <trkpt lat="59.8835632" lon="17.7340442">
        <ele>15.5184</ele>
        <time>2012-05-20T09:00:04Z</time>
      </trkpt>
      <trkpt lat="59.8835554" lon="17.7339152">
        <ele>15.0377</ele>
        <time>2012-05-20T09:00:05Z</time>
      </trkpt>
      <trkpt lat="59.8833943" lon="17.732816">
        <ele>15.0377</ele>
        <time>2012-05-20T09:00:14Z</time>
      </trkpt>
      <trkpt lat="59.8832037" lon="17.7321981">
        <ele>15.5184</ele>
        <time>2012-05-20T09:00:20Z</time>
      </trkpt>
      <trkpt lat="59.8829001" lon="17.7315345">
        <ele>17.4412</ele>
        <time>2012-05-20T09:00:28Z</time>
      </trkpt>
      <trkpt lat="59.8828157" lon="17.7312993">
        <ele>18.8831</ele>
        <time>2012-05-20T09:00:31Z</time>
      </trkpt>
      <trkpt lat="59.8827028" lon="17.7307176">
        <ele>20.325</ele>
        <time>2012-05-20T09:00:39Z</time>
      </trkpt>
      <trkpt lat="59.8827603" lon="17.730318">
        <ele>19.8444</ele>
        <time>2012-05-20T09:00:44Z</time>
      </trkpt>
      <trkpt lat="59.8828626" lon="17.7300392">
        <ele>18.4023</ele>
        <time>2012-05-20T09:00:47Z</time>
      </trkpt>
      <trkpt lat="59.8829095" lon="17.7295313">
        <ele>15.999</ele>
        <time>2012-05-20T09:00:51Z</time>
      </trkpt>
      <trkpt lat="59.88288" lon="17.7292557">
        <ele>15.0377</ele>
        <time>2012-05-20T09:00:53Z</time>
      </trkpt>
      <trkpt lat="59.8827034" lon="17.7282358">
        <ele>14.557</ele>
        <time>2012-05-20T09:01:01Z</time>
      </trkpt>
      <trkpt lat="59.8825292" lon="17.7273479">
        <ele>15.999</ele>
        <time>2012-05-20T09:01:09Z</time>
      </trkpt>
      <trkpt lat="59.8823024" lon="17.7265696">
        <ele>15.0377</ele>
        <time>2012-05-20T09:01:16Z</time>
      </trkpt>
      <trkpt lat="59.881972" lon="17.7255712">
        <ele>14.557</ele>
        <time>2012-05-20T09:01:25Z</time>
      </trkpt>
      <trkpt lat="59.8817132" lon="17.7246421">
        <ele>14.557</ele>
        <time>2012-05-20T09:01:33Z</time>
      </trkpt>
      <trkpt lat="59.8814824" lon="17.7237285">
        <ele>14.557</ele>
        <time>2012-05-20T09:01:41Z</time>
      </trkpt>
      <trkpt lat="59.8814531" lon="17.7232445">
        <ele>14.557</ele>
        <time>2012-05-20T09:01:45Z</time>
      </trkpt>
      <trkpt lat="59.8815901" lon="17.7228018">
        <ele>14.557</ele>
        <time>2012-05-20T09:01:49Z</time>
      </trkpt>
      <trkpt lat="59.8820077" lon="17.7219165">
        <ele>15.0377</ele>
        <time>2012-05-20T09:01:58Z</time>
      </trkpt>
      <trkpt lat="59.882376" lon="17.7214198">
        <ele>15.5184</ele>
        <time>2012-05-20T09:02:05Z</time>
      </trkpt>
      <trkpt lat="59.882712" lon="17.7210658">
        <ele>15.0377</ele>
        <time>2012-05-20T09:02:11Z</time>
      </trkpt>
      <trkpt lat="59.8828505" lon="17.7206711">
        <ele>14.557</ele>
        <time>2012-05-20T09:02:15Z</time>
      </trkpt>
      <trkpt lat="59.8828178" lon="17.7202836">
        <ele>14.0764</ele>
        <time>2012-05-20T09:02:18Z</time>
      </trkpt>
      <trkpt lat="59.8825829" lon="17.7191903">
        <ele>13.5958</ele>
        <time>2012-05-20T09:02:27Z</time>
      </trkpt>
      <trkpt lat="59.8824022" lon="17.7182578">
        <ele>14.0764</ele>
        <time>2012-05-20T09:02:35Z</time>
      </trkpt>
      <trkpt lat="59.8823535" lon="17.7175145">
        <ele>14.557</ele>
        <time>2012-05-20T09:02:41Z</time>
      </trkpt>
      <trkpt lat="59.8822631" lon="17.7164868">
        <ele>14.0764</ele>
        <time>2012-05-20T09:02:49Z</time>
      </trkpt>
      <trkpt lat="59.8821361" lon="17.7154979">
        <ele>14.0764</ele>
        <time>2012-05-20T09:02:57Z</time>
      </trkpt>
      <trkpt lat="59.8819168" lon="17.7139129">
        <ele>13.5958</ele>
        <time>2012-05-20T09:03:10Z</time>
      </trkpt>
      <trkpt lat="59.8817476" lon="17.712656">
        <ele>13.1151</ele>
        <time>2012-05-20T09:03:20Z</time>
      </trkpt>
      <trkpt lat="59.8815873" lon="17.7116743">
        <ele>13.5958</ele>
        <time>2012-05-20T09:03:28Z</time>
      </trkpt>
      <trkpt lat="59.8813938" lon="17.7110236">
        <ele>13.5958</ele>
        <time>2012-05-20T09:03:34Z</time>
      </trkpt>
      <trkpt lat="59.8810823" lon="17.7101241">
        <ele>15.0377</ele>
        <time>2012-05-20T09:03:43Z</time>
      </trkpt>
      <trkpt lat="59.8808763" lon="17.7095351">
        <ele>15.0377</ele>
        <time>2012-05-20T09:03:49Z</time>
      </trkpt>
      <trkpt lat="59.8806105" lon="17.7088441">
        <ele>14.0764</ele>
        <time>2012-05-20T09:03:56Z</time>
      </trkpt>
      <trkpt lat="59.8804252" lon="17.7081974">
        <ele>13.1151</ele>
        <time>2012-05-20T09:04:01Z</time>
      </trkpt>
      <trkpt lat="59.8802314" lon="17.7071272">
        <ele>12.6344</ele>
        <time>2012-05-20T09:04:09Z</time>
      </trkpt>
      <trkpt lat="59.8800023" lon="17.7061322">
        <ele>12.6344</ele>
        <time>2012-05-20T09:04:17Z</time>
      </trkpt>
      <trkpt lat="59.8796676" lon="17.7050098">
        <ele>13.1151</ele>
        <time>2012-05-20T09:04:27Z</time>
      </trkpt>
      <trkpt lat="59.8793575" lon="17.7040788">
        <ele>14.0764</ele>
        <time>2012-05-20T09:04:36Z</time>
      </trkpt>
      <trkpt lat="59.8789524" lon="17.7029859">
        <ele>14.557</ele>
        <time>2012-05-20T09:04:47Z</time>
      </trkpt>
      <trkpt lat="59.8786058" lon="17.7019607">
        <ele>15.5184</ele>
        <time>2012-05-20T09:04:57Z</time>
      </trkpt>
      <trkpt lat="59.8783099" lon="17.7011764">
        <ele>16.4797</ele>
        <time>2012-05-20T09:05:05Z</time>
      </trkpt>
      <trkpt lat="59.8779561" lon="17.70023">
        <ele>17.4412</ele>
        <time>2012-05-20T09:05:15Z</time>
      </trkpt>
      <trkpt lat="59.8776347" lon="17.6992133">
        <ele>17.9218</ele>
        <time>2012-05-20T09:05:25Z</time>
      </trkpt>
      <trkpt lat="59.8773826" lon="17.6982739">
        <ele>18.8831</ele>
        <time>2012-05-20T09:05:34Z</time>
      </trkpt>
      <trkpt lat="59.8771507" lon="17.6972969">
        <ele>17.9218</ele>
        <time>2012-05-20T09:05:43Z</time>
      </trkpt>
      <trkpt lat="59.8769214" lon="17.6964245">
        <ele>15.5184</ele>
        <time>2012-05-20T09:05:50Z</time>
      </trkpt>
      <trkpt lat="59.8766802" lon="17.6955839">
        <ele>13.1151</ele>
        <time>2012-05-20T09:05:56Z</time>
      </trkpt>
      <trkpt lat="59.8765549" lon="17.6951784">
        <ele>12.6344</ele>
        <time>2012-05-20T09:05:59Z</time>
      </trkpt>
      <trkpt lat="59.8763474" lon="17.6945237">
        <ele>13.1151</ele>
        <time>2012-05-20T09:06:05Z</time>
      </trkpt>
      <trkpt lat="59.8761359" lon="17.6939693">
        <ele>14.0764</ele>
        <time>2012-05-20T09:06:12Z</time>
      </trkpt>
      <trkpt lat="59.8759384" lon="17.6934887">
        <ele>15.0377</ele>
        <time>2012-05-20T09:06:18Z</time>
      </trkpt>
      <trkpt lat="59.8757086" lon="17.6928943">
        <ele>16.4797</ele>
        <time>2012-05-20T09:06:25Z</time>
      </trkpt>
      <trkpt lat="59.8755155" lon="17.6924444">
        <ele>18.4023</ele>
        <time>2012-05-20T09:06:31Z</time>
      </trkpt>
      <trkpt lat="59.8752834" lon="17.6918428">
        <ele>19.8444</ele>
        <time>2012-05-20T09:06:40Z</time>
      </trkpt>
      <trkpt lat="59.8750396" lon="17.6913017">
        <ele>20.325</ele>
        <time>2012-05-20T09:06:48Z</time>
      </trkpt>
      <trkpt lat="59.8747972" lon="17.6907272">
        <ele>20.325</ele>
        <time>2012-05-20T09:06:55Z</time>
      </trkpt>
      <trkpt lat="59.8745358" lon="17.6899425">
        <ele>20.325</ele>
        <time>2012-05-20T09:07:03Z</time>
      </trkpt>
      <trkpt lat="59.8742426" lon="17.6888695">
        <ele>20.8057</ele>
        <time>2012-05-20T09:07:13Z</time>
      </trkpt>
      <trkpt lat="59.8739413" lon="17.6877024">
        <ele>21.2864</ele>
        <time>2012-05-20T09:07:24Z</time>
      </trkpt>
      <trkpt lat="59.8736867" lon="17.6866759">
        <ele>20.8057</ele>
        <time>2012-05-20T09:07:33Z</time>
      </trkpt>
      <trkpt lat="59.8734572" lon="17.685834">
        <ele>20.325</ele>
        <time>2012-05-20T09:07:41Z</time>
      </trkpt>
      <trkpt lat="59.8732769" lon="17.6851273">
        <ele>20.325</ele>
        <time>2012-05-20T09:07:48Z</time>
      </trkpt>
      <trkpt lat="59.8729901" lon="17.684053">
        <ele>19.8444</ele>
        <time>2012-05-20T09:07:58Z</time>
      </trkpt>
      <trkpt lat="59.8727653" lon="17.6830451">
        <ele>19.3638</ele>
        <time>2012-05-20T09:08:07Z</time>
      </trkpt>
      <trkpt lat="59.8726309" lon="17.6820656">
        <ele>18.8831</ele>
        <time>2012-05-20T09:08:15Z</time>
      </trkpt>
      <trkpt lat="59.8725006" lon="17.6808324">
        <ele>19.3638</ele>
        <time>2012-05-20T09:08:25Z</time>
      </trkpt>
      <trkpt lat="59.8724047" lon="17.6799019">
        <ele>19.8444</ele>
        <time>2012-05-20T09:08:33Z</time>
      </trkpt>
      <trkpt lat="59.8723373" lon="17.6791376">
        <ele>19.8444</ele>
        <time>2012-05-20T09:08:40Z</time>
      </trkpt>
      <trkpt lat="59.8722196" lon="17.6788166">
        <ele>19.3638</ele>
        <time>2012-05-20T09:08:44Z</time>
      </trkpt>
      <trkpt lat="59.872043" lon="17.6787487">
        <ele>18.8831</ele>
        <time>2012-05-20T09:08:47Z</time>
      </trkpt>
      <trkpt lat="59.871978" lon="17.6787648">
        <ele>18.8831</ele>
        <time>2012-05-20T09:08:48Z</time>
      </trkpt>
      <trkpt lat="59.8713081" lon="17.6789709">
        <ele>18.8831</ele>
        <time>2012-05-20T09:08:58Z</time>
      </trkpt>
      <trkpt lat="59.8707849" lon="17.6791264">
        <ele>18.4023</ele>
        <time>2012-05-20T09:09:06Z</time>
      </trkpt>
      <trkpt lat="59.8700658" lon="17.6793558">
        <ele>17.9218</ele>
        <time>2012-05-20T09:09:17Z</time>
      </trkpt>
      <trkpt lat="59.869595" lon="17.6795755">
        <ele>17.9218</ele>
        <time>2012-05-20T09:09:24Z</time>
      </trkpt>
      <trkpt lat="59.8690569" lon="17.6798282">
        <ele>17.4412</ele>
        <time>2012-05-20T09:09:32Z</time>
      </trkpt>
      <trkpt lat="59.8685295" lon="17.6800788">
        <ele>16.9604</ele>
        <time>2012-05-20T09:09:40Z</time>
      </trkpt>
      <trkpt lat="59.8678685" lon="17.6803814">
        <ele>16.9604</ele>
        <time>2012-05-20T09:09:50Z</time>
      </trkpt>
      <trkpt lat="59.8672796" lon="17.6806363">
        <ele>15.999</ele>
        <time>2012-05-20T09:09:59Z</time>
      </trkpt>
      <trkpt lat="59.8666919" lon="17.6809">
        <ele>15.0377</ele>
        <time>2012-05-20T09:10:08Z</time>
      </trkpt>
      <trkpt lat="59.866231" lon="17.6811493">
        <ele>15.0377</ele>
        <time>2012-05-20T09:10:15Z</time>
      </trkpt>
      <trkpt lat="59.8658068" lon="17.6813907">
        <ele>13.5958</ele>
        <time>2012-05-20T09:10:22Z</time>
      </trkpt>
      <trkpt lat="59.8652922" lon="17.681751">
        <ele>14.557</ele>
        <time>2012-05-20T09:10:30Z</time>
      </trkpt>
      <trkpt lat="59.8648535" lon="17.6820831">
        <ele>14.557</ele>
        <time>2012-05-20T09:10:37Z</time>
      </trkpt>
      <trkpt lat="59.864435" lon="17.682379">
        <ele>15.5184</ele>
        <time>2012-05-20T09:10:44Z</time>
      </trkpt>
      <trkpt lat="59.8639606" lon="17.6827192">
        <ele>16.4797</ele>
        <time>2012-05-20T09:10:52Z</time>
      </trkpt>
      <trkpt lat="59.8636628" lon="17.6829713">
        <ele>16.9604</ele>
        <time>2012-05-20T09:10:57Z</time>
      </trkpt>
      <trkpt lat="59.8634587" lon="17.6829331">
        <ele>16.4797</ele>
        <time>2012-05-20T09:11:01Z</time>
      </trkpt>
      <trkpt lat="59.8633721" lon="17.6827471">
        <ele>15.5184</ele>
        <time>2012-05-20T09:11:04Z</time>
      </trkpt>
      <trkpt lat="59.8632404" lon="17.6828247">
        <ele>15.5184</ele>
        <time>2012-05-20T09:11:07Z</time>
      </trkpt>
      <trkpt lat="59.8627214" lon="17.6832036">
        <ele>15.999</ele>
        <time>2012-05-20T09:11:16Z</time>
      </trkpt>
      <trkpt lat="59.862072" lon="17.6836735">
        <ele>17.4412</ele>
        <time>2012-05-20T09:11:27Z</time>
      </trkpt>
      <trkpt lat="59.8614254" lon="17.6841469">
        <ele>17.9218</ele>
        <time>2012-05-20T09:11:38Z</time>
      </trkpt>
      <trkpt lat="59.8609111" lon="17.6845872">
        <ele>17.4412</ele>
        <time>2012-05-20T09:11:47Z</time>
      </trkpt>
      <trkpt lat="59.8604198" lon="17.6851197">
        <ele>16.9604</ele>
        <time>2012-05-20T09:11:56Z</time>
      </trkpt>
      <trkpt lat="59.860217" lon="17.6853963">
        <ele>15.0377</ele>
        <time>2012-05-20T09:12:01Z</time>
      </trkpt>
      <trkpt lat="59.8600515" lon="17.6856433">
        <ele>14.0764</ele>
        <time>2012-05-20T09:12:05Z</time>
      </trkpt>
      <trkpt lat="59.8598325" lon="17.6859376">
        <ele>15.5184</ele>
        <time>2012-05-20T09:12:10Z</time>
      </trkpt>
      <trkpt lat="59.8596943" lon="17.6861718">
        <ele>13.1151</ele>
        <time>2012-05-20T09:12:14Z</time>
      </trkpt>
      <trkpt lat="59.8594287" lon="17.6865949">
        <ele>11.1925</ele>
        <time>2012-05-20T09:12:21Z</time>
      </trkpt>
      <trkpt lat="59.8593833" lon="17.6866173">
        <ele>11.6732</ele>
        <time>2012-05-20T09:12:22Z</time>
      </trkpt>
      <trkpt lat="59.8593124" lon="17.6866402">
        <ele>11.6732</ele>
        <time>2012-05-20T09:12:24Z</time>
      </trkpt>
      <trkpt lat="59.8592399" lon="17.6866421">
        <ele>12.1538</ele>
        <time>2012-05-20T09:12:28Z</time>
      </trkpt>
      <trkpt lat="59.8591898" lon="17.6866468">
        <ele>12.1538</ele>
        <time>2012-05-20T09:12:31Z</time>
      </trkpt>
      <trkpt lat="59.8590312" lon="17.6867298">
        <ele>12.1538</ele>
        <time>2012-05-20T09:12:35Z</time>
      </trkpt>
      <trkpt lat="59.8589018" lon="17.6865795">
        <ele>12.1538</ele>
        <time>2012-05-20T09:12:38Z</time>
      </trkpt>
      <trkpt lat="59.8588785" lon="17.6863862">
        <ele>11.1925</ele>
        <time>2012-05-20T09:12:40Z</time>
      </trkpt>
      <trkpt lat="59.8588358" lon="17.6854238">
        <ele>9.2699</ele>
        <time>2012-05-20T09:12:48Z</time>
      </trkpt>
      <trkpt lat="59.8587241" lon="17.6846448">
        <ele>8.78918</ele>
        <time>2012-05-20T09:12:54Z</time>
      </trkpt>
      <trkpt lat="59.8585086" lon="17.6839178">
        <ele>12.1538</ele>
        <time>2012-05-20T09:13:00Z</time>
      </trkpt>
      <trkpt lat="59.8583152" lon="17.6831368">
        <ele>14.0764</ele>
        <time>2012-05-20T09:13:07Z</time>
      </trkpt>
      <trkpt lat="59.8581988" lon="17.6823586">
        <ele>12.6344</ele>
        <time>2012-05-20T09:13:14Z</time>
      </trkpt>
      <trkpt lat="59.8581465" lon="17.6820298">
        <ele>12.1538</ele>
        <time>2012-05-20T09:13:17Z</time>
      </trkpt>
      <trkpt lat="59.8581159" lon="17.6818335">
        <ele>12.6344</ele>
        <time>2012-05-20T09:13:19Z</time>
      </trkpt>
      <trkpt lat="59.8579634" lon="17.6817044">
        <ele>13.1151</ele>
        <time>2012-05-20T09:13:23Z</time>
      </trkpt>
      <trkpt lat="59.8575351" lon="17.6818428">
        <ele>15.0377</ele>
        <time>2012-05-20T09:13:30Z</time>
      </trkpt>
      <trkpt lat="59.8574767" lon="17.6818847">
        <ele>15.5184</ele>
        <time>2012-05-20T09:13:31Z</time>
      </trkpt>
      <trkpt lat="59.8570358" lon="17.6824125">
        <ele>17.9218</ele>
        <time>2012-05-20T09:13:39Z</time>
      </trkpt>
      <trkpt lat="59.8567764" lon="17.6828953">
        <ele>18.8831</ele>
        <time>2012-05-20T09:13:45Z</time>
      </trkpt>
      <trkpt lat="59.8565277" lon="17.6835056">
        <ele>18.8831</ele>
        <time>2012-05-20T09:13:52Z</time>
      </trkpt>
      <trkpt lat="59.8562309" lon="17.6840804">
        <ele>18.8831</ele>
        <time>2012-05-20T09:13:59Z</time>
      </trkpt>
      <trkpt lat="59.8558933" lon="17.6847358">
        <ele>17.9218</ele>
        <time>2012-05-20T09:14:06Z</time>
      </trkpt>
      <trkpt lat="59.8557486" lon="17.684961">
        <ele>16.9604</ele>
        <time>2012-05-20T09:14:09Z</time>
      </trkpt>
      <trkpt lat="59.855646" lon="17.6850694">
        <ele>16.4797</ele>
        <time>2012-05-20T09:14:11Z</time>
      </trkpt>
      <trkpt lat="59.8554255" lon="17.6850653">
        <ele>15.5184</ele>
        <time>2012-05-20T09:14:15Z</time>
      </trkpt>
      <trkpt lat="59.8553734" lon="17.6849944">
        <ele>15.0377</ele>
        <time>2012-05-20T09:14:16Z</time>
      </trkpt>
      <trkpt lat="59.8551608" lon="17.6846581">
        <ele>14.557</ele>
        <time>2012-05-20T09:14:20Z</time>
      </trkpt>
      <trkpt lat="59.8548577" lon="17.6843628">
        <ele>15.5184</ele>
        <time>2012-05-20T09:14:25Z</time>
      </trkpt>
      <trkpt lat="59.8547193" lon="17.6844036">
        <ele>16.9604</ele>
        <time>2012-05-20T09:14:27Z</time>
      </trkpt>
      <trkpt lat="59.8545546" lon="17.6845139">
        <ele>18.4023</ele>
        <time>2012-05-20T09:14:30Z</time>
      </trkpt>
      <trkpt lat="59.8543084" lon="17.6844554">
        <ele>19.3638</ele>
        <time>2012-05-20T09:14:35Z</time>
      </trkpt>
      <trkpt lat="59.8539408" lon="17.6840604">
        <ele>20.325</ele>
        <time>2012-05-20T09:14:44Z</time>
      </trkpt>
      <trkpt lat="59.8537201" lon="17.6838124">
        <ele>19.3638</ele>
        <time>2012-05-20T09:14:50Z</time>
      </trkpt>
      <trkpt lat="59.853622" lon="17.6835365">
        <ele>18.8831</ele>
        <time>2012-05-20T09:14:54Z</time>
      </trkpt>
      <trkpt lat="59.8535286" lon="17.6829929">
        <ele>18.4023</ele>
        <time>2012-05-20T09:15:00Z</time>
      </trkpt>
      <trkpt lat="59.8533793" lon="17.6829622">
        <ele>17.9218</ele>
        <time>2012-05-20T09:15:03Z</time>
      </trkpt>
      <trkpt lat="59.8532442" lon="17.6831801">
        <ele>19.3638</ele>
        <time>2012-05-20T09:15:06Z</time>
      </trkpt>
      <trkpt lat="59.8530786" lon="17.6833025">
        <ele>19.8444</ele>
        <time>2012-05-20T09:15:09Z</time>
      </trkpt>
      <trkpt lat="59.8526305" lon="17.6832295">
        <ele>18.8831</ele>
        <time>2012-05-20T09:15:16Z</time>
      </trkpt>
      <trkpt lat="59.8520918" lon="17.6830171">
        <ele>17.4412</ele>
        <time>2012-05-20T09:15:24Z</time>
      </trkpt>
      <trkpt lat="59.8515608" lon="17.6827643">
        <ele>14.0764</ele>
        <time>2012-05-20T09:15:32Z</time>
      </trkpt>
      <trkpt lat="59.8510125" lon="17.6824653">
        <ele>13.1151</ele>
        <time>2012-05-20T09:15:40Z</time>
      </trkpt>
      <trkpt lat="59.8504886" lon="17.6821114">
        <ele>12.6344</ele>
        <time>2012-05-20T09:15:48Z</time>
      </trkpt>
      <trkpt lat="59.8501244" lon="17.6818143">
        <ele>12.1538</ele>
        <time>2012-05-20T09:15:54Z</time>
      </trkpt>
      <trkpt lat="59.8498654" lon="17.6814039">
        <ele>12.6344</ele>
        <time>2012-05-20T09:15:59Z</time>
      </trkpt>
      <trkpt lat="59.8493731" lon="17.6808284">
        <ele>10.7118</ele>
        <time>2012-05-20T09:16:08Z</time>
      </trkpt>
      <trkpt lat="59.8491816" lon="17.6805836">
        <ele>9.75061</ele>
        <time>2012-05-20T09:16:12Z</time>
      </trkpt>
      <trkpt lat="59.8489679" lon="17.6802103">
        <ele>8.78918</ele>
        <time>2012-05-20T09:16:17Z</time>
      </trkpt>
      <trkpt lat="59.848912" lon="17.6801678">
        <ele>8.78918</ele>
        <time>2012-05-20T09:16:18Z</time>
      </trkpt>
      <trkpt lat="59.8484883" lon="17.6796524">
        <ele>9.75061</ele>
        <time>2012-05-20T09:16:25Z</time>
      </trkpt>
      <trkpt lat="59.8481466" lon="17.6791538">
        <ele>9.75061</ele>
        <time>2012-05-20T09:16:31Z</time>
      </trkpt>
      <trkpt lat="59.8477936" lon="17.6786342">
        <ele>8.78918</ele>
        <time>2012-05-20T09:16:38Z</time>
      </trkpt>
      <trkpt lat="59.8477516" lon="17.6785638">
        <ele>8.78918</ele>
        <time>2012-05-20T09:16:39Z</time>
      </trkpt>
      <trkpt lat="59.8475962" lon="17.6781504">
        <ele>7.34717</ele>
        <time>2012-05-20T09:16:44Z</time>
      </trkpt>
      <trkpt lat="59.8475002" lon="17.6780168">
        <ele>7.82788</ele>
        <time>2012-05-20T09:16:46Z</time>
      </trkpt>
      <trkpt lat="59.8471994" lon="17.6776522">
        <ele>7.34717</ele>
        <time>2012-05-20T09:16:52Z</time>
      </trkpt>
      <trkpt lat="59.8468687" lon="17.6771794">
        <ele>7.34717</ele>
        <time>2012-05-20T09:16:59Z</time>
      </trkpt>
      <trkpt lat="59.8464662" lon="17.6765851">
        <ele>6.86646</ele>
        <time>2012-05-20T09:17:08Z</time>
      </trkpt>
      <trkpt lat="59.8464269" lon="17.6765306">
        <ele>7.34717</ele>
        <time>2012-05-20T09:17:09Z</time>
      </trkpt>
      <trkpt lat="59.8462088" lon="17.6762973">
        <ele>7.82788</ele>
        <time>2012-05-20T09:17:14Z</time>
      </trkpt>
      <trkpt lat="59.8460661" lon="17.6763196">
        <ele>8.78918</ele>
        <time>2012-05-20T09:17:17Z</time>
      </trkpt>
      <trkpt lat="59.8459164" lon="17.6761835">
        <ele>10.7118</ele>
        <time>2012-05-20T09:17:21Z</time>
      </trkpt>
      <trkpt lat="59.8458535" lon="17.6760448">
        <ele>11.6732</ele>
        <time>2012-05-20T09:17:24Z</time>
      </trkpt>
      <trkpt lat="59.8458169" lon="17.6760509">
        <ele>12.1538</ele>
        <time>2012-05-20T09:17:25Z</time>
      </trkpt>
      <trkpt lat="59.84546" lon="17.6760572">
        <ele>13.5958</ele>
        <time>2012-05-20T09:17:33Z</time>
      </trkpt>
      <trkpt lat="59.8454153" lon="17.6760497">
        <ele>13.5958</ele>
        <time>2012-05-20T09:17:34Z</time>
      </trkpt>
      <trkpt lat="59.8452688" lon="17.6758194">
        <ele>13.1151</ele>
        <time>2012-05-20T09:17:38Z</time>
      </trkpt>
      <trkpt lat="59.8452699" lon="17.6754899">
        <ele>12.6344</ele>
        <time>2012-05-20T09:17:41Z</time>
      </trkpt>
      <trkpt lat="59.8452837" lon="17.6753739">
        <ele>12.6344</ele>
        <time>2012-05-20T09:17:42Z</time>
      </trkpt>
      <trkpt lat="59.8453896" lon="17.6743694">
        <ele>10.2312</ele>
        <time>2012-05-20T09:17:50Z</time>
      </trkpt>
      <trkpt lat="59.8454372" lon="17.6732557">
        <ele>6.86646</ele>
        <time>2012-05-20T09:17:58Z</time>
      </trkpt>
      <trkpt lat="59.8454556" lon="17.6723233">
        <ele>2.54065</ele>
        <time>2012-05-20T09:18:04Z</time>
      </trkpt>
      <trkpt lat="59.8454406" lon="17.6712806">
        <ele>0</ele>
        <time>2012-05-20T09:18:10Z</time>
      </trkpt>
      <trkpt lat="59.8453832" lon="17.6705506">
        <ele>0</ele>
        <time>2012-05-20T09:18:15Z</time>
      </trkpt>
      <trkpt lat="59.8453076" lon="17.6698741">
        <ele>0</ele>
        <time>2012-05-20T09:18:20Z</time>
      </trkpt>
      <trkpt lat="59.8451951" lon="17.6693653">
        <ele>0</ele>
        <time>2012-05-20T09:18:25Z</time>
      </trkpt>
      <trkpt lat="59.8451729" lon="17.6692777">
        <ele>0</ele>
        <time>2012-05-20T09:18:26Z</time>
      </trkpt>
      <trkpt lat="59.8451377" lon="17.6688951">
        <ele>0</ele>
        <time>2012-05-20T09:18:30Z</time>
      </trkpt>
      <trkpt lat="59.8450015" lon="17.6680647">
        <ele>0</ele>
        <time>2012-05-20T09:18:37Z</time>
      </trkpt>
      <trkpt lat="59.8448014" lon="17.6673349">
        <ele>0</ele>
        <time>2012-05-20T09:18:43Z</time>
      </trkpt>
      <trkpt lat="59.8445559" lon="17.6665657">
        <ele>0</ele>
        <time>2012-05-20T09:18:50Z</time>
      </trkpt>
      <trkpt lat="59.844275" lon="17.6656353">
        <ele>0</ele>
        <time>2012-05-20T09:18:59Z</time>
      </trkpt>
      <trkpt lat="59.8440505" lon="17.6648965">
        <ele>0</ele>
        <time>2012-05-20T09:19:06Z</time>
      </trkpt>
      <trkpt lat="59.8437836" lon="17.6640415">
        <ele>0</ele>
        <time>2012-05-20T09:19:14Z</time>
      </trkpt>
      <trkpt lat="59.8435498" lon="17.6633259">
        <ele>0.137451</ele>
        <time>2012-05-20T09:19:21Z</time>
      </trkpt>
      <trkpt lat="59.8432966" lon="17.6624737">
        <ele>0.618042</ele>
        <time>2012-05-20T09:19:29Z</time>
      </trkpt>
      <trkpt lat="59.8430759" lon="17.66172">
        <ele>0.137451</ele>
        <time>2012-05-20T09:19:36Z</time>
      </trkpt>
      <trkpt lat="59.8428396" lon="17.6608782">
        <ele>0</ele>
        <time>2012-05-20T09:19:44Z</time>
      </trkpt>
      <trkpt lat="59.8426186" lon="17.6600474">
        <ele>0</ele>
        <time>2012-05-20T09:19:52Z</time>
      </trkpt>
      <trkpt lat="59.8423991" lon="17.6591845">
        <ele>0</ele>
        <time>2012-05-20T09:20:00Z</time>
      </trkpt>
      <trkpt lat="59.8422455" lon="17.658392">
        <ele>1.09863</ele>
        <time>2012-05-20T09:20:07Z</time>
      </trkpt>
      <trkpt lat="59.8421115" lon="17.6577935">
        <ele>3.98267</ele>
        <time>2012-05-20T09:20:13Z</time>
      </trkpt>
      <trkpt lat="59.8419451" lon="17.6570533">
        <ele>4.46326</ele>
        <time>2012-05-20T09:20:21Z</time>
      </trkpt>
      <trkpt lat="59.841724" lon="17.6561666">
        <ele>4.94385</ele>
        <time>2012-05-20T09:20:30Z</time>
      </trkpt>
      <trkpt lat="59.8415182" lon="17.6552449">
        <ele>5.90527</ele>
        <time>2012-05-20T09:20:39Z</time>
      </trkpt>
      <trkpt lat="59.84135" lon="17.6545778">
        <ele>5.90527</ele>
        <time>2012-05-20T09:20:45Z</time>
      </trkpt>
      <trkpt lat="59.8411126" lon="17.6537755">
        <ele>7.82788</ele>
        <time>2012-05-20T09:20:53Z</time>
      </trkpt>
      <trkpt lat="59.8409162" lon="17.6532383">
        <ele>9.2699</ele>
        <time>2012-05-20T09:21:00Z</time>
      </trkpt>
      <trkpt lat="59.8406717" lon="17.6527512">
        <ele>11.1925</ele>
        <time>2012-05-20T09:21:08Z</time>
      </trkpt>
      <trkpt lat="59.8404518" lon="17.6523731">
        <ele>12.1538</ele>
        <time>2012-05-20T09:21:16Z</time>
      </trkpt>
      <trkpt lat="59.8402626" lon="17.6520896">
        <ele>10.7118</ele>
        <time>2012-05-20T09:21:23Z</time>
      </trkpt>
      <trkpt lat="59.8400176" lon="17.6518066">
        <ele>9.2699</ele>
        <time>2012-05-20T09:21:31Z</time>
      </trkpt>
      <trkpt lat="59.8397892" lon="17.651621">
        <ele>10.2312</ele>
        <time>2012-05-20T09:21:37Z</time>
      </trkpt>
      <trkpt lat="59.8395544" lon="17.6514196">
        <ele>12.1538</ele>
        <time>2012-05-20T09:21:44Z</time>
      </trkpt>
      <trkpt lat="59.839299" lon="17.6512375">
        <ele>15.0377</ele>
        <time>2012-05-20T09:21:51Z</time>
      </trkpt>
      <trkpt lat="59.8390823" lon="17.6511268">
        <ele>14.557</ele>
        <time>2012-05-20T09:21:56Z</time>
      </trkpt>
      <trkpt lat="59.838795" lon="17.6509527">
        <ele>12.6344</ele>
        <time>2012-05-20T09:22:03Z</time>
      </trkpt>
      <trkpt lat="59.8385165" lon="17.6507659">
        <ele>12.6344</ele>
        <time>2012-05-20T09:22:11Z</time>
      </trkpt>
      <trkpt lat="59.8381662" lon="17.6505535">
        <ele>13.1151</ele>
        <time>2012-05-20T09:22:21Z</time>
      </trkpt>
      <trkpt lat="59.8378256" lon="17.6502411">
        <ele>15.5184</ele>
        <time>2012-05-20T09:22:30Z</time>
      </trkpt>
      <trkpt lat="59.8376616" lon="17.6501401">
        <ele>16.9604</ele>
        <time>2012-05-20T09:22:34Z</time>
      </trkpt>
      <trkpt lat="59.8374945" lon="17.6499239">
        <ele>18.4023</ele>
        <time>2012-05-20T09:22:39Z</time>
      </trkpt>
      <trkpt lat="59.8373037" lon="17.6495842">
        <ele>20.8057</ele>
        <time>2012-05-20T09:22:45Z</time>
      </trkpt>
      <trkpt lat="59.8370785" lon="17.6491888">
        <ele>21.767</ele>
        <time>2012-05-20T09:22:52Z</time>
      </trkpt>
      <trkpt lat="59.8368666" lon="17.6487263">
        <ele>23.209</ele>
        <time>2012-05-20T09:22:59Z</time>
      </trkpt>
      <trkpt lat="59.8366855" lon="17.6481918">
        <ele>24.1703</ele>
        <time>2012-05-20T09:23:06Z</time>
      </trkpt>
      <trkpt lat="59.8365952" lon="17.647897">
        <ele>23.6896</ele>
        <time>2012-05-20T09:23:10Z</time>
      </trkpt>
      <trkpt lat="59.8364378" lon="17.6473732">
        <ele>23.209</ele>
        <time>2012-05-20T09:23:17Z</time>
      </trkpt>
      <trkpt lat="59.8362925" lon="17.6469092">
        <ele>24.651</ele>
        <time>2012-05-20T09:23:23Z</time>
      </trkpt>
      <trkpt lat="59.8361221" lon="17.6463653">
        <ele>27.0543</ele>
        <time>2012-05-20T09:23:30Z</time>
      </trkpt>
      <trkpt lat="59.8359653" lon="17.6459414">
        <ele>28.9769</ele>
        <time>2012-05-20T09:23:36Z</time>
      </trkpt>
      <trkpt lat="59.8359382" lon="17.645868">
        <ele>28.4962</ele>
        <time>2012-05-20T09:23:37Z</time>
      </trkpt>
      <trkpt lat="59.8356769" lon="17.6454945">
        <ele>26.0929</ele>
        <time>2012-05-20T09:23:43Z</time>
      </trkpt>
      <trkpt lat="59.8353972" lon="17.6451257">
        <ele>23.6896</ele>
        <time>2012-05-20T09:23:49Z</time>
      </trkpt>
      <trkpt lat="59.8350803" lon="17.6448359">
        <ele>21.2864</ele>
        <time>2012-05-20T09:23:55Z</time>
      </trkpt>
      <trkpt lat="59.8348566" lon="17.6446326">
        <ele>19.8444</ele>
        <time>2012-05-20T09:23:59Z</time>
      </trkpt>
      <trkpt lat="59.8345331" lon="17.6443559">
        <ele>18.8831</ele>
        <time>2012-05-20T09:24:05Z</time>
      </trkpt>
      <trkpt lat="59.8343342" lon="17.6441522">
        <ele>19.3638</ele>
        <time>2012-05-20T09:24:09Z</time>
      </trkpt>
      <trkpt lat="59.8340906" lon="17.64401">
        <ele>20.8057</ele>
        <time>2012-05-20T09:24:13Z</time>
      </trkpt>
      <trkpt lat="59.8338886" lon="17.6438395">
        <ele>22.7283</ele>
        <time>2012-05-20T09:24:17Z</time>
      </trkpt>
      <trkpt lat="59.8337053" lon="17.6436196">
        <ele>24.1703</ele>
        <time>2012-05-20T09:24:21Z</time>
      </trkpt>
      <trkpt lat="59.8333598" lon="17.6430811">
        <ele>24.651</ele>
        <time>2012-05-20T09:24:28Z</time>
      </trkpt>
      <trkpt lat="59.8331441" lon="17.6424942">
        <ele>25.1317</ele>
        <time>2012-05-20T09:24:33Z</time>
      </trkpt>
      <trkpt lat="59.8329871" lon="17.6420737">
        <ele>24.651</ele>
        <time>2012-05-20T09:24:36Z</time>
      </trkpt>
      <trkpt lat="59.8326973" lon="17.6413095">
        <ele>27.0543</ele>
        <time>2012-05-20T09:24:42Z</time>
      </trkpt>
      <trkpt lat="59.8324526" lon="17.6406345">
        <ele>27.5349</ele>
        <time>2012-05-20T09:24:48Z</time>
      </trkpt>
      <trkpt lat="59.8323481" lon="17.6402977">
        <ele>27.0543</ele>
        <time>2012-05-20T09:24:51Z</time>
      </trkpt>
      <trkpt lat="59.8322606" lon="17.6397328">
        <ele>27.5349</ele>
        <time>2012-05-20T09:24:56Z</time>
      </trkpt>
      <trkpt lat="59.8322191" lon="17.6394882">
        <ele>28.4962</ele>
        <time>2012-05-20T09:24:58Z</time>
      </trkpt>
      <trkpt lat="59.8320216" lon="17.6387936">
        <ele>27.0543</ele>
        <time>2012-05-20T09:25:04Z</time>
      </trkpt>
      <trkpt lat="59.8317715" lon="17.638188">
        <ele>28.0155</ele>
        <time>2012-05-20T09:25:10Z</time>
      </trkpt>
      <trkpt lat="59.8314126" lon="17.6373246">
        <ele>27.5349</ele>
        <time>2012-05-20T09:25:18Z</time>
      </trkpt>
      <trkpt lat="59.8312412" lon="17.6369632">
        <ele>26.0929</ele>
        <time>2012-05-20T09:25:22Z</time>
      </trkpt>
      <trkpt lat="59.8310981" lon="17.6367039">
        <ele>25.6123</ele>
        <time>2012-05-20T09:25:25Z</time>
      </trkpt>
      <trkpt lat="59.8308563" lon="17.636045">
        <ele>23.209</ele>
        <time>2012-05-20T09:25:31Z</time>
      </trkpt>
      <trkpt lat="59.8305433" lon="17.6353809">
        <ele>19.3638</ele>
        <time>2012-05-20T09:25:38Z</time>
      </trkpt>
      <trkpt lat="59.8303183" lon="17.634749">
        <ele>21.767</ele>
        <time>2012-05-20T09:25:44Z</time>
      </trkpt>
      <trkpt lat="59.8300424" lon="17.6340279">
        <ele>23.209</ele>
        <time>2012-05-20T09:25:51Z</time>
      </trkpt>
      <trkpt lat="59.829759" lon="17.6334387">
        <ele>27.0543</ele>
        <time>2012-05-20T09:25:58Z</time>
      </trkpt>
      <trkpt lat="59.8294514" lon="17.6329378">
        <ele>28.0155</ele>
        <time>2012-05-20T09:26:05Z</time>
      </trkpt>
      <trkpt lat="59.8291244" lon="17.6324226">
        <ele>28.4962</ele>
        <time>2012-05-20T09:26:12Z</time>
      </trkpt>
      <trkpt lat="59.8290297" lon="17.6322691">
        <ele>28.4962</ele>
        <time>2012-05-20T09:26:14Z</time>
      </trkpt>
      <trkpt lat="59.8286049" lon="17.6318605">
        <ele>27.0543</ele>
        <time>2012-05-20T09:26:22Z</time>
      </trkpt>
      <trkpt lat="59.8282387" lon="17.6314969">
        <ele>24.651</ele>
        <time>2012-05-20T09:26:29Z</time>
      </trkpt>
      <trkpt lat="59.8279206" lon="17.6312019">
        <ele>22.7283</ele>
        <time>2012-05-20T09:26:35Z</time>
      </trkpt>
      <trkpt lat="59.8275456" lon="17.6308535">
        <ele>21.2864</ele>
        <time>2012-05-20T09:26:42Z</time>
      </trkpt>
      <trkpt lat="59.8271871" lon="17.6305173">
        <ele>20.325</ele>
        <time>2012-05-20T09:26:49Z</time>
      </trkpt>
      <trkpt lat="59.8268758" lon="17.6302234">
        <ele>19.8444</ele>
        <time>2012-05-20T09:26:55Z</time>
      </trkpt>
      <trkpt lat="59.8265194" lon="17.6298973">
        <ele>18.8831</ele>
        <time>2012-05-20T09:27:02Z</time>
      </trkpt>
      <trkpt lat="59.8264189" lon="17.6297823">
        <ele>18.8831</ele>
        <time>2012-05-20T09:27:04Z</time>
      </trkpt>
      <trkpt lat="59.8262029" lon="17.6295738">
        <ele>19.8444</ele>
        <time>2012-05-20T09:27:08Z</time>
      </trkpt>
      <trkpt lat="59.8256713" lon="17.6290981">
        <ele>22.7283</ele>
        <time>2012-05-20T09:27:17Z</time>
      </trkpt>
      <trkpt lat="59.8253711" lon="17.6288716">
        <ele>24.651</ele>
        <time>2012-05-20T09:27:23Z</time>
      </trkpt>
      <trkpt lat="59.8249846" lon="17.6286038">
        <ele>23.6896</ele>
        <time>2012-05-20T09:27:30Z</time>
      </trkpt>
      <trkpt lat="59.824537" lon="17.6282857">
        <ele>22.2476</ele>
        <time>2012-05-20T09:27:37Z</time>
      </trkpt>
      <trkpt lat="59.8241108" lon="17.6279666">
        <ele>21.767</ele>
        <time>2012-05-20T09:27:44Z</time>
      </trkpt>
      <trkpt lat="59.8238863" lon="17.6277561">
        <ele>21.767</ele>
        <time>2012-05-20T09:27:48Z</time>
      </trkpt>
      <trkpt lat="59.8234584" lon="17.6272218">
        <ele>21.767</ele>
        <time>2012-05-20T09:27:56Z</time>
      </trkpt>
      <trkpt lat="59.8231451" lon="17.6267409">
        <ele>21.767</ele>
        <time>2012-05-20T09:28:02Z</time>
      </trkpt>
      <trkpt lat="59.8229748" lon="17.6265426">
        <ele>22.2476</ele>
        <time>2012-05-20T09:28:05Z</time>
      </trkpt>
      <trkpt lat="59.8226292" lon="17.6259635">
        <ele>25.1317</ele>
        <time>2012-05-20T09:28:12Z</time>
      </trkpt>
      <trkpt lat="59.8223276" lon="17.6254403">
        <ele>24.1703</ele>
        <time>2012-05-20T09:28:18Z</time>
      </trkpt>
      <trkpt lat="59.8219633" lon="17.6247411">
        <ele>23.209</ele>
        <time>2012-05-20T09:28:25Z</time>
      </trkpt>
      <trkpt lat="59.821635" lon="17.6240365">
        <ele>23.6896</ele>
        <time>2012-05-20T09:28:32Z</time>
      </trkpt>
      <trkpt lat="59.8215631" lon="17.6238319">
        <ele>24.651</ele>
        <time>2012-05-20T09:28:34Z</time>
      </trkpt>
      <trkpt lat="59.8214534" lon="17.6235509">
        <ele>26.0929</ele>
        <time>2012-05-20T09:28:37Z</time>
      </trkpt>
      <trkpt lat="59.8211842" lon="17.6227141">
        <ele>28.0155</ele>
        <time>2012-05-20T09:28:44Z</time>
      </trkpt>
      <trkpt lat="59.8211056" lon="17.6224822">
        <ele>28.0155</ele>
        <time>2012-05-20T09:28:46Z</time>
      </trkpt>
      <trkpt lat="59.8209594" lon="17.6216997">
        <ele>28.9769</ele>
        <time>2012-05-20T09:28:52Z</time>
      </trkpt>
      <trkpt lat="59.8208475" lon="17.6211518">
        <ele>29.9381</ele>
        <time>2012-05-20T09:28:57Z</time>
      </trkpt>
      <trkpt lat="59.8207729" lon="17.6203634">
        <ele>28.4962</ele>
        <time>2012-05-20T09:29:04Z</time>
      </trkpt>
      <trkpt lat="59.8206668" lon="17.6195607">
        <ele>27.5349</ele>
        <time>2012-05-20T09:29:11Z</time>
      </trkpt>
      <trkpt lat="59.8205253" lon="17.6186244">
        <ele>26.0929</ele>
        <time>2012-05-20T09:29:18Z</time>
      </trkpt>
      <trkpt lat="59.8203453" lon="17.6178805">
        <ele>26.0929</ele>
        <time>2012-05-20T09:29:24Z</time>
      </trkpt>
      <trkpt lat="59.8200762" lon="17.6172682">
        <ele>28.0155</ele>
        <time>2012-05-20T09:29:30Z</time>
      </trkpt>
      <trkpt lat="59.8198027" lon="17.6168304">
        <ele>28.9769</ele>
        <time>2012-05-20T09:29:35Z</time>
      </trkpt>
      <trkpt lat="59.8195141" lon="17.6165096">
        <ele>28.9769</ele>
        <time>2012-05-20T09:29:40Z</time>
      </trkpt>
      <trkpt lat="59.8193273" lon="17.616132">
        <ele>29.4575</ele>
        <time>2012-05-20T09:29:44Z</time>
      </trkpt>
      <trkpt lat="59.8188286" lon="17.6153323">
        <ele>31.3801</ele>
        <time>2012-05-20T09:29:53Z</time>
      </trkpt>
      <trkpt lat="59.8185271" lon="17.6148738">
        <ele>31.3801</ele>
        <time>2012-05-20T09:29:59Z</time>
      </trkpt>
      <trkpt lat="59.8183406" lon="17.6148202">
        <ele>31.3801</ele>
        <time>2012-05-20T09:30:03Z</time>
      </trkpt>
      <trkpt lat="59.8181213" lon="17.6146774">
        <ele>28.4962</ele>
        <time>2012-05-20T09:30:08Z</time>
      </trkpt>
      <trkpt lat="59.8180618" lon="17.6143685">
        <ele>28.0155</ele>
        <time>2012-05-20T09:30:11Z</time>
      </trkpt>
      <trkpt lat="59.817962" lon="17.6139556">
        <ele>26.5736</ele>
        <time>2012-05-20T09:30:15Z</time>
      </trkpt>
      <trkpt lat="59.8179132" lon="17.6138691">
        <ele>25.6123</ele>
        <time>2012-05-20T09:30:16Z</time>
      </trkpt>
      <trkpt lat="59.817461" lon="17.6131012">
        <ele>22.7283</ele>
        <time>2012-05-20T09:30:24Z</time>
      </trkpt>
      <trkpt lat="59.8170745" lon="17.6125874">
        <ele>21.2864</ele>
        <time>2012-05-20T09:30:30Z</time>
      </trkpt>
      <trkpt lat="59.8169269" lon="17.6124389">
        <ele>20.8057</ele>
        <time>2012-05-20T09:30:32Z</time>
      </trkpt>
      <trkpt lat="59.8163859" lon="17.6121101">
        <ele>19.3638</ele>
        <time>2012-05-20T09:30:39Z</time>
      </trkpt>
      <trkpt lat="59.8159577" lon="17.6116037">
        <ele>19.3638</ele>
        <time>2012-05-20T09:30:46Z</time>
      </trkpt>
      <trkpt lat="59.8155784" lon="17.6112125">
        <ele>18.8831</ele>
        <time>2012-05-20T09:30:52Z</time>
      </trkpt>
      <trkpt lat="59.8155044" lon="17.6111671">
        <ele>18.8831</ele>
        <time>2012-05-20T09:30:53Z</time>
      </trkpt>
      <trkpt lat="59.8150579" lon="17.6109579">
        <ele>15.5184</ele>
        <time>2012-05-20T09:30:59Z</time>
      </trkpt>
      <trkpt lat="59.8147075" lon="17.6108372">
        <ele>15.0377</ele>
        <time>2012-05-20T09:31:04Z</time>
      </trkpt>
      <trkpt lat="59.8143087" lon="17.6108261">
        <ele>15.0377</ele>
        <time>2012-05-20T09:31:09Z</time>
      </trkpt>
      <trkpt lat="59.8138764" lon="17.6109177">
        <ele>15.5184</ele>
        <time>2012-05-20T09:31:15Z</time>
      </trkpt>
      <trkpt lat="59.813481" lon="17.610912">
        <ele>13.1151</ele>
        <time>2012-05-20T09:31:20Z</time>
      </trkpt>
      <trkpt lat="59.8129701" lon="17.6109769">
        <ele>10.7118</ele>
        <time>2012-05-20T09:31:26Z</time>
      </trkpt>
      <trkpt lat="59.8124247" lon="17.6108645">
        <ele>5.42456</ele>
        <time>2012-05-20T09:31:32Z</time>
      </trkpt>
      <trkpt lat="59.8117935" lon="17.6106027">
        <ele>3.98267</ele>
        <time>2012-05-20T09:31:39Z</time>
      </trkpt>
      <trkpt lat="59.8113532" lon="17.6103388">
        <ele>3.98267</ele>
        <time>2012-05-20T09:31:45Z</time>
      </trkpt>
      <trkpt lat="59.8108351" lon="17.6099254">
        <ele>3.98267</ele>
        <time>2012-05-20T09:31:53Z</time>
      </trkpt>
      <trkpt lat="59.8101907" lon="17.6093457">
        <ele>3.98267</ele>
        <time>2012-05-20T09:32:04Z</time>
      </trkpt>
      <trkpt lat="59.8096929" lon="17.6088814">
        <ele>3.98267</ele>
        <time>2012-05-20T09:32:13Z</time>
      </trkpt>
      <trkpt lat="59.809189" lon="17.6084255">
        <ele>3.98267</ele>
        <time>2012-05-20T09:32:22Z</time>
      </trkpt>
      <trkpt lat="59.809007" lon="17.6083347">
        <ele>3.98267</ele>
        <time>2012-05-20T09:32:25Z</time>
      </trkpt>
      <trkpt lat="59.808616" lon="17.6079448">
        <ele>3.98267</ele>
        <time>2012-05-20T09:32:32Z</time>
      </trkpt>
      <trkpt lat="59.8083387" lon="17.6076804">
        <ele>3.98267</ele>
        <time>2012-05-20T09:32:37Z</time>
      </trkpt>
      <trkpt lat="59.8081889" lon="17.6074655">
        <ele>3.98267</ele>
        <time>2012-05-20T09:32:40Z</time>
      </trkpt>
      <trkpt lat="59.8078467" lon="17.6071882">
        <ele>4.94385</ele>
        <time>2012-05-20T09:32:46Z</time>
      </trkpt>
      <trkpt lat="59.8074105" lon="17.6069556">
        <ele>5.90527</ele>
        <time>2012-05-20T09:32:54Z</time>
      </trkpt>
      <trkpt lat="59.8070348" lon="17.6067993">
        <ele>6.86646</ele>
        <time>2012-05-20T09:33:01Z</time>
      </trkpt>
      <trkpt lat="59.8065328" lon="17.6065319">
        <ele>6.38586</ele>
        <time>2012-05-20T09:33:10Z</time>
      </trkpt>
      <trkpt lat="59.806164" lon="17.606243">
        <ele>7.34717</ele>
        <time>2012-05-20T09:33:17Z</time>
      </trkpt>
      <trkpt lat="59.8057266" lon="17.6058852">
        <ele>6.86646</ele>
        <time>2012-05-20T09:33:25Z</time>
      </trkpt>
      <trkpt lat="59.8056663" lon="17.6058485">
        <ele>6.38586</ele>
        <time>2012-05-20T09:33:26Z</time>
      </trkpt>
      <trkpt lat="59.805538" lon="17.6057926">
        <ele>5.42456</ele>
        <time>2012-05-20T09:33:28Z</time>
      </trkpt>
      <trkpt lat="59.805282" lon="17.6056">
        <ele>3.98267</ele>
        <time>2012-05-20T09:33:32Z</time>
      </trkpt>
      <trkpt lat="59.8049061" lon="17.6052659">
        <ele>3.50195</ele>
        <time>2012-05-20T09:33:38Z</time>
      </trkpt>
      <trkpt lat="59.8046193" lon="17.6051798">
        <ele>7.34717</ele>
        <time>2012-05-20T09:33:42Z</time>
      </trkpt>
      <trkpt lat="59.8044033" lon="17.6049772">
        <ele>7.34717</ele>
        <time>2012-05-20T09:33:46Z</time>
      </trkpt>
      <trkpt lat="59.8043719" lon="17.6048658">
        <ele>7.34717</ele>
        <time>2012-05-20T09:33:47Z</time>
      </trkpt>
      <trkpt lat="59.8041248" lon="17.6042552">
        <ele>8.78918</ele>
        <time>2012-05-20T09:33:53Z</time>
      </trkpt>
      <trkpt lat="59.8039304" lon="17.604162">
        <ele>9.2699</ele>
        <time>2012-05-20T09:33:56Z</time>
      </trkpt>
      <trkpt lat="59.8037442" lon="17.6041853">
        <ele>9.2699</ele>
        <time>2012-05-20T09:33:59Z</time>
      </trkpt>
      <trkpt lat="59.8031846" lon="17.6043657">
        <ele>6.86646</ele>
        <time>2012-05-20T09:34:09Z</time>
      </trkpt>
      <trkpt lat="59.8028422" lon="17.6044365">
        <ele>6.86646</ele>
        <time>2012-05-20T09:34:16Z</time>
      </trkpt>
      <trkpt lat="59.8027107" lon="17.6044379">
        <ele>7.34717</ele>
        <time>2012-05-20T09:34:19Z</time>
      </trkpt>
      <trkpt lat="59.8025092" lon="17.6043702">
        <ele>9.75061</ele>
        <time>2012-05-20T09:34:24Z</time>
      </trkpt>
      <trkpt lat="59.8023692" lon="17.6042532">
        <ele>10.7118</ele>
        <time>2012-05-20T09:34:28Z</time>
      </trkpt>
      <trkpt lat="59.8021853" lon="17.6039121">
        <ele>10.7118</ele>
        <time>2012-05-20T09:34:35Z</time>
      </trkpt>
      <trkpt lat="59.8020503" lon="17.6035585">
        <ele>12.1538</ele>
        <time>2012-05-20T09:34:41Z</time>
      </trkpt>
      <trkpt lat="59.8019419" lon="17.60309">
        <ele>17.9218</ele>
        <time>2012-05-20T09:34:47Z</time>
      </trkpt>
      <trkpt lat="59.8018801" lon="17.6025225">
        <ele>23.209</ele>
        <time>2012-05-20T09:34:54Z</time>
      </trkpt>
      <trkpt lat="59.8019082" lon="17.6020973">
        <ele>25.6123</ele>
        <time>2012-05-20T09:35:01Z</time>
      </trkpt>
      <trkpt lat="59.8019782" lon="17.6016166">
        <ele>27.5349</ele>
        <time>2012-05-20T09:35:09Z</time>
      </trkpt>
      <trkpt lat="59.8020609" lon="17.6010943">
        <ele>28.4962</ele>
        <time>2012-05-20T09:35:17Z</time>
      </trkpt>
      <trkpt lat="59.8021367" lon="17.6005505">
        <ele>28.9769</ele>
        <time>2012-05-20T09:35:25Z</time>
      </trkpt>
      <trkpt lat="59.8022404" lon="17.5998127">
        <ele>30.4188</ele>
        <time>2012-05-20T09:35:35Z</time>
      </trkpt>
      <trkpt lat="59.8023583" lon="17.5990305">
        <ele>32.3416</ele>
        <time>2012-05-20T09:35:44Z</time>
      </trkpt>
      <trkpt lat="59.8024848" lon="17.5981634">
        <ele>32.8223</ele>
        <time>2012-05-20T09:35:53Z</time>
      </trkpt>
      <trkpt lat="59.8026162" lon="17.5972652">
        <ele>31.8607</ele>
        <time>2012-05-20T09:36:01Z</time>
      </trkpt>
      <trkpt lat="59.8027561" lon="17.5962502">
        <ele>33.3029</ele>
        <time>2012-05-20T09:36:10Z</time>
      </trkpt>
      <trkpt lat="59.8028831" lon="17.5952304">
        <ele>34.2642</ele>
        <time>2012-05-20T09:36:20Z</time>
      </trkpt>
      <trkpt lat="59.8029333" lon="17.5947218">
        <ele>33.3029</ele>
        <time>2012-05-20T09:36:25Z</time>
      </trkpt>
      <trkpt lat="59.8029115" lon="17.593806">
        <ele>38.5901</ele>
        <time>2012-05-20T09:36:34Z</time>
      </trkpt>
      <trkpt lat="59.8028598" lon="17.5931337">
        <ele>40.0321</ele>
        <time>2012-05-20T09:36:40Z</time>
      </trkpt>
      <trkpt lat="59.8027774" lon="17.592256">
        <ele>39.5513</ele>
        <time>2012-05-20T09:36:48Z</time>
      </trkpt>
      <trkpt lat="59.8025841" lon="17.5915366">
        <ele>38.5901</ele>
        <time>2012-05-20T09:36:55Z</time>
      </trkpt>
      <trkpt lat="59.8023121" lon="17.5908771">
        <ele>35.7061</ele>
        <time>2012-05-20T09:37:01Z</time>
      </trkpt>
      <trkpt lat="59.8018891" lon="17.590097">
        <ele>33.3029</ele>
        <time>2012-05-20T09:37:09Z</time>
      </trkpt>
      <trkpt lat="59.8015146" lon="17.5895934">
        <ele>31.3801</ele>
        <time>2012-05-20T09:37:15Z</time>
      </trkpt>
      <trkpt lat="59.8009984" lon="17.5889805">
        <ele>29.4575</ele>
        <time>2012-05-20T09:37:23Z</time>
      </trkpt>
      <trkpt lat="59.8006096" lon="17.588671">
        <ele>28.9769</ele>
        <time>2012-05-20T09:37:29Z</time>
      </trkpt>
      <trkpt lat="59.8002178" lon="17.5885233">
        <ele>28.9769</ele>
        <time>2012-05-20T09:37:35Z</time>
      </trkpt>
      <trkpt lat="59.7998911" lon="17.5883254">
        <ele>29.4575</ele>
        <time>2012-05-20T09:37:41Z</time>
      </trkpt>
      <trkpt lat="59.7994643" lon="17.5881221">
        <ele>29.9381</ele>
        <time>2012-05-20T09:37:49Z</time>
      </trkpt>
      <trkpt lat="59.7991571" lon="17.588085">
        <ele>29.9381</ele>
        <time>2012-05-20T09:37:54Z</time>
      </trkpt>
      <trkpt lat="59.7984758" lon="17.5880449">
        <ele>26.5736</ele>
        <time>2012-05-20T09:38:04Z</time>
      </trkpt>
      <trkpt lat="59.7980666" lon="17.588097">
        <ele>24.1703</ele>
        <time>2012-05-20T09:38:10Z</time>
      </trkpt>
      <trkpt lat="59.7975257" lon="17.5882152">
        <ele>22.7283</ele>
        <time>2012-05-20T09:38:18Z</time>
      </trkpt>
      <trkpt lat="59.7971834" lon="17.5881613">
        <ele>21.767</ele>
        <time>2012-05-20T09:38:23Z</time>
      </trkpt>
      <trkpt lat="59.7968131" lon="17.5878887">
        <ele>21.2864</ele>
        <time>2012-05-20T09:38:29Z</time>
      </trkpt>
      <trkpt lat="59.7963864" lon="17.5876345">
        <ele>21.2864</ele>
        <time>2012-05-20T09:38:36Z</time>
      </trkpt>
      <trkpt lat="59.7959219" lon="17.5875085">
        <ele>20.325</ele>
        <time>2012-05-20T09:38:43Z</time>
      </trkpt>
      <trkpt lat="59.7955236" lon="17.5873769">
        <ele>20.325</ele>
        <time>2012-05-20T09:38:49Z</time>
      </trkpt>
      <trkpt lat="59.7950519" lon="17.5869682">
        <ele>18.4023</ele>
        <time>2012-05-20T09:38:56Z</time>
      </trkpt>
      <trkpt lat="59.7944887" lon="17.5863643">
        <ele>16.9604</ele>
        <time>2012-05-20T09:39:05Z</time>
      </trkpt>
      <trkpt lat="59.7940573" lon="17.585785">
        <ele>15.999</ele>
        <time>2012-05-20T09:39:13Z</time>
      </trkpt>
      <trkpt lat="59.7935703" lon="17.5849838">
        <ele>13.5958</ele>
        <time>2012-05-20T09:39:22Z</time>
      </trkpt>
      <trkpt lat="59.792984" lon="17.5841547">
        <ele>12.6344</ele>
        <time>2012-05-20T09:39:32Z</time>
      </trkpt>
      <trkpt lat="59.7924873" lon="17.5836617">
        <ele>11.6732</ele>
        <time>2012-05-20T09:39:40Z</time>
      </trkpt>
      <trkpt lat="59.7920164" lon="17.5832618">
        <ele>10.2312</ele>
        <time>2012-05-20T09:39:47Z</time>
      </trkpt>
      <trkpt lat="59.7918116" lon="17.5828473">
        <ele>9.75061</ele>
        <time>2012-05-20T09:39:51Z</time>
      </trkpt>
      <trkpt lat="59.791776" lon="17.5823807">
        <ele>9.2699</ele>
        <time>2012-05-20T09:39:54Z</time>
      </trkpt>
      <trkpt lat="59.7917853" lon="17.5822201">
        <ele>9.2699</ele>
        <time>2012-05-20T09:39:55Z</time>
      </trkpt>
      <trkpt lat="59.7918828" lon="17.5812417">
        <ele>10.2312</ele>
        <time>2012-05-20T09:40:02Z</time>
      </trkpt>
      <trkpt lat="59.7920255" lon="17.580295">
        <ele>12.6344</ele>
        <time>2012-05-20T09:40:11Z</time>
      </trkpt>
      <trkpt lat="59.7920703" lon="17.5801293">
        <ele>14.0764</ele>
        <time>2012-05-20T09:40:13Z</time>
      </trkpt>
      <trkpt lat="59.7922379" lon="17.579846">
        <ele>17.4412</ele>
        <time>2012-05-20T09:40:19Z</time>
      </trkpt>
      <trkpt lat="59.792273" lon="17.5798322">
        <ele>18.4023</ele>
        <time>2012-05-20T09:40:20Z</time>
      </trkpt>
      <trkpt lat="59.7925183" lon="17.5798521">
        <ele>20.325</ele>
        <time>2012-05-20T09:40:27Z</time>
      </trkpt>
      <trkpt lat="59.7927333" lon="17.5798506">
        <ele>21.767</ele>
        <time>2012-05-20T09:40:32Z</time>
      </trkpt>
      <trkpt lat="59.7927736" lon="17.5798242">
        <ele>21.2864</ele>
        <time>2012-05-20T09:40:33Z</time>
      </trkpt>
      <trkpt lat="59.7929559" lon="17.5795151">
        <ele>19.8444</ele>
        <time>2012-05-20T09:40:38Z</time>
      </trkpt>
      <trkpt lat="59.7929828" lon="17.5794287">
        <ele>19.8444</ele>
        <time>2012-05-20T09:40:39Z</time>
      </trkpt>
      <trkpt lat="59.7932115" lon="17.5785688">
        <ele>19.3638</ele>
        <time>2012-05-20T09:40:48Z</time>
      </trkpt>
      <trkpt lat="59.7934086" lon="17.5776782">
        <ele>18.4023</ele>
        <time>2012-05-20T09:40:56Z</time>
      </trkpt>
      <trkpt lat="59.7936181" lon="17.5767163">
        <ele>17.4412</ele>
        <time>2012-05-20T09:41:04Z</time>
      </trkpt>
      <trkpt lat="59.7938484" lon="17.5759449">
        <ele>16.4797</ele>
        <time>2012-05-20T09:41:11Z</time>
      </trkpt>
      <trkpt lat="59.7941467" lon="17.5751691">
        <ele>15.5184</ele>
        <time>2012-05-20T09:41:18Z</time>
      </trkpt>
      <trkpt lat="59.7945005" lon="17.5743736">
        <ele>15.0377</ele>
        <time>2012-05-20T09:41:25Z</time>
      </trkpt>
      <trkpt lat="59.7947726" lon="17.5737397">
        <ele>15.0377</ele>
        <time>2012-05-20T09:41:31Z</time>
      </trkpt>
      <trkpt lat="59.7949616" lon="17.5730278">
        <ele>15.0377</ele>
        <time>2012-05-20T09:41:37Z</time>
      </trkpt>
      <trkpt lat="59.7951749" lon="17.5719749">
        <ele>16.4797</ele>
        <time>2012-05-20T09:41:46Z</time>
      </trkpt>
      <trkpt lat="59.7954419" lon="17.570999">
        <ele>15.999</ele>
        <time>2012-05-20T09:41:55Z</time>
      </trkpt>
      <trkpt lat="59.7957135" lon="17.5699682">
        <ele>15.5184</ele>
        <time>2012-05-20T09:42:04Z</time>
      </trkpt>
      <trkpt lat="59.7960147" lon="17.5687639">
        <ele>15.0377</ele>
        <time>2012-05-20T09:42:14Z</time>
      </trkpt>
      <trkpt lat="59.796271" lon="17.5676724">
        <ele>15.5184</ele>
        <time>2012-05-20T09:42:23Z</time>
      </trkpt>
      <trkpt lat="59.7964976" lon="17.5665938">
        <ele>16.4797</ele>
        <time>2012-05-20T09:42:32Z</time>
      </trkpt>
      <trkpt lat="59.79674" lon="17.5655361">
        <ele>15.999</ele>
        <time>2012-05-20T09:42:41Z</time>
      </trkpt>
      <trkpt lat="59.7970025" lon="17.5644226">
        <ele>15.5184</ele>
        <time>2012-05-20T09:42:50Z</time>
      </trkpt>
      <trkpt lat="59.7972038" lon="17.5633433">
        <ele>14.557</ele>
        <time>2012-05-20T09:42:59Z</time>
      </trkpt>
      <trkpt lat="59.7973387" lon="17.562239">
        <ele>14.0764</ele>
        <time>2012-05-20T09:43:08Z</time>
      </trkpt>
      <trkpt lat="59.7975114" lon="17.561192">
        <ele>14.0764</ele>
        <time>2012-05-20T09:43:17Z</time>
      </trkpt>
      <trkpt lat="59.797702" lon="17.560205">
        <ele>13.1151</ele>
        <time>2012-05-20T09:43:26Z</time>
      </trkpt>
      <trkpt lat="59.7977885" lon="17.5595845">
        <ele>12.6344</ele>
        <time>2012-05-20T09:43:32Z</time>
      </trkpt>
      <trkpt lat="59.7977111" lon="17.5591765">
        <ele>11.6732</ele>
        <time>2012-05-20T09:43:36Z</time>
      </trkpt>
      <trkpt lat="59.7975325" lon="17.5590449">
        <ele>11.1925</ele>
        <time>2012-05-20T09:43:39Z</time>
      </trkpt>
      <trkpt lat="59.797069" lon="17.5589501">
        <ele>10.7118</ele>
        <time>2012-05-20T09:43:46Z</time>
      </trkpt>
      <trkpt lat="59.7966407" lon="17.5588647">
        <ele>11.1925</ele>
        <time>2012-05-20T09:43:54Z</time>
      </trkpt>
      <trkpt lat="59.7962888" lon="17.5587999">
        <ele>12.6344</ele>
        <time>2012-05-20T09:44:02Z</time>
      </trkpt>
      <trkpt lat="59.7961267" lon="17.5587678">
        <ele>13.5958</ele>
        <time>2012-05-20T09:44:06Z</time>
      </trkpt>
      <trkpt lat="59.7958243" lon="17.5586781">
        <ele>16.4797</ele>
        <time>2012-05-20T09:44:14Z</time>
      </trkpt>
      <trkpt lat="59.7954745" lon="17.5585989">
        <ele>20.325</ele>
        <time>2012-05-20T09:44:23Z</time>
      </trkpt>
      <trkpt lat="59.7951915" lon="17.5585325">
        <ele>23.209</ele>
        <time>2012-05-20T09:44:31Z</time>
      </trkpt>
      <trkpt lat="59.7948066" lon="17.5584611">
        <ele>25.6123</ele>
        <time>2012-05-20T09:44:41Z</time>
      </trkpt>
      <trkpt lat="59.7945021" lon="17.5583909">
        <ele>25.6123</ele>
        <time>2012-05-20T09:44:49Z</time>
      </trkpt>
      <trkpt lat="59.7941748" lon="17.5583176">
        <ele>26.0929</ele>
        <time>2012-05-20T09:44:56Z</time>
      </trkpt>
      <trkpt lat="59.793744" lon="17.5581643">
        <ele>25.6123</ele>
        <time>2012-05-20T09:45:04Z</time>
      </trkpt>
      <trkpt lat="59.7933025" lon="17.5579461">
        <ele>23.6896</ele>
        <time>2012-05-20T09:45:11Z</time>
      </trkpt>
      <trkpt lat="59.7927688" lon="17.557678">
        <ele>22.2476</ele>
        <time>2012-05-20T09:45:19Z</time>
      </trkpt>
      <trkpt lat="59.7923147" lon="17.5574826">
        <ele>22.7283</ele>
        <time>2012-05-20T09:45:27Z</time>
      </trkpt>
      <trkpt lat="59.7920344" lon="17.5573151">
        <ele>24.1703</ele>
        <time>2012-05-20T09:45:33Z</time>
      </trkpt>
      <trkpt lat="59.791894" lon="17.5571472">
        <ele>25.1317</ele>
        <time>2012-05-20T09:45:37Z</time>
      </trkpt>
      <trkpt lat="59.7916522" lon="17.5566803">
        <ele>26.5736</ele>
        <time>2012-05-20T09:45:45Z</time>
      </trkpt>
      <trkpt lat="59.791409" lon="17.5561698">
        <ele>27.5349</ele>
        <time>2012-05-20T09:45:52Z</time>
      </trkpt>
      <trkpt lat="59.7910948" lon="17.5555404">
        <ele>29.9381</ele>
        <time>2012-05-20T09:46:01Z</time>
      </trkpt>
      <trkpt lat="59.7907751" lon="17.5550189">
        <ele>31.3801</ele>
        <time>2012-05-20T09:46:10Z</time>
      </trkpt>
      <trkpt lat="59.7905491" lon="17.554561">
        <ele>31.3801</ele>
        <time>2012-05-20T09:46:16Z</time>
      </trkpt>
      <trkpt lat="59.7904647" lon="17.5540185">
        <ele>33.7834</ele>
        <time>2012-05-20T09:46:21Z</time>
      </trkpt>
      <trkpt lat="59.7904782" lon="17.5537905">
        <ele>36.1868</ele>
        <time>2012-05-20T09:46:23Z</time>
      </trkpt>
      <trkpt lat="59.790555" lon="17.5531624">
        <ele>41.474</ele>
        <time>2012-05-20T09:46:29Z</time>
      </trkpt>
      <trkpt lat="59.7905193" lon="17.5526018">
        <ele>47.2418</ele>
        <time>2012-05-20T09:46:34Z</time>
      </trkpt>
      <trkpt lat="59.7904794" lon="17.5524183">
        <ele>50.126</ele>
        <time>2012-05-20T09:46:36Z</time>
      </trkpt>
      <trkpt lat="59.7902528" lon="17.551759">
        <ele>55.4131</ele>
        <time>2012-05-20T09:46:44Z</time>
      </trkpt>
      <trkpt lat="59.7899324" lon="17.5510695">
        <ele>56.8551</ele>
        <time>2012-05-20T09:46:52Z</time>
      </trkpt>
      <trkpt lat="59.7897187" lon="17.5504452">
        <ele>57.8165</ele>
        <time>2012-05-20T09:46:58Z</time>
      </trkpt>
      <trkpt lat="59.7895542" lon="17.5496192">
        <ele>57.8165</ele>
        <time>2012-05-20T09:47:05Z</time>
      </trkpt>
      <trkpt lat="59.7895067" lon="17.549254">
        <ele>58.7777</ele>
        <time>2012-05-20T09:47:08Z</time>
      </trkpt>
      <trkpt lat="59.7894926" lon="17.5487474">
        <ele>60.2197</ele>
        <time>2012-05-20T09:47:12Z</time>
      </trkpt>
      <trkpt lat="59.7894018" lon="17.54812">
        <ele>61.181</ele>
        <time>2012-05-20T09:47:17Z</time>
      </trkpt>
      <trkpt lat="59.7892308" lon="17.5477301">
        <ele>59.2584</ele>
        <time>2012-05-20T09:47:21Z</time>
      </trkpt>
      <trkpt lat="59.7890056" lon="17.5475083">
        <ele>55.4131</ele>
        <time>2012-05-20T09:47:25Z</time>
      </trkpt>
      <trkpt lat="59.7889506" lon="17.5474778">
        <ele>53.9712</ele>
        <time>2012-05-20T09:47:26Z</time>
      </trkpt>
      <trkpt lat="59.788567" lon="17.5472691">
        <ele>45.7999</ele>
        <time>2012-05-20T09:47:33Z</time>
      </trkpt>
      <trkpt lat="59.7882742" lon="17.5470843">
        <ele>45.3192</ele>
        <time>2012-05-20T09:47:38Z</time>
      </trkpt>
      <trkpt lat="59.788023" lon="17.5467022">
        <ele>42.916</ele>
        <time>2012-05-20T09:47:43Z</time>
      </trkpt>
      <trkpt lat="59.7877033" lon="17.545881">
        <ele>37.1481</ele>
        <time>2012-05-20T09:47:51Z</time>
      </trkpt>
      <trkpt lat="59.7876552" lon="17.5457919">
        <ele>36.6675</ele>
        <time>2012-05-20T09:47:52Z</time>
      </trkpt>
      <trkpt lat="59.7873447" lon="17.5455386">
        <ele>35.7061</ele>
        <time>2012-05-20T09:47:57Z</time>
      </trkpt>
      <trkpt lat="59.7872764" lon="17.5455319">
        <ele>35.7061</ele>
        <time>2012-05-20T09:47:58Z</time>
      </trkpt>
      <trkpt lat="59.7867184" lon="17.5455502">
        <ele>36.1868</ele>
        <time>2012-05-20T09:48:06Z</time>
      </trkpt>
      <trkpt lat="59.7865224" lon="17.5455029">
        <ele>36.1868</ele>
        <time>2012-05-20T09:48:09Z</time>
      </trkpt>
      <trkpt lat="59.7862799" lon="17.5453227">
        <ele>34.2642</ele>
        <time>2012-05-20T09:48:13Z</time>
      </trkpt>
      <trkpt lat="59.7860302" lon="17.5448347">
        <ele>33.3029</ele>
        <time>2012-05-20T09:48:18Z</time>
      </trkpt>
      <trkpt lat="59.7859707" lon="17.5443089">
        <ele>32.3416</ele>
        <time>2012-05-20T09:48:22Z</time>
      </trkpt>
      <trkpt lat="59.7859591" lon="17.5437595">
        <ele>30.8995</ele>
        <time>2012-05-20T09:48:26Z</time>
      </trkpt>
      <trkpt lat="59.7860747" lon="17.5430819">
        <ele>29.4575</ele>
        <time>2012-05-20T09:48:31Z</time>
      </trkpt>
      <trkpt lat="59.7861654" lon="17.5428528">
        <ele>29.4575</ele>
        <time>2012-05-20T09:48:33Z</time>
      </trkpt>
      <trkpt lat="59.7864587" lon="17.5422292">
        <ele>28.9769</ele>
        <time>2012-05-20T09:48:39Z</time>
      </trkpt>
      <trkpt lat="59.7865729" lon="17.5417096">
        <ele>27.5349</ele>
        <time>2012-05-20T09:48:43Z</time>
      </trkpt>
      <trkpt lat="59.7867476" lon="17.5405618">
        <ele>26.0929</ele>
        <time>2012-05-20T09:48:51Z</time>
      </trkpt>
      <trkpt lat="59.7868885" lon="17.5396158">
        <ele>25.1317</ele>
        <time>2012-05-20T09:48:58Z</time>
      </trkpt>
      <trkpt lat="59.7868977" lon="17.5394808">
        <ele>25.1317</ele>
        <time>2012-05-20T09:48:59Z</time>
      </trkpt>
      <trkpt lat="59.7868793" lon="17.5389263">
        <ele>25.1317</ele>
        <time>2012-05-20T09:49:03Z</time>
      </trkpt>
      <trkpt lat="59.7867195" lon="17.5377076">
        <ele>24.1703</ele>
        <time>2012-05-20T09:49:12Z</time>
      </trkpt>
      <trkpt lat="59.7865428" lon="17.5369766">
        <ele>24.1703</ele>
        <time>2012-05-20T09:49:18Z</time>
      </trkpt>
      <trkpt lat="59.7863706" lon="17.5365932">
        <ele>24.1703</ele>
        <time>2012-05-20T09:49:22Z</time>
      </trkpt>
      <trkpt lat="59.7860393" lon="17.536215">
        <ele>24.1703</ele>
        <time>2012-05-20T09:49:28Z</time>
      </trkpt>
      <trkpt lat="59.7856048" lon="17.5358573">
        <ele>22.2476</ele>
        <time>2012-05-20T09:49:36Z</time>
      </trkpt>
      <trkpt lat="59.7852589" lon="17.5353822">
        <ele>20.325</ele>
        <time>2012-05-20T09:49:43Z</time>
      </trkpt>
      <trkpt lat="59.7849858" lon="17.5349459">
        <ele>19.3638</ele>
        <time>2012-05-20T09:49:49Z</time>
      </trkpt>
      <trkpt lat="59.7845951" lon="17.5347057">
        <ele>19.8444</ele>
        <time>2012-05-20T09:49:56Z</time>
      </trkpt>
      <trkpt lat="59.7843773" lon="17.5346729">
        <ele>19.3638</ele>
        <time>2012-05-20T09:50:00Z</time>
      </trkpt>
      <trkpt lat="59.7841126" lon="17.5344704">
        <ele>18.8831</ele>
        <time>2012-05-20T09:50:05Z</time>
      </trkpt>
      <trkpt lat="59.7839126" lon="17.5340401">
        <ele>20.8057</ele>
        <time>2012-05-20T09:50:10Z</time>
      </trkpt>
      <trkpt lat="59.7838281" lon="17.5337561">
        <ele>21.767</ele>
        <time>2012-05-20T09:50:13Z</time>
      </trkpt>
      <trkpt lat="59.7836586" lon="17.5333775">
        <ele>21.767</ele>
        <time>2012-05-20T09:50:17Z</time>
      </trkpt>
      <trkpt lat="59.7832226" lon="17.5328398">
        <ele>20.325</ele>
        <time>2012-05-20T09:50:24Z</time>
      </trkpt>
      <trkpt lat="59.7826549" lon="17.5322426">
        <ele>21.767</ele>
        <time>2012-05-20T09:50:33Z</time>
      </trkpt>
      <trkpt lat="59.7822056" lon="17.5318437">
        <ele>20.8057</ele>
        <time>2012-05-20T09:50:40Z</time>
      </trkpt>
      <trkpt lat="59.7815991" lon="17.5312555">
        <ele>20.8057</ele>
        <time>2012-05-20T09:50:50Z</time>
      </trkpt>
      <trkpt lat="59.7811546" lon="17.5306855">
        <ele>20.325</ele>
        <time>2012-05-20T09:50:58Z</time>
      </trkpt>
      <trkpt lat="59.7807575" lon="17.5300227">
        <ele>19.3638</ele>
        <time>2012-05-20T09:51:06Z</time>
      </trkpt>
      <trkpt lat="59.7803726" lon="17.5294266">
        <ele>19.8444</ele>
        <time>2012-05-20T09:51:13Z</time>
      </trkpt>
      <trkpt lat="59.7802545" lon="17.529198">
        <ele>20.8057</ele>
        <time>2012-05-20T09:51:16Z</time>
      </trkpt>
      <trkpt lat="59.7800845" lon="17.5289396">
        <ele>21.2864</ele>
        <time>2012-05-20T09:51:20Z</time>
      </trkpt>
      <trkpt lat="59.7797975" lon="17.528772">
        <ele>21.2864</ele>
        <time>2012-05-20T09:51:25Z</time>
      </trkpt>
      <trkpt lat="59.7795647" lon="17.5287573">
        <ele>21.2864</ele>
        <time>2012-05-20T09:51:29Z</time>
      </trkpt>
      <trkpt lat="59.7792919" lon="17.5289672">
        <ele>23.209</ele>
        <time>2012-05-20T09:51:34Z</time>
      </trkpt>
      <trkpt lat="59.7792494" lon="17.5290386">
        <ele>23.6896</ele>
        <time>2012-05-20T09:51:35Z</time>
      </trkpt>
      <trkpt lat="59.7790629" lon="17.5295271">
        <ele>24.651</ele>
        <time>2012-05-20T09:51:41Z</time>
      </trkpt>
      <trkpt lat="59.7789762" lon="17.5300399">
        <ele>29.4575</ele>
        <time>2012-05-20T09:51:47Z</time>
      </trkpt>
      <trkpt lat="59.7788817" lon="17.5308556">
        <ele>30.8995</ele>
        <time>2012-05-20T09:51:55Z</time>
      </trkpt>
      <trkpt lat="59.778774" lon="17.5316437">
        <ele>31.8607</ele>
        <time>2012-05-20T09:52:02Z</time>
      </trkpt>
      <trkpt lat="59.7786269" lon="17.5324461">
        <ele>30.8995</ele>
        <time>2012-05-20T09:52:09Z</time>
      </trkpt>
      <trkpt lat="59.7785267" lon="17.5332862">
        <ele>28.9769</ele>
        <time>2012-05-20T09:52:15Z</time>
      </trkpt>
      <trkpt lat="59.778509" lon="17.5334287">
        <ele>28.9769</ele>
        <time>2012-05-20T09:52:16Z</time>
      </trkpt>
      <trkpt lat="59.7783729" lon="17.5339582">
        <ele>28.4962</ele>
        <time>2012-05-20T09:52:20Z</time>
      </trkpt>
      <trkpt lat="59.7779865" lon="17.5348107">
        <ele>25.6123</ele>
        <time>2012-05-20T09:52:28Z</time>
      </trkpt>
      <trkpt lat="59.7776742" lon="17.5354438">
        <ele>25.6123</ele>
        <time>2012-05-20T09:52:35Z</time>
      </trkpt>
      <trkpt lat="59.7776357" lon="17.5355288">
        <ele>25.1317</ele>
        <time>2012-05-20T09:52:36Z</time>
      </trkpt>
      <trkpt lat="59.7774244" lon="17.5362966">
        <ele>24.1703</ele>
        <time>2012-05-20T09:52:43Z</time>
      </trkpt>
      <trkpt lat="59.7773235" lon="17.5370775">
        <ele>24.651</ele>
        <time>2012-05-20T09:52:49Z</time>
      </trkpt>
      <trkpt lat="59.7771774" lon="17.537953">
        <ele>26.0929</ele>
        <time>2012-05-20T09:52:56Z</time>
      </trkpt>
      <trkpt lat="59.7769574" lon="17.5387673">
        <ele>26.5736</ele>
        <time>2012-05-20T09:53:04Z</time>
      </trkpt>
      <trkpt lat="59.7766526" lon="17.5397744">
        <ele>23.6896</ele>
        <time>2012-05-20T09:53:14Z</time>
      </trkpt>
      <trkpt lat="59.7763931" lon="17.5404498">
        <ele>16.9604</ele>
        <time>2012-05-20T09:53:20Z</time>
      </trkpt>
      <trkpt lat="59.7760041" lon="17.5411803">
        <ele>11.6732</ele>
        <time>2012-05-20T09:53:26Z</time>
      </trkpt>
      <trkpt lat="59.7753482" lon="17.5424095">
        <ele>5.90527</ele>
        <time>2012-05-20T09:53:36Z</time>
      </trkpt>
      <trkpt lat="59.7749645" lon="17.5429991">
        <ele>3.50195</ele>
        <time>2012-05-20T09:53:42Z</time>
      </trkpt>
      <trkpt lat="59.7744195" lon="17.5434367">
        <ele>0.618042</ele>
        <time>2012-05-20T09:53:49Z</time>
      </trkpt>
      <trkpt lat="59.7740481" lon="17.5437551">
        <ele>0.137451</ele>
        <time>2012-05-20T09:53:54Z</time>
      </trkpt>
      <trkpt lat="59.7737186" lon="17.5443542">
        <ele>0</ele>
        <time>2012-05-20T09:54:00Z</time>
      </trkpt>
      <trkpt lat="59.7734212" lon="17.5452162">
        <ele>0.137451</ele>
        <time>2012-05-20T09:54:07Z</time>
      </trkpt>
      <trkpt lat="59.7729727" lon="17.5466411">
        <ele>2.06006</ele>
        <time>2012-05-20T09:54:18Z</time>
      </trkpt>
      <trkpt lat="59.7725795" lon="17.547864">
        <ele>2.54065</ele>
        <time>2012-05-20T09:54:28Z</time>
      </trkpt>
      <trkpt lat="59.7723427" lon="17.5485589">
        <ele>3.02124</ele>
        <time>2012-05-20T09:54:34Z</time>
      </trkpt>
      <trkpt lat="59.7721159" lon="17.5487888">
        <ele>3.02124</ele>
        <time>2012-05-20T09:54:38Z</time>
      </trkpt>
      <trkpt lat="59.7719289" lon="17.5486163">
        <ele>2.54065</ele>
        <time>2012-05-20T09:54:41Z</time>
      </trkpt>
      <trkpt lat="59.7711406" lon="17.5474498">
        <ele>3.50195</ele>
        <time>2012-05-20T09:54:55Z</time>
      </trkpt>
      <trkpt lat="59.7710833" lon="17.5473651">
        <ele>3.50195</ele>
        <time>2012-05-20T09:54:56Z</time>
      </trkpt>
      <trkpt lat="59.7708229" lon="17.5472113">
        <ele>2.06006</ele>
        <time>2012-05-20T09:55:00Z</time>
      </trkpt>
      <trkpt lat="59.770635" lon="17.5473445">
        <ele>1.09863</ele>
        <time>2012-05-20T09:55:03Z</time>
      </trkpt>
      <trkpt lat="59.7704778" lon="17.5476517">
        <ele>1.09863</ele>
        <time>2012-05-20T09:55:06Z</time>
      </trkpt>
      <trkpt lat="59.7703928" lon="17.5480585">
        <ele>1.57935</ele>
        <time>2012-05-20T09:55:09Z</time>
      </trkpt>
      <trkpt lat="59.7702484" lon="17.5491731">
        <ele>6.38586</ele>
        <time>2012-05-20T09:55:17Z</time>
      </trkpt>
      <trkpt lat="59.7699626" lon="17.5499362">
        <ele>10.7118</ele>
        <time>2012-05-20T09:55:24Z</time>
      </trkpt>
      <trkpt lat="59.7695694" lon="17.5508913">
        <ele>14.0764</ele>
        <time>2012-05-20T09:55:33Z</time>
      </trkpt>
      <trkpt lat="59.7691779" lon="17.5518311">
        <ele>15.5184</ele>
        <time>2012-05-20T09:55:42Z</time>
      </trkpt>
      <trkpt lat="59.7688395" lon="17.5522676">
        <ele>15.5184</ele>
        <time>2012-05-20T09:55:48Z</time>
      </trkpt>
      <trkpt lat="59.7686598" lon="17.5523869">
        <ele>16.4797</ele>
        <time>2012-05-20T09:55:51Z</time>
      </trkpt>
      <trkpt lat="59.7683957" lon="17.5524103">
        <ele>18.4023</ele>
        <time>2012-05-20T09:55:56Z</time>
      </trkpt>
      <trkpt lat="59.7681739" lon="17.5523626">
        <ele>19.3638</ele>
        <time>2012-05-20T09:56:01Z</time>
      </trkpt>
      <trkpt lat="59.767945" lon="17.5525102">
        <ele>19.3638</ele>
        <time>2012-05-20T09:56:07Z</time>
      </trkpt>
      <trkpt lat="59.76786" lon="17.5527016">
        <ele>19.3638</ele>
        <time>2012-05-20T09:56:10Z</time>
      </trkpt>
      <trkpt lat="59.7677295" lon="17.553288">
        <ele>18.8831</ele>
        <time>2012-05-20T09:56:18Z</time>
      </trkpt>
      <trkpt lat="59.7676722" lon="17.553504">
        <ele>18.4023</ele>
        <time>2012-05-20T09:56:21Z</time>
      </trkpt>
      <trkpt lat="59.7674524" lon="17.5540227">
        <ele>18.4023</ele>
        <time>2012-05-20T09:56:29Z</time>
      </trkpt>
      <trkpt lat="59.7672866" lon="17.5543117">
        <ele>18.8831</ele>
        <time>2012-05-20T09:56:35Z</time>
      </trkpt>
      <trkpt lat="59.7671114" lon="17.5545986">
        <ele>21.2864</ele>
        <time>2012-05-20T09:56:42Z</time>
      </trkpt>
      <trkpt lat="59.7669475" lon="17.5549157">
        <ele>23.6896</ele>
        <time>2012-05-20T09:56:49Z</time>
      </trkpt>
      <trkpt lat="59.7667867" lon="17.5552537">
        <ele>25.1317</ele>
        <time>2012-05-20T09:56:55Z</time>
      </trkpt>
      <trkpt lat="59.7665924" lon="17.5556401">
        <ele>21.767</ele>
        <time>2012-05-20T09:57:00Z</time>
      </trkpt>
      <trkpt lat="59.7663064" lon="17.556232">
        <ele>18.8831</ele>
        <time>2012-05-20T09:57:06Z</time>
      </trkpt>
      <trkpt lat="59.7660134" lon="17.5569065">
        <ele>15.5184</ele>
        <time>2012-05-20T09:57:12Z</time>
      </trkpt>
      <trkpt lat="59.7657323" lon="17.5575224">
        <ele>11.1925</ele>
        <time>2012-05-20T09:57:17Z</time>
      </trkpt>
      <trkpt lat="59.765315" lon="17.5582169">
        <ele>8.30859</ele>
        <time>2012-05-20T09:57:23Z</time>
      </trkpt>
      <trkpt lat="59.7648302" lon="17.558911">
        <ele>7.34717</ele>
        <time>2012-05-20T09:57:30Z</time>
      </trkpt>
      <trkpt lat="59.7644224" lon="17.5594591">
        <ele>8.30859</ele>
        <time>2012-05-20T09:57:36Z</time>
      </trkpt>
      <trkpt lat="59.7641329" lon="17.5600593">
        <ele>8.30859</ele>
        <time>2012-05-20T09:57:41Z</time>
      </trkpt>
      <trkpt lat="59.7637305" lon="17.5610615">
        <ele>7.82788</ele>
        <time>2012-05-20T09:57:49Z</time>
      </trkpt>
      <trkpt lat="59.7634816" lon="17.5617974">
        <ele>7.34717</ele>
        <time>2012-05-20T09:57:55Z</time>
      </trkpt>
      <trkpt lat="59.7630992" lon="17.5632224">
        <ele>4.46326</ele>
        <time>2012-05-20T09:58:06Z</time>
      </trkpt>
      <trkpt lat="59.7628145" lon="17.5641726">
        <ele>0.618042</ele>
        <time>2012-05-20T09:58:14Z</time>
      </trkpt>
      <trkpt lat="59.7625654" lon="17.5651108">
        <ele>1.09863</ele>
        <time>2012-05-20T09:58:23Z</time>
      </trkpt>
      <trkpt lat="59.762398" lon="17.5657975">
        <ele>4.94385</ele>
        <time>2012-05-20T09:58:30Z</time>
      </trkpt>
      <trkpt lat="59.7621818" lon="17.5663103">
        <ele>8.30859</ele>
        <time>2012-05-20T09:58:36Z</time>
      </trkpt>
      <trkpt lat="59.7617538" lon="17.5670875">
        <ele>8.78918</ele>
        <time>2012-05-20T09:58:45Z</time>
      </trkpt>
      <trkpt lat="59.7613548" lon="17.5677282">
        <ele>10.2312</ele>
        <time>2012-05-20T09:58:53Z</time>
      </trkpt>
      <trkpt lat="59.7609959" lon="17.5683859">
        <ele>9.75061</ele>
        <time>2012-05-20T09:59:01Z</time>
      </trkpt>
      <trkpt lat="59.7605207" lon="17.5691014">
        <ele>8.78918</ele>
        <time>2012-05-20T09:59:10Z</time>
      </trkpt>
      <trkpt lat="59.760054" lon="17.5697341">
        <ele>9.75061</ele>
        <time>2012-05-20T09:59:19Z</time>
      </trkpt>
      <trkpt lat="59.7597432" lon="17.5701619">
        <ele>11.6732</ele>
        <time>2012-05-20T09:59:26Z</time>
      </trkpt>
      <trkpt lat="59.7595361" lon="17.570455">
        <ele>12.1538</ele>
        <time>2012-05-20T09:59:31Z</time>
      </trkpt>
      <trkpt lat="59.7593773" lon="17.5704121">
        <ele>12.1538</ele>
        <time>2012-05-20T09:59:35Z</time>
      </trkpt>
      <trkpt lat="59.7593507" lon="17.5702444">
        <ele>12.1538</ele>
        <time>2012-05-20T09:59:37Z</time>
      </trkpt>
      <trkpt lat="59.7592776" lon="17.5693869">
        <ele>13.5958</ele>
        <time>2012-05-20T09:59:46Z</time>
      </trkpt>
      <trkpt lat="59.759186" lon="17.5685248">
        <ele>14.557</ele>
        <time>2012-05-20T09:59:56Z</time>
      </trkpt>
      <trkpt lat="59.7591228" lon="17.5682178">
        <ele>15.0377</ele>
        <time>2012-05-20T10:00:00Z</time>
      </trkpt>
      <trkpt lat="59.7590367" lon="17.5679697">
        <ele>14.557</ele>
        <time>2012-05-20T10:00:04Z</time>
      </trkpt>
      <trkpt lat="59.7587834" lon="17.5675376">
        <ele>15.0377</ele>
        <time>2012-05-20T10:00:13Z</time>
      </trkpt>
      <trkpt lat="59.7584741" lon="17.5670668">
        <ele>16.9604</ele>
        <time>2012-05-20T10:00:23Z</time>
      </trkpt>
      <trkpt lat="59.7582794" lon="17.5666591">
        <ele>17.9218</ele>
        <time>2012-05-20T10:00:30Z</time>
      </trkpt>
      <trkpt lat="59.7581417" lon="17.5660991">
        <ele>19.3638</ele>
        <time>2012-05-20T10:00:38Z</time>
      </trkpt>
      <trkpt lat="59.7579887" lon="17.5654437">
        <ele>20.8057</ele>
        <time>2012-05-20T10:00:47Z</time>
      </trkpt>
      <trkpt lat="59.7577756" lon="17.5647079">
        <ele>16.9604</ele>
        <time>2012-05-20T10:00:58Z</time>
      </trkpt>
      <trkpt lat="59.7575711" lon="17.5640236">
        <ele>17.4412</ele>
        <time>2012-05-20T10:01:07Z</time>
      </trkpt>
      <trkpt lat="59.7572723" lon="17.5632303">
        <ele>18.4023</ele>
        <time>2012-05-20T10:01:17Z</time>
      </trkpt>
      <trkpt lat="59.7569438" lon="17.5625736">
        <ele>18.4023</ele>
        <time>2012-05-20T10:01:25Z</time>
      </trkpt>
      <trkpt lat="59.7566402" lon="17.5621646">
        <ele>20.325</ele>
        <time>2012-05-20T10:01:31Z</time>
      </trkpt>
      <trkpt lat="59.7562327" lon="17.5616171">
        <ele>23.209</ele>
        <time>2012-05-20T10:01:39Z</time>
      </trkpt>
      <trkpt lat="59.7559302" lon="17.5610286">
        <ele>23.6896</ele>
        <time>2012-05-20T10:01:45Z</time>
      </trkpt>
      <trkpt lat="59.755712" lon="17.5603316">
        <ele>25.6123</ele>
        <time>2012-05-20T10:01:51Z</time>
      </trkpt>
      <trkpt lat="59.7556088" lon="17.5598374">
        <ele>28.4962</ele>
        <time>2012-05-20T10:01:56Z</time>
      </trkpt>
      <trkpt lat="59.7555696" lon="17.5596792">
        <ele>29.4575</ele>
        <time>2012-05-20T10:01:58Z</time>
      </trkpt>
      <trkpt lat="59.7553675" lon="17.559197">
        <ele>34.7449</ele>
        <time>2012-05-20T10:02:05Z</time>
      </trkpt>
      <trkpt lat="59.7550906" lon="17.558671">
        <ele>35.7061</ele>
        <time>2012-05-20T10:02:13Z</time>
      </trkpt>
      <trkpt lat="59.7548558" lon="17.558501">
        <ele>35.2255</ele>
        <time>2012-05-20T10:02:18Z</time>
      </trkpt>
      <trkpt lat="59.754573" lon="17.5586437">
        <ele>32.3416</ele>
        <time>2012-05-20T10:02:23Z</time>
      </trkpt>
      <trkpt lat="59.7543885" lon="17.5586943">
        <ele>28.0155</ele>
        <time>2012-05-20T10:02:26Z</time>
      </trkpt>
      <trkpt lat="59.7541799" lon="17.5584668">
        <ele>23.6896</ele>
        <time>2012-05-20T10:02:30Z</time>
      </trkpt>
      <trkpt lat="59.7541565" lon="17.5583485">
        <ele>23.209</ele>
        <time>2012-05-20T10:02:31Z</time>
      </trkpt>
      <trkpt lat="59.7540198" lon="17.5573712">
        <ele>21.2864</ele>
        <time>2012-05-20T10:02:39Z</time>
      </trkpt>
      <trkpt lat="59.7538961" lon="17.5565469">
        <ele>19.8444</ele>
        <time>2012-05-20T10:02:46Z</time>
      </trkpt>
      <trkpt lat="59.7537376" lon="17.5556781">
        <ele>19.3638</ele>
        <time>2012-05-20T10:02:53Z</time>
      </trkpt>
      <trkpt lat="59.7534866" lon="17.555012">
        <ele>21.2864</ele>
        <time>2012-05-20T10:02:59Z</time>
      </trkpt>
      <trkpt lat="59.7530889" lon="17.554199">
        <ele>26.0929</ele>
        <time>2012-05-20T10:03:08Z</time>
      </trkpt>
      <trkpt lat="59.7527714" lon="17.5535619">
        <ele>29.4575</ele>
        <time>2012-05-20T10:03:16Z</time>
      </trkpt>
      <trkpt lat="59.7525764" lon="17.5529717">
        <ele>30.8995</ele>
        <time>2012-05-20T10:03:22Z</time>
      </trkpt>
      <trkpt lat="59.7524288" lon="17.5522492">
        <ele>30.8995</ele>
        <time>2012-05-20T10:03:28Z</time>
      </trkpt>
      <trkpt lat="59.7523378" lon="17.5513322">
        <ele>30.8995</ele>
        <time>2012-05-20T10:03:35Z</time>
      </trkpt>
      <trkpt lat="59.7523793" lon="17.5506814">
        <ele>30.4188</ele>
        <time>2012-05-20T10:03:40Z</time>
      </trkpt>
      <trkpt lat="59.7525155" lon="17.5499771">
        <ele>29.4575</ele>
        <time>2012-05-20T10:03:46Z</time>
      </trkpt>
      <trkpt lat="59.7525412" lon="17.5497259">
        <ele>29.4575</ele>
        <time>2012-05-20T10:03:48Z</time>
      </trkpt>
      <trkpt lat="59.7525066" lon="17.5490191">
        <ele>29.9381</ele>
        <time>2012-05-20T10:03:54Z</time>
      </trkpt>
      <trkpt lat="59.7523941" lon="17.548438">
        <ele>29.9381</ele>
        <time>2012-05-20T10:04:00Z</time>
      </trkpt>
      <trkpt lat="59.7522777" lon="17.5477037">
        <ele>27.0543</ele>
        <time>2012-05-20T10:04:07Z</time>
      </trkpt>
      <trkpt lat="59.7522175" lon="17.5468851">
        <ele>26.5736</ele>
        <time>2012-05-20T10:04:14Z</time>
      </trkpt>
      <trkpt lat="59.7521554" lon="17.5460423">
        <ele>28.9769</ele>
        <time>2012-05-20T10:04:21Z</time>
      </trkpt>
      <trkpt lat="59.75211" lon="17.5451601">
        <ele>32.3416</ele>
        <time>2012-05-20T10:04:29Z</time>
      </trkpt>
      <trkpt lat="59.7520161" lon="17.5443682">
        <ele>33.7834</ele>
        <time>2012-05-20T10:04:36Z</time>
      </trkpt>
      <trkpt lat="59.7518857" lon="17.5436">
        <ele>35.2255</ele>
        <time>2012-05-20T10:04:43Z</time>
      </trkpt>
      <trkpt lat="59.7517707" lon="17.5430274">
        <ele>35.2255</ele>
        <time>2012-05-20T10:04:49Z</time>
      </trkpt>
      <trkpt lat="59.7516623" lon="17.542323">
        <ele>34.7449</ele>
        <time>2012-05-20T10:04:56Z</time>
      </trkpt>
      <trkpt lat="59.7514909" lon="17.5413776">
        <ele>33.7834</ele>
        <time>2012-05-20T10:05:05Z</time>
      </trkpt>
      <trkpt lat="59.7513478" lon="17.540467">
        <ele>33.3029</ele>
        <time>2012-05-20T10:05:13Z</time>
      </trkpt>
      <trkpt lat="59.7511895" lon="17.5398422">
        <ele>31.3801</ele>
        <time>2012-05-20T10:05:19Z</time>
      </trkpt>
      <trkpt lat="59.7509121" lon="17.5391253">
        <ele>29.9381</ele>
        <time>2012-05-20T10:05:26Z</time>
      </trkpt>
      <trkpt lat="59.7507725" lon="17.5387025">
        <ele>29.4575</ele>
        <time>2012-05-20T10:05:30Z</time>
      </trkpt>
      <trkpt lat="59.7507044" lon="17.5380884">
        <ele>23.209</ele>
        <time>2012-05-20T10:05:35Z</time>
      </trkpt>
      <trkpt lat="59.7507092" lon="17.537971">
        <ele>21.767</ele>
        <time>2012-05-20T10:05:36Z</time>
      </trkpt>
      <trkpt lat="59.7507582" lon="17.5371537">
        <ele>21.767</ele>
        <time>2012-05-20T10:05:43Z</time>
      </trkpt>
      <trkpt lat="59.7507308" lon="17.5363642">
        <ele>24.1703</ele>
        <time>2012-05-20T10:05:50Z</time>
      </trkpt>
      <trkpt lat="59.7506775" lon="17.5352885">
        <ele>25.1317</ele>
        <time>2012-05-20T10:05:58Z</time>
      </trkpt>
      <trkpt lat="59.7506012" lon="17.5343441">
        <ele>27.0543</ele>
        <time>2012-05-20T10:06:05Z</time>
      </trkpt>
      <trkpt lat="59.7504724" lon="17.5333398">
        <ele>28.4962</ele>
        <time>2012-05-20T10:06:13Z</time>
      </trkpt>
      <trkpt lat="59.750344" lon="17.5323182">
        <ele>28.4962</ele>
        <time>2012-05-20T10:06:21Z</time>
      </trkpt>
      <trkpt lat="59.7501995" lon="17.5317116">
        <ele>28.0155</ele>
        <time>2012-05-20T10:06:26Z</time>
      </trkpt>
      <trkpt lat="59.7500678" lon="17.5312337">
        <ele>28.0155</ele>
        <time>2012-05-20T10:06:30Z</time>
      </trkpt>
      <trkpt lat="59.749949" lon="17.5302855">
        <ele>26.5736</ele>
        <time>2012-05-20T10:06:37Z</time>
      </trkpt>
      <trkpt lat="59.7498658" lon="17.5293036">
        <ele>27.0543</ele>
        <time>2012-05-20T10:06:44Z</time>
      </trkpt>
      <trkpt lat="59.7498508" lon="17.5281801">
        <ele>26.5736</ele>
        <time>2012-05-20T10:06:52Z</time>
      </trkpt>
      <trkpt lat="59.749843" lon="17.5277519">
        <ele>26.0929</ele>
        <time>2012-05-20T10:06:55Z</time>
      </trkpt>
      <trkpt lat="59.7497825" lon="17.5272221">
        <ele>26.0929</ele>
        <time>2012-05-20T10:06:59Z</time>
      </trkpt>
      <trkpt lat="59.7496211" lon="17.5263242">
        <ele>25.1317</ele>
        <time>2012-05-20T10:07:06Z</time>
      </trkpt>
      <trkpt lat="59.7495774" lon="17.5255315">
        <ele>27.5349</ele>
        <time>2012-05-20T10:07:12Z</time>
      </trkpt>
      <trkpt lat="59.7495365" lon="17.5247242">
        <ele>28.9769</ele>
        <time>2012-05-20T10:07:19Z</time>
      </trkpt>
      <trkpt lat="59.7494804" lon="17.523915">
        <ele>28.0155</ele>
        <time>2012-05-20T10:07:27Z</time>
      </trkpt>
      <trkpt lat="59.7494352" lon="17.5234767">
        <ele>28.4962</ele>
        <time>2012-05-20T10:07:31Z</time>
      </trkpt>
      <trkpt lat="59.74941" lon="17.5225248">
        <ele>26.5736</ele>
        <time>2012-05-20T10:07:38Z</time>
      </trkpt>
      <trkpt lat="59.7492986" lon="17.5213914">
        <ele>24.651</ele>
        <time>2012-05-20T10:07:46Z</time>
      </trkpt>
      <trkpt lat="59.7492471" lon="17.5204117">
        <ele>24.651</ele>
        <time>2012-05-20T10:07:53Z</time>
      </trkpt>
      <trkpt lat="59.7493188" lon="17.5198731">
        <ele>23.6896</ele>
        <time>2012-05-20T10:07:57Z</time>
      </trkpt>
      <trkpt lat="59.7495597" lon="17.5188935">
        <ele>23.6896</ele>
        <time>2012-05-20T10:08:06Z</time>
      </trkpt>
      <trkpt lat="59.7497786" lon="17.517815">
        <ele>22.2476</ele>
        <time>2012-05-20T10:08:16Z</time>
      </trkpt>
      <trkpt lat="59.7499814" lon="17.5167738">
        <ele>21.767</ele>
        <time>2012-05-20T10:08:25Z</time>
      </trkpt>
      <trkpt lat="59.7502114" lon="17.5159644">
        <ele>21.767</ele>
        <time>2012-05-20T10:08:32Z</time>
      </trkpt>
      <trkpt lat="59.7505434" lon="17.5151197">
        <ele>22.7283</ele>
        <time>2012-05-20T10:08:40Z</time>
      </trkpt>
      <trkpt lat="59.7508885" lon="17.5141873">
        <ele>25.1317</ele>
        <time>2012-05-20T10:08:49Z</time>
      </trkpt>
      <trkpt lat="59.7511882" lon="17.5133201">
        <ele>24.1703</ele>
        <time>2012-05-20T10:08:57Z</time>
      </trkpt>
      <trkpt lat="59.7514463" lon="17.5124082">
        <ele>23.209</ele>
        <time>2012-05-20T10:09:05Z</time>
      </trkpt>
      <trkpt lat="59.751785" lon="17.5114304">
        <ele>21.2864</ele>
        <time>2012-05-20T10:09:14Z</time>
      </trkpt>
      <trkpt lat="59.7521274" lon="17.5103809">
        <ele>22.2476</ele>
        <time>2012-05-20T10:09:24Z</time>
      </trkpt>
      <trkpt lat="59.7521939" lon="17.5101835">
        <ele>22.7283</ele>
        <time>2012-05-20T10:09:26Z</time>
      </trkpt>
      <trkpt lat="59.7524574" lon="17.5095646">
        <ele>23.6896</ele>
        <time>2012-05-20T10:09:33Z</time>
      </trkpt>
      <trkpt lat="59.752718" lon="17.5089082">
        <ele>23.6896</ele>
        <time>2012-05-20T10:09:40Z</time>
      </trkpt>
      <trkpt lat="59.7530521" lon="17.5080599">
        <ele>24.1703</ele>
        <time>2012-05-20T10:09:49Z</time>
      </trkpt>
      <trkpt lat="59.7534049" lon="17.5071909">
        <ele>21.2864</ele>
        <time>2012-05-20T10:09:58Z</time>
      </trkpt>
      <trkpt lat="59.7536881" lon="17.5064685">
        <ele>16.4797</ele>
        <time>2012-05-20T10:10:05Z</time>
      </trkpt>
      <trkpt lat="59.7539368" lon="17.5056936">
        <ele>11.6732</ele>
        <time>2012-05-20T10:10:11Z</time>
      </trkpt>
      <trkpt lat="59.7542117" lon="17.5045771">
        <ele>5.42456</ele>
        <time>2012-05-20T10:10:18Z</time>
      </trkpt>
      <trkpt lat="59.754445" lon="17.5035594">
        <ele>3.02124</ele>
        <time>2012-05-20T10:10:23Z</time>
      </trkpt>
      <trkpt lat="59.7546967" lon="17.5024145">
        <ele>3.02124</ele>
        <time>2012-05-20T10:10:29Z</time>
      </trkpt>
      <trkpt lat="59.7548724" lon="17.5014312">
        <ele>4.46326</ele>
        <time>2012-05-20T10:10:35Z</time>
      </trkpt>
      <trkpt lat="59.7550631" lon="17.5004103">
        <ele>7.82788</ele>
        <time>2012-05-20T10:10:42Z</time>
      </trkpt>
      <trkpt lat="59.7552108" lon="17.4997158">
        <ele>10.7118</ele>
        <time>2012-05-20T10:10:48Z</time>
      </trkpt>
      <trkpt lat="59.7553581" lon="17.4990542">
        <ele>11.1925</ele>
        <time>2012-05-20T10:10:54Z</time>
      </trkpt>
      <trkpt lat="59.7555679" lon="17.498146">
        <ele>10.2312</ele>
        <time>2012-05-20T10:11:01Z</time>
      </trkpt>
      <trkpt lat="59.7558727" lon="17.4968483">
        <ele>10.2312</ele>
        <time>2012-05-20T10:11:11Z</time>
      </trkpt>
      <trkpt lat="59.7561069" lon="17.4958429">
        <ele>10.2312</ele>
        <time>2012-05-20T10:11:19Z</time>
      </trkpt>
      <trkpt lat="59.7563903" lon="17.4946405">
        <ele>14.557</ele>
        <time>2012-05-20T10:11:29Z</time>
      </trkpt>
      <trkpt lat="59.7565961" lon="17.4937184">
        <ele>18.4023</ele>
        <time>2012-05-20T10:11:38Z</time>
      </trkpt>
      <trkpt lat="59.7568061" lon="17.4927887">
        <ele>19.3638</ele>
        <time>2012-05-20T10:11:48Z</time>
      </trkpt>
      <trkpt lat="59.7570515" lon="17.4919288">
        <ele>20.325</ele>
        <time>2012-05-20T10:11:58Z</time>
      </trkpt>
      <trkpt lat="59.7572847" lon="17.4911675">
        <ele>20.325</ele>
        <time>2012-05-20T10:12:07Z</time>
      </trkpt>
      <trkpt lat="59.7575065" lon="17.4903386">
        <ele>18.8831</ele>
        <time>2012-05-20T10:12:16Z</time>
      </trkpt>
      <trkpt lat="59.757654" lon="17.489459">
        <ele>21.767</ele>
        <time>2012-05-20T10:12:25Z</time>
      </trkpt>
      <trkpt lat="59.7577832" lon="17.4886541">
        <ele>21.767</ele>
        <time>2012-05-20T10:12:32Z</time>
      </trkpt>
      <trkpt lat="59.7579494" lon="17.4879927">
        <ele>18.8831</ele>
        <time>2012-05-20T10:12:37Z</time>
      </trkpt>
      <trkpt lat="59.7583087" lon="17.4870621">
        <ele>15.999</ele>
        <time>2012-05-20T10:12:44Z</time>
      </trkpt>
      <trkpt lat="59.7586063" lon="17.4865762">
        <ele>16.4797</ele>
        <time>2012-05-20T10:12:49Z</time>
      </trkpt>
      <trkpt lat="59.7589885" lon="17.4860868">
        <ele>17.9218</ele>
        <time>2012-05-20T10:12:56Z</time>
      </trkpt>
      <trkpt lat="59.7590964" lon="17.4859639">
        <ele>17.9218</ele>
        <time>2012-05-20T10:12:59Z</time>
      </trkpt>
      <trkpt lat="59.7591906" lon="17.4856575">
        <ele>18.8831</ele>
        <time>2012-05-20T10:13:05Z</time>
      </trkpt>
      <trkpt lat="59.7591484" lon="17.4854492">
        <ele>20.8057</ele>
        <time>2012-05-20T10:13:08Z</time>
      </trkpt>
      <trkpt lat="59.7590429" lon="17.4851993">
        <ele>21.2864</ele>
        <time>2012-05-20T10:13:11Z</time>
      </trkpt>
      <trkpt lat="59.7588263" lon="17.4844875">
        <ele>23.209</ele>
        <time>2012-05-20T10:13:18Z</time>
      </trkpt>
      <trkpt lat="59.7585726" lon="17.4835755">
        <ele>25.1317</ele>
        <time>2012-05-20T10:13:27Z</time>
      </trkpt>
      <trkpt lat="59.758375" lon="17.4828589">
        <ele>22.7283</ele>
        <time>2012-05-20T10:13:34Z</time>
      </trkpt>
      <trkpt lat="59.7580959" lon="17.4823483">
        <ele>20.325</ele>
        <time>2012-05-20T10:13:40Z</time>
      </trkpt>
      <trkpt lat="59.7576873" lon="17.4817065">
        <ele>20.325</ele>
        <time>2012-05-20T10:13:48Z</time>
      </trkpt>
      <trkpt lat="59.7573267" lon="17.480986">
        <ele>19.8444</ele>
        <time>2012-05-20T10:13:55Z</time>
      </trkpt>
      <trkpt lat="59.7571066" lon="17.4802862">
        <ele>22.2476</ele>
        <time>2012-05-20T10:14:01Z</time>
      </trkpt>
      <trkpt lat="59.7569786" lon="17.4794253">
        <ele>25.1317</ele>
        <time>2012-05-20T10:14:08Z</time>
      </trkpt>
      <trkpt lat="59.7568632" lon="17.4783827">
        <ele>26.5736</ele>
        <time>2012-05-20T10:14:16Z</time>
      </trkpt>
      <trkpt lat="59.7567662" lon="17.4773652">
        <ele>28.0155</ele>
        <time>2012-05-20T10:14:24Z</time>
      </trkpt>
      <trkpt lat="59.7566947" lon="17.4768977">
        <ele>28.9769</ele>
        <time>2012-05-20T10:14:28Z</time>
      </trkpt>
      <trkpt lat="59.7564824" lon="17.4760787">
        <ele>27.5349</ele>
        <time>2012-05-20T10:14:36Z</time>
      </trkpt>
      <trkpt lat="59.7562254" lon="17.475514">
        <ele>27.5349</ele>
        <time>2012-05-20T10:14:43Z</time>
      </trkpt>
      <trkpt lat="59.7560883" lon="17.4753381">
        <ele>27.5349</ele>
        <time>2012-05-20T10:14:46Z</time>
      </trkpt>
      <trkpt lat="59.7557017" lon="17.4751111">
        <ele>27.5349</ele>
        <time>2012-05-20T10:14:53Z</time>
      </trkpt>
      <trkpt lat="59.7553287" lon="17.4749805">
        <ele>27.5349</ele>
        <time>2012-05-20T10:15:00Z</time>
      </trkpt>
      <trkpt lat="59.7549242" lon="17.474821">
        <ele>27.5349</ele>
        <time>2012-05-20T10:15:07Z</time>
      </trkpt>
      <trkpt lat="59.7545508" lon="17.4745943">
        <ele>27.5349</ele>
        <time>2012-05-20T10:15:13Z</time>
      </trkpt>
      <trkpt lat="59.7542299" lon="17.4741482">
        <ele>28.0155</ele>
        <time>2012-05-20T10:15:19Z</time>
      </trkpt>
      <trkpt lat="59.7540002" lon="17.4734948">
        <ele>28.0155</ele>
        <time>2012-05-20T10:15:25Z</time>
      </trkpt>
      <trkpt lat="59.7537899" lon="17.4725263">
        <ele>28.0155</ele>
        <time>2012-05-20T10:15:33Z</time>
      </trkpt>
      <trkpt lat="59.7536608" lon="17.4713966">
        <ele>26.0929</ele>
        <time>2012-05-20T10:15:42Z</time>
      </trkpt>
      <trkpt lat="59.7535551" lon="17.4702923">
        <ele>25.1317</ele>
        <time>2012-05-20T10:15:51Z</time>
      </trkpt>
      <trkpt lat="59.7535266" lon="17.4698166">
        <ele>25.1317</ele>
        <time>2012-05-20T10:15:55Z</time>
      </trkpt>
      <trkpt lat="59.7536173" lon="17.4688732">
        <ele>22.2476</ele>
        <time>2012-05-20T10:16:03Z</time>
      </trkpt>
      <trkpt lat="59.7538043" lon="17.4679622">
        <ele>21.767</ele>
        <time>2012-05-20T10:16:11Z</time>
      </trkpt>
      <trkpt lat="59.7540074" lon="17.46703">
        <ele>18.8831</ele>
        <time>2012-05-20T10:16:19Z</time>
      </trkpt>
      <trkpt lat="59.7541792" lon="17.4659378">
        <ele>17.4412</ele>
        <time>2012-05-20T10:16:28Z</time>
      </trkpt>
      <trkpt lat="59.754326" lon="17.4648863">
        <ele>16.4797</ele>
        <time>2012-05-20T10:16:36Z</time>
      </trkpt>
      <trkpt lat="59.7544399" lon="17.4638332">
        <ele>16.4797</ele>
        <time>2012-05-20T10:16:44Z</time>
      </trkpt>
      <trkpt lat="59.7544775" lon="17.462781">
        <ele>16.9604</ele>
        <time>2012-05-20T10:16:52Z</time>
      </trkpt>
      <trkpt lat="59.7544441" lon="17.4619998">
        <ele>19.3638</ele>
        <time>2012-05-20T10:16:58Z</time>
      </trkpt>
      <trkpt lat="59.7544482" lon="17.4609887">
        <ele>20.8057</ele>
        <time>2012-05-20T10:17:06Z</time>
      </trkpt>
      <trkpt lat="59.7544648" lon="17.4604106">
        <ele>22.7283</ele>
        <time>2012-05-20T10:17:11Z</time>
      </trkpt>
      <trkpt lat="59.7545834" lon="17.459671">
        <ele>25.6123</ele>
        <time>2012-05-20T10:17:19Z</time>
      </trkpt>
      <trkpt lat="59.7547148" lon="17.4587797">
        <ele>31.3801</ele>
        <time>2012-05-20T10:17:27Z</time>
      </trkpt>
      <trkpt lat="59.7547642" lon="17.4580469">
        <ele>32.3416</ele>
        <time>2012-05-20T10:17:33Z</time>
      </trkpt>
      <trkpt lat="59.754738" lon="17.4575772">
        <ele>31.8607</ele>
        <time>2012-05-20T10:17:37Z</time>
      </trkpt>
      <trkpt lat="59.7545444" lon="17.4565621">
        <ele>30.4188</ele>
        <time>2012-05-20T10:17:46Z</time>
      </trkpt>
      <trkpt lat="59.7543972" lon="17.4559236">
        <ele>28.4962</ele>
        <time>2012-05-20T10:17:52Z</time>
      </trkpt>
      <trkpt lat="59.7542202" lon="17.4549534">
        <ele>24.651</ele>
        <time>2012-05-20T10:18:00Z</time>
      </trkpt>
      <trkpt lat="59.7540513" lon="17.453919">
        <ele>22.2476</ele>
        <time>2012-05-20T10:18:08Z</time>
      </trkpt>
      <trkpt lat="59.753983" lon="17.4529942">
        <ele>20.8057</ele>
        <time>2012-05-20T10:18:15Z</time>
      </trkpt>
      <trkpt lat="59.7540322" lon="17.4523391">
        <ele>22.2476</ele>
        <time>2012-05-20T10:18:20Z</time>
      </trkpt>
      <trkpt lat="59.7541327" lon="17.4514558">
        <ele>21.2864</ele>
        <time>2012-05-20T10:18:27Z</time>
      </trkpt>
      <trkpt lat="59.7541565" lon="17.4513304">
        <ele>21.2864</ele>
        <time>2012-05-20T10:18:28Z</time>
      </trkpt>
      <trkpt lat="59.7543506" lon="17.4507632">
        <ele>21.2864</ele>
        <time>2012-05-20T10:18:33Z</time>
      </trkpt>
      <trkpt lat="59.7546156" lon="17.4501717">
        <ele>19.8444</ele>
        <time>2012-05-20T10:18:39Z</time>
      </trkpt>
      <trkpt lat="59.754846" lon="17.4492025">
        <ele>19.8444</ele>
        <time>2012-05-20T10:18:47Z</time>
      </trkpt>
      <trkpt lat="59.7550475" lon="17.4482292">
        <ele>19.3638</ele>
        <time>2012-05-20T10:18:55Z</time>
      </trkpt>
      <trkpt lat="59.7552687" lon="17.447138">
        <ele>19.8444</ele>
        <time>2012-05-20T10:19:04Z</time>
      </trkpt>
      <trkpt lat="59.7554655" lon="17.446144">
        <ele>18.8831</ele>
        <time>2012-05-20T10:19:12Z</time>
      </trkpt>
      <trkpt lat="59.7556982" lon="17.4449977">
        <ele>18.4023</ele>
        <time>2012-05-20T10:19:21Z</time>
      </trkpt>
      <trkpt lat="59.7559034" lon="17.4439943">
        <ele>18.4023</ele>
        <time>2012-05-20T10:19:29Z</time>
      </trkpt>
      <trkpt lat="59.7561064" lon="17.4429765">
        <ele>18.4023</ele>
        <time>2012-05-20T10:19:37Z</time>
      </trkpt>
      <trkpt lat="59.7563315" lon="17.441892">
        <ele>18.4023</ele>
        <time>2012-05-20T10:19:46Z</time>
      </trkpt>
      <trkpt lat="59.7565492" lon="17.4408349">
        <ele>17.9218</ele>
        <time>2012-05-20T10:19:55Z</time>
      </trkpt>
      <trkpt lat="59.7567135" lon="17.4401398">
        <ele>17.9218</ele>
        <time>2012-05-20T10:20:01Z</time>
      </trkpt>
      <trkpt lat="59.7570905" lon="17.4392196">
        <ele>17.4412</ele>
        <time>2012-05-20T10:20:10Z</time>
      </trkpt>
      <trkpt lat="59.7574464" lon="17.4383994">
        <ele>16.4797</ele>
        <time>2012-05-20T10:20:18Z</time>
      </trkpt>
      <trkpt lat="59.7577867" lon="17.4376182">
        <ele>16.9604</ele>
        <time>2012-05-20T10:20:26Z</time>
      </trkpt>
      <trkpt lat="59.758169" lon="17.4367577">
        <ele>17.9218</ele>
        <time>2012-05-20T10:20:35Z</time>
      </trkpt>
      <trkpt lat="59.758549" lon="17.4358625">
        <ele>18.4023</ele>
        <time>2012-05-20T10:20:44Z</time>
      </trkpt>
      <trkpt lat="59.7589604" lon="17.434897">
        <ele>19.3638</ele>
        <time>2012-05-20T10:20:54Z</time>
      </trkpt>
      <trkpt lat="59.7592351" lon="17.43422">
        <ele>18.4023</ele>
        <time>2012-05-20T10:21:01Z</time>
      </trkpt>
      <trkpt lat="59.7595656" lon="17.4333698">
        <ele>16.9604</ele>
        <time>2012-05-20T10:21:09Z</time>
      </trkpt>
      <trkpt lat="59.7599342" lon="17.4324183">
        <ele>16.4797</ele>
        <time>2012-05-20T10:21:18Z</time>
      </trkpt>
      <trkpt lat="59.7603264" lon="17.4314653">
        <ele>18.8831</ele>
        <time>2012-05-20T10:21:27Z</time>
      </trkpt>
      <trkpt lat="59.7606063" lon="17.4308634">
        <ele>22.7283</ele>
        <time>2012-05-20T10:21:33Z</time>
      </trkpt>
      <trkpt lat="59.7609477" lon="17.430206">
        <ele>23.6896</ele>
        <time>2012-05-20T10:21:40Z</time>
      </trkpt>
      <trkpt lat="59.7612894" lon="17.4295569">
        <ele>21.767</ele>
        <time>2012-05-20T10:21:47Z</time>
      </trkpt>
      <trkpt lat="59.7615201" lon="17.4290631">
        <ele>21.767</ele>
        <time>2012-05-20T10:21:52Z</time>
      </trkpt>
      <trkpt lat="59.7617835" lon="17.4285323">
        <ele>15.5184</ele>
        <time>2012-05-20T10:21:58Z</time>
      </trkpt>
      <trkpt lat="59.7620589" lon="17.4278064">
        <ele>16.9604</ele>
        <time>2012-05-20T10:22:05Z</time>
      </trkpt>
      <trkpt lat="59.7622562" lon="17.4271726">
        <ele>18.4023</ele>
        <time>2012-05-20T10:22:11Z</time>
      </trkpt>
      <trkpt lat="59.7624315" lon="17.4264078">
        <ele>20.8057</ele>
        <time>2012-05-20T10:22:18Z</time>
      </trkpt>
      <trkpt lat="59.7625818" lon="17.4257075">
        <ele>18.8831</ele>
        <time>2012-05-20T10:22:25Z</time>
      </trkpt>
      <trkpt lat="59.7627315" lon="17.4249901">
        <ele>17.9218</ele>
        <time>2012-05-20T10:22:32Z</time>
      </trkpt>
      <trkpt lat="59.7628872" lon="17.42428">
        <ele>19.8444</ele>
        <time>2012-05-20T10:22:39Z</time>
      </trkpt>
      <trkpt lat="59.7630176" lon="17.4237113">
        <ele>18.8831</ele>
        <time>2012-05-20T10:22:45Z</time>
      </trkpt>
      <trkpt lat="59.763174" lon="17.4231599">
        <ele>18.8831</ele>
        <time>2012-05-20T10:22:51Z</time>
      </trkpt>
      <trkpt lat="59.7634337" lon="17.4224617">
        <ele>20.325</ele>
        <time>2012-05-20T10:22:59Z</time>
      </trkpt>
      <trkpt lat="59.7636656" lon="17.4218857">
        <ele>22.7283</ele>
        <time>2012-05-20T10:23:05Z</time>
      </trkpt>
      <trkpt lat="59.7639976" lon="17.421135">
        <ele>22.7283</ele>
        <time>2012-05-20T10:23:13Z</time>
      </trkpt>
      <trkpt lat="59.764409" lon="17.4202372">
        <ele>22.7283</ele>
        <time>2012-05-20T10:23:22Z</time>
      </trkpt>
      <trkpt lat="59.7649429" lon="17.4190905">
        <ele>23.209</ele>
        <time>2012-05-20T10:23:33Z</time>
      </trkpt>
      <trkpt lat="59.7655009" lon="17.4180032">
        <ele>21.767</ele>
        <time>2012-05-20T10:23:44Z</time>
      </trkpt>
      <trkpt lat="59.7659698" lon="17.4171624">
        <ele>20.8057</ele>
        <time>2012-05-20T10:23:53Z</time>
      </trkpt>
      <trkpt lat="59.7664464" lon="17.4163206">
        <ele>20.325</ele>
        <time>2012-05-20T10:24:02Z</time>
      </trkpt>
      <trkpt lat="59.7669164" lon="17.4154872">
        <ele>20.8057</ele>
        <time>2012-05-20T10:24:11Z</time>
      </trkpt>
      <trkpt lat="59.7672687" lon="17.4148701">
        <ele>20.8057</ele>
        <time>2012-05-20T10:24:18Z</time>
      </trkpt>
      <trkpt lat="59.7677808" lon="17.4139638">
        <ele>20.8057</ele>
        <time>2012-05-20T10:24:28Z</time>
      </trkpt>
      <trkpt lat="59.7681827" lon="17.4132526">
        <ele>20.8057</ele>
        <time>2012-05-20T10:24:36Z</time>
      </trkpt>
      <trkpt lat="59.7686246" lon="17.4124862">
        <ele>21.767</ele>
        <time>2012-05-20T10:24:45Z</time>
      </trkpt>
      <trkpt lat="59.7690727" lon="17.4117898">
        <ele>22.7283</ele>
        <time>2012-05-20T10:24:54Z</time>
      </trkpt>
      <trkpt lat="59.7695887" lon="17.4110949">
        <ele>22.7283</ele>
        <time>2012-05-20T10:25:03Z</time>
      </trkpt>
      <trkpt lat="59.7701903" lon="17.410304">
        <ele>22.7283</ele>
        <time>2012-05-20T10:25:13Z</time>
      </trkpt>
      <trkpt lat="59.7707982" lon="17.4094981">
        <ele>22.2476</ele>
        <time>2012-05-20T10:25:23Z</time>
      </trkpt>
      <trkpt lat="59.7712104" lon="17.4089451">
        <ele>20.8057</ele>
        <time>2012-05-20T10:25:30Z</time>
      </trkpt>
      <trkpt lat="59.7716853" lon="17.4083133">
        <ele>20.325</ele>
        <time>2012-05-20T10:25:38Z</time>
      </trkpt>
      <trkpt lat="59.7722206" lon="17.407562">
        <ele>16.9604</ele>
        <time>2012-05-20T10:25:47Z</time>
      </trkpt>
      <trkpt lat="59.7727008" lon="17.4069153">
        <ele>15.0377</ele>
        <time>2012-05-20T10:25:55Z</time>
      </trkpt>
      <trkpt lat="59.7732778" lon="17.4061155">
        <ele>12.6344</ele>
        <time>2012-05-20T10:26:05Z</time>
      </trkpt>
      <trkpt lat="59.7734239" lon="17.405891">
        <ele>12.1538</ele>
        <time>2012-05-20T10:26:08Z</time>
      </trkpt>
      <trkpt lat="59.7734767" lon="17.4054418">
        <ele>12.6344</ele>
        <time>2012-05-20T10:26:12Z</time>
      </trkpt>
      <trkpt lat="59.7733848" lon="17.4051441">
        <ele>13.1151</ele>
        <time>2012-05-20T10:26:15Z</time>
      </trkpt>
      <trkpt lat="59.7730407" lon="17.4044641">
        <ele>13.1151</ele>
        <time>2012-05-20T10:26:23Z</time>
      </trkpt>
      <trkpt lat="59.7727349" lon="17.4039263">
        <ele>12.6344</ele>
        <time>2012-05-20T10:26:30Z</time>
      </trkpt>
      <trkpt lat="59.7723965" lon="17.4032731">
        <ele>12.6344</ele>
        <time>2012-05-20T10:26:38Z</time>
      </trkpt>
      <trkpt lat="59.7721194" lon="17.4025796">
        <ele>12.6344</ele>
        <time>2012-05-20T10:26:45Z</time>
      </trkpt>
      <trkpt lat="59.7718005" lon="17.4015315">
        <ele>12.1538</ele>
        <time>2012-05-20T10:26:54Z</time>
      </trkpt>
      <trkpt lat="59.7714958" lon="17.4004287">
        <ele>13.1151</ele>
        <time>2012-05-20T10:27:04Z</time>
      </trkpt>
      <trkpt lat="59.7712574" lon="17.3994456">
        <ele>14.557</ele>
        <time>2012-05-20T10:27:13Z</time>
      </trkpt>
      <trkpt lat="59.7710592" lon="17.3984623">
        <ele>16.4797</ele>
        <time>2012-05-20T10:27:22Z</time>
      </trkpt>
      <trkpt lat="59.7708741" lon="17.3976194">
        <ele>17.4412</ele>
        <time>2012-05-20T10:27:30Z</time>
      </trkpt>
      <trkpt lat="59.7706756" lon="17.3969829">
        <ele>17.9218</ele>
        <time>2012-05-20T10:27:37Z</time>
      </trkpt>
      <trkpt lat="59.7704429" lon="17.3963799">
        <ele>19.3638</ele>
        <time>2012-05-20T10:27:45Z</time>
      </trkpt>
      <trkpt lat="59.7702061" lon="17.3958986">
        <ele>21.2864</ele>
        <time>2012-05-20T10:27:53Z</time>
      </trkpt>
      <trkpt lat="59.7699214" lon="17.3954561">
        <ele>21.767</ele>
        <time>2012-05-20T10:28:01Z</time>
      </trkpt>
      <trkpt lat="59.7696398" lon="17.3950993">
        <ele>21.2864</ele>
        <time>2012-05-20T10:28:09Z</time>
      </trkpt>
      <trkpt lat="59.7693069" lon="17.3947368">
        <ele>20.325</ele>
        <time>2012-05-20T10:28:17Z</time>
      </trkpt>
      <trkpt lat="59.768931" lon="17.394396">
        <ele>19.8444</ele>
        <time>2012-05-20T10:28:25Z</time>
      </trkpt>
      <trkpt lat="59.7684637" lon="17.3940629">
        <ele>19.8444</ele>
        <time>2012-05-20T10:28:34Z</time>
      </trkpt>
      <trkpt lat="59.7682284" lon="17.3938184">
        <ele>19.8444</ele>
        <time>2012-05-20T10:28:39Z</time>
      </trkpt>
      <trkpt lat="59.7680329" lon="17.3933273">
        <ele>18.4023</ele>
        <time>2012-05-20T10:28:45Z</time>
      </trkpt>
      <trkpt lat="59.7680133" lon="17.393216">
        <ele>17.9218</ele>
        <time>2012-05-20T10:28:46Z</time>
      </trkpt>
      <trkpt lat="59.7678931" lon="17.3922001">
        <ele>16.4797</ele>
        <time>2012-05-20T10:28:54Z</time>
      </trkpt>
      <trkpt lat="59.7679796" lon="17.3917105">
        <ele>16.4797</ele>
        <time>2012-05-20T10:28:58Z</time>
      </trkpt>
      <trkpt lat="59.7681885" lon="17.3916006">
        <ele>16.9604</ele>
        <time>2012-05-20T10:29:01Z</time>
      </trkpt>
      <trkpt lat="59.7682635" lon="17.3916173">
        <ele>16.9604</ele>
        <time>2012-05-20T10:29:02Z</time>
      </trkpt>
      <trkpt lat="59.7689807" lon="17.3918264">
        <ele>15.5184</ele>
        <time>2012-05-20T10:29:12Z</time>
      </trkpt>
      <trkpt lat="59.7691673" lon="17.3918784">
        <ele>15.999</ele>
        <time>2012-05-20T10:29:15Z</time>
      </trkpt>
      <trkpt lat="59.7694057" lon="17.3918059">
        <ele>17.4412</ele>
        <time>2012-05-20T10:29:19Z</time>
      </trkpt>
      <trkpt lat="59.7694528" lon="17.391738">
        <ele>17.4412</ele>
        <time>2012-05-20T10:29:20Z</time>
      </trkpt>
      <trkpt lat="59.7695151" lon="17.3915974">
        <ele>18.4023</ele>
        <time>2012-05-20T10:29:22Z</time>
      </trkpt>
      <trkpt lat="59.7695465" lon="17.39135">
        <ele>20.8057</ele>
        <time>2012-05-20T10:29:26Z</time>
      </trkpt>
      <trkpt lat="59.7694649" lon="17.3910701">
        <ele>19.8444</ele>
        <time>2012-05-20T10:29:30Z</time>
      </trkpt>
      <trkpt lat="59.7690183" lon="17.3905058">
        <ele>18.4023</ele>
        <time>2012-05-20T10:29:40Z</time>
      </trkpt>
      <trkpt lat="59.768599" lon="17.3899388">
        <ele>18.8831</ele>
        <time>2012-05-20T10:29:50Z</time>
      </trkpt>
      <trkpt lat="59.7682433" lon="17.3894496">
        <ele>20.325</ele>
        <time>2012-05-20T10:29:58Z</time>
      </trkpt>
      <trkpt lat="59.7679145" lon="17.3890116">
        <ele>21.2864</ele>
        <time>2012-05-20T10:30:06Z</time>
      </trkpt>
      <trkpt lat="59.7675227" lon="17.3884699">
        <ele>21.2864</ele>
        <time>2012-05-20T10:30:16Z</time>
      </trkpt>
      <trkpt lat="59.7671581" lon="17.3879503">
        <ele>21.767</ele>
        <time>2012-05-20T10:30:25Z</time>
      </trkpt>
      <trkpt lat="59.7666825" lon="17.387333">
        <ele>19.8444</ele>
        <time>2012-05-20T10:30:36Z</time>
      </trkpt>
      <trkpt lat="59.7662475" lon="17.3867511">
        <ele>15.5184</ele>
        <time>2012-05-20T10:30:46Z</time>
      </trkpt>
      <trkpt lat="59.7657387" lon="17.3860267">
        <ele>14.557</ele>
        <time>2012-05-20T10:30:57Z</time>
      </trkpt>
      <trkpt lat="59.7652197" lon="17.3851863">
        <ele>14.557</ele>
        <time>2012-05-20T10:31:08Z</time>
      </trkpt>
      <trkpt lat="59.7647177" lon="17.3842593">
        <ele>15.5184</ele>
        <time>2012-05-20T10:31:19Z</time>
      </trkpt>
      <trkpt lat="59.764194" lon="17.3831736">
        <ele>17.4412</ele>
        <time>2012-05-20T10:31:31Z</time>
      </trkpt>
      <trkpt lat="59.7637341" lon="17.3821092">
        <ele>18.4023</ele>
        <time>2012-05-20T10:31:42Z</time>
      </trkpt>
      <trkpt lat="59.7633246" lon="17.3810697">
        <ele>19.3638</ele>
        <time>2012-05-20T10:31:52Z</time>
      </trkpt>
      <trkpt lat="59.7628169" lon="17.3797537">
        <ele>20.8057</ele>
        <time>2012-05-20T10:32:05Z</time>
      </trkpt>
      <trkpt lat="59.7623856" lon="17.378632">
        <ele>21.767</ele>
        <time>2012-05-20T10:32:16Z</time>
      </trkpt>
      <trkpt lat="59.761996" lon="17.3776155">
        <ele>22.7283</ele>
        <time>2012-05-20T10:32:26Z</time>
      </trkpt>
      <trkpt lat="59.7615211" lon="17.3764092">
        <ele>24.651</ele>
        <time>2012-05-20T10:32:38Z</time>
      </trkpt>
      <trkpt lat="59.7611648" lon="17.3754798">
        <ele>25.6123</ele>
        <time>2012-05-20T10:32:47Z</time>
      </trkpt>
      <trkpt lat="59.7607316" lon="17.3743687">
        <ele>26.5736</ele>
        <time>2012-05-20T10:32:58Z</time>
      </trkpt>
      <trkpt lat="59.7603736" lon="17.3734138">
        <ele>27.5349</ele>
        <time>2012-05-20T10:33:08Z</time>
      </trkpt>
      <trkpt lat="59.7599328" lon="17.3722943">
        <ele>28.0155</ele>
        <time>2012-05-20T10:33:20Z</time>
      </trkpt>
      <trkpt lat="59.7595675" lon="17.3713973">
        <ele>28.9769</ele>
        <time>2012-05-20T10:33:30Z</time>
      </trkpt>
      <trkpt lat="59.7593173" lon="17.3707855">
        <ele>29.4575</ele>
        <time>2012-05-20T10:33:37Z</time>
      </trkpt>
      <trkpt lat="59.7588993" lon="17.369821">
        <ele>28.9769</ele>
        <time>2012-05-20T10:33:48Z</time>
      </trkpt>
      <trkpt lat="59.758617" lon="17.3691834">
        <ele>28.9769</ele>
        <time>2012-05-20T10:33:55Z</time>
      </trkpt>
      <trkpt lat="59.7581496" lon="17.3681433">
        <ele>28.4962</ele>
        <time>2012-05-20T10:34:06Z</time>
      </trkpt>
      <trkpt lat="59.7576339" lon="17.3670486">
        <ele>28.9769</ele>
        <time>2012-05-20T10:34:17Z</time>
      </trkpt>
      <trkpt lat="59.7570693" lon="17.3658825">
        <ele>28.9769</ele>
        <time>2012-05-20T10:34:28Z</time>
      </trkpt>
      <trkpt lat="59.7565922" lon="17.364951">
        <ele>28.9769</ele>
        <time>2012-05-20T10:34:37Z</time>
      </trkpt>
      <trkpt lat="59.7561233" lon="17.3640302">
        <ele>28.9769</ele>
        <time>2012-05-20T10:34:46Z</time>
      </trkpt>
      <trkpt lat="59.7554923" lon="17.3628158">
        <ele>28.4962</ele>
        <time>2012-05-20T10:34:58Z</time>
      </trkpt>
      <trkpt lat="59.7549765" lon="17.3618321">
        <ele>28.4962</ele>
        <time>2012-05-20T10:35:08Z</time>
      </trkpt>
      <trkpt lat="59.7543647" lon="17.3606111">
        <ele>28.0155</ele>
        <time>2012-05-20T10:35:20Z</time>
      </trkpt>
      <trkpt lat="59.7537236" lon="17.3592363">
        <ele>27.0543</ele>
        <time>2012-05-20T10:35:33Z</time>
      </trkpt>
      <trkpt lat="59.7531579" lon="17.3579373">
        <ele>27.5349</ele>
        <time>2012-05-20T10:35:45Z</time>
      </trkpt>
      <trkpt lat="59.7527546" lon="17.3569459">
        <ele>27.0543</ele>
        <time>2012-05-20T10:35:54Z</time>
      </trkpt>
      <trkpt lat="59.7523331" lon="17.3558285">
        <ele>27.0543</ele>
        <time>2012-05-20T10:36:04Z</time>
      </trkpt>
      <trkpt lat="59.7521185" lon="17.355222">
        <ele>27.0543</ele>
        <time>2012-05-20T10:36:10Z</time>
      </trkpt>
      <trkpt lat="59.7518234" lon="17.3543451">
        <ele>27.5349</ele>
        <time>2012-05-20T10:36:18Z</time>
      </trkpt>
      <trkpt lat="59.7514595" lon="17.3532122">
        <ele>27.5349</ele>
        <time>2012-05-20T10:36:28Z</time>
      </trkpt>
      <trkpt lat="59.7511094" lon="17.3520474">
        <ele>27.5349</ele>
        <time>2012-05-20T10:36:38Z</time>
      </trkpt>
      <trkpt lat="59.7508696" lon="17.3511585">
        <ele>27.0543</ele>
        <time>2012-05-20T10:36:46Z</time>
      </trkpt>
      <trkpt lat="59.7505853" lon="17.3501076">
        <ele>27.0543</ele>
        <time>2012-05-20T10:36:55Z</time>
      </trkpt>
      <trkpt lat="59.7503264" lon="17.3490826">
        <ele>27.0543</ele>
        <time>2012-05-20T10:37:04Z</time>
      </trkpt>
      <trkpt lat="59.7501357" lon="17.3481975">
        <ele>27.0543</ele>
        <time>2012-05-20T10:37:12Z</time>
      </trkpt>
      <trkpt lat="59.7499239" lon="17.3472332">
        <ele>27.0543</ele>
        <time>2012-05-20T10:37:20Z</time>
      </trkpt>
      <trkpt lat="59.7497565" lon="17.3463893">
        <ele>27.5349</ele>
        <time>2012-05-20T10:37:27Z</time>
      </trkpt>
      <trkpt lat="59.7497089" lon="17.3458568">
        <ele>27.5349</ele>
        <time>2012-05-20T10:37:31Z</time>
      </trkpt>
      <trkpt lat="59.7497652" lon="17.3451881">
        <ele>28.9769</ele>
        <time>2012-05-20T10:37:36Z</time>
      </trkpt>
      <trkpt lat="59.7498867" lon="17.3445332">
        <ele>31.3801</ele>
        <time>2012-05-20T10:37:42Z</time>
      </trkpt>
      <trkpt lat="59.7499343" lon="17.3441752">
        <ele>32.8223</ele>
        <time>2012-05-20T10:37:46Z</time>
      </trkpt>
      <trkpt lat="59.749938" lon="17.343805">
        <ele>33.7834</ele>
        <time>2012-05-20T10:37:50Z</time>
      </trkpt>
      <trkpt lat="59.7498809" lon="17.3433542">
        <ele>35.7061</ele>
        <time>2012-05-20T10:37:55Z</time>
      </trkpt>
      <trkpt lat="59.7497835" lon="17.3430637">
        <ele>36.1868</ele>
        <time>2012-05-20T10:37:59Z</time>
      </trkpt>
      <trkpt lat="59.7495238" lon="17.3426434">
        <ele>37.1481</ele>
        <time>2012-05-20T10:38:06Z</time>
      </trkpt>
      <trkpt lat="59.7494323" lon="17.3425607">
        <ele>37.6287</ele>
        <time>2012-05-20T10:38:08Z</time>
      </trkpt>
      <trkpt lat="59.7490568" lon="17.3424543">
        <ele>36.1868</ele>
        <time>2012-05-20T10:38:15Z</time>
      </trkpt>
      <trkpt lat="59.7485369" lon="17.3424435">
        <ele>34.2642</ele>
        <time>2012-05-20T10:38:23Z</time>
      </trkpt>
      <trkpt lat="59.747844" lon="17.3424198">
        <ele>31.8607</ele>
        <time>2012-05-20T10:38:33Z</time>
      </trkpt>
      <trkpt lat="59.7472732" lon="17.3423007">
        <ele>29.9381</ele>
        <time>2012-05-20T10:38:41Z</time>
      </trkpt>
      <trkpt lat="59.7468575" lon="17.3420977">
        <ele>29.4575</ele>
        <time>2012-05-20T10:38:47Z</time>
      </trkpt>
      <trkpt lat="59.7463387" lon="17.3416993">
        <ele>29.4575</ele>
        <time>2012-05-20T10:38:55Z</time>
      </trkpt>
      <trkpt lat="59.745811" lon="17.3411019">
        <ele>29.4575</ele>
        <time>2012-05-20T10:39:04Z</time>
      </trkpt>
      <trkpt lat="59.7453596" lon="17.3403841">
        <ele>30.4188</ele>
        <time>2012-05-20T10:39:13Z</time>
      </trkpt>
      <trkpt lat="59.7449629" lon="17.3395315">
        <ele>31.3801</ele>
        <time>2012-05-20T10:39:22Z</time>
      </trkpt>
      <trkpt lat="59.7446479" lon="17.3387057">
        <ele>31.8607</ele>
        <time>2012-05-20T10:39:30Z</time>
      </trkpt>
      <trkpt lat="59.7443148" lon="17.3378126">
        <ele>30.4188</ele>
        <time>2012-05-20T10:39:39Z</time>
      </trkpt>
      <trkpt lat="59.7439606" lon="17.3370211">
        <ele>30.4188</ele>
        <time>2012-05-20T10:39:48Z</time>
      </trkpt>
      <trkpt lat="59.7436342" lon="17.3364641">
        <ele>29.4575</ele>
        <time>2012-05-20T10:39:55Z</time>
      </trkpt>
      <trkpt lat="59.7431994" lon="17.3357674">
        <ele>28.0155</ele>
        <time>2012-05-20T10:40:03Z</time>
      </trkpt>
      <trkpt lat="59.7426168" lon="17.334802">
        <ele>26.5736</ele>
        <time>2012-05-20T10:40:14Z</time>
      </trkpt>
      <trkpt lat="59.7419962" lon="17.3336927">
        <ele>25.6123</ele>
        <time>2012-05-20T10:40:26Z</time>
      </trkpt>
      <trkpt lat="59.741444" lon="17.332718">
        <ele>25.1317</ele>
        <time>2012-05-20T10:40:37Z</time>
      </trkpt>
      <trkpt lat="59.7410698" lon="17.3320621">
        <ele>23.209</ele>
        <time>2012-05-20T10:40:44Z</time>
      </trkpt>
      <trkpt lat="59.7405743" lon="17.3311867">
        <ele>19.3638</ele>
        <time>2012-05-20T10:40:52Z</time>
      </trkpt>
      <trkpt lat="59.7400164" lon="17.3301263">
        <ele>17.4412</ele>
        <time>2012-05-20T10:41:01Z</time>
      </trkpt>
      <trkpt lat="59.7396989" lon="17.3292225">
        <ele>16.9604</ele>
        <time>2012-05-20T10:41:08Z</time>
      </trkpt>
      <trkpt lat="59.739465" lon="17.3282377">
        <ele>16.9604</ele>
        <time>2012-05-20T10:41:15Z</time>
      </trkpt>
      <trkpt lat="59.7392846" lon="17.3272332">
        <ele>17.4412</ele>
        <time>2012-05-20T10:41:22Z</time>
      </trkpt>
      <trkpt lat="59.7391276" lon="17.3261512">
        <ele>15.999</ele>
        <time>2012-05-20T10:41:30Z</time>
      </trkpt>
      <trkpt lat="59.7390151" lon="17.3251163">
        <ele>15.5184</ele>
        <time>2012-05-20T10:41:38Z</time>
      </trkpt>
      <trkpt lat="59.7389115" lon="17.3236761">
        <ele>15.0377</ele>
        <time>2012-05-20T10:41:49Z</time>
      </trkpt>
      <trkpt lat="59.7387944" lon="17.3219968">
        <ele>15.0377</ele>
        <time>2012-05-20T10:42:02Z</time>
      </trkpt>
      <trkpt lat="59.7386965" lon="17.3206669">
        <ele>14.557</ele>
        <time>2012-05-20T10:42:12Z</time>
      </trkpt>
      <trkpt lat="59.738599" lon="17.3191503">
        <ele>14.557</ele>
        <time>2012-05-20T10:42:23Z</time>
      </trkpt>
      <trkpt lat="59.7385116" lon="17.3177069">
        <ele>15.0377</ele>
        <time>2012-05-20T10:42:34Z</time>
      </trkpt>
      <trkpt lat="59.7384577" lon="17.3162251">
        <ele>15.0377</ele>
        <time>2012-05-20T10:42:45Z</time>
      </trkpt>
      <trkpt lat="59.7385458" lon="17.3149679">
        <ele>15.0377</ele>
        <time>2012-05-20T10:42:54Z</time>
      </trkpt>
      <trkpt lat="59.7386234" lon="17.3139137">
        <ele>16.4797</ele>
        <time>2012-05-20T10:43:02Z</time>
      </trkpt>
      <trkpt lat="59.7386467" lon="17.3129877">
        <ele>17.9218</ele>
        <time>2012-05-20T10:43:10Z</time>
      </trkpt>
      <trkpt lat="59.7386209" lon="17.3122837">
        <ele>15.999</ele>
        <time>2012-05-20T10:43:16Z</time>
      </trkpt>
      <trkpt lat="59.7386099" lon="17.3111391">
        <ele>12.6344</ele>
        <time>2012-05-20T10:43:24Z</time>
      </trkpt>
      <trkpt lat="59.7386033" lon="17.3109833">
        <ele>12.1538</ele>
        <time>2012-05-20T10:43:25Z</time>
      </trkpt>
      <trkpt lat="59.7384348" lon="17.3104617">
        <ele>10.7118</ele>
        <time>2012-05-20T10:43:29Z</time>
      </trkpt>
      <trkpt lat="59.738268" lon="17.3103602">
        <ele>10.7118</ele>
        <time>2012-05-20T10:43:31Z</time>
      </trkpt>
      <trkpt lat="59.7375097" lon="17.3099551">
        <ele>8.30859</ele>
        <time>2012-05-20T10:43:40Z</time>
      </trkpt>
      <trkpt lat="59.7370465" lon="17.30979">
        <ele>9.75061</ele>
        <time>2012-05-20T10:43:46Z</time>
      </trkpt>
      <trkpt lat="59.7366329" lon="17.3097328">
        <ele>10.7118</ele>
        <time>2012-05-20T10:43:52Z</time>
      </trkpt>
      <trkpt lat="59.7361784" lon="17.3096588">
        <ele>12.6344</ele>
        <time>2012-05-20T10:43:59Z</time>
      </trkpt>
      <trkpt lat="59.7357283" lon="17.3094872">
        <ele>14.557</ele>
        <time>2012-05-20T10:44:06Z</time>
      </trkpt>
      <trkpt lat="59.7352774" lon="17.3092049">
        <ele>15.5184</ele>
        <time>2012-05-20T10:44:13Z</time>
      </trkpt>
      <trkpt lat="59.7352191" lon="17.3091665">
        <ele>15.5184</ele>
        <time>2012-05-20T10:44:14Z</time>
      </trkpt>
      <trkpt lat="59.735108" lon="17.3091175">
        <ele>15.999</ele>
        <time>2012-05-20T10:44:16Z</time>
      </trkpt>
      <trkpt lat="59.7348237" lon="17.3088947">
        <ele>15.999</ele>
        <time>2012-05-20T10:44:22Z</time>
      </trkpt>
      <trkpt lat="59.7344369" lon="17.3085534">
        <ele>14.557</ele>
        <time>2012-05-20T10:44:29Z</time>
      </trkpt>
      <trkpt lat="59.7341463" lon="17.3082551">
        <ele>15.5184</ele>
        <time>2012-05-20T10:44:35Z</time>
      </trkpt>
      <trkpt lat="59.7338085" lon="17.3079754">
        <ele>15.0377</ele>
        <time>2012-05-20T10:44:41Z</time>
      </trkpt>
      <trkpt lat="59.7333517" lon="17.3075696">
        <ele>14.0764</ele>
        <time>2012-05-20T10:44:49Z</time>
      </trkpt>
      <trkpt lat="59.732757" lon="17.3069614">
        <ele>13.1151</ele>
        <time>2012-05-20T10:45:00Z</time>
      </trkpt>
      <trkpt lat="59.732288" lon="17.3064611">
        <ele>13.1151</ele>
        <time>2012-05-20T10:45:09Z</time>
      </trkpt>
      <trkpt lat="59.7316479" lon="17.3058266">
        <ele>11.6732</ele>
        <time>2012-05-20T10:45:21Z</time>
      </trkpt>
      <trkpt lat="59.7313832" lon="17.3055737">
        <ele>11.6732</ele>
        <time>2012-05-20T10:45:26Z</time>
      </trkpt>
      <trkpt lat="59.7311786" lon="17.3055837">
        <ele>10.2312</ele>
        <time>2012-05-20T10:45:30Z</time>
      </trkpt>
      <trkpt lat="59.7306777" lon="17.3059131">
        <ele>7.34717</ele>
        <time>2012-05-20T10:45:39Z</time>
      </trkpt>
      <trkpt lat="59.7301804" lon="17.3062744">
        <ele>5.42456</ele>
        <time>2012-05-20T10:45:48Z</time>
      </trkpt>
      <trkpt lat="59.7296677" lon="17.3066103">
        <ele>3.02124</ele>
        <time>2012-05-20T10:45:56Z</time>
      </trkpt>
      <trkpt lat="59.7291509" lon="17.3069009">
        <ele>1.57935</ele>
        <time>2012-05-20T10:46:04Z</time>
      </trkpt>
      <trkpt lat="59.7285663" lon="17.3071232">
        <ele>0.137451</ele>
        <time>2012-05-20T10:46:13Z</time>
      </trkpt>
      <trkpt lat="59.7278438" lon="17.3073376">
        <ele>0</ele>
        <time>2012-05-20T10:46:24Z</time>
      </trkpt>
      <trkpt lat="59.7270215" lon="17.3076214">
        <ele>0.137451</ele>
        <time>2012-05-20T10:46:37Z</time>
      </trkpt>
      <trkpt lat="59.726598" lon="17.3079399">
        <ele>0.618042</ele>
        <time>2012-05-20T10:46:44Z</time>
      </trkpt>
      <trkpt lat="59.72617" lon="17.3085161">
        <ele>1.57935</ele>
        <time>2012-05-20T10:46:52Z</time>
      </trkpt>
      <trkpt lat="59.7259066" lon="17.3090884">
        <ele>3.02124</ele>
        <time>2012-05-20T10:46:58Z</time>
      </trkpt>
      <trkpt lat="59.725699" lon="17.3098945">
        <ele>3.98267</ele>
        <time>2012-05-20T10:47:05Z</time>
      </trkpt>
      <trkpt lat="59.7254018" lon="17.3110953">
        <ele>5.42456</ele>
        <time>2012-05-20T10:47:15Z</time>
      </trkpt>
      <trkpt lat="59.7250317" lon="17.3124359">
        <ele>6.86646</ele>
        <time>2012-05-20T10:47:26Z</time>
      </trkpt>
      <trkpt lat="59.7246722" lon="17.3138809">
        <ele>7.82788</ele>
        <time>2012-05-20T10:47:38Z</time>
      </trkpt>
      <trkpt lat="59.7243792" lon="17.3152408">
        <ele>8.30859</ele>
        <time>2012-05-20T10:47:49Z</time>
      </trkpt>
      <trkpt lat="59.7242352" lon="17.3162624">
        <ele>8.78918</ele>
        <time>2012-05-20T10:47:57Z</time>
      </trkpt>
      <trkpt lat="59.7240829" lon="17.3176337">
        <ele>7.82788</ele>
        <time>2012-05-20T10:48:07Z</time>
      </trkpt>
      <trkpt lat="59.723988" lon="17.318407">
        <ele>8.78918</ele>
        <time>2012-05-20T10:48:13Z</time>
      </trkpt>
      <trkpt lat="59.7237887" lon="17.3198596">
        <ele>11.1925</ele>
        <time>2012-05-20T10:48:24Z</time>
      </trkpt>
      <trkpt lat="59.7236113" lon="17.3210724">
        <ele>12.1538</ele>
        <time>2012-05-20T10:48:33Z</time>
      </trkpt>
      <trkpt lat="59.7233997" lon="17.3225333">
        <ele>13.5958</ele>
        <time>2012-05-20T10:48:44Z</time>
      </trkpt>
      <trkpt lat="59.7232287" lon="17.3240553">
        <ele>14.557</ele>
        <time>2012-05-20T10:48:55Z</time>
      </trkpt>
      <trkpt lat="59.7230771" lon="17.3258708">
        <ele>15.5184</ele>
        <time>2012-05-20T10:49:08Z</time>
      </trkpt>
      <trkpt lat="59.7229354" lon="17.3275416">
        <ele>16.4797</ele>
        <time>2012-05-20T10:49:20Z</time>
      </trkpt>
      <trkpt lat="59.722759" lon="17.3289143">
        <ele>16.9604</ele>
        <time>2012-05-20T10:49:30Z</time>
      </trkpt>
      <trkpt lat="59.7224999" lon="17.330229">
        <ele>17.4412</ele>
        <time>2012-05-20T10:49:40Z</time>
      </trkpt>
      <trkpt lat="59.7221932" lon="17.331657">
        <ele>17.4412</ele>
        <time>2012-05-20T10:49:51Z</time>
      </trkpt>
      <trkpt lat="59.7220093" lon="17.3327169">
        <ele>17.4412</ele>
        <time>2012-05-20T10:49:59Z</time>
      </trkpt>
      <trkpt lat="59.7218509" lon="17.334056">
        <ele>16.9604</ele>
        <time>2012-05-20T10:50:09Z</time>
      </trkpt>
      <trkpt lat="59.7217227" lon="17.3354223">
        <ele>15.5184</ele>
        <time>2012-05-20T10:50:19Z</time>
      </trkpt>
      <trkpt lat="59.7216893" lon="17.3364734">
        <ele>13.5958</ele>
        <time>2012-05-20T10:50:26Z</time>
      </trkpt>
      <trkpt lat="59.7217332" lon="17.3376503">
        <ele>13.5958</ele>
        <time>2012-05-20T10:50:34Z</time>
      </trkpt>
      <trkpt lat="59.7218087" lon="17.3383976">
        <ele>13.5958</ele>
        <time>2012-05-20T10:50:40Z</time>
      </trkpt>
      <trkpt lat="59.7219363" lon="17.3393185">
        <ele>14.0764</ele>
        <time>2012-05-20T10:50:48Z</time>
      </trkpt>
      <trkpt lat="59.7221497" lon="17.3405197">
        <ele>15.999</ele>
        <time>2012-05-20T10:50:58Z</time>
      </trkpt>
      <trkpt lat="59.7223111" lon="17.3414537">
        <ele>17.4412</ele>
        <time>2012-05-20T10:51:06Z</time>
      </trkpt>
      <trkpt lat="59.7224818" lon="17.3424442">
        <ele>17.9218</ele>
        <time>2012-05-20T10:51:15Z</time>
      </trkpt>
      <trkpt lat="59.7226356" lon="17.3433766">
        <ele>20.325</ele>
        <time>2012-05-20T10:51:23Z</time>
      </trkpt>
      <trkpt lat="59.7227206" lon="17.3442638">
        <ele>23.209</ele>
        <time>2012-05-20T10:51:31Z</time>
      </trkpt>
      <trkpt lat="59.7227195" lon="17.3447574">
        <ele>25.1317</ele>
        <time>2012-05-20T10:51:37Z</time>
      </trkpt>
      <trkpt lat="59.7226994" lon="17.345196">
        <ele>25.6123</ele>
        <time>2012-05-20T10:51:44Z</time>
      </trkpt>
      <trkpt lat="59.7226418" lon="17.3456185">
        <ele>26.5736</ele>
        <time>2012-05-20T10:51:50Z</time>
      </trkpt>
      <trkpt lat="59.722494" lon="17.3462638">
        <ele>27.5349</ele>
        <time>2012-05-20T10:51:58Z</time>
      </trkpt>
      <trkpt lat="59.7222317" lon="17.3469354">
        <ele>28.9769</ele>
        <time>2012-05-20T10:52:07Z</time>
      </trkpt>
      <trkpt lat="59.7219851" lon="17.3473271">
        <ele>29.4575</ele>
        <time>2012-05-20T10:52:13Z</time>
      </trkpt>
      <trkpt lat="59.7216301" lon="17.3476968">
        <ele>29.9381</ele>
        <time>2012-05-20T10:52:20Z</time>
      </trkpt>
      <trkpt lat="59.7210922" lon="17.3481624">
        <ele>30.8995</ele>
        <time>2012-05-20T10:52:30Z</time>
      </trkpt>
      <trkpt lat="59.7206547" lon="17.3485438">
        <ele>29.4575</ele>
        <time>2012-05-20T10:52:38Z</time>
      </trkpt>
      <trkpt lat="59.7203376" lon="17.3488288">
        <ele>28.4962</ele>
        <time>2012-05-20T10:52:44Z</time>
      </trkpt>
      <trkpt lat="59.7197622" lon="17.3493363">
        <ele>26.5736</ele>
        <time>2012-05-20T10:52:54Z</time>
      </trkpt>
      <trkpt lat="59.7192261" lon="17.3499014">
        <ele>26.0929</ele>
        <time>2012-05-20T10:53:04Z</time>
      </trkpt>
      <trkpt lat="59.7187527" lon="17.3502426">
        <ele>25.6123</ele>
        <time>2012-05-20T10:53:12Z</time>
      </trkpt>
      <trkpt lat="59.7181982" lon="17.3505437">
        <ele>25.1317</ele>
        <time>2012-05-20T10:53:21Z</time>
      </trkpt>
      <trkpt lat="59.7174349" lon="17.3509043">
        <ele>24.1703</ele>
        <time>2012-05-20T10:53:33Z</time>
      </trkpt>
      <trkpt lat="59.7167441" lon="17.3513249">
        <ele>23.209</ele>
        <time>2012-05-20T10:53:44Z</time>
      </trkpt>
      <trkpt lat="59.71608" lon="17.3517927">
        <ele>23.209</ele>
        <time>2012-05-20T10:53:55Z</time>
      </trkpt>
      <trkpt lat="59.7156135" lon="17.3520544">
        <ele>24.1703</ele>
        <time>2012-05-20T10:54:03Z</time>
      </trkpt>
      <trkpt lat="59.7150645" lon="17.3522899">
        <ele>25.1317</ele>
        <time>2012-05-20T10:54:13Z</time>
      </trkpt>
      <trkpt lat="59.7146091" lon="17.352532">
        <ele>26.5736</ele>
        <time>2012-05-20T10:54:22Z</time>
      </trkpt>
      <trkpt lat="59.7142931" lon="17.3527667">
        <ele>28.4962</ele>
        <time>2012-05-20T10:54:29Z</time>
      </trkpt>
      <trkpt lat="59.7140552" lon="17.3529702">
        <ele>29.4575</ele>
        <time>2012-05-20T10:54:35Z</time>
      </trkpt>
      <trkpt lat="59.7136039" lon="17.3533477">
        <ele>28.9769</ele>
        <time>2012-05-20T10:54:45Z</time>
      </trkpt>
      <trkpt lat="59.713113" lon="17.3537306">
        <ele>27.5349</ele>
        <time>2012-05-20T10:54:54Z</time>
      </trkpt>
      <trkpt lat="59.7127368" lon="17.3538797">
        <ele>27.0543</ele>
        <time>2012-05-20T10:55:00Z</time>
      </trkpt>
      <trkpt lat="59.7122367" lon="17.3539175">
        <ele>27.0543</ele>
        <time>2012-05-20T10:55:08Z</time>
      </trkpt>
      <trkpt lat="59.7118557" lon="17.3539077">
        <ele>28.4962</ele>
        <time>2012-05-20T10:55:15Z</time>
      </trkpt>
      <trkpt lat="59.7114964" lon="17.3539019">
        <ele>29.4575</ele>
        <time>2012-05-20T10:55:22Z</time>
      </trkpt>
      <trkpt lat="59.7111178" lon="17.3539192">
        <ele>28.9769</ele>
        <time>2012-05-20T10:55:28Z</time>
      </trkpt>
      <trkpt lat="59.71057" lon="17.3539835">
        <ele>28.0155</ele>
        <time>2012-05-20T10:55:36Z</time>
      </trkpt>
      <trkpt lat="59.7102601" lon="17.3541951">
        <ele>28.4962</ele>
        <time>2012-05-20T10:55:41Z</time>
      </trkpt>
      <trkpt lat="59.7099507" lon="17.3545319">
        <ele>28.9769</ele>
        <time>2012-05-20T10:55:47Z</time>
      </trkpt>
      <trkpt lat="59.709505" lon="17.3550278">
        <ele>29.4575</ele>
        <time>2012-05-20T10:55:55Z</time>
      </trkpt>
      <trkpt lat="59.7092293" lon="17.3555203">
        <ele>28.9769</ele>
        <time>2012-05-20T10:56:00Z</time>
      </trkpt>
      <trkpt lat="59.7088679" lon="17.3560201">
        <ele>28.9769</ele>
        <time>2012-05-20T10:56:06Z</time>
      </trkpt>
      <trkpt lat="59.7082535" lon="17.3565857">
        <ele>27.0543</ele>
        <time>2012-05-20T10:56:15Z</time>
      </trkpt>
      <trkpt lat="59.7075294" lon="17.3572313">
        <ele>24.651</ele>
        <time>2012-05-20T10:56:26Z</time>
      </trkpt>
      <trkpt lat="59.7070485" lon="17.3575793">
        <ele>23.6896</ele>
        <time>2012-05-20T10:56:34Z</time>
      </trkpt>
      <trkpt lat="59.7064645" lon="17.3580353">
        <ele>22.2476</ele>
        <time>2012-05-20T10:56:43Z</time>
      </trkpt>
      <trkpt lat="59.7058172" lon="17.3586414">
        <ele>20.8057</ele>
        <time>2012-05-20T10:56:53Z</time>
      </trkpt>
      <trkpt lat="59.7053054" lon="17.359049">
        <ele>19.8444</ele>
        <time>2012-05-20T10:57:01Z</time>
      </trkpt>
      <trkpt lat="59.7047564" lon="17.3595535">
        <ele>20.325</ele>
        <time>2012-05-20T10:57:10Z</time>
      </trkpt>
      <trkpt lat="59.7042399" lon="17.3600094">
        <ele>19.8444</ele>
        <time>2012-05-20T10:57:18Z</time>
      </trkpt>
      <trkpt lat="59.7036092" lon="17.360499">
        <ele>19.8444</ele>
        <time>2012-05-20T10:57:28Z</time>
      </trkpt>
      <trkpt lat="59.7032096" lon="17.3607336">
        <ele>21.2864</ele>
        <time>2012-05-20T10:57:35Z</time>
      </trkpt>
      <trkpt lat="59.7027303" lon="17.360829">
        <ele>22.2476</ele>
        <time>2012-05-20T10:57:44Z</time>
      </trkpt>
      <trkpt lat="59.7021924" lon="17.3609074">
        <ele>22.2476</ele>
        <time>2012-05-20T10:57:53Z</time>
      </trkpt>
      <trkpt lat="59.7017567" lon="17.3610098">
        <ele>23.209</ele>
        <time>2012-05-20T10:58:00Z</time>
      </trkpt>
      <trkpt lat="59.7015195" lon="17.3611697">
        <ele>24.651</ele>
        <time>2012-05-20T10:58:04Z</time>
      </trkpt>
      <trkpt lat="59.7011966" lon="17.3616588">
        <ele>24.651</ele>
        <time>2012-05-20T10:58:10Z</time>
      </trkpt>
      <trkpt lat="59.7006368" lon="17.3627432">
        <ele>24.651</ele>
        <time>2012-05-20T10:58:21Z</time>
      </trkpt>
      <trkpt lat="59.7000057" lon="17.3639733">
        <ele>23.6896</ele>
        <time>2012-05-20T10:58:34Z</time>
      </trkpt>
      <trkpt lat="59.6996095" lon="17.3648646">
        <ele>23.6896</ele>
        <time>2012-05-20T10:58:43Z</time>
      </trkpt>
      <trkpt lat="59.699167" lon="17.3660209">
        <ele>20.8057</ele>
        <time>2012-05-20T10:58:53Z</time>
      </trkpt>
      <trkpt lat="59.6988496" lon="17.366687">
        <ele>19.3638</ele>
        <time>2012-05-20T10:58:59Z</time>
      </trkpt>
      <trkpt lat="59.6984243" lon="17.3672962">
        <ele>18.4023</ele>
        <time>2012-05-20T10:59:06Z</time>
      </trkpt>
      <trkpt lat="59.6978499" lon="17.367894">
        <ele>16.9604</ele>
        <time>2012-05-20T10:59:15Z</time>
      </trkpt>
      <trkpt lat="59.6971423" lon="17.3685872">
        <ele>15.999</ele>
        <time>2012-05-20T10:59:26Z</time>
      </trkpt>
      <trkpt lat="59.6965056" lon="17.3692262">
        <ele>15.5184</ele>
        <time>2012-05-20T10:59:36Z</time>
      </trkpt>
      <trkpt lat="59.6960419" lon="17.3696833">
        <ele>16.9604</ele>
        <time>2012-05-20T10:59:44Z</time>
      </trkpt>
      <trkpt lat="59.6956662" lon="17.3700627">
        <ele>19.8444</ele>
        <time>2012-05-20T10:59:52Z</time>
      </trkpt>
      <trkpt lat="59.6952723" lon="17.3704699">
        <ele>22.2476</ele>
        <time>2012-05-20T11:00:01Z</time>
      </trkpt>
      <trkpt lat="59.6949698" lon="17.3707703">
        <ele>25.6123</ele>
        <time>2012-05-20T11:00:09Z</time>
      </trkpt>
      <trkpt lat="59.6946572" lon="17.3710844">
        <ele>28.0155</ele>
        <time>2012-05-20T11:00:18Z</time>
      </trkpt>
      <trkpt lat="59.6944163" lon="17.371327">
        <ele>28.0155</ele>
        <time>2012-05-20T11:00:26Z</time>
      </trkpt>
      <trkpt lat="59.6942268" lon="17.3715008">
        <ele>28.4962</ele>
        <time>2012-05-20T11:00:32Z</time>
      </trkpt>
      <trkpt lat="59.693947" lon="17.3718019">
        <ele>27.5349</ele>
        <time>2012-05-20T11:00:39Z</time>
      </trkpt>
      <trkpt lat="59.6935914" lon="17.3722386">
        <ele>25.6123</ele>
        <time>2012-05-20T11:00:46Z</time>
      </trkpt>
      <trkpt lat="59.6931034" lon="17.3730252">
        <ele>23.6896</ele>
        <time>2012-05-20T11:00:55Z</time>
      </trkpt>
      <trkpt lat="59.6927174" lon="17.3738119">
        <ele>22.7283</ele>
        <time>2012-05-20T11:01:03Z</time>
      </trkpt>
      <trkpt lat="59.6924227" lon="17.374425">
        <ele>22.7283</ele>
        <time>2012-05-20T11:01:10Z</time>
      </trkpt>
      <trkpt lat="59.6920677" lon="17.3751154">
        <ele>23.6896</ele>
        <time>2012-05-20T11:01:19Z</time>
      </trkpt>
      <trkpt lat="59.6917171" lon="17.3756648">
        <ele>25.6123</ele>
        <time>2012-05-20T11:01:28Z</time>
      </trkpt>
      <trkpt lat="59.6913921" lon="17.3759737">
        <ele>26.0929</ele>
        <time>2012-05-20T11:01:35Z</time>
      </trkpt>
      <trkpt lat="59.6910006" lon="17.3762123">
        <ele>25.6123</ele>
        <time>2012-05-20T11:01:42Z</time>
      </trkpt>
      <trkpt lat="59.6906185" lon="17.3763009">
        <ele>25.1317</ele>
        <time>2012-05-20T11:01:48Z</time>
      </trkpt>
      <trkpt lat="59.6901619" lon="17.376303">
        <ele>22.2476</ele>
        <time>2012-05-20T11:01:54Z</time>
      </trkpt>
      <trkpt lat="59.6896395" lon="17.3762811">
        <ele>17.9218</ele>
        <time>2012-05-20T11:02:00Z</time>
      </trkpt>
      <trkpt lat="59.6891003" lon="17.3762902">
        <ele>15.5184</ele>
        <time>2012-05-20T11:02:06Z</time>
      </trkpt>
      <trkpt lat="59.688865" lon="17.3762842">
        <ele>14.557</ele>
        <time>2012-05-20T11:02:09Z</time>
      </trkpt>
      <trkpt lat="59.6886685" lon="17.3765374">
        <ele>14.0764</ele>
        <time>2012-05-20T11:02:13Z</time>
      </trkpt>
      <trkpt lat="59.6886106" lon="17.3768775">
        <ele>13.1151</ele>
        <time>2012-05-20T11:02:16Z</time>
      </trkpt>
      <trkpt lat="59.6885521" lon="17.378044">
        <ele>12.1538</ele>
        <time>2012-05-20T11:02:25Z</time>
      </trkpt>
      <trkpt lat="59.6885344" lon="17.3790681">
        <ele>12.6344</ele>
        <time>2012-05-20T11:02:33Z</time>
      </trkpt>
      <trkpt lat="59.6885196" lon="17.3796918">
        <ele>13.1151</ele>
        <time>2012-05-20T11:02:39Z</time>
      </trkpt>
      <trkpt lat="59.6883963" lon="17.3799655">
        <ele>13.1151</ele>
        <time>2012-05-20T11:02:43Z</time>
      </trkpt>
      <trkpt lat="59.6883442" lon="17.3799692">
        <ele>13.1151</ele>
        <time>2012-05-20T11:02:44Z</time>
      </trkpt>
      <trkpt lat="59.6878745" lon="17.3798987">
        <ele>12.1538</ele>
        <time>2012-05-20T11:02:52Z</time>
      </trkpt>
      <trkpt lat="59.6872592" lon="17.3797694">
        <ele>13.1151</ele>
        <time>2012-05-20T11:03:02Z</time>
      </trkpt>
      <trkpt lat="59.686937" lon="17.3797117">
        <ele>13.5958</ele>
        <time>2012-05-20T11:03:08Z</time>
      </trkpt>
      <trkpt lat="59.6868795" lon="17.3797695">
        <ele>15.999</ele>
        <time>2012-05-20T11:07:51Z</time>
      </trkpt>
      <trkpt lat="59.6869949" lon="17.3797678">
        <ele>15.5184</ele>
        <time>2012-05-20T11:07:55Z</time>
      </trkpt>
      <trkpt lat="59.6872089" lon="17.3797848">
        <ele>15.0377</ele>
        <time>2012-05-20T11:08:00Z</time>
      </trkpt>
      <trkpt lat="59.6874824" lon="17.3798485">
        <ele>14.0764</ele>
        <time>2012-05-20T11:08:06Z</time>
      </trkpt>
      <trkpt lat="59.6879419" lon="17.3799332">
        <ele>14.557</ele>
        <time>2012-05-20T11:08:15Z</time>
      </trkpt>
      <trkpt lat="59.688319" lon="17.3800051">
        <ele>15.999</ele>
        <time>2012-05-20T11:08:23Z</time>
      </trkpt>
      <trkpt lat="59.6884333" lon="17.3799997">
        <ele>16.9604</ele>
        <time>2012-05-20T11:08:28Z</time>
      </trkpt>
      <trkpt lat="59.6883709" lon="17.3800201">
        <ele>16.9604</ele>
        <time>2012-05-20T11:08:31Z</time>
      </trkpt>
      <trkpt lat="59.6883694" lon="17.3800553">
        <ele>17.4412</ele>
        <time>2012-05-20T11:08:32Z</time>
      </trkpt>
      <trkpt lat="59.688387" lon="17.3800641">
        <ele>18.8831</ele>
        <time>2012-05-20T11:08:42Z</time>
      </trkpt>
      <trkpt lat="59.6884822" lon="17.3801302">
        <ele>19.3638</ele>
        <time>2012-05-20T11:08:48Z</time>
      </trkpt>
      <trkpt lat="59.688519" lon="17.3803325">
        <ele>19.3638</ele>
        <time>2012-05-20T11:08:52Z</time>
      </trkpt>
      <trkpt lat="59.6885307" lon="17.3808448">
        <ele>17.9218</ele>
        <time>2012-05-20T11:08:59Z</time>
      </trkpt>
      <trkpt lat="59.6885281" lon="17.3814917">
        <ele>16.4797</ele>
        <time>2012-05-20T11:09:06Z</time>
      </trkpt>
      <trkpt lat="59.6884956" lon="17.3821367">
        <ele>16.4797</ele>
        <time>2012-05-20T11:09:12Z</time>
      </trkpt>
      <trkpt lat="59.6884732" lon="17.3826442">
        <ele>17.9218</ele>
        <time>2012-05-20T11:09:17Z</time>
      </trkpt>
      <trkpt lat="59.6884147" lon="17.3834093">
        <ele>20.325</ele>
        <time>2012-05-20T11:09:25Z</time>
      </trkpt>
      <trkpt lat="59.6883673" lon="17.3838466">
        <ele>21.767</ele>
        <time>2012-05-20T11:09:30Z</time>
      </trkpt>
      <trkpt lat="59.6882693" lon="17.3844836">
        <ele>22.2476</ele>
        <time>2012-05-20T11:09:37Z</time>
      </trkpt>
      <trkpt lat="59.6882071" lon="17.3849898">
        <ele>20.8057</ele>
        <time>2012-05-20T11:09:42Z</time>
      </trkpt>
      <trkpt lat="59.6880564" lon="17.3858923">
        <ele>19.8444</ele>
        <time>2012-05-20T11:09:50Z</time>
      </trkpt>
      <trkpt lat="59.6879091" lon="17.386767">
        <ele>18.8831</ele>
        <time>2012-05-20T11:09:57Z</time>
      </trkpt>
      <trkpt lat="59.6876989" lon="17.3876666">
        <ele>16.9604</ele>
        <time>2012-05-20T11:10:04Z</time>
      </trkpt>
      <trkpt lat="59.6874745" lon="17.3885636">
        <ele>15.999</ele>
        <time>2012-05-20T11:10:11Z</time>
      </trkpt>
      <trkpt lat="59.6871882" lon="17.3895043">
        <ele>16.4797</ele>
        <time>2012-05-20T11:10:20Z</time>
      </trkpt>
      <trkpt lat="59.6869447" lon="17.3903517">
        <ele>15.999</ele>
        <time>2012-05-20T11:10:28Z</time>
      </trkpt>
      <trkpt lat="59.6866425" lon="17.3913996">
        <ele>15.5184</ele>
        <time>2012-05-20T11:10:37Z</time>
      </trkpt>
      <trkpt lat="59.6863548" lon="17.392362">
        <ele>15.999</ele>
        <time>2012-05-20T11:10:45Z</time>
      </trkpt>
      <trkpt lat="59.685933" lon="17.3936773">
        <ele>15.5184</ele>
        <time>2012-05-20T11:10:56Z</time>
      </trkpt>
      <trkpt lat="59.685648" lon="17.3944343">
        <ele>15.5184</ele>
        <time>2012-05-20T11:11:03Z</time>
      </trkpt>
      <trkpt lat="59.6853538" lon="17.3951613">
        <ele>15.0377</ele>
        <time>2012-05-20T11:11:10Z</time>
      </trkpt>
      <trkpt lat="59.685023" lon="17.3959739">
        <ele>15.0377</ele>
        <time>2012-05-20T11:11:18Z</time>
      </trkpt>
      <trkpt lat="59.6847298" lon="17.3966575">
        <ele>15.0377</ele>
        <time>2012-05-20T11:11:25Z</time>
      </trkpt>
      <trkpt lat="59.6844099" lon="17.3974406">
        <ele>16.4797</ele>
        <time>2012-05-20T11:11:33Z</time>
      </trkpt>
      <trkpt lat="59.6841728" lon="17.3981365">
        <ele>19.3638</ele>
        <time>2012-05-20T11:11:41Z</time>
      </trkpt>
      <trkpt lat="59.6839495" lon="17.3989523">
        <ele>20.325</ele>
        <time>2012-05-20T11:11:50Z</time>
      </trkpt>
      <trkpt lat="59.683704" lon="17.3998421">
        <ele>19.8444</ele>
        <time>2012-05-20T11:11:58Z</time>
      </trkpt>
      <trkpt lat="59.6834091" lon="17.4007892">
        <ele>18.8831</ele>
        <time>2012-05-20T11:12:06Z</time>
      </trkpt>
      <trkpt lat="59.6830156" lon="17.4016516">
        <ele>18.4023</ele>
        <time>2012-05-20T11:12:14Z</time>
      </trkpt>
      <trkpt lat="59.6826919" lon="17.4024234">
        <ele>17.9218</ele>
        <time>2012-05-20T11:12:21Z</time>
      </trkpt>
      <trkpt lat="59.6822715" lon="17.403546">
        <ele>17.4412</ele>
        <time>2012-05-20T11:12:31Z</time>
      </trkpt>
      <trkpt lat="59.6819646" lon="17.4044299">
        <ele>16.9604</ele>
        <time>2012-05-20T11:12:39Z</time>
      </trkpt>
      <trkpt lat="59.6816381" lon="17.4054135">
        <ele>17.4412</ele>
        <time>2012-05-20T11:12:48Z</time>
      </trkpt>
      <trkpt lat="59.6813524" lon="17.4061076">
        <ele>17.4412</ele>
        <time>2012-05-20T11:12:55Z</time>
      </trkpt>
      <trkpt lat="59.6809762" lon="17.4068572">
        <ele>17.4412</ele>
        <time>2012-05-20T11:13:03Z</time>
      </trkpt>
      <trkpt lat="59.6806624" lon="17.4075426">
        <ele>17.4412</ele>
        <time>2012-05-20T11:13:10Z</time>
      </trkpt>
      <trkpt lat="59.6804799" lon="17.407987">
        <ele>17.4412</ele>
        <time>2012-05-20T11:13:15Z</time>
      </trkpt>
      <trkpt lat="59.6802501" lon="17.4088738">
        <ele>16.9604</ele>
        <time>2012-05-20T11:13:23Z</time>
      </trkpt>
      <trkpt lat="59.6800325" lon="17.4099578">
        <ele>16.4797</ele>
        <time>2012-05-20T11:13:32Z</time>
      </trkpt>
      <trkpt lat="59.6798065" lon="17.4113528">
        <ele>16.4797</ele>
        <time>2012-05-20T11:13:43Z</time>
      </trkpt>
      <trkpt lat="59.6796341" lon="17.4120279">
        <ele>16.9604</ele>
        <time>2012-05-20T11:13:49Z</time>
      </trkpt>
      <trkpt lat="59.6793838" lon="17.4125671">
        <ele>16.9604</ele>
        <time>2012-05-20T11:13:55Z</time>
      </trkpt>
      <trkpt lat="59.6789724" lon="17.4131723">
        <ele>16.9604</ele>
        <time>2012-05-20T11:14:03Z</time>
      </trkpt>
      <trkpt lat="59.6785286" lon="17.4137747">
        <ele>16.4797</ele>
        <time>2012-05-20T11:14:11Z</time>
      </trkpt>
      <trkpt lat="59.6781769" lon="17.4142606">
        <ele>16.4797</ele>
        <time>2012-05-20T11:14:18Z</time>
      </trkpt>
      <trkpt lat="59.6778034" lon="17.4148204">
        <ele>16.9604</ele>
        <time>2012-05-20T11:14:26Z</time>
      </trkpt>
      <trkpt lat="59.6774428" lon="17.4153545">
        <ele>16.9604</ele>
        <time>2012-05-20T11:14:34Z</time>
      </trkpt>
      <trkpt lat="59.6774014" lon="17.4154219">
        <ele>17.4412</ele>
        <time>2012-05-20T11:14:35Z</time>
      </trkpt>
      <trkpt lat="59.6770372" lon="17.4159358">
        <ele>17.9218</ele>
        <time>2012-05-20T11:14:43Z</time>
      </trkpt>
      <trkpt lat="59.6765466" lon="17.4167378">
        <ele>19.3638</ele>
        <time>2012-05-20T11:14:54Z</time>
      </trkpt>
      <trkpt lat="59.6762913" lon="17.4173014">
        <ele>20.8057</ele>
        <time>2012-05-20T11:15:01Z</time>
      </trkpt>
      <trkpt lat="59.6759799" lon="17.4181851">
        <ele>20.8057</ele>
        <time>2012-05-20T11:15:11Z</time>
      </trkpt>
      <trkpt lat="59.6756977" lon="17.4190067">
        <ele>18.8831</ele>
        <time>2012-05-20T11:15:19Z</time>
      </trkpt>
      <trkpt lat="59.6753468" lon="17.4200618">
        <ele>17.9218</ele>
        <time>2012-05-20T11:15:28Z</time>
      </trkpt>
      <trkpt lat="59.6751969" lon="17.420758">
        <ele>18.4023</ele>
        <time>2012-05-20T11:15:34Z</time>
      </trkpt>
      <trkpt lat="59.6750765" lon="17.4216251">
        <ele>19.3638</ele>
        <time>2012-05-20T11:15:42Z</time>
      </trkpt>
      <trkpt lat="59.6749901" lon="17.4224638">
        <ele>18.4023</ele>
        <time>2012-05-20T11:15:49Z</time>
      </trkpt>
      <trkpt lat="59.6748961" lon="17.4233775">
        <ele>16.9604</ele>
        <time>2012-05-20T11:15:56Z</time>
      </trkpt>
      <trkpt lat="59.6747835" lon="17.4245374">
        <ele>15.0377</ele>
        <time>2012-05-20T11:16:04Z</time>
      </trkpt>
      <trkpt lat="59.6746496" lon="17.4257335">
        <ele>14.557</ele>
        <time>2012-05-20T11:16:12Z</time>
      </trkpt>
      <trkpt lat="59.6745019" lon="17.4267815">
        <ele>14.557</ele>
        <time>2012-05-20T11:16:19Z</time>
      </trkpt>
      <trkpt lat="59.6743167" lon="17.4282466">
        <ele>14.0764</ele>
        <time>2012-05-20T11:16:30Z</time>
      </trkpt>
      <trkpt lat="59.674189" lon="17.4294308">
        <ele>13.5958</ele>
        <time>2012-05-20T11:16:39Z</time>
      </trkpt>
      <trkpt lat="59.6740147" lon="17.4305062">
        <ele>13.1151</ele>
        <time>2012-05-20T11:16:47Z</time>
      </trkpt>
      <trkpt lat="59.6737862" lon="17.4314725">
        <ele>14.0764</ele>
        <time>2012-05-20T11:16:55Z</time>
      </trkpt>
      <trkpt lat="59.673603" lon="17.4324028">
        <ele>14.557</ele>
        <time>2012-05-20T11:17:03Z</time>
      </trkpt>
      <trkpt lat="59.6733572" lon="17.4337088">
        <ele>15.0377</ele>
        <time>2012-05-20T11:17:14Z</time>
      </trkpt>
      <trkpt lat="59.6733273" lon="17.433818">
        <ele>15.0377</ele>
        <time>2012-05-20T11:17:15Z</time>
      </trkpt>
      <trkpt lat="59.6729838" lon="17.4346689">
        <ele>15.5184</ele>
        <time>2012-05-20T11:17:24Z</time>
      </trkpt>
      <trkpt lat="59.6725653" lon="17.4355097">
        <ele>15.5184</ele>
        <time>2012-05-20T11:17:34Z</time>
      </trkpt>
      <trkpt lat="59.672136" lon="17.4364102">
        <ele>15.0377</ele>
        <time>2012-05-20T11:17:44Z</time>
      </trkpt>
      <trkpt lat="59.6718944" lon="17.4369726">
        <ele>15.5184</ele>
        <time>2012-05-20T11:17:50Z</time>
      </trkpt>
      <trkpt lat="59.6716577" lon="17.4375292">
        <ele>15.5184</ele>
        <time>2012-05-20T11:17:56Z</time>
      </trkpt>
      <trkpt lat="59.6713064" lon="17.4382634">
        <ele>17.4412</ele>
        <time>2012-05-20T11:18:05Z</time>
      </trkpt>
      <trkpt lat="59.6710713" lon="17.4385752">
        <ele>18.8831</ele>
        <time>2012-05-20T11:18:11Z</time>
      </trkpt>
      <trkpt lat="59.6708034" lon="17.4389249">
        <ele>20.325</ele>
        <time>2012-05-20T11:18:18Z</time>
      </trkpt>
      <trkpt lat="59.6704875" lon="17.4393292">
        <ele>20.8057</ele>
        <time>2012-05-20T11:18:25Z</time>
      </trkpt>
      <trkpt lat="59.6700482" lon="17.4399161">
        <ele>21.2864</ele>
        <time>2012-05-20T11:18:34Z</time>
      </trkpt>
      <trkpt lat="59.6696655" lon="17.4404054">
        <ele>21.767</ele>
        <time>2012-05-20T11:18:42Z</time>
      </trkpt>
      <trkpt lat="59.6691432" lon="17.4410827">
        <ele>22.7283</ele>
        <time>2012-05-20T11:18:53Z</time>
      </trkpt>
      <trkpt lat="59.6688237" lon="17.4415772">
        <ele>22.7283</ele>
        <time>2012-05-20T11:19:00Z</time>
      </trkpt>
      <trkpt lat="59.6686035" lon="17.4421492">
        <ele>22.2476</ele>
        <time>2012-05-20T11:19:06Z</time>
      </trkpt>
      <trkpt lat="59.6683454" lon="17.4429209">
        <ele>22.2476</ele>
        <time>2012-05-20T11:19:14Z</time>
      </trkpt>
      <trkpt lat="59.6680871" lon="17.4436921">
        <ele>21.767</ele>
        <time>2012-05-20T11:19:22Z</time>
      </trkpt>
      <trkpt lat="59.6677883" lon="17.4446152">
        <ele>22.7283</ele>
        <time>2012-05-20T11:19:31Z</time>
      </trkpt>
      <trkpt lat="59.667581" lon="17.4452565">
        <ele>24.1703</ele>
        <time>2012-05-20T11:19:38Z</time>
      </trkpt>
      <trkpt lat="59.6673568" lon="17.4459331">
        <ele>26.0929</ele>
        <time>2012-05-20T11:19:46Z</time>
      </trkpt>
      <trkpt lat="59.6671612" lon="17.4464585">
        <ele>26.0929</ele>
        <time>2012-05-20T11:19:52Z</time>
      </trkpt>
      <trkpt lat="59.6668713" lon="17.4469768">
        <ele>24.651</ele>
        <time>2012-05-20T11:19:58Z</time>
      </trkpt>
      <trkpt lat="59.6665424" lon="17.4473118">
        <ele>22.7283</ele>
        <time>2012-05-20T11:20:03Z</time>
      </trkpt>
      <trkpt lat="59.666154" lon="17.4474776">
        <ele>20.8057</ele>
        <time>2012-05-20T11:20:08Z</time>
      </trkpt>
      <trkpt lat="59.6654645" lon="17.4476681">
        <ele>18.8831</ele>
        <time>2012-05-20T11:20:17Z</time>
      </trkpt>
      <trkpt lat="59.6648468" lon="17.4479892">
        <ele>16.4797</ele>
        <time>2012-05-20T11:20:25Z</time>
      </trkpt>
      <trkpt lat="59.6640658" lon="17.4484507">
        <ele>13.5958</ele>
        <time>2012-05-20T11:20:35Z</time>
      </trkpt>
      <trkpt lat="59.6634909" lon="17.4488406">
        <ele>12.1538</ele>
        <time>2012-05-20T11:20:43Z</time>
      </trkpt>
      <trkpt lat="59.6629235" lon="17.4492996">
        <ele>10.7118</ele>
        <time>2012-05-20T11:20:51Z</time>
      </trkpt>
      <trkpt lat="59.6624944" lon="17.4496184">
        <ele>9.75061</ele>
        <time>2012-05-20T11:20:57Z</time>
      </trkpt>
      <trkpt lat="59.6619476" lon="17.4498477">
        <ele>8.78918</ele>
        <time>2012-05-20T11:21:04Z</time>
      </trkpt>
      <trkpt lat="59.6617275" lon="17.4499469">
        <ele>8.78918</ele>
        <time>2012-05-20T11:21:07Z</time>
      </trkpt>
      <trkpt lat="59.6613554" lon="17.4500995">
        <ele>9.2699</ele>
        <time>2012-05-20T11:21:13Z</time>
      </trkpt>
      <trkpt lat="59.6609995" lon="17.450251">
        <ele>11.1925</ele>
        <time>2012-05-20T11:21:20Z</time>
      </trkpt>
      <trkpt lat="59.6607149" lon="17.4503691">
        <ele>12.1538</ele>
        <time>2012-05-20T11:21:27Z</time>
      </trkpt>
      <trkpt lat="59.660419" lon="17.4505236">
        <ele>14.0764</ele>
        <time>2012-05-20T11:21:35Z</time>
      </trkpt>
      <trkpt lat="59.6601779" lon="17.4506772">
        <ele>14.557</ele>
        <time>2012-05-20T11:21:42Z</time>
      </trkpt>
      <trkpt lat="59.6598973" lon="17.450862">
        <ele>13.5958</ele>
        <time>2012-05-20T11:21:50Z</time>
      </trkpt>
      <trkpt lat="59.6596834" lon="17.4510039">
        <ele>14.557</ele>
        <time>2012-05-20T11:21:56Z</time>
      </trkpt>
      <trkpt lat="59.6595234" lon="17.4510937">
        <ele>15.5184</ele>
        <time>2012-05-20T11:22:01Z</time>
      </trkpt>
      <trkpt lat="59.6594644" lon="17.4511325">
        <ele>17.4412</ele>
        <time>2012-05-20T11:22:06Z</time>
      </trkpt>
      <trkpt lat="59.6594646" lon="17.4511336">
        <ele>18.4023</ele>
        <time>2012-05-20T11:22:07Z</time>
      </trkpt>
      <trkpt lat="59.659354" lon="17.4512386">
        <ele>16.9604</ele>
        <time>2012-05-20T11:22:30Z</time>
      </trkpt>
      <trkpt lat="59.6593331" lon="17.4512557">
        <ele>17.4412</ele>
        <time>2012-05-20T11:22:31Z</time>
      </trkpt>
      <trkpt lat="59.6591581" lon="17.4513919">
        <ele>18.4023</ele>
        <time>2012-05-20T11:22:36Z</time>
      </trkpt>
      <trkpt lat="59.6587713" lon="17.4517298">
        <ele>19.3638</ele>
        <time>2012-05-20T11:22:46Z</time>
      </trkpt>
      <trkpt lat="59.658297" lon="17.4521608">
        <ele>19.8444</ele>
        <time>2012-05-20T11:22:56Z</time>
      </trkpt>
      <trkpt lat="59.6577497" lon="17.4527088">
        <ele>19.8444</ele>
        <time>2012-05-20T11:23:07Z</time>
      </trkpt>
      <trkpt lat="59.6571927" lon="17.4533676">
        <ele>18.4023</ele>
        <time>2012-05-20T11:23:18Z</time>
      </trkpt>
      <trkpt lat="59.6567897" lon="17.4538974">
        <ele>19.3638</ele>
        <time>2012-05-20T11:23:27Z</time>
      </trkpt>
      <trkpt lat="59.6565102" lon="17.4543058">
        <ele>22.2476</ele>
        <time>2012-05-20T11:23:35Z</time>
      </trkpt>
      <trkpt lat="59.6562391" lon="17.4547083">
        <ele>26.5736</ele>
        <time>2012-05-20T11:23:44Z</time>
      </trkpt>
      <trkpt lat="59.6560437" lon="17.4550067">
        <ele>30.4188</ele>
        <time>2012-05-20T11:23:51Z</time>
      </trkpt>
      <trkpt lat="59.6557589" lon="17.4554999">
        <ele>32.8223</ele>
        <time>2012-05-20T11:24:01Z</time>
      </trkpt>
      <trkpt lat="59.6555049" lon="17.455999">
        <ele>34.2642</ele>
        <time>2012-05-20T11:24:11Z</time>
      </trkpt>
      <trkpt lat="59.6553043" lon="17.4564049">
        <ele>36.1868</ele>
        <time>2012-05-20T11:24:19Z</time>
      </trkpt>
      <trkpt lat="59.6550964" lon="17.456812">
        <ele>36.6675</ele>
        <time>2012-05-20T11:24:27Z</time>
      </trkpt>
      <trkpt lat="59.6548767" lon="17.4572084">
        <ele>36.1868</ele>
        <time>2012-05-20T11:24:34Z</time>
      </trkpt>
      <trkpt lat="59.6546252" lon="17.4575303">
        <ele>35.2255</ele>
        <time>2012-05-20T11:24:41Z</time>
      </trkpt>
      <trkpt lat="59.6542831" lon="17.4577956">
        <ele>34.7449</ele>
        <time>2012-05-20T11:24:48Z</time>
      </trkpt>
      <trkpt lat="59.6539159" lon="17.4579194">
        <ele>33.3029</ele>
        <time>2012-05-20T11:24:54Z</time>
      </trkpt>
      <trkpt lat="59.6534448" lon="17.4578949">
        <ele>31.8607</ele>
        <time>2012-05-20T11:25:01Z</time>
      </trkpt>
      <trkpt lat="59.6527825" lon="17.4578325">
        <ele>30.8995</ele>
        <time>2012-05-20T11:25:11Z</time>
      </trkpt>
      <trkpt lat="59.6520914" lon="17.4577562">
        <ele>30.8995</ele>
        <time>2012-05-20T11:25:22Z</time>
      </trkpt>
      <trkpt lat="59.6514568" lon="17.4576727">
        <ele>31.3801</ele>
        <time>2012-05-20T11:25:33Z</time>
      </trkpt>
      <trkpt lat="59.6509659" lon="17.4577101">
        <ele>32.3416</ele>
        <time>2012-05-20T11:25:42Z</time>
      </trkpt>
      <trkpt lat="59.6504012" lon="17.4578665">
        <ele>32.3416</ele>
        <time>2012-05-20T11:25:52Z</time>
      </trkpt>
      <trkpt lat="59.6498422" lon="17.4581566">
        <ele>32.8223</ele>
        <time>2012-05-20T11:26:02Z</time>
      </trkpt>
      <trkpt lat="59.6492434" lon="17.4585442">
        <ele>33.7834</ele>
        <time>2012-05-20T11:26:13Z</time>
      </trkpt>
      <trkpt lat="59.64872" lon="17.4588717">
        <ele>35.2255</ele>
        <time>2012-05-20T11:26:23Z</time>
      </trkpt>
      <trkpt lat="59.6482002" lon="17.4592449">
        <ele>36.6675</ele>
        <time>2012-05-20T11:26:33Z</time>
      </trkpt>
      <trkpt lat="59.6478572" lon="17.4596637">
        <ele>37.1481</ele>
        <time>2012-05-20T11:26:40Z</time>
      </trkpt>
      <trkpt lat="59.6474509" lon="17.4601209">
        <ele>37.6287</ele>
        <time>2012-05-20T11:26:48Z</time>
      </trkpt>
      <trkpt lat="59.6470391" lon="17.460441">
        <ele>37.1481</ele>
        <time>2012-05-20T11:26:55Z</time>
      </trkpt>
      <trkpt lat="59.6464954" lon="17.4607581">
        <ele>37.1481</ele>
        <time>2012-05-20T11:27:04Z</time>
      </trkpt>
      <trkpt lat="59.6459815" lon="17.4609457">
        <ele>36.1868</ele>
        <time>2012-05-20T11:27:12Z</time>
      </trkpt>
      <trkpt lat="59.6453391" lon="17.4611409">
        <ele>35.2255</ele>
        <time>2012-05-20T11:27:22Z</time>
      </trkpt>
      <trkpt lat="59.6446412" lon="17.4614486">
        <ele>33.7834</ele>
        <time>2012-05-20T11:27:33Z</time>
      </trkpt>
      <trkpt lat="59.6441378" lon="17.4617383">
        <ele>31.8607</ele>
        <time>2012-05-20T11:27:41Z</time>
      </trkpt>
      <trkpt lat="59.6435718" lon="17.4622025">
        <ele>33.3029</ele>
        <time>2012-05-20T11:27:50Z</time>
      </trkpt>
      <trkpt lat="59.643017" lon="17.4627016">
        <ele>33.7834</ele>
        <time>2012-05-20T11:27:59Z</time>
      </trkpt>
      <trkpt lat="59.6424829" lon="17.4631983">
        <ele>34.7449</ele>
        <time>2012-05-20T11:28:08Z</time>
      </trkpt>
      <trkpt lat="59.6420593" lon="17.4634185">
        <ele>34.7449</ele>
        <time>2012-05-20T11:28:15Z</time>
      </trkpt>
      <trkpt lat="59.6416295" lon="17.4634601">
        <ele>33.7834</ele>
        <time>2012-05-20T11:28:22Z</time>
      </trkpt>
      <trkpt lat="59.6411027" lon="17.4633782">
        <ele>31.8607</ele>
        <time>2012-05-20T11:28:31Z</time>
      </trkpt>
      <trkpt lat="59.64069" lon="17.4634565">
        <ele>29.4575</ele>
        <time>2012-05-20T11:28:38Z</time>
      </trkpt>
      <trkpt lat="59.6402415" lon="17.4637512">
        <ele>26.0929</ele>
        <time>2012-05-20T11:28:45Z</time>
      </trkpt>
      <trkpt lat="59.6398617" lon="17.4639911">
        <ele>23.209</ele>
        <time>2012-05-20T11:28:50Z</time>
      </trkpt>
      <trkpt lat="59.639243" lon="17.4642599">
        <ele>23.6896</ele>
        <time>2012-05-20T11:28:57Z</time>
      </trkpt>
      <trkpt lat="59.6386821" lon="17.4644438">
        <ele>24.1703</ele>
        <time>2012-05-20T11:29:04Z</time>
      </trkpt>
      <trkpt lat="59.6382798" lon="17.4644708">
        <ele>25.6123</ele>
        <time>2012-05-20T11:29:10Z</time>
      </trkpt>
      <trkpt lat="59.6379393" lon="17.4644493">
        <ele>27.5349</ele>
        <time>2012-05-20T11:29:16Z</time>
      </trkpt>
      <trkpt lat="59.6377103" lon="17.4646028">
        <ele>28.0155</ele>
        <time>2012-05-20T11:29:21Z</time>
      </trkpt>
      <trkpt lat="59.6375613" lon="17.4650208">
        <ele>28.0155</ele>
        <time>2012-05-20T11:29:26Z</time>
      </trkpt>
      <trkpt lat="59.6373468" lon="17.4660434">
        <ele>28.0155</ele>
        <time>2012-05-20T11:29:35Z</time>
      </trkpt>
      <trkpt lat="59.6371049" lon="17.466951">
        <ele>28.4962</ele>
        <time>2012-05-20T11:29:43Z</time>
      </trkpt>
      <trkpt lat="59.6367379" lon="17.4679817">
        <ele>28.4962</ele>
        <time>2012-05-20T11:29:53Z</time>
      </trkpt>
      <trkpt lat="59.6363127" lon="17.4689654">
        <ele>28.4962</ele>
        <time>2012-05-20T11:30:03Z</time>
      </trkpt>
      <trkpt lat="59.6358109" lon="17.4701346">
        <ele>28.9769</ele>
        <time>2012-05-20T11:30:15Z</time>
      </trkpt>
      <trkpt lat="59.6354218" lon="17.4710091">
        <ele>28.0155</ele>
        <time>2012-05-20T11:30:24Z</time>
      </trkpt>
      <trkpt lat="59.6349469" lon="17.472057">
        <ele>27.5349</ele>
        <time>2012-05-20T11:30:34Z</time>
      </trkpt>
      <trkpt lat="59.6344891" lon="17.4728936">
        <ele>28.0155</ele>
        <time>2012-05-20T11:30:43Z</time>
      </trkpt>
      <trkpt lat="59.634062" lon="17.4735432">
        <ele>29.9381</ele>
        <time>2012-05-20T11:30:52Z</time>
      </trkpt>
      <trkpt lat="59.6337796" lon="17.4739327">
        <ele>31.8607</ele>
        <time>2012-05-20T11:30:59Z</time>
      </trkpt>
      <trkpt lat="59.6334733" lon="17.4743886">
        <ele>34.7449</ele>
        <time>2012-05-20T11:31:07Z</time>
      </trkpt>
      <trkpt lat="59.633188" lon="17.4749568">
        <ele>36.6675</ele>
        <time>2012-05-20T11:31:15Z</time>
      </trkpt>
      <trkpt lat="59.6328872" lon="17.475691">
        <ele>38.1094</ele>
        <time>2012-05-20T11:31:24Z</time>
      </trkpt>
      <trkpt lat="59.6326629" lon="17.4764782">
        <ele>38.5901</ele>
        <time>2012-05-20T11:31:32Z</time>
      </trkpt>
      <trkpt lat="59.6324718" lon="17.4772516">
        <ele>38.5901</ele>
        <time>2012-05-20T11:31:39Z</time>
      </trkpt>
      <trkpt lat="59.6322429" lon="17.4781861">
        <ele>37.1481</ele>
        <time>2012-05-20T11:31:47Z</time>
      </trkpt>
      <trkpt lat="59.631973" lon="17.4794004">
        <ele>35.2255</ele>
        <time>2012-05-20T11:31:57Z</time>
      </trkpt>
      <trkpt lat="59.6317184" lon="17.4806366">
        <ele>33.3029</ele>
        <time>2012-05-20T11:32:06Z</time>
      </trkpt>
      <trkpt lat="59.6315006" lon="17.4816657">
        <ele>31.8607</ele>
        <time>2012-05-20T11:32:13Z</time>
      </trkpt>
      <trkpt lat="59.6312965" lon="17.4824379">
        <ele>31.8607</ele>
        <time>2012-05-20T11:32:19Z</time>
      </trkpt>
      <trkpt lat="59.630982" lon="17.4833899">
        <ele>31.8607</ele>
        <time>2012-05-20T11:32:27Z</time>
      </trkpt>
      <trkpt lat="59.6306335" lon="17.4841996">
        <ele>31.8607</ele>
        <time>2012-05-20T11:32:35Z</time>
      </trkpt>
      <trkpt lat="59.6302626" lon="17.4849015">
        <ele>29.9381</ele>
        <time>2012-05-20T11:32:42Z</time>
      </trkpt>
      <trkpt lat="59.629792" lon="17.4856774">
        <ele>28.4962</ele>
        <time>2012-05-20T11:32:49Z</time>
      </trkpt>
      <trkpt lat="59.6291786" lon="17.4866645">
        <ele>25.6123</ele>
        <time>2012-05-20T11:32:57Z</time>
      </trkpt>
      <trkpt lat="59.6285225" lon="17.4877175">
        <ele>20.8057</ele>
        <time>2012-05-20T11:33:05Z</time>
      </trkpt>
      <trkpt lat="59.627816" lon="17.4887766">
        <ele>15.5184</ele>
        <time>2012-05-20T11:33:13Z</time>
      </trkpt>
      <trkpt lat="59.6274015" lon="17.4892191">
        <ele>14.0764</ele>
        <time>2012-05-20T11:33:17Z</time>
      </trkpt>
      <trkpt lat="59.6268355" lon="17.489746">
        <ele>13.5958</ele>
        <time>2012-05-20T11:33:23Z</time>
      </trkpt>
      <trkpt lat="59.6264611" lon="17.4902065">
        <ele>15.5184</ele>
        <time>2012-05-20T11:33:28Z</time>
      </trkpt>
      <trkpt lat="59.6261897" lon="17.4907088">
        <ele>16.9604</ele>
        <time>2012-05-20T11:33:33Z</time>
      </trkpt>
      <trkpt lat="59.6258491" lon="17.4914796">
        <ele>16.9604</ele>
        <time>2012-05-20T11:33:41Z</time>
      </trkpt>
      <trkpt lat="59.6256605" lon="17.4919668">
        <ele>17.9218</ele>
        <time>2012-05-20T11:33:47Z</time>
      </trkpt>
      <trkpt lat="59.6255731" lon="17.4921885">
        <ele>17.9218</ele>
        <time>2012-05-20T11:33:50Z</time>
      </trkpt>
      <trkpt lat="59.6255325" lon="17.4925288">
        <ele>17.9218</ele>
        <time>2012-05-20T11:33:54Z</time>
      </trkpt>
      <trkpt lat="59.6255632" lon="17.4927501">
        <ele>17.4412</ele>
        <time>2012-05-20T11:33:57Z</time>
      </trkpt>
      <trkpt lat="59.6255994" lon="17.4929156">
        <ele>16.9604</ele>
        <time>2012-05-20T11:33:59Z</time>
      </trkpt>
      <trkpt lat="59.6255941" lon="17.4933352">
        <ele>15.5184</ele>
        <time>2012-05-20T11:34:03Z</time>
      </trkpt>
      <trkpt lat="59.6255662" lon="17.4934305">
        <ele>15.5184</ele>
        <time>2012-05-20T11:34:04Z</time>
      </trkpt>
      <trkpt lat="59.6254702" lon="17.4937378">
        <ele>14.0764</ele>
        <time>2012-05-20T11:34:07Z</time>
      </trkpt>
      <trkpt lat="59.6254227" lon="17.4943478">
        <ele>12.6344</ele>
        <time>2012-05-20T11:34:12Z</time>
      </trkpt>
      <trkpt lat="59.6255467" lon="17.4951939">
        <ele>9.75061</ele>
        <time>2012-05-20T11:34:18Z</time>
      </trkpt>
      <trkpt lat="59.6257829" lon="17.4958032">
        <ele>9.2699</ele>
        <time>2012-05-20T11:34:23Z</time>
      </trkpt>
      <trkpt lat="59.6258454" lon="17.4958952">
        <ele>8.78918</ele>
        <time>2012-05-20T11:34:24Z</time>
      </trkpt>
      <trkpt lat="59.6264661" lon="17.4965352">
        <ele>6.86646</ele>
        <time>2012-05-20T11:34:33Z</time>
      </trkpt>
      <trkpt lat="59.626998" lon="17.4971879">
        <ele>5.42456</ele>
        <time>2012-05-20T11:34:41Z</time>
      </trkpt>
      <trkpt lat="59.6272374" lon="17.4977812">
        <ele>5.42456</ele>
        <time>2012-05-20T11:34:46Z</time>
      </trkpt>
      <trkpt lat="59.6275786" lon="17.4986537">
        <ele>6.38586</ele>
        <time>2012-05-20T11:34:54Z</time>
      </trkpt>
      <trkpt lat="59.6278425" lon="17.4991332">
        <ele>6.86646</ele>
        <time>2012-05-20T11:35:00Z</time>
      </trkpt>
      <trkpt lat="59.6281815" lon="17.4994676">
        <ele>8.78918</ele>
        <time>2012-05-20T11:35:06Z</time>
      </trkpt>
      <trkpt lat="59.6286224" lon="17.4997901">
        <ele>10.2312</ele>
        <time>2012-05-20T11:35:13Z</time>
      </trkpt>
      <trkpt lat="59.6288546" lon="17.5000266">
        <ele>10.2312</ele>
        <time>2012-05-20T11:35:17Z</time>
      </trkpt>
      <trkpt lat="59.6292006" lon="17.500163">
        <ele>11.1925</ele>
        <time>2012-05-20T11:35:22Z</time>
      </trkpt>
      <trkpt lat="59.6294775" lon="17.5001555">
        <ele>11.6732</ele>
        <time>2012-05-20T11:35:26Z</time>
      </trkpt>
      <trkpt lat="59.6297488" lon="17.5002827">
        <ele>11.6732</ele>
        <time>2012-05-20T11:35:30Z</time>
      </trkpt>
      <trkpt lat="59.6299526" lon="17.500473">
        <ele>11.1925</ele>
        <time>2012-05-20T11:35:33Z</time>
      </trkpt>
      <trkpt lat="59.6302568" lon="17.5010384">
        <ele>11.1925</ele>
        <time>2012-05-20T11:35:38Z</time>
      </trkpt>
      <trkpt lat="59.630432" lon="17.5017474">
        <ele>10.2312</ele>
        <time>2012-05-20T11:35:43Z</time>
      </trkpt>
      <trkpt lat="59.6304053" lon="17.5023539">
        <ele>7.82788</ele>
        <time>2012-05-20T11:35:47Z</time>
      </trkpt>
      <trkpt lat="59.6303661" lon="17.5024839">
        <ele>7.82788</ele>
        <time>2012-05-20T11:35:48Z</time>
      </trkpt>
      <trkpt lat="59.6301991" lon="17.5030578">
        <ele>7.34717</ele>
        <time>2012-05-20T11:35:53Z</time>
      </trkpt>
      <trkpt lat="59.6301491" lon="17.5035287">
        <ele>5.90527</ele>
        <time>2012-05-20T11:35:57Z</time>
      </trkpt>
      <trkpt lat="59.6302123" lon="17.5043709">
        <ele>7.34717</ele>
        <time>2012-05-20T11:36:03Z</time>
      </trkpt>
      <trkpt lat="59.630344" lon="17.505292">
        <ele>6.86646</ele>
        <time>2012-05-20T11:36:09Z</time>
      </trkpt>
      <trkpt lat="59.6305007" lon="17.5062988">
        <ele>5.42456</ele>
        <time>2012-05-20T11:36:16Z</time>
      </trkpt>
      <trkpt lat="59.6306256" lon="17.5072442">
        <ele>5.90527</ele>
        <time>2012-05-20T11:36:23Z</time>
      </trkpt>
      <trkpt lat="59.6307643" lon="17.5082281">
        <ele>9.2699</ele>
        <time>2012-05-20T11:36:30Z</time>
      </trkpt>
      <trkpt lat="59.6309" lon="17.5092237">
        <ele>11.1925</ele>
        <time>2012-05-20T11:36:37Z</time>
      </trkpt>
      <trkpt lat="59.6310186" lon="17.5098986">
        <ele>10.7118</ele>
        <time>2012-05-20T11:36:42Z</time>
      </trkpt>
      <trkpt lat="59.6312743" lon="17.5105569">
        <ele>10.2312</ele>
        <time>2012-05-20T11:36:48Z</time>
      </trkpt>
      <trkpt lat="59.631613" lon="17.5113128">
        <ele>12.1538</ele>
        <time>2012-05-20T11:36:56Z</time>
      </trkpt>
      <trkpt lat="59.6319165" lon="17.512063">
        <ele>12.1538</ele>
        <time>2012-05-20T11:37:04Z</time>
      </trkpt>
      <trkpt lat="59.6322693" lon="17.5131452">
        <ele>13.1151</ele>
        <time>2012-05-20T11:37:15Z</time>
      </trkpt>
      <trkpt lat="59.6325034" lon="17.5138266">
        <ele>13.5958</ele>
        <time>2012-05-20T11:37:22Z</time>
      </trkpt>
      <trkpt lat="59.6327697" lon="17.5142529">
        <ele>12.6344</ele>
        <time>2012-05-20T11:37:27Z</time>
      </trkpt>
      <trkpt lat="59.6333916" lon="17.5151179">
        <ele>9.2699</ele>
        <time>2012-05-20T11:37:37Z</time>
      </trkpt>
      <trkpt lat="59.6339435" lon="17.5157956">
        <ele>8.30859</ele>
        <time>2012-05-20T11:37:45Z</time>
      </trkpt>
      <trkpt lat="59.6345185" lon="17.5164454">
        <ele>8.78918</ele>
        <time>2012-05-20T11:37:53Z</time>
      </trkpt>
      <trkpt lat="59.6348338" lon="17.5169527">
        <ele>9.2699</ele>
        <time>2012-05-20T11:37:58Z</time>
      </trkpt>
      <trkpt lat="59.6352084" lon="17.5178138">
        <ele>9.2699</ele>
        <time>2012-05-20T11:38:05Z</time>
      </trkpt>
      <trkpt lat="59.6355654" lon="17.5188753">
        <ele>9.2699</ele>
        <time>2012-05-20T11:38:13Z</time>
      </trkpt>
      <trkpt lat="59.6356745" lon="17.5196022">
        <ele>9.75061</ele>
        <time>2012-05-20T11:38:18Z</time>
      </trkpt>
      <trkpt lat="59.6357648" lon="17.5207521">
        <ele>10.7118</ele>
        <time>2012-05-20T11:38:26Z</time>
      </trkpt>
      <trkpt lat="59.6358014" lon="17.5211566">
        <ele>11.1925</ele>
        <time>2012-05-20T11:38:29Z</time>
      </trkpt>
      <trkpt lat="59.6359678" lon="17.521725">
        <ele>13.1151</ele>
        <time>2012-05-20T11:38:34Z</time>
      </trkpt>
      <trkpt lat="59.6361782" lon="17.5220118">
        <ele>13.1151</ele>
        <time>2012-05-20T11:38:38Z</time>
      </trkpt>
      <trkpt lat="59.6366535" lon="17.5224022">
        <ele>13.5958</ele>
        <time>2012-05-20T11:38:46Z</time>
      </trkpt>
      <trkpt lat="59.6371031" lon="17.5229142">
        <ele>15.0377</ele>
        <time>2012-05-20T11:38:54Z</time>
      </trkpt>
      <trkpt lat="59.6375934" lon="17.5234936">
        <ele>16.4797</ele>
        <time>2012-05-20T11:39:03Z</time>
      </trkpt>
      <trkpt lat="59.638174" lon="17.5241221">
        <ele>16.4797</ele>
        <time>2012-05-20T11:39:13Z</time>
      </trkpt>
      <trkpt lat="59.6388651" lon="17.5249145">
        <ele>16.9604</ele>
        <time>2012-05-20T11:39:24Z</time>
      </trkpt>
      <trkpt lat="59.6395038" lon="17.5257539">
        <ele>16.4797</ele>
        <time>2012-05-20T11:39:34Z</time>
      </trkpt>
      <trkpt lat="59.6401285" lon="17.5266699">
        <ele>15.999</ele>
        <time>2012-05-20T11:39:44Z</time>
      </trkpt>
      <trkpt lat="59.6407929" lon="17.5277447">
        <ele>14.557</ele>
        <time>2012-05-20T11:39:55Z</time>
      </trkpt>
      <trkpt lat="59.641319" lon="17.5285609">
        <ele>13.1151</ele>
        <time>2012-05-20T11:40:04Z</time>
      </trkpt>
      <trkpt lat="59.6418556" lon="17.529293">
        <ele>13.1151</ele>
        <time>2012-05-20T11:40:13Z</time>
      </trkpt>
      <trkpt lat="59.6422844" lon="17.5298638">
        <ele>14.0764</ele>
        <time>2012-05-20T11:40:21Z</time>
      </trkpt>
      <trkpt lat="59.6429074" lon="17.530674">
        <ele>15.5184</ele>
        <time>2012-05-20T11:40:33Z</time>
      </trkpt>
      <trkpt lat="59.6432666" lon="17.5311578">
        <ele>17.4412</ele>
        <time>2012-05-20T11:40:41Z</time>
      </trkpt>
      <trkpt lat="59.6437535" lon="17.5318079">
        <ele>20.325</ele>
        <time>2012-05-20T11:40:53Z</time>
      </trkpt>
      <trkpt lat="59.6441272" lon="17.5323083">
        <ele>23.209</ele>
        <time>2012-05-20T11:41:03Z</time>
      </trkpt>
      <trkpt lat="59.644424" lon="17.5327101">
        <ele>25.1317</ele>
        <time>2012-05-20T11:41:12Z</time>
      </trkpt>
      <trkpt lat="59.6447171" lon="17.5330437">
        <ele>24.651</ele>
        <time>2012-05-20T11:41:20Z</time>
      </trkpt>
      <trkpt lat="59.6451231" lon="17.5334786">
        <ele>24.1703</ele>
        <time>2012-05-20T11:41:30Z</time>
      </trkpt>
      <trkpt lat="59.645651" lon="17.5340178">
        <ele>23.6896</ele>
        <time>2012-05-20T11:41:41Z</time>
      </trkpt>
      <trkpt lat="59.6462088" lon="17.5346051">
        <ele>23.6896</ele>
        <time>2012-05-20T11:41:51Z</time>
      </trkpt>
      <trkpt lat="59.6468999" lon="17.5353215">
        <ele>24.651</ele>
        <time>2012-05-20T11:42:03Z</time>
      </trkpt>
      <trkpt lat="59.647376" lon="17.5358582">
        <ele>27.0543</ele>
        <time>2012-05-20T11:42:13Z</time>
      </trkpt>
      <trkpt lat="59.647778" lon="17.5364426">
        <ele>27.5349</ele>
        <time>2012-05-20T11:42:22Z</time>
      </trkpt>
      <trkpt lat="59.6483245" lon="17.5372869">
        <ele>27.0543</ele>
        <time>2012-05-20T11:42:33Z</time>
      </trkpt>
      <trkpt lat="59.6488233" lon="17.5379993">
        <ele>28.9769</ele>
        <time>2012-05-20T11:42:43Z</time>
      </trkpt>
      <trkpt lat="59.6492969" lon="17.5386926">
        <ele>30.4188</ele>
        <time>2012-05-20T11:42:53Z</time>
      </trkpt>
      <trkpt lat="59.6497423" lon="17.5394807">
        <ele>31.3801</ele>
        <time>2012-05-20T11:43:03Z</time>
      </trkpt>
      <trkpt lat="59.6501525" lon="17.5402597">
        <ele>32.8223</ele>
        <time>2012-05-20T11:43:13Z</time>
      </trkpt>
      <trkpt lat="59.6504878" lon="17.5409193">
        <ele>34.7449</ele>
        <time>2012-05-20T11:43:22Z</time>
      </trkpt>
      <trkpt lat="59.6506736" lon="17.5413194">
        <ele>36.1868</ele>
        <time>2012-05-20T11:43:28Z</time>
      </trkpt>
      <trkpt lat="59.6508923" lon="17.5417853">
        <ele>37.1481</ele>
        <time>2012-05-20T11:43:35Z</time>
      </trkpt>
      <trkpt lat="59.6511404" lon="17.5422681">
        <ele>38.1094</ele>
        <time>2012-05-20T11:43:42Z</time>
      </trkpt>
      <trkpt lat="59.6513497" lon="17.5427193">
        <ele>39.0707</ele>
        <time>2012-05-20T11:43:48Z</time>
      </trkpt>
      <trkpt lat="59.6516122" lon="17.5432648">
        <ele>39.5513</ele>
        <time>2012-05-20T11:43:56Z</time>
      </trkpt>
      <trkpt lat="59.6519301" lon="17.5439848">
        <ele>40.5128</ele>
        <time>2012-05-20T11:44:05Z</time>
      </trkpt>
      <trkpt lat="59.6522053" lon="17.544744">
        <ele>40.9934</ele>
        <time>2012-05-20T11:44:13Z</time>
      </trkpt>
      <trkpt lat="59.6525069" lon="17.5457605">
        <ele>41.9547</ele>
        <time>2012-05-20T11:44:22Z</time>
      </trkpt>
      <trkpt lat="59.6527462" lon="17.5467213">
        <ele>41.9547</ele>
        <time>2012-05-20T11:44:30Z</time>
      </trkpt>
      <trkpt lat="59.6529354" lon="17.5477232">
        <ele>43.8773</ele>
        <time>2012-05-20T11:44:38Z</time>
      </trkpt>
      <trkpt lat="59.6531025" lon="17.5490448">
        <ele>44.358</ele>
        <time>2012-05-20T11:44:48Z</time>
      </trkpt>
      <trkpt lat="59.6531902" lon="17.5501207">
        <ele>44.358</ele>
        <time>2012-05-20T11:44:56Z</time>
      </trkpt>
      <trkpt lat="59.6532307" lon="17.5510823">
        <ele>44.8386</ele>
        <time>2012-05-20T11:45:03Z</time>
      </trkpt>
      <trkpt lat="59.6532237" lon="17.5522092">
        <ele>44.8386</ele>
        <time>2012-05-20T11:45:11Z</time>
      </trkpt>
      <trkpt lat="59.6531678" lon="17.5533611">
        <ele>41.9547</ele>
        <time>2012-05-20T11:45:19Z</time>
      </trkpt>
      <trkpt lat="59.6530595" lon="17.5545915">
        <ele>37.1481</ele>
        <time>2012-05-20T11:45:27Z</time>
      </trkpt>
      <trkpt lat="59.6529156" lon="17.5556342">
        <ele>41.474</ele>
        <time>2012-05-20T11:45:33Z</time>
      </trkpt>
      <trkpt lat="59.6527046" lon="17.5566499">
        <ele>37.1481</ele>
        <time>2012-05-20T11:45:39Z</time>
      </trkpt>
      <trkpt lat="59.6524012" lon="17.5577846">
        <ele>32.8223</ele>
        <time>2012-05-20T11:45:46Z</time>
      </trkpt>
      <trkpt lat="59.6520183" lon="17.5588727">
        <ele>27.5349</ele>
        <time>2012-05-20T11:45:53Z</time>
      </trkpt>
      <trkpt lat="59.6515266" lon="17.5600418">
        <ele>25.6123</ele>
        <time>2012-05-20T11:46:01Z</time>
      </trkpt>
      <trkpt lat="59.6511161" lon="17.560794">
        <ele>19.8444</ele>
        <time>2012-05-20T11:46:07Z</time>
      </trkpt>
      <trkpt lat="59.650611" lon="17.5615729">
        <ele>15.999</ele>
        <time>2012-05-20T11:46:14Z</time>
      </trkpt>
      <trkpt lat="59.6500416" lon="17.5622208">
        <ele>18.4023</ele>
        <time>2012-05-20T11:46:21Z</time>
      </trkpt>
      <trkpt lat="59.6494153" lon="17.5628018">
        <ele>17.4412</ele>
        <time>2012-05-20T11:46:29Z</time>
      </trkpt>
      <trkpt lat="59.6488729" lon="17.5633219">
        <ele>18.8831</ele>
        <time>2012-05-20T11:46:37Z</time>
      </trkpt>
      <trkpt lat="59.6481438" lon="17.5640364">
        <ele>21.767</ele>
        <time>2012-05-20T11:46:48Z</time>
      </trkpt>
      <trkpt lat="59.6475614" lon="17.5646076">
        <ele>25.1317</ele>
        <time>2012-05-20T11:46:58Z</time>
      </trkpt>
      <trkpt lat="59.647167" lon="17.5649845">
        <ele>27.5349</ele>
        <time>2012-05-20T11:47:06Z</time>
      </trkpt>
      <trkpt lat="59.6467881" lon="17.5653434">
        <ele>28.4962</ele>
        <time>2012-05-20T11:47:15Z</time>
      </trkpt>
      <trkpt lat="59.6464377" lon="17.5656851">
        <ele>30.8995</ele>
        <time>2012-05-20T11:47:25Z</time>
      </trkpt>
      <trkpt lat="59.6461065" lon="17.5659967">
        <ele>31.8607</ele>
        <time>2012-05-20T11:47:35Z</time>
      </trkpt>
      <trkpt lat="59.6457762" lon="17.566311">
        <ele>33.3029</ele>
        <time>2012-05-20T11:47:46Z</time>
      </trkpt>
      <trkpt lat="59.6455065" lon="17.5665725">
        <ele>33.7834</ele>
        <time>2012-05-20T11:47:54Z</time>
      </trkpt>
      <trkpt lat="59.6452242" lon="17.5668509">
        <ele>36.1868</ele>
        <time>2012-05-20T11:48:03Z</time>
      </trkpt>
      <trkpt lat="59.645087" lon="17.5669892">
        <ele>36.1868</ele>
        <time>2012-05-20T11:48:09Z</time>
      </trkpt>
      <trkpt lat="59.6449476" lon="17.5671107">
        <ele>35.7061</ele>
        <time>2012-05-20T11:48:14Z</time>
      </trkpt>
      <trkpt lat="59.6447331" lon="17.5673112">
        <ele>36.1868</ele>
        <time>2012-05-20T11:48:21Z</time>
      </trkpt>
      <trkpt lat="59.6444372" lon="17.5675947">
        <ele>38.5901</ele>
        <time>2012-05-20T11:48:30Z</time>
      </trkpt>
      <trkpt lat="59.6440276" lon="17.5680541">
        <ele>41.474</ele>
        <time>2012-05-20T11:48:41Z</time>
      </trkpt>
      <trkpt lat="59.6436805" lon="17.5684846">
        <ele>42.4354</ele>
        <time>2012-05-20T11:48:50Z</time>
      </trkpt>
      <trkpt lat="59.6433574" lon="17.5689259">
        <ele>42.4354</ele>
        <time>2012-05-20T11:48:58Z</time>
      </trkpt>
      <trkpt lat="59.6429336" lon="17.5695175">
        <ele>41.9547</ele>
        <time>2012-05-20T11:49:08Z</time>
      </trkpt>
      <trkpt lat="59.6425528" lon="17.570064">
        <ele>42.916</ele>
        <time>2012-05-20T11:49:17Z</time>
      </trkpt>
      <trkpt lat="59.6421296" lon="17.570653">
        <ele>41.9547</ele>
        <time>2012-05-20T11:49:26Z</time>
      </trkpt>
      <trkpt lat="59.6416822" lon="17.5713045">
        <ele>42.916</ele>
        <time>2012-05-20T11:49:36Z</time>
      </trkpt>
      <trkpt lat="59.6412348" lon="17.5719241">
        <ele>43.3966</ele>
        <time>2012-05-20T11:49:46Z</time>
      </trkpt>
      <trkpt lat="59.6409247" lon="17.5723233">
        <ele>43.8773</ele>
        <time>2012-05-20T11:49:53Z</time>
      </trkpt>
      <trkpt lat="59.6407692" lon="17.5727079">
        <ele>48.684</ele>
        <time>2012-05-20T11:50:49Z</time>
      </trkpt>
      <trkpt lat="59.6407513" lon="17.5727384">
        <ele>48.2034</ele>
        <time>2012-05-20T11:50:50Z</time>
      </trkpt>
      <trkpt lat="59.6406356" lon="17.572915">
        <ele>47.7225</ele>
        <time>2012-05-20T11:50:54Z</time>
      </trkpt>
      <trkpt lat="59.6403688" lon="17.5732797">
        <ele>48.2034</ele>
        <time>2012-05-20T11:51:02Z</time>
      </trkpt>
      <trkpt lat="59.6400556" lon="17.5737055">
        <ele>48.2034</ele>
        <time>2012-05-20T11:51:10Z</time>
      </trkpt>
      <trkpt lat="59.6396369" lon="17.5742816">
        <ele>49.1646</ele>
        <time>2012-05-20T11:51:20Z</time>
      </trkpt>
      <trkpt lat="59.6391825" lon="17.5748925">
        <ele>49.6453</ele>
        <time>2012-05-20T11:51:30Z</time>
      </trkpt>
      <trkpt lat="59.6387134" lon="17.5755246">
        <ele>47.7225</ele>
        <time>2012-05-20T11:51:39Z</time>
      </trkpt>
      <trkpt lat="59.6382044" lon="17.5762434">
        <ele>46.7612</ele>
        <time>2012-05-20T11:51:48Z</time>
      </trkpt>
      <trkpt lat="59.6376198" lon="17.5771503">
        <ele>45.7999</ele>
        <time>2012-05-20T11:51:58Z</time>
      </trkpt>
      <trkpt lat="59.6370912" lon="17.5780424">
        <ele>43.8773</ele>
        <time>2012-05-20T11:52:07Z</time>
      </trkpt>
      <trkpt lat="59.6365536" lon="17.5790686">
        <ele>41.474</ele>
        <time>2012-05-20T11:52:16Z</time>
      </trkpt>
      <trkpt lat="59.6361063" lon="17.5800341">
        <ele>39.5513</ele>
        <time>2012-05-20T11:52:24Z</time>
      </trkpt>
      <trkpt lat="59.6356911" lon="17.5810468">
        <ele>37.1481</ele>
        <time>2012-05-20T11:52:32Z</time>
      </trkpt>
      <trkpt lat="59.6352407" lon="17.582233">
        <ele>35.7061</ele>
        <time>2012-05-20T11:52:41Z</time>
      </trkpt>
      <trkpt lat="59.6349018" lon="17.583212">
        <ele>34.7449</ele>
        <time>2012-05-20T11:52:48Z</time>
      </trkpt>
      <trkpt lat="59.6344625" lon="17.58465">
        <ele>35.2255</ele>
        <time>2012-05-20T11:52:58Z</time>
      </trkpt>
      <trkpt lat="59.6341826" lon="17.5856958">
        <ele>37.6287</ele>
        <time>2012-05-20T11:53:05Z</time>
      </trkpt>
      <trkpt lat="59.6339355" lon="17.5867318">
        <ele>36.6675</ele>
        <time>2012-05-20T11:53:12Z</time>
      </trkpt>
      <trkpt lat="59.6336819" lon="17.5879569">
        <ele>33.3029</ele>
        <time>2012-05-20T11:53:21Z</time>
      </trkpt>
      <trkpt lat="59.6334654" lon="17.5889891">
        <ele>30.8995</ele>
        <time>2012-05-20T11:53:29Z</time>
      </trkpt>
      <trkpt lat="59.6332429" lon="17.5900601">
        <ele>28.4962</ele>
        <time>2012-05-20T11:53:38Z</time>
      </trkpt>
      <trkpt lat="59.6329457" lon="17.5914719">
        <ele>27.5349</ele>
        <time>2012-05-20T11:53:50Z</time>
      </trkpt>
      <trkpt lat="59.6326867" lon="17.5927005">
        <ele>26.5736</ele>
        <time>2012-05-20T11:54:00Z</time>
      </trkpt>
      <trkpt lat="59.6323994" lon="17.5940578">
        <ele>25.1317</ele>
        <time>2012-05-20T11:54:11Z</time>
      </trkpt>
      <trkpt lat="59.6321332" lon="17.5953337">
        <ele>23.209</ele>
        <time>2012-05-20T11:54:22Z</time>
      </trkpt>
      <trkpt lat="59.6318999" lon="17.5963331">
        <ele>21.767</ele>
        <time>2012-05-20T11:54:30Z</time>
      </trkpt>
      <trkpt lat="59.6315964" lon="17.5973004">
        <ele>19.8444</ele>
        <time>2012-05-20T11:54:38Z</time>
      </trkpt>
      <trkpt lat="59.6313187" lon="17.5980458">
        <ele>18.4023</ele>
        <time>2012-05-20T11:54:44Z</time>
      </trkpt>
      <trkpt lat="59.6311623" lon="17.5983722">
        <ele>17.9218</ele>
        <time>2012-05-20T11:54:47Z</time>
      </trkpt>
      <trkpt lat="59.6311281" lon="17.598757">
        <ele>18.4023</ele>
        <time>2012-05-20T11:54:50Z</time>
      </trkpt>
      <trkpt lat="59.631257" lon="17.5990543">
        <ele>18.4023</ele>
        <time>2012-05-20T11:54:53Z</time>
      </trkpt>
      <trkpt lat="59.631705" lon="17.5998786">
        <ele>17.9218</ele>
        <time>2012-05-20T11:55:01Z</time>
      </trkpt>
      <trkpt lat="59.6321891" lon="17.6007639">
        <ele>17.4412</ele>
        <time>2012-05-20T11:55:09Z</time>
      </trkpt>
      <trkpt lat="59.6327729" lon="17.6018657">
        <ele>16.9604</ele>
        <time>2012-05-20T11:55:19Z</time>
      </trkpt>
      <trkpt lat="59.6331057" lon="17.6025147">
        <ele>16.9604</ele>
        <time>2012-05-20T11:55:25Z</time>
      </trkpt>
      <trkpt lat="59.6338244" lon="17.6038344">
        <ele>16.4797</ele>
        <time>2012-05-20T11:55:37Z</time>
      </trkpt>
      <trkpt lat="59.6344044" lon="17.6047003">
        <ele>15.5184</ele>
        <time>2012-05-20T11:55:46Z</time>
      </trkpt>
      <trkpt lat="59.635043" lon="17.6054627">
        <ele>13.1151</ele>
        <time>2012-05-20T11:55:55Z</time>
      </trkpt>
      <trkpt lat="59.6357007" lon="17.6061454">
        <ele>10.7118</ele>
        <time>2012-05-20T11:56:03Z</time>
      </trkpt>
      <trkpt lat="59.6365905" lon="17.6070761">
        <ele>7.82788</ele>
        <time>2012-05-20T11:56:13Z</time>
      </trkpt>
      <trkpt lat="59.6374613" lon="17.607951">
        <ele>5.90527</ele>
        <time>2012-05-20T11:56:22Z</time>
      </trkpt>
      <trkpt lat="59.6383123" lon="17.6088323">
        <ele>4.94385</ele>
        <time>2012-05-20T11:56:31Z</time>
      </trkpt>
      <trkpt lat="59.6387827" lon="17.6091747">
        <ele>4.94385</ele>
        <time>2012-05-20T11:56:36Z</time>
      </trkpt>
      <trkpt lat="59.6393286" lon="17.609336">
        <ele>4.94385</ele>
        <time>2012-05-20T11:56:42Z</time>
      </trkpt>
      <trkpt lat="59.6398007" lon="17.6092966">
        <ele>5.42456</ele>
        <time>2012-05-20T11:56:48Z</time>
      </trkpt>
      <trkpt lat="59.6403855" lon="17.6091669">
        <ele>5.90527</ele>
        <time>2012-05-20T11:56:56Z</time>
      </trkpt>
      <trkpt lat="59.6407792" lon="17.6091027">
        <ele>5.90527</ele>
        <time>2012-05-20T11:57:02Z</time>
      </trkpt>
      <trkpt lat="59.6412178" lon="17.6090174">
        <ele>5.90527</ele>
        <time>2012-05-20T11:57:08Z</time>
      </trkpt>
      <trkpt lat="59.6418037" lon="17.6090167">
        <ele>4.94385</ele>
        <time>2012-05-20T11:57:16Z</time>
      </trkpt>
      <trkpt lat="59.6423974" lon="17.6091001">
        <ele>3.98267</ele>
        <time>2012-05-20T11:57:24Z</time>
      </trkpt>
      <trkpt lat="59.6429385" lon="17.6093574">
        <ele>3.98267</ele>
        <time>2012-05-20T11:57:31Z</time>
      </trkpt>
      <trkpt lat="59.6434208" lon="17.6097024">
        <ele>5.90527</ele>
        <time>2012-05-20T11:57:38Z</time>
      </trkpt>
      <trkpt lat="59.643898" lon="17.6102443">
        <ele>7.82788</ele>
        <time>2012-05-20T11:57:46Z</time>
      </trkpt>
      <trkpt lat="59.6442087" lon="17.6107999">
        <ele>8.30859</ele>
        <time>2012-05-20T11:57:53Z</time>
      </trkpt>
      <trkpt lat="59.6445249" lon="17.6115598">
        <ele>10.2312</ele>
        <time>2012-05-20T11:58:02Z</time>
      </trkpt>
      <trkpt lat="59.6447642" lon="17.6123718">
        <ele>11.6732</ele>
        <time>2012-05-20T11:58:11Z</time>
      </trkpt>
      <trkpt lat="59.644885" lon="17.6129178">
        <ele>13.5958</ele>
        <time>2012-05-20T11:58:18Z</time>
      </trkpt>
      <trkpt lat="59.6449952" lon="17.6135331">
        <ele>15.0377</ele>
        <time>2012-05-20T11:58:26Z</time>
      </trkpt>
      <trkpt lat="59.6450957" lon="17.614096">
        <ele>14.0764</ele>
        <time>2012-05-20T11:58:32Z</time>
      </trkpt>
      <trkpt lat="59.6452114" lon="17.6147629">
        <ele>11.6732</ele>
        <time>2012-05-20T11:58:37Z</time>
      </trkpt>
      <trkpt lat="59.6454155" lon="17.6159725">
        <ele>9.75061</ele>
        <time>2012-05-20T11:58:45Z</time>
      </trkpt>
      <trkpt lat="59.6455631" lon="17.6168107">
        <ele>10.7118</ele>
        <time>2012-05-20T11:58:52Z</time>
      </trkpt>
      <trkpt lat="59.6457221" lon="17.6177654">
        <ele>15.0377</ele>
        <time>2012-05-20T11:59:02Z</time>
      </trkpt>
      <trkpt lat="59.6458473" lon="17.6184378">
        <ele>18.4023</ele>
        <time>2012-05-20T11:59:10Z</time>
      </trkpt>
      <trkpt lat="59.6459606" lon="17.6191502">
        <ele>21.2864</ele>
        <time>2012-05-20T11:59:18Z</time>
      </trkpt>
      <trkpt lat="59.6460021" lon="17.6198913">
        <ele>19.8444</ele>
        <time>2012-05-20T11:59:27Z</time>
      </trkpt>
      <trkpt lat="59.6460199" lon="17.6205623">
        <ele>17.9218</ele>
        <time>2012-05-20T11:59:35Z</time>
      </trkpt>
      <trkpt lat="59.6460533" lon="17.6213304">
        <ele>17.4412</ele>
        <time>2012-05-20T11:59:44Z</time>
      </trkpt>
      <trkpt lat="59.6460624" lon="17.6220085">
        <ele>17.9218</ele>
        <time>2012-05-20T11:59:51Z</time>
      </trkpt>
      <trkpt lat="59.6460752" lon="17.6229113">
        <ele>17.4412</ele>
        <time>2012-05-20T12:00:00Z</time>
      </trkpt>
      <trkpt lat="59.6460945" lon="17.6238284">
        <ele>18.8831</ele>
        <time>2012-05-20T12:00:09Z</time>
      </trkpt>
      <trkpt lat="59.6461029" lon="17.6246734">
        <ele>17.9218</ele>
        <time>2012-05-20T12:00:17Z</time>
      </trkpt>
      <trkpt lat="59.6461151" lon="17.6257094">
        <ele>18.4023</ele>
        <time>2012-05-20T12:00:26Z</time>
      </trkpt>
      <trkpt lat="59.646136" lon="17.6270099">
        <ele>19.3638</ele>
        <time>2012-05-20T12:00:37Z</time>
      </trkpt>
      <trkpt lat="59.646198" lon="17.6282277">
        <ele>19.3638</ele>
        <time>2012-05-20T12:00:47Z</time>
      </trkpt>
      <trkpt lat="59.6462938" lon="17.6293357">
        <ele>19.3638</ele>
        <time>2012-05-20T12:00:56Z</time>
      </trkpt>
      <trkpt lat="59.6464535" lon="17.6305765">
        <ele>19.3638</ele>
        <time>2012-05-20T12:01:06Z</time>
      </trkpt>
      <trkpt lat="59.6466104" lon="17.6314728">
        <ele>20.325</ele>
        <time>2012-05-20T12:01:14Z</time>
      </trkpt>
      <trkpt lat="59.6467557" lon="17.6321832">
        <ele>23.6896</ele>
        <time>2012-05-20T12:01:22Z</time>
      </trkpt>
      <trkpt lat="59.6469112" lon="17.6327851">
        <ele>27.5349</ele>
        <time>2012-05-20T12:01:30Z</time>
      </trkpt>
      <trkpt lat="59.6470695" lon="17.6334042">
        <ele>30.8995</ele>
        <time>2012-05-20T12:01:38Z</time>
      </trkpt>
      <trkpt lat="59.6472507" lon="17.6340135">
        <ele>34.2642</ele>
        <time>2012-05-20T12:01:46Z</time>
      </trkpt>
      <trkpt lat="59.6473546" lon="17.6343649">
        <ele>35.7061</ele>
        <time>2012-05-20T12:01:51Z</time>
      </trkpt>
      <trkpt lat="59.6473963" lon="17.6347832">
        <ele>36.6675</ele>
        <time>2012-05-20T12:01:56Z</time>
      </trkpt>
      <trkpt lat="59.6473905" lon="17.6348706">
        <ele>36.6675</ele>
        <time>2012-05-20T12:01:57Z</time>
      </trkpt>
      <trkpt lat="59.6473045" lon="17.6355108">
        <ele>31.8607</ele>
        <time>2012-05-20T12:02:03Z</time>
      </trkpt>
      <trkpt lat="59.6472044" lon="17.6362812">
        <ele>26.5736</ele>
        <time>2012-05-20T12:02:09Z</time>
      </trkpt>
      <trkpt lat="59.6470357" lon="17.6374793">
        <ele>23.6896</ele>
        <time>2012-05-20T12:02:17Z</time>
      </trkpt>
      <trkpt lat="59.6468605" lon="17.6386212">
        <ele>22.7283</ele>
        <time>2012-05-20T12:02:24Z</time>
      </trkpt>
      <trkpt lat="59.6468252" lon="17.6387774">
        <ele>23.209</ele>
        <time>2012-05-20T12:02:25Z</time>
      </trkpt>
      <trkpt lat="59.6465656" lon="17.6394292">
        <ele>22.2476</ele>
        <time>2012-05-20T12:02:30Z</time>
      </trkpt>
      <trkpt lat="59.6460006" lon="17.6401738">
        <ele>19.8444</ele>
        <time>2012-05-20T12:02:38Z</time>
      </trkpt>
      <trkpt lat="59.6454869" lon="17.6407527">
        <ele>14.557</ele>
        <time>2012-05-20T12:02:44Z</time>
      </trkpt>
      <trkpt lat="59.6447933" lon="17.6415577">
        <ele>8.78918</ele>
        <time>2012-05-20T12:02:51Z</time>
      </trkpt>
      <trkpt lat="59.6444348" lon="17.6421606">
        <ele>7.34717</ele>
        <time>2012-05-20T12:02:55Z</time>
      </trkpt>
      <trkpt lat="59.6442255" lon="17.6429245">
        <ele>5.90527</ele>
        <time>2012-05-20T12:02:59Z</time>
      </trkpt>
      <trkpt lat="59.644189" lon="17.6433156">
        <ele>5.90527</ele>
        <time>2012-05-20T12:03:01Z</time>
      </trkpt>
      <trkpt lat="59.6441105" lon="17.6445028">
        <ele>4.46326</ele>
        <time>2012-05-20T12:03:08Z</time>
      </trkpt>
      <trkpt lat="59.6440145" lon="17.6457963">
        <ele>3.02124</ele>
        <time>2012-05-20T12:03:16Z</time>
      </trkpt>
      <trkpt lat="59.6439821" lon="17.6462188">
        <ele>3.02124</ele>
        <time>2012-05-20T12:03:19Z</time>
      </trkpt>
      <trkpt lat="59.6438529" lon="17.6466358">
        <ele>3.50195</ele>
        <time>2012-05-20T12:03:23Z</time>
      </trkpt>
      <trkpt lat="59.6436967" lon="17.6466835">
        <ele>3.02124</ele>
        <time>2012-05-20T12:03:26Z</time>
      </trkpt>
      <trkpt lat="59.6432247" lon="17.6466222">
        <ele>2.54065</ele>
        <time>2012-05-20T12:03:35Z</time>
      </trkpt>
      <trkpt lat="59.6429285" lon="17.6465526">
        <ele>2.06006</ele>
        <time>2012-05-20T12:03:41Z</time>
      </trkpt>
      <trkpt lat="59.6425856" lon="17.6463808">
        <ele>4.94385</ele>
        <time>2012-05-20T12:03:47Z</time>
      </trkpt>
      <trkpt lat="59.6421125" lon="17.646166">
        <ele>5.90527</ele>
        <time>2012-05-20T12:03:55Z</time>
      </trkpt>
      <trkpt lat="59.6416634" lon="17.6460399">
        <ele>3.02124</ele>
        <time>2012-05-20T12:04:03Z</time>
      </trkpt>
      <trkpt lat="59.6412589" lon="17.6460624">
        <ele>1.09863</ele>
        <time>2012-05-20T12:04:10Z</time>
      </trkpt>
      <trkpt lat="59.640691" lon="17.6460999">
        <ele>0.618042</ele>
        <time>2012-05-20T12:04:19Z</time>
      </trkpt>
      <trkpt lat="59.6401529" lon="17.6461188">
        <ele>1.09863</ele>
        <time>2012-05-20T12:04:27Z</time>
      </trkpt>
      <trkpt lat="59.6395752" lon="17.6460849">
        <ele>1.09863</ele>
        <time>2012-05-20T12:04:35Z</time>
      </trkpt>
      <trkpt lat="59.6390902" lon="17.6461115">
        <ele>1.57935</ele>
        <time>2012-05-20T12:04:42Z</time>
      </trkpt>
      <trkpt lat="59.6387714" lon="17.6462962">
        <ele>3.50195</ele>
        <time>2012-05-20T12:04:47Z</time>
      </trkpt>
      <trkpt lat="59.6385583" lon="17.6464335">
        <ele>7.34717</ele>
        <time>2012-05-20T12:04:52Z</time>
      </trkpt>
      <trkpt lat="59.6382817" lon="17.6466222">
        <ele>10.2312</ele>
        <time>2012-05-20T12:05:00Z</time>
      </trkpt>
      <trkpt lat="59.6380206" lon="17.6468496">
        <ele>13.5958</ele>
        <time>2012-05-20T12:05:08Z</time>
      </trkpt>
      <trkpt lat="59.6378601" lon="17.6470482">
        <ele>20.325</ele>
        <time>2012-05-20T12:05:14Z</time>
      </trkpt>
      <trkpt lat="59.637708" lon="17.6473049">
        <ele>27.5349</ele>
        <time>2012-05-20T12:05:20Z</time>
      </trkpt>
      <trkpt lat="59.637556" lon="17.647551">
        <ele>27.0543</ele>
        <time>2012-05-20T12:05:25Z</time>
      </trkpt>
      <trkpt lat="59.6373633" lon="17.6479546">
        <ele>25.6123</ele>
        <time>2012-05-20T12:05:31Z</time>
      </trkpt>
      <trkpt lat="59.6372537" lon="17.6482414">
        <ele>26.0929</ele>
        <time>2012-05-20T12:05:35Z</time>
      </trkpt>
      <trkpt lat="59.637194" lon="17.6484841">
        <ele>29.4575</ele>
        <time>2012-05-20T12:05:39Z</time>
      </trkpt>
      <trkpt lat="59.6371478" lon="17.6488749">
        <ele>32.8223</ele>
        <time>2012-05-20T12:05:46Z</time>
      </trkpt>
      <trkpt lat="59.6371867" lon="17.6491373">
        <ele>29.9381</ele>
        <time>2012-05-20T12:05:52Z</time>
      </trkpt>
      <trkpt lat="59.6372001" lon="17.6493402">
        <ele>27.0543</ele>
        <time>2012-05-20T12:05:57Z</time>
      </trkpt>
      <trkpt lat="59.6372324" lon="17.6497122">
        <ele>28.0155</ele>
        <time>2012-05-20T12:06:05Z</time>
      </trkpt>
      <trkpt lat="59.637177" lon="17.6500861">
        <ele>28.0155</ele>
        <time>2012-05-20T12:06:11Z</time>
      </trkpt>
      <trkpt lat="59.6370645" lon="17.6505286">
        <ele>30.4188</ele>
        <time>2012-05-20T12:06:17Z</time>
      </trkpt>
      <trkpt lat="59.636965" lon="17.6508205">
        <ele>28.9769</ele>
        <time>2012-05-20T12:06:21Z</time>
      </trkpt>
      <trkpt lat="59.636787" lon="17.6512978">
        <ele>27.5349</ele>
        <time>2012-05-20T12:06:27Z</time>
      </trkpt>
      <trkpt lat="59.6365604" lon="17.6518919">
        <ele>23.6896</ele>
        <time>2012-05-20T12:06:33Z</time>
      </trkpt>
      <trkpt lat="59.636208" lon="17.6528029">
        <ele>20.8057</ele>
        <time>2012-05-20T12:06:41Z</time>
      </trkpt>
      <trkpt lat="59.6359047" lon="17.6535366">
        <ele>25.1317</ele>
        <time>2012-05-20T12:06:48Z</time>
      </trkpt>
      <trkpt lat="59.6357807" lon="17.6538878">
        <ele>26.0929</ele>
        <time>2012-05-20T12:06:52Z</time>
      </trkpt>
      <trkpt lat="59.6355199" lon="17.6546696">
        <ele>26.5736</ele>
        <time>2012-05-20T12:06:59Z</time>
      </trkpt>
      <trkpt lat="59.6353748" lon="17.6554476">
        <ele>24.651</ele>
        <time>2012-05-20T12:07:05Z</time>
      </trkpt>
      <trkpt lat="59.6352671" lon="17.6565495">
        <ele>23.6896</ele>
        <time>2012-05-20T12:07:13Z</time>
      </trkpt>
      <trkpt lat="59.6351955" lon="17.6569209">
        <ele>24.1703</ele>
        <time>2012-05-20T12:07:16Z</time>
      </trkpt>
      <trkpt lat="59.6349803" lon="17.6574591">
        <ele>25.6123</ele>
        <time>2012-05-20T12:07:22Z</time>
      </trkpt>
      <trkpt lat="59.6347644" lon="17.6577797">
        <ele>27.5349</ele>
        <time>2012-05-20T12:07:28Z</time>
      </trkpt>
      <trkpt lat="59.6345729" lon="17.658049">
        <ele>27.5349</ele>
        <time>2012-05-20T12:07:35Z</time>
      </trkpt>
      <trkpt lat="59.6343702" lon="17.658384">
        <ele>29.4575</ele>
        <time>2012-05-20T12:07:43Z</time>
      </trkpt>
      <trkpt lat="59.6341756" lon="17.6587136">
        <ele>29.9381</ele>
        <time>2012-05-20T12:07:50Z</time>
      </trkpt>
      <trkpt lat="59.6338439" lon="17.6592648">
        <ele>33.7834</ele>
        <time>2012-05-20T12:08:00Z</time>
      </trkpt>
      <trkpt lat="59.6337461" lon="17.6594493">
        <ele>35.2255</ele>
        <time>2012-05-20T12:08:03Z</time>
      </trkpt>
      <trkpt lat="59.6334695" lon="17.6598191">
        <ele>33.7834</ele>
        <time>2012-05-20T12:08:09Z</time>
      </trkpt>
      <trkpt lat="59.6331378" lon="17.6602434">
        <ele>32.3416</ele>
        <time>2012-05-20T12:08:14Z</time>
      </trkpt>
      <trkpt lat="59.6326493" lon="17.6609943">
        <ele>31.8607</ele>
        <time>2012-05-20T12:08:21Z</time>
      </trkpt>
      <trkpt lat="59.6322376" lon="17.6617638">
        <ele>28.0155</ele>
        <time>2012-05-20T12:08:27Z</time>
      </trkpt>
      <trkpt lat="59.6321372" lon="17.6620517">
        <ele>27.0543</ele>
        <time>2012-05-20T12:08:29Z</time>
      </trkpt>
      <trkpt lat="59.6320015" lon="17.6628396">
        <ele>25.6123</ele>
        <time>2012-05-20T12:08:34Z</time>
      </trkpt>
      <trkpt lat="59.6319957" lon="17.6638658">
        <ele>24.1703</ele>
        <time>2012-05-20T12:08:40Z</time>
      </trkpt>
      <trkpt lat="59.6318859" lon="17.6647454">
        <ele>21.2864</ele>
        <time>2012-05-20T12:08:45Z</time>
      </trkpt>
      <trkpt lat="59.6317285" lon="17.6657135">
        <ele>19.8444</ele>
        <time>2012-05-20T12:08:51Z</time>
      </trkpt>
      <trkpt lat="59.6317141" lon="17.6660125">
        <ele>19.3638</ele>
        <time>2012-05-20T12:08:53Z</time>
      </trkpt>
      <trkpt lat="59.6317673" lon="17.6670034">
        <ele>16.9604</ele>
        <time>2012-05-20T12:09:00Z</time>
      </trkpt>
      <trkpt lat="59.6317192" lon="17.6676907">
        <ele>18.8831</ele>
        <time>2012-05-20T12:09:05Z</time>
      </trkpt>
      <trkpt lat="59.6316259" lon="17.6684681">
        <ele>16.4797</ele>
        <time>2012-05-20T12:09:12Z</time>
      </trkpt>
      <trkpt lat="59.6315021" lon="17.6692962">
        <ele>14.557</ele>
        <time>2012-05-20T12:09:19Z</time>
      </trkpt>
      <trkpt lat="59.6313711" lon="17.6700535">
        <ele>13.1151</ele>
        <time>2012-05-20T12:09:26Z</time>
      </trkpt>
      <trkpt lat="59.6312369" lon="17.6706662">
        <ele>15.0377</ele>
        <time>2012-05-20T12:09:32Z</time>
      </trkpt>
      <trkpt lat="59.6311654" lon="17.6711107">
        <ele>11.1925</ele>
        <time>2012-05-20T12:09:37Z</time>
      </trkpt>
      <trkpt lat="59.6310199" lon="17.6717323">
        <ele>19.3638</ele>
        <time>2012-05-20T12:09:43Z</time>
      </trkpt>
      <trkpt lat="59.6310088" lon="17.6718163">
        <ele>19.8444</ele>
        <time>2012-05-20T12:09:44Z</time>
      </trkpt>
      <trkpt lat="59.6309307" lon="17.6722943">
        <ele>29.4575</ele>
        <time>2012-05-20T12:09:50Z</time>
      </trkpt>
      <trkpt lat="59.6309192" lon="17.6723745">
        <ele>30.8995</ele>
        <time>2012-05-20T12:09:51Z</time>
      </trkpt>
      <trkpt lat="59.630868" lon="17.6727292">
        <ele>35.7061</ele>
        <time>2012-05-20T12:09:57Z</time>
      </trkpt>
      <trkpt lat="59.6308272" lon="17.6731376">
        <ele>40.0321</ele>
        <time>2012-05-20T12:10:03Z</time>
      </trkpt>
      <trkpt lat="59.6307881" lon="17.6736619">
        <ele>43.3966</ele>
        <time>2012-05-20T12:10:12Z</time>
      </trkpt>
      <trkpt lat="59.6307277" lon="17.6741379">
        <ele>41.9547</ele>
        <time>2012-05-20T12:10:19Z</time>
      </trkpt>
      <trkpt lat="59.6306376" lon="17.6746424">
        <ele>43.8773</ele>
        <time>2012-05-20T12:10:26Z</time>
      </trkpt>
      <trkpt lat="59.6305567" lon="17.6751378">
        <ele>45.7999</ele>
        <time>2012-05-20T12:10:32Z</time>
      </trkpt>
      <trkpt lat="59.630481" lon="17.6756831">
        <ele>48.2034</ele>
        <time>2012-05-20T12:10:38Z</time>
      </trkpt>
      <trkpt lat="59.6304379" lon="17.6761289">
        <ele>47.7225</ele>
        <time>2012-05-20T12:10:43Z</time>
      </trkpt>
      <trkpt lat="59.630292" lon="17.6766529">
        <ele>51.0872</ele>
        <time>2012-05-20T12:10:49Z</time>
      </trkpt>
      <trkpt lat="59.6301261" lon="17.6771657">
        <ele>52.5292</ele>
        <time>2012-05-20T12:10:55Z</time>
      </trkpt>
      <trkpt lat="59.6299672" lon="17.6778081">
        <ele>50.126</ele>
        <time>2012-05-20T12:11:02Z</time>
      </trkpt>
      <trkpt lat="59.6297774" lon="17.6784492">
        <ele>42.4354</ele>
        <time>2012-05-20T12:11:08Z</time>
      </trkpt>
      <trkpt lat="59.6295923" lon="17.6791004">
        <ele>40.5128</ele>
        <time>2012-05-20T12:11:13Z</time>
      </trkpt>
      <trkpt lat="59.6294392" lon="17.6798943">
        <ele>35.7061</ele>
        <time>2012-05-20T12:11:18Z</time>
      </trkpt>
      <trkpt lat="59.6293203" lon="17.6808038">
        <ele>37.1481</ele>
        <time>2012-05-20T12:11:24Z</time>
      </trkpt>
      <trkpt lat="59.629237" lon="17.6817618">
        <ele>36.1868</ele>
        <time>2012-05-20T12:11:31Z</time>
      </trkpt>
      <trkpt lat="59.6291515" lon="17.6827537">
        <ele>35.7061</ele>
        <time>2012-05-20T12:11:38Z</time>
      </trkpt>
      <trkpt lat="59.6291359" lon="17.6828902">
        <ele>35.2255</ele>
        <time>2012-05-20T12:11:39Z</time>
      </trkpt>
      <trkpt lat="59.629013" lon="17.6833393">
        <ele>34.2642</ele>
        <time>2012-05-20T12:11:43Z</time>
      </trkpt>
      <trkpt lat="59.6288834" lon="17.683661">
        <ele>34.7449</ele>
        <time>2012-05-20T12:11:46Z</time>
      </trkpt>
      <trkpt lat="59.62874" lon="17.6843516">
        <ele>34.7449</ele>
        <time>2012-05-20T12:11:51Z</time>
      </trkpt>
      <trkpt lat="59.6287354" lon="17.6846582">
        <ele>35.7061</ele>
        <time>2012-05-20T12:11:53Z</time>
      </trkpt>
      <trkpt lat="59.6287479" lon="17.6852276">
        <ele>38.5901</ele>
        <time>2012-05-20T12:11:57Z</time>
      </trkpt>
      <trkpt lat="59.6287629" lon="17.6855724">
        <ele>37.6287</ele>
        <time>2012-05-20T12:12:00Z</time>
      </trkpt>
      <trkpt lat="59.6286826" lon="17.6859497">
        <ele>39.0707</ele>
        <time>2012-05-20T12:12:05Z</time>
      </trkpt>
      <trkpt lat="59.628478" lon="17.6863617">
        <ele>42.916</ele>
        <time>2012-05-20T12:12:12Z</time>
      </trkpt>
      <trkpt lat="59.62832" lon="17.6867861">
        <ele>49.1646</ele>
        <time>2012-05-20T12:12:17Z</time>
      </trkpt>
      <trkpt lat="59.6281325" lon="17.6872582">
        <ele>52.0486</ele>
        <time>2012-05-20T12:12:23Z</time>
      </trkpt>
      <trkpt lat="59.6279221" lon="17.6878165">
        <ele>49.1646</ele>
        <time>2012-05-20T12:12:29Z</time>
      </trkpt>
      <trkpt lat="59.6276963" lon="17.6883112">
        <ele>42.916</ele>
        <time>2012-05-20T12:12:34Z</time>
      </trkpt>
      <trkpt lat="59.627318" lon="17.6888504">
        <ele>43.3966</ele>
        <time>2012-05-20T12:12:42Z</time>
      </trkpt>
      <trkpt lat="59.6270483" lon="17.6892429">
        <ele>45.7999</ele>
        <time>2012-05-20T12:12:48Z</time>
      </trkpt>
      <trkpt lat="59.6267862" lon="17.6896692">
        <ele>45.7999</ele>
        <time>2012-05-20T12:12:55Z</time>
      </trkpt>
      <trkpt lat="59.6265779" lon="17.6900833">
        <ele>47.7225</ele>
        <time>2012-05-20T12:13:01Z</time>
      </trkpt>
      <trkpt lat="59.6265069" lon="17.6902189">
        <ele>47.7225</ele>
        <time>2012-05-20T12:13:03Z</time>
      </trkpt>
      <trkpt lat="59.6264417" lon="17.69036">
        <ele>47.7225</ele>
        <time>2012-05-20T12:13:05Z</time>
      </trkpt>
      <trkpt lat="59.6260911" lon="17.6907835">
        <ele>43.8773</ele>
        <time>2012-05-20T12:13:12Z</time>
      </trkpt>
      <trkpt lat="59.625721" lon="17.6910665">
        <ele>38.1094</ele>
        <time>2012-05-20T12:13:18Z</time>
      </trkpt>
      <trkpt lat="59.625321" lon="17.691398">
        <ele>36.6675</ele>
        <time>2012-05-20T12:13:25Z</time>
      </trkpt>
      <trkpt lat="59.6250027" lon="17.6915457">
        <ele>36.1868</ele>
        <time>2012-05-20T12:13:30Z</time>
      </trkpt>
      <trkpt lat="59.6249385" lon="17.6915637">
        <ele>35.2255</ele>
        <time>2012-05-20T12:13:31Z</time>
      </trkpt>
      <trkpt lat="59.6244951" lon="17.6915415">
        <ele>31.3801</ele>
        <time>2012-05-20T12:13:38Z</time>
      </trkpt>
      <trkpt lat="59.6241044" lon="17.6916091">
        <ele>29.9381</ele>
        <time>2012-05-20T12:13:44Z</time>
      </trkpt>
      <trkpt lat="59.6238081" lon="17.6919792">
        <ele>32.3416</ele>
        <time>2012-05-20T12:13:49Z</time>
      </trkpt>
      <trkpt lat="59.62351" lon="17.6927666">
        <ele>36.1868</ele>
        <time>2012-05-20T12:13:55Z</time>
      </trkpt>
      <trkpt lat="59.6233793" lon="17.6933308">
        <ele>38.5901</ele>
        <time>2012-05-20T12:13:59Z</time>
      </trkpt>
      <trkpt lat="59.623288" lon="17.6941277">
        <ele>39.5513</ele>
        <time>2012-05-20T12:14:05Z</time>
      </trkpt>
      <trkpt lat="59.6232517" lon="17.6948447">
        <ele>40.5128</ele>
        <time>2012-05-20T12:14:10Z</time>
      </trkpt>
      <trkpt lat="59.6231956" lon="17.6956626">
        <ele>37.6287</ele>
        <time>2012-05-20T12:14:15Z</time>
      </trkpt>
      <trkpt lat="59.6230429" lon="17.6965701">
        <ele>33.3029</ele>
        <time>2012-05-20T12:14:20Z</time>
      </trkpt>
      <trkpt lat="59.6227879" lon="17.6974811">
        <ele>29.4575</ele>
        <time>2012-05-20T12:14:25Z</time>
      </trkpt>
      <trkpt lat="59.6223472" lon="17.6989613">
        <ele>24.1703</ele>
        <time>2012-05-20T12:14:33Z</time>
      </trkpt>
      <trkpt lat="59.6222646" lon="17.699304">
        <ele>23.209</ele>
        <time>2012-05-20T12:14:35Z</time>
      </trkpt>
      <trkpt lat="59.6221352" lon="17.7003979">
        <ele>19.3638</ele>
        <time>2012-05-20T12:14:41Z</time>
      </trkpt>
      <trkpt lat="59.6221073" lon="17.701408">
        <ele>15.5184</ele>
        <time>2012-05-20T12:14:46Z</time>
      </trkpt>
      <trkpt lat="59.6221607" lon="17.7024995">
        <ele>11.1925</ele>
        <time>2012-05-20T12:14:51Z</time>
      </trkpt>
      <trkpt lat="59.6221743" lon="17.703939">
        <ele>6.86646</ele>
        <time>2012-05-20T12:14:57Z</time>
      </trkpt>
      <trkpt lat="59.622107" lon="17.7050215">
        <ele>4.46326</ele>
        <time>2012-05-20T12:15:02Z</time>
      </trkpt>
      <trkpt lat="59.6220403" lon="17.706124">
        <ele>3.50195</ele>
        <time>2012-05-20T12:15:08Z</time>
      </trkpt>
      <trkpt lat="59.6219868" lon="17.7068521">
        <ele>3.02124</ele>
        <time>2012-05-20T12:15:13Z</time>
      </trkpt>
      <trkpt lat="59.6219346" lon="17.7074015">
        <ele>3.98267</ele>
        <time>2012-05-20T12:15:18Z</time>
      </trkpt>
      <trkpt lat="59.6219292" lon="17.7078724">
        <ele>5.42456</ele>
        <time>2012-05-20T12:15:23Z</time>
      </trkpt>
      <trkpt lat="59.6220027" lon="17.7085757">
        <ele>6.38586</ele>
        <time>2012-05-20T12:15:31Z</time>
      </trkpt>
      <trkpt lat="59.6219562" lon="17.7088456">
        <ele>6.86646</ele>
        <time>2012-05-20T12:15:35Z</time>
      </trkpt>
      <trkpt lat="59.6218727" lon="17.7089181">
        <ele>6.38586</ele>
        <time>2012-05-20T12:15:37Z</time>
      </trkpt>
      <trkpt lat="59.6217292" lon="17.7090153">
        <ele>6.86646</ele>
        <time>2012-05-20T12:15:40Z</time>
      </trkpt>
      <trkpt lat="59.6215235" lon="17.709027">
        <ele>5.42456</ele>
        <time>2012-05-20T12:15:44Z</time>
      </trkpt>
      <trkpt lat="59.6209254" lon="17.7088579">
        <ele>1.09863</ele>
        <time>2012-05-20T12:15:55Z</time>
      </trkpt>
      <trkpt lat="59.6205695" lon="17.7087677">
        <ele>0.137451</ele>
        <time>2012-05-20T12:16:01Z</time>
      </trkpt>
      <trkpt lat="59.6201814" lon="17.708673">
        <ele>0</ele>
        <time>2012-05-20T12:16:08Z</time>
      </trkpt>
      <trkpt lat="59.6198702" lon="17.7086489">
        <ele>0</ele>
        <time>2012-05-20T12:16:14Z</time>
      </trkpt>
      <trkpt lat="59.6197265" lon="17.7086875">
        <ele>1.57935</ele>
        <time>2012-05-20T12:16:17Z</time>
      </trkpt>
      <trkpt lat="59.6195699" lon="17.7087736">
        <ele>3.02124</ele>
        <time>2012-05-20T12:16:21Z</time>
      </trkpt>
      <trkpt lat="59.6194382" lon="17.708892">
        <ele>6.38586</ele>
        <time>2012-05-20T12:16:25Z</time>
      </trkpt>
      <trkpt lat="59.619245" lon="17.709192">
        <ele>10.7118</ele>
        <time>2012-05-20T12:16:32Z</time>
      </trkpt>
      <trkpt lat="59.6191306" lon="17.7094423">
        <ele>17.4412</ele>
        <time>2012-05-20T12:16:38Z</time>
      </trkpt>
      <trkpt lat="59.6190077" lon="17.7097284">
        <ele>20.8057</ele>
        <time>2012-05-20T12:16:45Z</time>
      </trkpt>
      <trkpt lat="59.6189044" lon="17.7100017">
        <ele>20.325</ele>
        <time>2012-05-20T12:16:52Z</time>
      </trkpt>
      <trkpt lat="59.6187768" lon="17.710366">
        <ele>21.2864</ele>
        <time>2012-05-20T12:17:00Z</time>
      </trkpt>
      <trkpt lat="59.6186265" lon="17.7107082">
        <ele>21.767</ele>
        <time>2012-05-20T12:17:08Z</time>
      </trkpt>
      <trkpt lat="59.6184719" lon="17.7110098">
        <ele>21.767</ele>
        <time>2012-05-20T12:17:15Z</time>
      </trkpt>
      <trkpt lat="59.6183061" lon="17.7113404">
        <ele>21.2864</ele>
        <time>2012-05-20T12:17:22Z</time>
      </trkpt>
      <trkpt lat="59.6180727" lon="17.71188">
        <ele>23.209</ele>
        <time>2012-05-20T12:17:31Z</time>
      </trkpt>
      <trkpt lat="59.6180451" lon="17.7119494">
        <ele>23.209</ele>
        <time>2012-05-20T12:17:32Z</time>
      </trkpt>
      <trkpt lat="59.6178425" lon="17.712669">
        <ele>21.2864</ele>
        <time>2012-05-20T12:17:40Z</time>
      </trkpt>
      <trkpt lat="59.6176474" lon="17.7133161">
        <ele>19.3638</ele>
        <time>2012-05-20T12:17:46Z</time>
      </trkpt>
      <trkpt lat="59.6173924" lon="17.7138396">
        <ele>17.4412</ele>
        <time>2012-05-20T12:17:51Z</time>
      </trkpt>
      <trkpt lat="59.6170285" lon="17.7143589">
        <ele>13.1151</ele>
        <time>2012-05-20T12:17:56Z</time>
      </trkpt>
      <trkpt lat="59.6166139" lon="17.7147913">
        <ele>11.1925</ele>
        <time>2012-05-20T12:18:01Z</time>
      </trkpt>
      <trkpt lat="59.6161439" lon="17.7150559">
        <ele>9.2699</ele>
        <time>2012-05-20T12:18:06Z</time>
      </trkpt>
      <trkpt lat="59.6156809" lon="17.7151611">
        <ele>7.34717</ele>
        <time>2012-05-20T12:18:11Z</time>
      </trkpt>
      <trkpt lat="59.6153631" lon="17.7151445">
        <ele>5.42456</ele>
        <time>2012-05-20T12:18:15Z</time>
      </trkpt>
      <trkpt lat="59.6153105" lon="17.7151363">
        <ele>5.42456</ele>
        <time>2012-05-20T12:18:16Z</time>
      </trkpt>
      <trkpt lat="59.6152165" lon="17.7150994">
        <ele>4.94385</ele>
        <time>2012-05-20T12:18:20Z</time>
      </trkpt>
      <trkpt lat="59.6151836" lon="17.7152415">
        <ele>4.46326</ele>
        <time>2012-05-20T12:18:23Z</time>
      </trkpt>
      <trkpt lat="59.615182" lon="17.7153834">
        <ele>4.94385</ele>
        <time>2012-05-20T12:18:25Z</time>
      </trkpt>
      <trkpt lat="59.6152454" lon="17.7160884">
        <ele>6.38586</ele>
        <time>2012-05-20T12:18:32Z</time>
      </trkpt>
      <trkpt lat="59.6152584" lon="17.716168">
        <ele>6.38586</ele>
        <time>2012-05-20T12:18:33Z</time>
      </trkpt>
      <trkpt lat="59.6152236" lon="17.7162013">
        <ele>5.42456</ele>
        <time>2012-05-20T12:18:37Z</time>
      </trkpt>
      <trkpt lat="59.6151987" lon="17.7160348">
        <ele>5.90527</ele>
        <time>2012-05-20T12:18:41Z</time>
      </trkpt>
      <trkpt lat="59.6150909" lon="17.7160365">
        <ele>3.98267</ele>
        <time>2012-05-20T12:18:45Z</time>
      </trkpt>
      <trkpt lat="59.6148138" lon="17.7161208">
        <ele>0.618042</ele>
        <time>2012-05-20T12:18:50Z</time>
      </trkpt>
      <trkpt lat="59.6144053" lon="17.7161897">
        <ele>0</ele>
        <time>2012-05-20T12:18:56Z</time>
      </trkpt>
      <trkpt lat="59.614347" lon="17.7161972">
        <ele>0</ele>
        <time>2012-05-20T12:18:57Z</time>
      </trkpt>
      <trkpt lat="59.6142297" lon="17.7161949">
        <ele>0</ele>
        <time>2012-05-20T12:19:00Z</time>
      </trkpt>
      <trkpt lat="59.6139695" lon="17.7161925">
        <ele>0</ele>
        <time>2012-05-20T12:19:04Z</time>
      </trkpt>
      <trkpt lat="59.6137855" lon="17.7164105">
        <ele>0</ele>
        <time>2012-05-20T12:19:09Z</time>
      </trkpt>
      <trkpt lat="59.6136954" lon="17.7166986">
        <ele>0</ele>
        <time>2012-05-20T12:19:13Z</time>
      </trkpt>
      <trkpt lat="59.6135922" lon="17.7169182">
        <ele>0</ele>
        <time>2012-05-20T12:19:17Z</time>
      </trkpt>
      <trkpt lat="59.6134271" lon="17.7172678">
        <ele>0</ele>
        <time>2012-05-20T12:19:24Z</time>
      </trkpt>
      <trkpt lat="59.6134039" lon="17.7173658">
        <ele>0</ele>
        <time>2012-05-20T12:19:26Z</time>
      </trkpt>
      <trkpt lat="59.6132957" lon="17.7173627">
        <ele>0</ele>
        <time>2012-05-20T12:19:32Z</time>
      </trkpt>
      <trkpt lat="59.6132749" lon="17.7173415">
        <ele>0</ele>
        <time>2012-05-20T12:19:33Z</time>
      </trkpt>
      <trkpt lat="59.6131129" lon="17.7171846">
        <ele>0</ele>
        <time>2012-05-20T12:19:42Z</time>
      </trkpt>
      <trkpt lat="59.6129723" lon="17.7171025">
        <ele>0</ele>
        <time>2012-05-20T12:19:49Z</time>
      </trkpt>
      <trkpt lat="59.6129592" lon="17.7171691">
        <ele>0</ele>
        <time>2012-05-20T12:19:54Z</time>
      </trkpt>
      <trkpt lat="59.6129554" lon="17.7171985">
        <ele>0</ele>
        <time>2012-05-20T12:20:07Z</time>
      </trkpt>
      <trkpt lat="59.6134241" lon="17.7176887">
        <ele>2.06006</ele>
        <time>2012-05-20T12:20:42Z</time>
      </trkpt>
      <trkpt lat="59.6136021" lon="17.7181033">
        <ele>2.54065</ele>
        <time>2012-05-20T12:20:47Z</time>
      </trkpt>
      <trkpt lat="59.6137735" lon="17.7186601">
        <ele>2.54065</ele>
        <time>2012-05-20T12:20:53Z</time>
      </trkpt>
      <trkpt lat="59.6139217" lon="17.7193555">
        <ele>2.54065</ele>
        <time>2012-05-20T12:21:00Z</time>
      </trkpt>
      <trkpt lat="59.6140265" lon="17.7197355">
        <ele>3.02124</ele>
        <time>2012-05-20T12:21:04Z</time>
      </trkpt>
      <trkpt lat="59.6143134" lon="17.7203268">
        <ele>3.50195</ele>
        <time>2012-05-20T12:21:12Z</time>
      </trkpt>
      <trkpt lat="59.6143545" lon="17.7203966">
        <ele>3.50195</ele>
        <time>2012-05-20T12:21:13Z</time>
      </trkpt>
      <trkpt lat="59.6146456" lon="17.7206584">
        <ele>2.06006</ele>
        <time>2012-05-20T12:21:19Z</time>
      </trkpt>
      <trkpt lat="59.6150147" lon="17.720985">
        <ele>1.09863</ele>
        <time>2012-05-20T12:21:26Z</time>
      </trkpt>
      <trkpt lat="59.6150666" lon="17.7210437">
        <ele>1.09863</ele>
        <time>2012-05-20T12:21:27Z</time>
      </trkpt>
      <trkpt lat="59.615369" lon="17.7215663">
        <ele>1.09863</ele>
        <time>2012-05-20T12:21:34Z</time>
      </trkpt>
      <trkpt lat="59.6156158" lon="17.7221805">
        <ele>2.54065</ele>
        <time>2012-05-20T12:21:41Z</time>
      </trkpt>
      <trkpt lat="59.6158302" lon="17.7227142">
        <ele>3.50195</ele>
        <time>2012-05-20T12:21:48Z</time>
      </trkpt>
      <trkpt lat="59.6158598" lon="17.7227895">
        <ele>3.50195</ele>
        <time>2012-05-20T12:21:49Z</time>
      </trkpt>
      <trkpt lat="59.6159845" lon="17.7233605">
        <ele>3.50195</ele>
        <time>2012-05-20T12:21:55Z</time>
      </trkpt>
      <trkpt lat="59.6161286" lon="17.7242492">
        <ele>4.46326</ele>
        <time>2012-05-20T12:22:04Z</time>
      </trkpt>
      <trkpt lat="59.6161602" lon="17.7244309">
        <ele>4.94385</ele>
        <time>2012-05-20T12:22:06Z</time>
      </trkpt>
      <trkpt lat="59.6163002" lon="17.7246258">
        <ele>5.42456</ele>
        <time>2012-05-20T12:22:10Z</time>
      </trkpt>
      <trkpt lat="59.6163446" lon="17.7246131">
        <ele>6.38586</ele>
        <time>2012-05-20T12:22:11Z</time>
      </trkpt>
      <trkpt lat="59.6167076" lon="17.7244808">
        <ele>9.75061</ele>
        <time>2012-05-20T12:22:19Z</time>
      </trkpt>
      <trkpt lat="59.6167508" lon="17.7244615">
        <ele>9.2699</ele>
        <time>2012-05-20T12:22:20Z</time>
      </trkpt>
      <trkpt lat="59.6168813" lon="17.7244558">
        <ele>9.2699</ele>
        <time>2012-05-20T12:22:24Z</time>
      </trkpt>
      <trkpt lat="59.616929" lon="17.7244842">
        <ele>9.75061</ele>
        <time>2012-05-20T12:22:26Z</time>
      </trkpt>
      <trkpt lat="59.6169448" lon="17.7245542">
        <ele>9.2699</ele>
        <time>2012-05-20T12:22:31Z</time>
      </trkpt>
      <trkpt lat="59.6168814" lon="17.7245667">
        <ele>6.86646</ele>
        <time>2012-05-20T12:22:38Z</time>
      </trkpt>
      <trkpt lat="59.6168676" lon="17.7245404">
        <ele>6.38586</ele>
        <time>2012-05-20T12:22:43Z</time>
      </trkpt>
      <trkpt lat="59.6171227" lon="17.7255897">
        <ele>14.0764</ele>
        <time>2012-05-20T12:47:57Z</time>
      </trkpt>
      <trkpt lat="59.6171277" lon="17.7256919">
        <ele>14.0764</ele>
        <time>2012-05-20T12:47:58Z</time>
      </trkpt>
      <trkpt lat="59.6171336" lon="17.7260128">
        <ele>13.5958</ele>
        <time>2012-05-20T12:48:01Z</time>
      </trkpt>
      <trkpt lat="59.6171803" lon="17.7263119">
        <ele>13.1151</ele>
        <time>2012-05-20T12:48:07Z</time>
      </trkpt>
      <trkpt lat="59.617187" lon="17.7263619">
        <ele>13.1151</ele>
        <time>2012-05-20T12:48:08Z</time>
      </trkpt>
      <trkpt lat="59.6172365" lon="17.7267362">
        <ele>13.1151</ele>
        <time>2012-05-20T12:48:15Z</time>
      </trkpt>
      <trkpt lat="59.6173319" lon="17.727299">
        <ele>13.5958</ele>
        <time>2012-05-20T12:48:25Z</time>
      </trkpt>
      <trkpt lat="59.6174086" lon="17.7276515">
        <ele>14.0764</ele>
        <time>2012-05-20T12:48:32Z</time>
      </trkpt>
      <trkpt lat="59.6175162" lon="17.7280006">
        <ele>15.5184</ele>
        <time>2012-05-20T12:48:40Z</time>
      </trkpt>
      <trkpt lat="59.6176992" lon="17.7284269">
        <ele>16.4797</ele>
        <time>2012-05-20T12:48:50Z</time>
      </trkpt>
      <trkpt lat="59.6179275" lon="17.7288046">
        <ele>17.9218</ele>
        <time>2012-05-20T12:49:00Z</time>
      </trkpt>
      <trkpt lat="59.618123" lon="17.7291255">
        <ele>17.9218</ele>
        <time>2012-05-20T12:49:07Z</time>
      </trkpt>
      <trkpt lat="59.6182728" lon="17.729404">
        <ele>17.9218</ele>
        <time>2012-05-20T12:49:14Z</time>
      </trkpt>
      <trkpt lat="59.6182944" lon="17.7294541">
        <ele>17.9218</ele>
        <time>2012-05-20T12:49:17Z</time>
      </trkpt>
      <trkpt lat="59.6183585" lon="17.7295195">
        <ele>20.8057</ele>
        <time>2012-05-20T12:50:49Z</time>
      </trkpt>
      <trkpt lat="59.6183768" lon="17.729554">
        <ele>20.8057</ele>
        <time>2012-05-20T12:50:50Z</time>
      </trkpt>
      <trkpt lat="59.6184944" lon="17.7298258">
        <ele>19.3638</ele>
        <time>2012-05-20T12:50:54Z</time>
      </trkpt>
      <trkpt lat="59.6186665" lon="17.7302869">
        <ele>17.9218</ele>
        <time>2012-05-20T12:51:00Z</time>
      </trkpt>
      <trkpt lat="59.6188358" lon="17.7307475">
        <ele>15.999</ele>
        <time>2012-05-20T12:51:05Z</time>
      </trkpt>
      <trkpt lat="59.6191687" lon="17.7311919">
        <ele>14.0764</ele>
        <time>2012-05-20T12:51:11Z</time>
      </trkpt>
      <trkpt lat="59.6192321" lon="17.7312775">
        <ele>13.5958</ele>
        <time>2012-05-20T12:51:12Z</time>
      </trkpt>
      <trkpt lat="59.6194356" lon="17.7317927">
        <ele>11.1925</ele>
        <time>2012-05-20T12:51:16Z</time>
      </trkpt>
      <trkpt lat="59.6194651" lon="17.7319597">
        <ele>10.7118</ele>
        <time>2012-05-20T12:51:17Z</time>
      </trkpt>
      <trkpt lat="59.6196121" lon="17.7328954">
        <ele>6.86646</ele>
        <time>2012-05-20T12:51:23Z</time>
      </trkpt>
      <trkpt lat="59.6196692" lon="17.733218">
        <ele>5.90527</ele>
        <time>2012-05-20T12:51:25Z</time>
      </trkpt>
      <trkpt lat="59.6199163" lon="17.733996">
        <ele>3.50195</ele>
        <time>2012-05-20T12:51:30Z</time>
      </trkpt>
      <trkpt lat="59.6202223" lon="17.7344701">
        <ele>1.57935</ele>
        <time>2012-05-20T12:51:34Z</time>
      </trkpt>
      <trkpt lat="59.6205113" lon="17.7345393">
        <ele>1.57935</ele>
        <time>2012-05-20T12:51:37Z</time>
      </trkpt>
      <trkpt lat="59.620602" lon="17.734491">
        <ele>1.09863</ele>
        <time>2012-05-20T12:51:38Z</time>
      </trkpt>
      <trkpt lat="59.6208435" lon="17.7343147">
        <ele>1.09863</ele>
        <time>2012-05-20T12:51:41Z</time>
      </trkpt>
      <trkpt lat="59.6211427" lon="17.7342809">
        <ele>1.09863</ele>
        <time>2012-05-20T12:51:45Z</time>
      </trkpt>
      <trkpt lat="59.6212114" lon="17.7343235">
        <ele>1.09863</ele>
        <time>2012-05-20T12:51:46Z</time>
      </trkpt>
      <trkpt lat="59.621551" lon="17.7347767">
        <ele>1.57935</ele>
        <time>2012-05-20T12:51:52Z</time>
      </trkpt>
      <trkpt lat="59.6216546" lon="17.7352958">
        <ele>1.57935</ele>
        <time>2012-05-20T12:51:56Z</time>
      </trkpt>
      <trkpt lat="59.621634" lon="17.7357006">
        <ele>1.57935</ele>
        <time>2012-05-20T12:51:59Z</time>
      </trkpt>
      <trkpt lat="59.6214905" lon="17.7361457">
        <ele>1.09863</ele>
        <time>2012-05-20T12:52:03Z</time>
      </trkpt>
      <trkpt lat="59.6214445" lon="17.7362477">
        <ele>1.09863</ele>
        <time>2012-05-20T12:52:04Z</time>
      </trkpt>
      <trkpt lat="59.6210943" lon="17.7368677">
        <ele>0.137451</ele>
        <time>2012-05-20T12:52:11Z</time>
      </trkpt>
      <trkpt lat="59.6209309" lon="17.7370937">
        <ele>0.137451</ele>
        <time>2012-05-20T12:52:14Z</time>
      </trkpt>
      <trkpt lat="59.6207098" lon="17.7376719">
        <ele>0.137451</ele>
        <time>2012-05-20T12:52:20Z</time>
      </trkpt>
      <trkpt lat="59.620499" lon="17.7385617">
        <ele>0</ele>
        <time>2012-05-20T12:52:28Z</time>
      </trkpt>
      <trkpt lat="59.6202953" lon="17.7395873">
        <ele>0</ele>
        <time>2012-05-20T12:52:37Z</time>
      </trkpt>
      <trkpt lat="59.6201189" lon="17.7406427">
        <ele>0</ele>
        <time>2012-05-20T12:52:46Z</time>
      </trkpt>
      <trkpt lat="59.6199814" lon="17.7414596">
        <ele>0</ele>
        <time>2012-05-20T12:52:53Z</time>
      </trkpt>
      <trkpt lat="59.61995" lon="17.7418516">
        <ele>0</ele>
        <time>2012-05-20T12:52:56Z</time>
      </trkpt>
      <trkpt lat="59.620015" lon="17.7426396">
        <ele>0</ele>
        <time>2012-05-20T12:53:02Z</time>
      </trkpt>
      <trkpt lat="59.6201878" lon="17.743157">
        <ele>1.57935</ele>
        <time>2012-05-20T12:53:07Z</time>
      </trkpt>
      <trkpt lat="59.6204949" lon="17.7435998">
        <ele>4.94385</ele>
        <time>2012-05-20T12:53:14Z</time>
      </trkpt>
      <trkpt lat="59.620845" lon="17.7440133">
        <ele>9.75061</ele>
        <time>2012-05-20T12:53:23Z</time>
      </trkpt>
      <trkpt lat="59.6209185" lon="17.7440986">
        <ele>11.1925</ele>
        <time>2012-05-20T12:53:25Z</time>
      </trkpt>
      <trkpt lat="59.6211734" lon="17.7444387">
        <ele>14.557</ele>
        <time>2012-05-20T12:53:33Z</time>
      </trkpt>
      <trkpt lat="59.6214246" lon="17.7447958">
        <ele>17.9218</ele>
        <time>2012-05-20T12:53:41Z</time>
      </trkpt>
      <trkpt lat="59.6216796" lon="17.7451694">
        <ele>20.325</ele>
        <time>2012-05-20T12:53:49Z</time>
      </trkpt>
      <trkpt lat="59.6219296" lon="17.745559">
        <ele>20.325</ele>
        <time>2012-05-20T12:53:57Z</time>
      </trkpt>
      <trkpt lat="59.6221806" lon="17.7459699">
        <ele>20.8057</ele>
        <time>2012-05-20T12:54:05Z</time>
      </trkpt>
      <trkpt lat="59.6224305" lon="17.7463583">
        <ele>22.7283</ele>
        <time>2012-05-20T12:54:13Z</time>
      </trkpt>
      <trkpt lat="59.6226456" lon="17.7466825">
        <ele>24.1703</ele>
        <time>2012-05-20T12:54:20Z</time>
      </trkpt>
      <trkpt lat="59.6228577" lon="17.7470771">
        <ele>24.1703</ele>
        <time>2012-05-20T12:54:27Z</time>
      </trkpt>
      <trkpt lat="59.623071" lon="17.7476068">
        <ele>23.209</ele>
        <time>2012-05-20T12:54:34Z</time>
      </trkpt>
      <trkpt lat="59.6232718" lon="17.7482284">
        <ele>21.767</ele>
        <time>2012-05-20T12:54:41Z</time>
      </trkpt>
      <trkpt lat="59.6235754" lon="17.7492099">
        <ele>18.4023</ele>
        <time>2012-05-20T12:54:50Z</time>
      </trkpt>
      <trkpt lat="59.6237791" lon="17.749902">
        <ele>17.9218</ele>
        <time>2012-05-20T12:54:56Z</time>
      </trkpt>
      <trkpt lat="59.6238765" lon="17.7503926">
        <ele>17.4412</ele>
        <time>2012-05-20T12:55:00Z</time>
      </trkpt>
      <trkpt lat="59.6241898" lon="17.7514263">
        <ele>17.4412</ele>
        <time>2012-05-20T12:55:10Z</time>
      </trkpt>
      <trkpt lat="59.6243086" lon="17.7518122">
        <ele>16.9604</ele>
        <time>2012-05-20T12:55:14Z</time>
      </trkpt>
      <trkpt lat="59.6244592" lon="17.7520607">
        <ele>16.9604</ele>
        <time>2012-05-20T12:55:18Z</time>
      </trkpt>
      <trkpt lat="59.6244836" lon="17.7521505">
        <ele>16.9604</ele>
        <time>2012-05-20T12:55:19Z</time>
      </trkpt>
      <trkpt lat="59.6247748" lon="17.7531765">
        <ele>15.999</ele>
        <time>2012-05-20T12:55:30Z</time>
      </trkpt>
      <trkpt lat="59.6249983" lon="17.7538958">
        <ele>15.0377</ele>
        <time>2012-05-20T12:55:37Z</time>
      </trkpt>
      <trkpt lat="59.6253259" lon="17.7549837">
        <ele>13.5958</ele>
        <time>2012-05-20T12:55:46Z</time>
      </trkpt>
      <trkpt lat="59.6253928" lon="17.7552448">
        <ele>13.5958</ele>
        <time>2012-05-20T12:55:48Z</time>
      </trkpt>
      <trkpt lat="59.625744" lon="17.7563298">
        <ele>15.0377</ele>
        <time>2012-05-20T12:55:57Z</time>
      </trkpt>
      <trkpt lat="59.6259786" lon="17.7571039">
        <ele>15.0377</ele>
        <time>2012-05-20T12:56:04Z</time>
      </trkpt>
      <trkpt lat="59.6262591" lon="17.7579401">
        <ele>13.1151</ele>
        <time>2012-05-20T12:56:11Z</time>
      </trkpt>
      <trkpt lat="59.6265608" lon="17.7587634">
        <ele>9.75061</ele>
        <time>2012-05-20T12:56:17Z</time>
      </trkpt>
      <trkpt lat="59.6270724" lon="17.7601213">
        <ele>7.82788</ele>
        <time>2012-05-20T12:56:26Z</time>
      </trkpt>
      <trkpt lat="59.6274307" lon="17.761095">
        <ele>7.34717</ele>
        <time>2012-05-20T12:56:33Z</time>
      </trkpt>
      <trkpt lat="59.6276873" lon="17.7619696">
        <ele>5.42456</ele>
        <time>2012-05-20T12:56:39Z</time>
      </trkpt>
      <trkpt lat="59.6279625" lon="17.7630709">
        <ele>3.50195</ele>
        <time>2012-05-20T12:56:46Z</time>
      </trkpt>
      <trkpt lat="59.628218" lon="17.7637884">
        <ele>3.50195</ele>
        <time>2012-05-20T12:56:52Z</time>
      </trkpt>
      <trkpt lat="59.6283104" lon="17.7639466">
        <ele>3.50195</ele>
        <time>2012-05-20T12:56:54Z</time>
      </trkpt>
      <trkpt lat="59.6283656" lon="17.7643466">
        <ele>3.02124</ele>
        <time>2012-05-20T12:56:58Z</time>
      </trkpt>
      <trkpt lat="59.6283428" lon="17.7647851">
        <ele>3.02124</ele>
        <time>2012-05-20T12:57:02Z</time>
      </trkpt>
      <trkpt lat="59.6283952" lon="17.7653875">
        <ele>3.98267</ele>
        <time>2012-05-20T12:57:08Z</time>
      </trkpt>
      <trkpt lat="59.6283366" lon="17.765854">
        <ele>3.98267</ele>
        <time>2012-05-20T12:57:13Z</time>
      </trkpt>
      <trkpt lat="59.6283381" lon="17.7661991">
        <ele>4.94385</ele>
        <time>2012-05-20T12:57:17Z</time>
      </trkpt>
      <trkpt lat="59.6284451" lon="17.7665789">
        <ele>5.90527</ele>
        <time>2012-05-20T12:57:22Z</time>
      </trkpt>
      <trkpt lat="59.6284351" lon="17.7668481">
        <ele>6.86646</ele>
        <time>2012-05-20T12:57:25Z</time>
      </trkpt>
      <trkpt lat="59.6283345" lon="17.7674885">
        <ele>7.82788</ele>
        <time>2012-05-20T12:57:33Z</time>
      </trkpt>
      <trkpt lat="59.6282232" lon="17.7681755">
        <ele>8.78918</ele>
        <time>2012-05-20T12:57:42Z</time>
      </trkpt>
      <trkpt lat="59.6280869" lon="17.7689835">
        <ele>9.2699</ele>
        <time>2012-05-20T12:57:53Z</time>
      </trkpt>
      <trkpt lat="59.6279817" lon="17.7696574">
        <ele>10.7118</ele>
        <time>2012-05-20T12:58:02Z</time>
      </trkpt>
      <trkpt lat="59.6278553" lon="17.7702376">
        <ele>10.7118</ele>
        <time>2012-05-20T12:58:10Z</time>
      </trkpt>
      <trkpt lat="59.6276389" lon="17.7710133">
        <ele>10.2312</ele>
        <time>2012-05-20T12:58:20Z</time>
      </trkpt>
      <trkpt lat="59.6275143" lon="17.7717817">
        <ele>11.6732</ele>
        <time>2012-05-20T12:58:29Z</time>
      </trkpt>
      <trkpt lat="59.6274751" lon="17.7725637">
        <ele>14.0764</ele>
        <time>2012-05-20T12:58:38Z</time>
      </trkpt>
      <trkpt lat="59.6274663" lon="17.7735056">
        <ele>15.5184</ele>
        <time>2012-05-20T12:58:48Z</time>
      </trkpt>
      <trkpt lat="59.6273202" lon="17.7739792">
        <ele>15.999</ele>
        <time>2012-05-20T12:58:53Z</time>
      </trkpt>
      <trkpt lat="59.6272744" lon="17.774047">
        <ele>15.999</ele>
        <time>2012-05-20T12:58:54Z</time>
      </trkpt>
      <trkpt lat="59.6271808" lon="17.7741647">
        <ele>16.4797</ele>
        <time>2012-05-20T12:58:56Z</time>
      </trkpt>
      <trkpt lat="59.627082" lon="17.7744956">
        <ele>16.9604</ele>
        <time>2012-05-20T12:59:00Z</time>
      </trkpt>
      <trkpt lat="59.6270786" lon="17.7751685">
        <ele>16.9604</ele>
        <time>2012-05-20T12:59:06Z</time>
      </trkpt>
      <trkpt lat="59.6270839" lon="17.7760474">
        <ele>16.9604</ele>
        <time>2012-05-20T12:59:14Z</time>
      </trkpt>
      <trkpt lat="59.6270504" lon="17.776852">
        <ele>16.9604</ele>
        <time>2012-05-20T12:59:22Z</time>
      </trkpt>
      <trkpt lat="59.6269891" lon="17.777586">
        <ele>16.9604</ele>
        <time>2012-05-20T12:59:30Z</time>
      </trkpt>
      <trkpt lat="59.6268809" lon="17.7784838">
        <ele>17.9218</ele>
        <time>2012-05-20T12:59:39Z</time>
      </trkpt>
      <trkpt lat="59.6267519" lon="17.7794157">
        <ele>17.4412</ele>
        <time>2012-05-20T12:59:48Z</time>
      </trkpt>
      <trkpt lat="59.6267398" lon="17.7796317">
        <ele>17.4412</ele>
        <time>2012-05-20T12:59:50Z</time>
      </trkpt>
      <trkpt lat="59.6267079" lon="17.7799856">
        <ele>17.4412</ele>
        <time>2012-05-20T12:59:53Z</time>
      </trkpt>
      <trkpt lat="59.6267121" lon="17.7810665">
        <ele>17.9218</ele>
        <time>2012-05-20T13:00:01Z</time>
      </trkpt>
      <trkpt lat="59.6267139" lon="17.781832">
        <ele>18.8831</ele>
        <time>2012-05-20T13:00:07Z</time>
      </trkpt>
      <trkpt lat="59.6267007" lon="17.7825326">
        <ele>20.325</ele>
        <time>2012-05-20T13:00:14Z</time>
      </trkpt>
      <trkpt lat="59.6266371" lon="17.783294">
        <ele>20.8057</ele>
        <time>2012-05-20T13:00:23Z</time>
      </trkpt>
      <trkpt lat="59.6265235" lon="17.7842016">
        <ele>20.8057</ele>
        <time>2012-05-20T13:00:33Z</time>
      </trkpt>
      <trkpt lat="59.6264234" lon="17.7850781">
        <ele>21.2864</ele>
        <time>2012-05-20T13:00:42Z</time>
      </trkpt>
      <trkpt lat="59.6263008" lon="17.7857567">
        <ele>21.767</ele>
        <time>2012-05-20T13:00:49Z</time>
      </trkpt>
      <trkpt lat="59.6261339" lon="17.7864912">
        <ele>21.767</ele>
        <time>2012-05-20T13:00:57Z</time>
      </trkpt>
      <trkpt lat="59.6260012" lon="17.7872775">
        <ele>20.325</ele>
        <time>2012-05-20T13:01:05Z</time>
      </trkpt>
      <trkpt lat="59.6259914" lon="17.7879566">
        <ele>19.8444</ele>
        <time>2012-05-20T13:01:11Z</time>
      </trkpt>
      <trkpt lat="59.6260972" lon="17.7886994">
        <ele>19.3638</ele>
        <time>2012-05-20T13:01:17Z</time>
      </trkpt>
      <trkpt lat="59.6261857" lon="17.7894526">
        <ele>19.3638</ele>
        <time>2012-05-20T13:01:23Z</time>
      </trkpt>
      <trkpt lat="59.6262034" lon="17.7906473">
        <ele>17.9218</ele>
        <time>2012-05-20T13:01:32Z</time>
      </trkpt>
      <trkpt lat="59.6262142" lon="17.7915027">
        <ele>16.9604</ele>
        <time>2012-05-20T13:01:38Z</time>
      </trkpt>
      <trkpt lat="59.6261428" lon="17.7923647">
        <ele>15.5184</ele>
        <time>2012-05-20T13:01:44Z</time>
      </trkpt>
      <trkpt lat="59.6260107" lon="17.793133">
        <ele>14.0764</ele>
        <time>2012-05-20T13:01:50Z</time>
      </trkpt>
      <trkpt lat="59.6259781" lon="17.7933091">
        <ele>14.0764</ele>
        <time>2012-05-20T13:01:52Z</time>
      </trkpt>
      <trkpt lat="59.6258936" lon="17.7935958">
        <ele>14.0764</ele>
        <time>2012-05-20T13:01:56Z</time>
      </trkpt>
      <trkpt lat="59.6258015" lon="17.7941604">
        <ele>14.557</ele>
        <time>2012-05-20T13:02:04Z</time>
      </trkpt>
      <trkpt lat="59.62576" lon="17.7947919">
        <ele>15.0377</ele>
        <time>2012-05-20T13:02:12Z</time>
      </trkpt>
      <trkpt lat="59.6258009" lon="17.7952868">
        <ele>15.0377</ele>
        <time>2012-05-20T13:02:19Z</time>
      </trkpt>
      <trkpt lat="59.6258131" lon="17.7954675">
        <ele>15.0377</ele>
        <time>2012-05-20T13:02:22Z</time>
      </trkpt>
      <trkpt lat="59.6258365" lon="17.7954815">
        <ele>15.0377</ele>
        <time>2012-05-20T13:02:25Z</time>
      </trkpt>
      <trkpt lat="59.625823" lon="17.7953988">
        <ele>15.0377</ele>
        <time>2012-05-20T13:02:27Z</time>
      </trkpt>
      <trkpt lat="59.6257637" lon="17.7949559">
        <ele>15.5184</ele>
        <time>2012-05-20T13:02:33Z</time>
      </trkpt>
      <trkpt lat="59.6257676" lon="17.7944113">
        <ele>15.999</ele>
        <time>2012-05-20T13:02:38Z</time>
      </trkpt>
      <trkpt lat="59.6258468" lon="17.793734">
        <ele>16.4797</ele>
        <time>2012-05-20T13:02:44Z</time>
      </trkpt>
      <trkpt lat="59.6259361" lon="17.7933496">
        <ele>16.9604</ele>
        <time>2012-05-20T13:02:48Z</time>
      </trkpt>
      <trkpt lat="59.6260535" lon="17.7933035">
        <ele>16.4797</ele>
        <time>2012-05-20T13:02:51Z</time>
      </trkpt>
      <trkpt lat="59.6260836" lon="17.7933857">
        <ele>16.4797</ele>
        <time>2012-05-20T13:02:52Z</time>
      </trkpt>
      <trkpt lat="59.6263254" lon="17.7936821">
        <ele>15.0377</ele>
        <time>2012-05-20T13:02:57Z</time>
      </trkpt>
      <trkpt lat="59.6263899" lon="17.7936937">
        <ele>14.557</ele>
        <time>2012-05-20T13:02:58Z</time>
      </trkpt>
      <trkpt lat="59.626519" lon="17.7936708">
        <ele>14.557</ele>
        <time>2012-05-20T13:03:00Z</time>
      </trkpt>
      <trkpt lat="59.6267402" lon="17.7938837">
        <ele>15.5184</ele>
        <time>2012-05-20T13:03:04Z</time>
      </trkpt>
      <trkpt lat="59.6267994" lon="17.794299">
        <ele>15.5184</ele>
        <time>2012-05-20T13:03:08Z</time>
      </trkpt>
      <trkpt lat="59.6267995" lon="17.7944106">
        <ele>15.5184</ele>
        <time>2012-05-20T13:03:09Z</time>
      </trkpt>
      <trkpt lat="59.6267442" lon="17.7952144">
        <ele>15.0377</ele>
        <time>2012-05-20T13:03:16Z</time>
      </trkpt>
      <trkpt lat="59.6267412" lon="17.7960016">
        <ele>15.0377</ele>
        <time>2012-05-20T13:03:23Z</time>
      </trkpt>
      <trkpt lat="59.6268504" lon="17.7969969">
        <ele>14.0764</ele>
        <time>2012-05-20T13:03:31Z</time>
      </trkpt>
      <trkpt lat="59.6270736" lon="17.7985518">
        <ele>14.0764</ele>
        <time>2012-05-20T13:03:43Z</time>
      </trkpt>
      <trkpt lat="59.6272932" lon="17.7996134">
        <ele>14.557</ele>
        <time>2012-05-20T13:03:52Z</time>
      </trkpt>
      <trkpt lat="59.6275445" lon="17.8006366">
        <ele>14.557</ele>
        <time>2012-05-20T13:04:00Z</time>
      </trkpt>
      <trkpt lat="59.6278553" lon="17.8017864">
        <ele>14.557</ele>
        <time>2012-05-20T13:04:09Z</time>
      </trkpt>
      <trkpt lat="59.6281546" lon="17.8025884">
        <ele>14.557</ele>
        <time>2012-05-20T13:04:16Z</time>
      </trkpt>
      <trkpt lat="59.6283921" lon="17.8032415">
        <ele>15.0377</ele>
        <time>2012-05-20T13:04:22Z</time>
      </trkpt>
      <trkpt lat="59.6288126" lon="17.8042527">
        <ele>14.557</ele>
        <time>2012-05-20T13:04:32Z</time>
      </trkpt>
      <trkpt lat="59.6291695" lon="17.8051545">
        <ele>12.1538</ele>
        <time>2012-05-20T13:04:40Z</time>
      </trkpt>
      <trkpt lat="59.6296136" lon="17.8062697">
        <ele>9.2699</ele>
        <time>2012-05-20T13:04:49Z</time>
      </trkpt>
      <trkpt lat="59.6299988" lon="17.807209">
        <ele>9.2699</ele>
        <time>2012-05-20T13:04:56Z</time>
      </trkpt>
      <trkpt lat="59.6303094" lon="17.8080979">
        <ele>9.2699</ele>
        <time>2012-05-20T13:05:03Z</time>
      </trkpt>
      <trkpt lat="59.6304765" lon="17.8088447">
        <ele>9.75061</ele>
        <time>2012-05-20T13:05:09Z</time>
      </trkpt>
      <trkpt lat="59.6305944" lon="17.8096901">
        <ele>10.2312</ele>
        <time>2012-05-20T13:05:16Z</time>
      </trkpt>
      <trkpt lat="59.630661" lon="17.8106915">
        <ele>9.75061</ele>
        <time>2012-05-20T13:05:24Z</time>
      </trkpt>
      <trkpt lat="59.6307153" lon="17.811693">
        <ele>9.75061</ele>
        <time>2012-05-20T13:05:31Z</time>
      </trkpt>
      <trkpt lat="59.6307218" lon="17.8119843">
        <ele>9.75061</ele>
        <time>2012-05-20T13:05:33Z</time>
      </trkpt>
      <trkpt lat="59.6306427" lon="17.8125419">
        <ele>9.2699</ele>
        <time>2012-05-20T13:05:37Z</time>
      </trkpt>
      <trkpt lat="59.6305983" lon="17.8126639">
        <ele>9.2699</ele>
        <time>2012-05-20T13:05:38Z</time>
      </trkpt>
      <trkpt lat="59.630326" lon="17.8134694">
        <ele>10.2312</ele>
        <time>2012-05-20T13:05:45Z</time>
      </trkpt>
      <trkpt lat="59.6302671" lon="17.8140957">
        <ele>10.7118</ele>
        <time>2012-05-20T13:05:50Z</time>
      </trkpt>
      <trkpt lat="59.6302692" lon="17.8142222">
        <ele>10.7118</ele>
        <time>2012-05-20T13:05:51Z</time>
      </trkpt>
      <trkpt lat="59.6303457" lon="17.8155292">
        <ele>11.6732</ele>
        <time>2012-05-20T13:06:01Z</time>
      </trkpt>
      <trkpt lat="59.6304413" lon="17.816801">
        <ele>13.1151</ele>
        <time>2012-05-20T13:06:11Z</time>
      </trkpt>
      <trkpt lat="59.6304598" lon="17.8176402">
        <ele>13.1151</ele>
        <time>2012-05-20T13:06:18Z</time>
      </trkpt>
      <trkpt lat="59.6303661" lon="17.8184881">
        <ele>14.0764</ele>
        <time>2012-05-20T13:06:26Z</time>
      </trkpt>
      <trkpt lat="59.630178" lon="17.8193952">
        <ele>13.5958</ele>
        <time>2012-05-20T13:06:34Z</time>
      </trkpt>
      <trkpt lat="59.629994" lon="17.8201166">
        <ele>13.1151</ele>
        <time>2012-05-20T13:06:40Z</time>
      </trkpt>
      <trkpt lat="59.6297678" lon="17.8209479">
        <ele>13.1151</ele>
        <time>2012-05-20T13:06:47Z</time>
      </trkpt>
      <trkpt lat="59.6296597" lon="17.8217441">
        <ele>11.6732</ele>
        <time>2012-05-20T13:06:53Z</time>
      </trkpt>
      <trkpt lat="59.6296037" lon="17.8222002">
        <ele>10.7118</ele>
        <time>2012-05-20T13:06:56Z</time>
      </trkpt>
      <trkpt lat="59.6294477" lon="17.8226792">
        <ele>11.1925</ele>
        <time>2012-05-20T13:07:00Z</time>
      </trkpt>
      <trkpt lat="59.6294073" lon="17.8230286">
        <ele>11.6732</ele>
        <time>2012-05-20T13:07:03Z</time>
      </trkpt>
      <trkpt lat="59.6295165" lon="17.8235124">
        <ele>12.1538</ele>
        <time>2012-05-20T13:07:07Z</time>
      </trkpt>
      <trkpt lat="59.6295414" lon="17.8237759">
        <ele>12.6344</ele>
        <time>2012-05-20T13:07:09Z</time>
      </trkpt>
      <trkpt lat="59.6295721" lon="17.8251539">
        <ele>15.0377</ele>
        <time>2012-05-20T13:07:20Z</time>
      </trkpt>
      <trkpt lat="59.6295669" lon="17.8258169">
        <ele>16.4797</ele>
        <time>2012-05-20T13:07:27Z</time>
      </trkpt>
      <trkpt lat="59.6295162" lon="17.8267638">
        <ele>16.9604</ele>
        <time>2012-05-20T13:07:37Z</time>
      </trkpt>
      <trkpt lat="59.6294228" lon="17.827543">
        <ele>17.4412</ele>
        <time>2012-05-20T13:07:46Z</time>
      </trkpt>
      <trkpt lat="59.6293037" lon="17.828237">
        <ele>17.4412</ele>
        <time>2012-05-20T13:07:54Z</time>
      </trkpt>
      <trkpt lat="59.6291637" lon="17.8287968">
        <ele>16.4797</ele>
        <time>2012-05-20T13:08:00Z</time>
      </trkpt>
      <trkpt lat="59.6290041" lon="17.8293704">
        <ele>14.0764</ele>
        <time>2012-05-20T13:08:05Z</time>
      </trkpt>
      <trkpt lat="59.6287219" lon="17.8302522">
        <ele>12.1538</ele>
        <time>2012-05-20T13:08:12Z</time>
      </trkpt>
      <trkpt lat="59.6283899" lon="17.8310762">
        <ele>14.0764</ele>
        <time>2012-05-20T13:08:20Z</time>
      </trkpt>
      <trkpt lat="59.6281317" lon="17.831569">
        <ele>17.4412</ele>
        <time>2012-05-20T13:08:27Z</time>
      </trkpt>
      <trkpt lat="59.6277998" lon="17.8320838">
        <ele>18.4023</ele>
        <time>2012-05-20T13:08:36Z</time>
      </trkpt>
      <trkpt lat="59.6274254" lon="17.8326749">
        <ele>19.3638</ele>
        <time>2012-05-20T13:08:46Z</time>
      </trkpt>
      <trkpt lat="59.627155" lon="17.8333064">
        <ele>20.325</ele>
        <time>2012-05-20T13:08:54Z</time>
      </trkpt>
      <trkpt lat="59.6269961" lon="17.8338435">
        <ele>21.2864</ele>
        <time>2012-05-20T13:09:00Z</time>
      </trkpt>
      <trkpt lat="59.6268945" lon="17.8345583">
        <ele>23.6896</ele>
        <time>2012-05-20T13:09:07Z</time>
      </trkpt>
      <trkpt lat="59.6268818" lon="17.834814">
        <ele>24.651</ele>
        <time>2012-05-20T13:09:10Z</time>
      </trkpt>
      <trkpt lat="59.6269051" lon="17.8355767">
        <ele>24.651</ele>
        <time>2012-05-20T13:09:19Z</time>
      </trkpt>
      <trkpt lat="59.6269188" lon="17.8362734">
        <ele>24.651</ele>
        <time>2012-05-20T13:09:25Z</time>
      </trkpt>
      <trkpt lat="59.6268586" lon="17.8370479">
        <ele>24.1703</ele>
        <time>2012-05-20T13:09:31Z</time>
      </trkpt>
      <trkpt lat="59.6266841" lon="17.838013">
        <ele>24.651</ele>
        <time>2012-05-20T13:09:39Z</time>
      </trkpt>
      <trkpt lat="59.6264757" lon="17.8389333">
        <ele>24.651</ele>
        <time>2012-05-20T13:09:47Z</time>
      </trkpt>
      <trkpt lat="59.6264005" lon="17.8396886">
        <ele>23.6896</ele>
        <time>2012-05-20T13:09:53Z</time>
      </trkpt>
      <trkpt lat="59.626394" lon="17.8403816">
        <ele>22.2476</ele>
        <time>2012-05-20T13:09:58Z</time>
      </trkpt>
      <trkpt lat="59.6263719" lon="17.8413291">
        <ele>22.2476</ele>
        <time>2012-05-20T13:10:05Z</time>
      </trkpt>
      <trkpt lat="59.6263852" lon="17.8422926">
        <ele>23.6896</ele>
        <time>2012-05-20T13:10:13Z</time>
      </trkpt>
      <trkpt lat="59.6264235" lon="17.8431763">
        <ele>26.0929</ele>
        <time>2012-05-20T13:10:21Z</time>
      </trkpt>
      <trkpt lat="59.626519" lon="17.8439317">
        <ele>27.5349</ele>
        <time>2012-05-20T13:10:28Z</time>
      </trkpt>
      <trkpt lat="59.6266696" lon="17.8447793">
        <ele>30.4188</ele>
        <time>2012-05-20T13:10:37Z</time>
      </trkpt>
      <trkpt lat="59.6267763" lon="17.845355">
        <ele>30.8995</ele>
        <time>2012-05-20T13:10:44Z</time>
      </trkpt>
      <trkpt lat="59.6268856" lon="17.845955">
        <ele>29.9381</ele>
        <time>2012-05-20T13:10:50Z</time>
      </trkpt>
      <trkpt lat="59.6270338" lon="17.8468192">
        <ele>27.0543</ele>
        <time>2012-05-20T13:10:57Z</time>
      </trkpt>
      <trkpt lat="59.6271527" lon="17.8477166">
        <ele>24.651</ele>
        <time>2012-05-20T13:11:03Z</time>
      </trkpt>
      <trkpt lat="59.6272343" lon="17.8487671">
        <ele>21.2864</ele>
        <time>2012-05-20T13:11:09Z</time>
      </trkpt>
      <trkpt lat="59.6273792" lon="17.8503012">
        <ele>16.9604</ele>
        <time>2012-05-20T13:11:17Z</time>
      </trkpt>
      <trkpt lat="59.6274673" lon="17.8516035">
        <ele>15.0377</ele>
        <time>2012-05-20T13:11:24Z</time>
      </trkpt>
      <trkpt lat="59.6275807" lon="17.8531606">
        <ele>13.1151</ele>
        <time>2012-05-20T13:11:33Z</time>
      </trkpt>
      <trkpt lat="59.6276761" lon="17.8545783">
        <ele>10.2312</ele>
        <time>2012-05-20T13:11:41Z</time>
      </trkpt>
      <trkpt lat="59.6277981" lon="17.8562753">
        <ele>6.86646</ele>
        <time>2012-05-20T13:11:50Z</time>
      </trkpt>
      <trkpt lat="59.6278363" lon="17.8568225">
        <ele>5.90527</ele>
        <time>2012-05-20T13:11:54Z</time>
      </trkpt>
      <trkpt lat="59.6278449" lon="17.8569597">
        <ele>5.90527</ele>
        <time>2012-05-20T13:11:56Z</time>
      </trkpt>
      <trkpt lat="59.6278662" lon="17.8573504">
        <ele>6.38586</ele>
        <time>2012-05-20T13:12:03Z</time>
      </trkpt>
      <trkpt lat="59.6278872" lon="17.857877">
        <ele>6.38586</ele>
        <time>2012-05-20T13:12:09Z</time>
      </trkpt>
      <trkpt lat="59.6279582" lon="17.8587189">
        <ele>5.90527</ele>
        <time>2012-05-20T13:12:17Z</time>
      </trkpt>
      <trkpt lat="59.6279947" lon="17.8592161">
        <ele>5.90527</ele>
        <time>2012-05-20T13:12:22Z</time>
      </trkpt>
      <trkpt lat="59.6280749" lon="17.8599614">
        <ele>6.38586</ele>
        <time>2012-05-20T13:12:31Z</time>
      </trkpt>
      <trkpt lat="59.6280817" lon="17.860067">
        <ele>6.38586</ele>
        <time>2012-05-20T13:12:36Z</time>
      </trkpt>
      <trkpt lat="59.6281033" lon="17.8601401">
        <ele>7.82788</ele>
        <time>2012-05-20T13:13:12Z</time>
      </trkpt>
      <trkpt lat="59.628178" lon="17.8604278">
        <ele>7.34717</ele>
        <time>2012-05-20T13:13:16Z</time>
      </trkpt>
      <trkpt lat="59.6283299" lon="17.8605604">
        <ele>7.34717</ele>
        <time>2012-05-20T13:13:19Z</time>
      </trkpt>
      <trkpt lat="59.628753" lon="17.8605589">
        <ele>7.34717</ele>
        <time>2012-05-20T13:13:26Z</time>
      </trkpt>
      <trkpt lat="59.6292128" lon="17.8605482">
        <ele>7.34717</ele>
        <time>2012-05-20T13:13:34Z</time>
      </trkpt>
      <trkpt lat="59.629585" lon="17.8605167">
        <ele>6.38586</ele>
        <time>2012-05-20T13:13:42Z</time>
      </trkpt>
      <trkpt lat="59.629856" lon="17.8604959">
        <ele>5.90527</ele>
        <time>2012-05-20T13:13:47Z</time>
      </trkpt>
      <trkpt lat="59.6300745" lon="17.8605074">
        <ele>6.86646</ele>
        <time>2012-05-20T13:13:51Z</time>
      </trkpt>
      <trkpt lat="59.6302557" lon="17.8606843">
        <ele>6.86646</ele>
        <time>2012-05-20T13:13:55Z</time>
      </trkpt>
      <trkpt lat="59.6303162" lon="17.8609898">
        <ele>6.38586</ele>
        <time>2012-05-20T13:13:58Z</time>
      </trkpt>
      <trkpt lat="59.6303236" lon="17.8611052">
        <ele>6.38586</ele>
        <time>2012-05-20T13:13:59Z</time>
      </trkpt>
      <trkpt lat="59.6303416" lon="17.8622538">
        <ele>5.42456</ele>
        <time>2012-05-20T13:14:08Z</time>
      </trkpt>
      <trkpt lat="59.630334" lon="17.8634204">
        <ele>4.94385</ele>
        <time>2012-05-20T13:14:17Z</time>
      </trkpt>
      <trkpt lat="59.6303157" lon="17.8646413">
        <ele>4.46326</ele>
        <time>2012-05-20T13:14:27Z</time>
      </trkpt>
      <trkpt lat="59.6303085" lon="17.8647603">
        <ele>3.98267</ele>
        <time>2012-05-20T13:14:28Z</time>
      </trkpt>
      <trkpt lat="59.6302506" lon="17.8650929">
        <ele>3.98267</ele>
        <time>2012-05-20T13:14:31Z</time>
      </trkpt>
      <trkpt lat="59.6302661" lon="17.8655286">
        <ele>3.98267</ele>
        <time>2012-05-20T13:14:35Z</time>
      </trkpt>
      <trkpt lat="59.630267" lon="17.8656484">
        <ele>4.46326</ele>
        <time>2012-05-20T13:14:36Z</time>
      </trkpt>
      <trkpt lat="59.6302232" lon="17.8666651">
        <ele>3.98267</ele>
        <time>2012-05-20T13:14:44Z</time>
      </trkpt>
      <trkpt lat="59.6301857" lon="17.8678539">
        <ele>4.46326</ele>
        <time>2012-05-20T13:14:53Z</time>
      </trkpt>
      <trkpt lat="59.6301677" lon="17.868818">
        <ele>5.90527</ele>
        <time>2012-05-20T13:15:01Z</time>
      </trkpt>
      <trkpt lat="59.6301758" lon="17.8698308">
        <ele>5.90527</ele>
        <time>2012-05-20T13:15:09Z</time>
      </trkpt>
      <trkpt lat="59.6301675" lon="17.8709352">
        <ele>5.42456</ele>
        <time>2012-05-20T13:15:17Z</time>
      </trkpt>
      <trkpt lat="59.6301774" lon="17.8720612">
        <ele>5.42456</ele>
        <time>2012-05-20T13:15:25Z</time>
      </trkpt>
      <trkpt lat="59.6301751" lon="17.8730827">
        <ele>5.90527</ele>
        <time>2012-05-20T13:15:33Z</time>
      </trkpt>
      <trkpt lat="59.6302225" lon="17.8738238">
        <ele>5.42456</ele>
        <time>2012-05-20T13:15:40Z</time>
      </trkpt>
      <trkpt lat="59.6302292" lon="17.873922">
        <ele>5.42456</ele>
        <time>2012-05-20T13:15:41Z</time>
      </trkpt>
      <trkpt lat="59.6302321" lon="17.874096">
        <ele>5.42456</ele>
        <time>2012-05-20T13:15:43Z</time>
      </trkpt>
      <trkpt lat="59.630322" lon="17.874707">
        <ele>5.90527</ele>
        <time>2012-05-20T13:15:50Z</time>
      </trkpt>
      <trkpt lat="59.6304831" lon="17.8754748">
        <ele>5.90527</ele>
        <time>2012-05-20T13:15:57Z</time>
      </trkpt>
      <trkpt lat="59.630583" lon="17.8765061">
        <ele>5.90527</ele>
        <time>2012-05-20T13:16:05Z</time>
      </trkpt>
      <trkpt lat="59.6306392" lon="17.8776024">
        <ele>5.90527</ele>
        <time>2012-05-20T13:16:13Z</time>
      </trkpt>
      <trkpt lat="59.6306023" lon="17.8785669">
        <ele>5.42456</ele>
        <time>2012-05-20T13:16:20Z</time>
      </trkpt>
      <trkpt lat="59.6305169" lon="17.8797744">
        <ele>6.38586</ele>
        <time>2012-05-20T13:16:29Z</time>
      </trkpt>
      <trkpt lat="59.6305163" lon="17.8807352">
        <ele>7.34717</ele>
        <time>2012-05-20T13:16:36Z</time>
      </trkpt>
      <trkpt lat="59.6306381" lon="17.8814807">
        <ele>8.30859</ele>
        <time>2012-05-20T13:16:42Z</time>
      </trkpt>
      <trkpt lat="59.630819" lon="17.8821245">
        <ele>8.30859</ele>
        <time>2012-05-20T13:16:48Z</time>
      </trkpt>
      <trkpt lat="59.6310953" lon="17.883032">
        <ele>8.30859</ele>
        <time>2012-05-20T13:16:56Z</time>
      </trkpt>
      <trkpt lat="59.6312332" lon="17.8839273">
        <ele>8.30859</ele>
        <time>2012-05-20T13:17:03Z</time>
      </trkpt>
      <trkpt lat="59.6312957" lon="17.8848553">
        <ele>9.2699</ele>
        <time>2012-05-20T13:17:10Z</time>
      </trkpt>
      <trkpt lat="59.6313603" lon="17.8860842">
        <ele>10.7118</ele>
        <time>2012-05-20T13:17:20Z</time>
      </trkpt>
      <trkpt lat="59.6314192" lon="17.8871565">
        <ele>11.6732</ele>
        <time>2012-05-20T13:17:29Z</time>
      </trkpt>
      <trkpt lat="59.6314503" lon="17.8884158">
        <ele>11.1925</ele>
        <time>2012-05-20T13:17:39Z</time>
      </trkpt>
      <trkpt lat="59.6313673" lon="17.8894713">
        <ele>11.1925</ele>
        <time>2012-05-20T13:17:47Z</time>
      </trkpt>
      <trkpt lat="59.6312354" lon="17.8905931">
        <ele>12.1538</ele>
        <time>2012-05-20T13:17:56Z</time>
      </trkpt>
      <trkpt lat="59.6311644" lon="17.8911992">
        <ele>13.5958</ele>
        <time>2012-05-20T13:18:02Z</time>
      </trkpt>
      <trkpt lat="59.6311186" lon="17.8917964">
        <ele>15.5184</ele>
        <time>2012-05-20T13:18:09Z</time>
      </trkpt>
      <trkpt lat="59.6310735" lon="17.8924035">
        <ele>16.4797</ele>
        <time>2012-05-20T13:18:16Z</time>
      </trkpt>
      <trkpt lat="59.631052" lon="17.8926562">
        <ele>17.4412</ele>
        <time>2012-05-20T13:18:19Z</time>
      </trkpt>
      <trkpt lat="59.6310079" lon="17.8933141">
        <ele>18.4023</ele>
        <time>2012-05-20T13:18:27Z</time>
      </trkpt>
      <trkpt lat="59.6309371" lon="17.8942148">
        <ele>18.8831</ele>
        <time>2012-05-20T13:18:37Z</time>
      </trkpt>
      <trkpt lat="59.6308147" lon="17.8944982">
        <ele>18.4023</ele>
        <time>2012-05-20T13:18:41Z</time>
      </trkpt>
      <trkpt lat="59.6306177" lon="17.8946614">
        <ele>18.4023</ele>
        <time>2012-05-20T13:18:45Z</time>
      </trkpt>
      <trkpt lat="59.6303615" lon="17.8947556">
        <ele>18.8831</ele>
        <time>2012-05-20T13:18:50Z</time>
      </trkpt>
      <trkpt lat="59.6302621" lon="17.8949676">
        <ele>18.8831</ele>
        <time>2012-05-20T13:18:54Z</time>
      </trkpt>
      <trkpt lat="59.6302827" lon="17.895049">
        <ele>18.8831</ele>
        <time>2012-05-20T13:18:55Z</time>
      </trkpt>
      <trkpt lat="59.6304719" lon="17.8958841">
        <ele>18.8831</ele>
        <time>2012-05-20T13:19:03Z</time>
      </trkpt>
      <trkpt lat="59.6307338" lon="17.8969993">
        <ele>18.8831</ele>
        <time>2012-05-20T13:19:13Z</time>
      </trkpt>
      <trkpt lat="59.630908" lon="17.8978906">
        <ele>18.8831</ele>
        <time>2012-05-20T13:19:21Z</time>
      </trkpt>
      <trkpt lat="59.6310602" lon="17.8989999">
        <ele>18.8831</ele>
        <time>2012-05-20T13:19:30Z</time>
      </trkpt>
      <trkpt lat="59.6311478" lon="17.8997539">
        <ele>19.3638</ele>
        <time>2012-05-20T13:19:36Z</time>
      </trkpt>
      <trkpt lat="59.6312041" lon="17.900111">
        <ele>20.325</ele>
        <time>2012-05-20T13:19:39Z</time>
      </trkpt>
      <trkpt lat="59.6314545" lon="17.9009986">
        <ele>19.3638</ele>
        <time>2012-05-20T13:19:47Z</time>
      </trkpt>
      <trkpt lat="59.6317559" lon="17.9019606">
        <ele>17.9218</ele>
        <time>2012-05-20T13:19:57Z</time>
      </trkpt>
      <trkpt lat="59.631963" lon="17.9025835">
        <ele>18.4023</ele>
        <time>2012-05-20T13:20:04Z</time>
      </trkpt>
      <trkpt lat="59.631992" lon="17.9026695">
        <ele>17.9218</ele>
        <time>2012-05-20T13:20:05Z</time>
      </trkpt>
      <trkpt lat="59.6321541" lon="17.9029422">
        <ele>17.9218</ele>
        <time>2012-05-20T13:20:09Z</time>
      </trkpt>
      <trkpt lat="59.6325315" lon="17.9031771">
        <ele>18.4023</ele>
        <time>2012-05-20T13:20:16Z</time>
      </trkpt>
      <trkpt lat="59.6326734" lon="17.9034074">
        <ele>17.9218</ele>
        <time>2012-05-20T13:20:20Z</time>
      </trkpt>
      <trkpt lat="59.6326708" lon="17.9036256">
        <ele>18.4023</ele>
        <time>2012-05-20T13:20:22Z</time>
      </trkpt>
      <trkpt lat="59.632635" lon="17.9040557">
        <ele>18.8831</ele>
        <time>2012-05-20T13:20:26Z</time>
      </trkpt>
      <trkpt lat="59.6327029" lon="17.9044409">
        <ele>19.3638</ele>
        <time>2012-05-20T13:20:30Z</time>
      </trkpt>
      <trkpt lat="59.6327573" lon="17.9045974">
        <ele>19.8444</ele>
        <time>2012-05-20T13:20:32Z</time>
      </trkpt>
      <trkpt lat="59.63277" lon="17.9047935">
        <ele>19.8444</ele>
        <time>2012-05-20T13:20:36Z</time>
      </trkpt>
      <trkpt lat="59.6326846" lon="17.904891">
        <ele>19.8444</ele>
        <time>2012-05-20T13:20:42Z</time>
      </trkpt>
      <trkpt lat="59.6326034" lon="17.9047825">
        <ele>19.8444</ele>
        <time>2012-05-20T13:20:46Z</time>
      </trkpt>
      <trkpt lat="59.6324711" lon="17.904344">
        <ele>19.3638</ele>
        <time>2012-05-20T13:20:52Z</time>
      </trkpt>
      <trkpt lat="59.6324801" lon="17.9040177">
        <ele>19.8444</ele>
        <time>2012-05-20T13:20:55Z</time>
      </trkpt>
      <trkpt lat="59.6324309" lon="17.9036133">
        <ele>19.8444</ele>
        <time>2012-05-20T13:20:59Z</time>
      </trkpt>
      <trkpt lat="59.6322915" lon="17.9034524">
        <ele>19.8444</ele>
        <time>2012-05-20T13:21:02Z</time>
      </trkpt>
      <trkpt lat="59.6321173" lon="17.9035023">
        <ele>19.3638</ele>
        <time>2012-05-20T13:21:05Z</time>
      </trkpt>
      <trkpt lat="59.6319103" lon="17.9038291">
        <ele>18.8831</ele>
        <time>2012-05-20T13:21:09Z</time>
      </trkpt>
      <trkpt lat="59.631875" lon="17.9039358">
        <ele>18.8831</ele>
        <time>2012-05-20T13:21:10Z</time>
      </trkpt>
      <trkpt lat="59.6316698" lon="17.90476">
        <ele>19.3638</ele>
        <time>2012-05-20T13:21:18Z</time>
      </trkpt>
      <trkpt lat="59.6315249" lon="17.9057292">
        <ele>20.325</ele>
        <time>2012-05-20T13:21:27Z</time>
      </trkpt>
      <trkpt lat="59.6314328" lon="17.9066924">
        <ele>21.2864</ele>
        <time>2012-05-20T13:21:35Z</time>
      </trkpt>
      <trkpt lat="59.6313016" lon="17.9079934">
        <ele>21.767</ele>
        <time>2012-05-20T13:21:45Z</time>
      </trkpt>
      <trkpt lat="59.6311825" lon="17.9092025">
        <ele>21.2864</ele>
        <time>2012-05-20T13:21:54Z</time>
      </trkpt>
      <trkpt lat="59.6310586" lon="17.9103772">
        <ele>22.7283</ele>
        <time>2012-05-20T13:22:03Z</time>
      </trkpt>
      <trkpt lat="59.6309518" lon="17.9112133">
        <ele>24.1703</ele>
        <time>2012-05-20T13:22:11Z</time>
      </trkpt>
      <trkpt lat="59.6308508" lon="17.9118997">
        <ele>25.6123</ele>
        <time>2012-05-20T13:22:19Z</time>
      </trkpt>
      <trkpt lat="59.6307505" lon="17.9125005">
        <ele>27.0543</ele>
        <time>2012-05-20T13:22:27Z</time>
      </trkpt>
      <trkpt lat="59.6306153" lon="17.9132461">
        <ele>28.9769</ele>
        <time>2012-05-20T13:22:38Z</time>
      </trkpt>
      <trkpt lat="59.6304817" lon="17.9139069">
        <ele>30.4188</ele>
        <time>2012-05-20T13:22:48Z</time>
      </trkpt>
      <trkpt lat="59.6303489" lon="17.9144815">
        <ele>31.3801</ele>
        <time>2012-05-20T13:22:56Z</time>
      </trkpt>
      <trkpt lat="59.6301583" lon="17.9153046">
        <ele>31.3801</ele>
        <time>2012-05-20T13:23:06Z</time>
      </trkpt>
      <trkpt lat="59.629973" lon="17.9160386">
        <ele>31.8607</ele>
        <time>2012-05-20T13:23:14Z</time>
      </trkpt>
      <trkpt lat="59.629742" lon="17.9168648">
        <ele>31.8607</ele>
        <time>2012-05-20T13:23:23Z</time>
      </trkpt>
      <trkpt lat="59.6294846" lon="17.9177088">
        <ele>31.3801</ele>
        <time>2012-05-20T13:23:32Z</time>
      </trkpt>
      <trkpt lat="59.6294278" lon="17.9180223">
        <ele>31.8607</ele>
        <time>2012-05-20T13:23:35Z</time>
      </trkpt>
      <trkpt lat="59.6291548" lon="17.918948">
        <ele>31.3801</ele>
        <time>2012-05-20T13:23:44Z</time>
      </trkpt>
      <trkpt lat="59.6288428" lon="17.919964">
        <ele>29.9381</ele>
        <time>2012-05-20T13:23:53Z</time>
      </trkpt>
      <trkpt lat="59.6284765" lon="17.9210834">
        <ele>29.9381</ele>
        <time>2012-05-20T13:24:03Z</time>
      </trkpt>
      <trkpt lat="59.6281647" lon="17.9219963">
        <ele>29.9381</ele>
        <time>2012-05-20T13:24:12Z</time>
      </trkpt>
      <trkpt lat="59.62786" lon="17.9228938">
        <ele>29.9381</ele>
        <time>2012-05-20T13:24:21Z</time>
      </trkpt>
      <trkpt lat="59.6276759" lon="17.9234117">
        <ele>29.9381</ele>
        <time>2012-05-20T13:24:27Z</time>
      </trkpt>
      <trkpt lat="59.6274773" lon="17.9236539">
        <ele>30.4188</ele>
        <time>2012-05-20T13:24:31Z</time>
      </trkpt>
      <trkpt lat="59.6272808" lon="17.9239124">
        <ele>30.4188</ele>
        <time>2012-05-20T13:24:35Z</time>
      </trkpt>
      <trkpt lat="59.6272908" lon="17.9242684">
        <ele>30.8995</ele>
        <time>2012-05-20T13:24:38Z</time>
      </trkpt>
      <trkpt lat="59.6274274" lon="17.92452">
        <ele>30.8995</ele>
        <time>2012-05-20T13:24:41Z</time>
      </trkpt>
      <trkpt lat="59.6274865" lon="17.9245786">
        <ele>30.8995</ele>
        <time>2012-05-20T13:24:42Z</time>
      </trkpt>
      <trkpt lat="59.6279067" lon="17.9249598">
        <ele>29.4575</ele>
        <time>2012-05-20T13:24:49Z</time>
      </trkpt>
      <trkpt lat="59.6282255" lon="17.9254541">
        <ele>28.0155</ele>
        <time>2012-05-20T13:24:55Z</time>
      </trkpt>
      <trkpt lat="59.6288034" lon="17.9262378">
        <ele>24.1703</ele>
        <time>2012-05-20T13:25:04Z</time>
      </trkpt>
      <trkpt lat="59.6294243" lon="17.9269191">
        <ele>22.2476</ele>
        <time>2012-05-20T13:25:12Z</time>
      </trkpt>
      <trkpt lat="59.6302391" lon="17.9277321">
        <ele>23.209</ele>
        <time>2012-05-20T13:25:22Z</time>
      </trkpt>
      <trkpt lat="59.6309178" lon="17.9284305">
        <ele>24.1703</ele>
        <time>2012-05-20T13:25:31Z</time>
      </trkpt>
      <trkpt lat="59.6317025" lon="17.9293247">
        <ele>23.6896</ele>
        <time>2012-05-20T13:25:42Z</time>
      </trkpt>
      <trkpt lat="59.6323217" lon="17.9301131">
        <ele>22.7283</ele>
        <time>2012-05-20T13:25:51Z</time>
      </trkpt>
      <trkpt lat="59.6328841" lon="17.9308985">
        <ele>21.2864</ele>
        <time>2012-05-20T13:26:00Z</time>
      </trkpt>
      <trkpt lat="59.6335177" lon="17.9318489">
        <ele>20.8057</ele>
        <time>2012-05-20T13:26:11Z</time>
      </trkpt>
      <trkpt lat="59.6341769" lon="17.9328538">
        <ele>22.2476</ele>
        <time>2012-05-20T13:26:23Z</time>
      </trkpt>
      <trkpt lat="59.6346809" lon="17.9336078">
        <ele>21.767</ele>
        <time>2012-05-20T13:26:32Z</time>
      </trkpt>
      <trkpt lat="59.6352803" lon="17.9344675">
        <ele>20.325</ele>
        <time>2012-05-20T13:26:42Z</time>
      </trkpt>
      <trkpt lat="59.6359006" lon="17.9353399">
        <ele>19.3638</ele>
        <time>2012-05-20T13:26:52Z</time>
      </trkpt>
      <trkpt lat="59.6365489" lon="17.9362604">
        <ele>18.4023</ele>
        <time>2012-05-20T13:27:02Z</time>
      </trkpt>
      <trkpt lat="59.6371913" lon="17.9371757">
        <ele>17.9218</ele>
        <time>2012-05-20T13:27:12Z</time>
      </trkpt>
      <trkpt lat="59.63781" lon="17.9380556">
        <ele>17.9218</ele>
        <time>2012-05-20T13:27:22Z</time>
      </trkpt>
      <trkpt lat="59.6382738" lon="17.9387191">
        <ele>18.4023</ele>
        <time>2012-05-20T13:27:30Z</time>
      </trkpt>
      <trkpt lat="59.6387528" lon="17.9393791">
        <ele>18.8831</ele>
        <time>2012-05-20T13:27:38Z</time>
      </trkpt>
      <trkpt lat="59.6393492" lon="17.9400428">
        <ele>18.8831</ele>
        <time>2012-05-20T13:27:47Z</time>
      </trkpt>
      <trkpt lat="59.6398369" lon="17.9404586">
        <ele>18.8831</ele>
        <time>2012-05-20T13:27:54Z</time>
      </trkpt>
      <trkpt lat="59.640298" lon="17.9407776">
        <ele>18.8831</ele>
        <time>2012-05-20T13:28:01Z</time>
      </trkpt>
      <trkpt lat="59.6404476" lon="17.9408685">
        <ele>18.4023</ele>
        <time>2012-05-20T13:28:05Z</time>
      </trkpt>
      <trkpt lat="59.6405985" lon="17.9409644">
        <ele>18.4023</ele>
        <time>2012-05-20T13:28:12Z</time>
      </trkpt>
      <trkpt lat="59.6406106" lon="17.9409618">
        <ele>18.4023</ele>
        <time>2012-05-20T13:28:15Z</time>
      </trkpt>
      <trkpt lat="59.640674" lon="17.9408025">
        <ele>19.8444</ele>
        <time>2012-05-20T13:28:20Z</time>
      </trkpt>
      <trkpt lat="59.6407703" lon="17.9406856">
        <ele>20.325</ele>
        <time>2012-05-20T13:28:23Z</time>
      </trkpt>
      <trkpt lat="59.6408108" lon="17.9407017">
        <ele>20.325</ele>
        <time>2012-05-20T13:28:24Z</time>
      </trkpt>
      <trkpt lat="59.64113" lon="17.9408162">
        <ele>21.2864</ele>
        <time>2012-05-20T13:28:30Z</time>
      </trkpt>
      <trkpt lat="59.641191" lon="17.9408422">
        <ele>21.2864</ele>
        <time>2012-05-20T13:28:31Z</time>
      </trkpt>
      <trkpt lat="59.6414891" lon="17.9410715">
        <ele>20.325</ele>
        <time>2012-05-20T13:28:36Z</time>
      </trkpt>
      <trkpt lat="59.6422004" lon="17.9413217">
        <ele>19.8444</ele>
        <time>2012-05-20T13:28:48Z</time>
      </trkpt>
      <trkpt lat="59.6425579" lon="17.9411502">
        <ele>21.2864</ele>
        <time>2012-05-20T13:28:52Z</time>
      </trkpt>
      <trkpt lat="59.6428211" lon="17.94107">
        <ele>21.767</ele>
        <time>2012-05-20T13:28:57Z</time>
      </trkpt>
      <trkpt lat="59.6431001" lon="17.9410814">
        <ele>20.325</ele>
        <time>2012-05-20T13:29:01Z</time>
      </trkpt>
      <trkpt lat="59.6435177" lon="17.9409282">
        <ele>20.325</ele>
        <time>2012-05-20T13:29:07Z</time>
      </trkpt>
      <trkpt lat="59.6439034" lon="17.940682">
        <ele>16.9604</ele>
        <time>2012-05-20T13:29:13Z</time>
      </trkpt>
      <trkpt lat="59.6443488" lon="17.9404057">
        <ele>17.4412</ele>
        <time>2012-05-20T13:29:20Z</time>
      </trkpt>
      <trkpt lat="59.6447441" lon="17.9401436">
        <ele>17.4412</ele>
        <time>2012-05-20T13:29:26Z</time>
      </trkpt>
      <trkpt lat="59.6450021" lon="17.9399749">
        <ele>16.9604</ele>
        <time>2012-05-20T13:29:30Z</time>
      </trkpt>
      <trkpt lat="59.6451451" lon="17.9396282">
        <ele>17.9218</ele>
        <time>2012-05-20T13:29:34Z</time>
      </trkpt>
      <trkpt lat="59.6451408" lon="17.9395158">
        <ele>17.9218</ele>
        <time>2012-05-20T13:29:35Z</time>
      </trkpt>
      <trkpt lat="59.6450992" lon="17.9388286">
        <ele>18.8831</ele>
        <time>2012-05-20T13:29:41Z</time>
      </trkpt>
      <trkpt lat="59.6451864" lon="17.9383707">
        <ele>18.8831</ele>
        <time>2012-05-20T13:29:45Z</time>
      </trkpt>
      <trkpt lat="59.645303" lon="17.9386152">
        <ele>16.9604</ele>
        <time>2012-05-20T13:29:48Z</time>
      </trkpt>
      <trkpt lat="59.6454422" lon="17.9390605">
        <ele>13.5958</ele>
        <time>2012-05-20T13:29:52Z</time>
      </trkpt>
      <trkpt lat="59.6456553" lon="17.9391487">
        <ele>15.5184</ele>
        <time>2012-05-20T13:29:55Z</time>
      </trkpt>
      <trkpt lat="59.6457366" lon="17.9391041">
        <ele>16.4797</ele>
        <time>2012-05-20T13:29:56Z</time>
      </trkpt>
      <trkpt lat="59.6461844" lon="17.9387783">
        <ele>20.325</ele>
        <time>2012-05-20T13:30:04Z</time>
      </trkpt>
      <trkpt lat="59.6464317" lon="17.9386908">
        <ele>22.7283</ele>
        <time>2012-05-20T13:30:10Z</time>
      </trkpt>
      <trkpt lat="59.6465775" lon="17.9386499">
        <ele>25.1317</ele>
        <time>2012-05-20T13:30:15Z</time>
      </trkpt>
      <trkpt lat="59.6469392" lon="17.9386271">
        <ele>28.9769</ele>
        <time>2012-05-20T13:32:00Z</time>
      </trkpt>
      <trkpt lat="59.647088" lon="17.9390119">
        <ele>28.4962</ele>
        <time>2012-05-20T13:32:06Z</time>
      </trkpt>
      <trkpt lat="59.64731" lon="17.939581">
        <ele>28.0155</ele>
        <time>2012-05-20T13:32:13Z</time>
      </trkpt>
      <trkpt lat="59.6476158" lon="17.9402096">
        <ele>28.0155</ele>
        <time>2012-05-20T13:32:21Z</time>
      </trkpt>
      <trkpt lat="59.6478453" lon="17.9403582">
        <ele>29.4575</ele>
        <time>2012-05-20T13:32:26Z</time>
      </trkpt>
      <trkpt lat="59.647896" lon="17.9403467">
        <ele>29.4575</ele>
        <time>2012-05-20T13:32:27Z</time>
      </trkpt>
      <trkpt lat="59.6480453" lon="17.940278">
        <ele>30.4188</ele>
        <time>2012-05-20T13:32:30Z</time>
      </trkpt>
      <trkpt lat="59.6481738" lon="17.9401959">
        <ele>30.8995</ele>
        <time>2012-05-20T13:32:33Z</time>
      </trkpt>
      <trkpt lat="59.6482458" lon="17.9402718">
        <ele>30.8995</ele>
        <time>2012-05-20T13:32:37Z</time>
      </trkpt>
      <trkpt lat="59.6482198" lon="17.9403008">
        <ele>30.8995</ele>
        <time>2012-05-20T13:32:38Z</time>
      </trkpt>
      <trkpt lat="59.6479889" lon="17.9405345">
        <ele>30.4188</ele>
        <time>2012-05-20T13:32:44Z</time>
      </trkpt>
      <trkpt lat="59.6479188" lon="17.9406679">
        <ele>29.9381</ele>
        <time>2012-05-20T13:32:46Z</time>
      </trkpt>
      <trkpt lat="59.6479287" lon="17.9410648">
        <ele>30.4188</ele>
        <time>2012-05-20T13:32:50Z</time>
      </trkpt>
      <trkpt lat="59.647954" lon="17.9411585">
        <ele>29.9381</ele>
        <time>2012-05-20T13:32:51Z</time>
      </trkpt>
      <trkpt lat="59.6481976" lon="17.9419573">
        <ele>30.8995</ele>
        <time>2012-05-20T13:33:00Z</time>
      </trkpt>
      <trkpt lat="59.6482342" lon="17.942125">
        <ele>30.8995</ele>
        <time>2012-05-20T13:33:02Z</time>
      </trkpt>
      <trkpt lat="59.6483178" lon="17.9428008">
        <ele>30.4188</ele>
        <time>2012-05-20T13:33:09Z</time>
      </trkpt>
      <trkpt lat="59.6484504" lon="17.9436325">
        <ele>28.9769</ele>
        <time>2012-05-20T13:33:17Z</time>
      </trkpt>
      <trkpt lat="59.6486197" lon="17.9445971">
        <ele>27.5349</ele>
        <time>2012-05-20T13:33:25Z</time>
      </trkpt>
      <trkpt lat="59.6487866" lon="17.9450095">
        <ele>27.5349</ele>
        <time>2012-05-20T13:33:29Z</time>
      </trkpt>
      <trkpt lat="59.6491481" lon="17.9455032">
        <ele>28.9769</ele>
        <time>2012-05-20T13:33:36Z</time>
      </trkpt>
      <trkpt lat="59.6492609" lon="17.9456259">
        <ele>29.9381</ele>
        <time>2012-05-20T13:33:39Z</time>
      </trkpt>
      <trkpt lat="59.6493787" lon="17.9457001">
        <ele>31.3801</ele>
        <time>2012-05-20T13:33:42Z</time>
      </trkpt>
      <trkpt lat="59.649487" lon="17.9458897">
        <ele>31.3801</ele>
        <time>2012-05-20T13:33:46Z</time>
      </trkpt>
      <trkpt lat="59.6496647" lon="17.946623">
        <ele>31.3801</ele>
        <time>2012-05-20T13:33:55Z</time>
      </trkpt>
      <trkpt lat="59.6497445" lon="17.9470005">
        <ele>31.3801</ele>
        <time>2012-05-20T13:34:00Z</time>
      </trkpt>
      <trkpt lat="59.6497448" lon="17.9471675">
        <ele>31.3801</ele>
        <time>2012-05-20T13:34:04Z</time>
      </trkpt>
      <trkpt lat="59.6497661" lon="17.9473729">
        <ele>31.3801</ele>
        <time>2012-05-20T13:34:08Z</time>
      </trkpt>
      <trkpt lat="59.6497887" lon="17.9475761">
        <ele>31.3801</ele>
        <time>2012-05-20T13:34:12Z</time>
      </trkpt>
      <trkpt lat="59.649842" lon="17.9477332">
        <ele>31.8607</ele>
        <time>2012-05-20T13:34:15Z</time>
      </trkpt>
      <trkpt lat="59.6499548" lon="17.9482594">
        <ele>30.8995</ele>
        <time>2012-05-20T13:34:22Z</time>
      </trkpt>
      <trkpt lat="59.6500632" lon="17.9487721">
        <ele>29.9381</ele>
        <time>2012-05-20T13:34:27Z</time>
      </trkpt>
      <trkpt lat="59.6502686" lon="17.9494999">
        <ele>28.9769</ele>
        <time>2012-05-20T13:34:34Z</time>
      </trkpt>
      <trkpt lat="59.6505166" lon="17.9503413">
        <ele>27.5349</ele>
        <time>2012-05-20T13:34:42Z</time>
      </trkpt>
      <trkpt lat="59.6506633" lon="17.9510127">
        <ele>27.0543</ele>
        <time>2012-05-20T13:34:47Z</time>
      </trkpt>
      <trkpt lat="59.6508398" lon="17.9518995">
        <ele>26.5736</ele>
        <time>2012-05-20T13:34:54Z</time>
      </trkpt>
      <trkpt lat="59.6508397" lon="17.9522968">
        <ele>25.6123</ele>
        <time>2012-05-20T13:34:57Z</time>
      </trkpt>
      <trkpt lat="59.6509037" lon="17.9532715">
        <ele>25.6123</ele>
        <time>2012-05-20T13:35:04Z</time>
      </trkpt>
      <trkpt lat="59.6510104" lon="17.9542025">
        <ele>26.0929</ele>
        <time>2012-05-20T13:35:11Z</time>
      </trkpt>
      <trkpt lat="59.6511373" lon="17.9549646">
        <ele>27.0543</ele>
        <time>2012-05-20T13:35:17Z</time>
      </trkpt>
      <trkpt lat="59.6511483" lon="17.9550822">
        <ele>27.0543</ele>
        <time>2012-05-20T13:35:18Z</time>
      </trkpt>
      <trkpt lat="59.6514066" lon="17.9562814">
        <ele>27.0543</ele>
        <time>2012-05-20T13:35:27Z</time>
      </trkpt>
      <trkpt lat="59.6515517" lon="17.9572967">
        <ele>27.0543</ele>
        <time>2012-05-20T13:35:35Z</time>
      </trkpt>
      <trkpt lat="59.6516101" lon="17.9584045">
        <ele>27.0543</ele>
        <time>2012-05-20T13:35:43Z</time>
      </trkpt>
      <trkpt lat="59.6515779" lon="17.9593635">
        <ele>27.0543</ele>
        <time>2012-05-20T13:35:50Z</time>
      </trkpt>
      <trkpt lat="59.6514845" lon="17.9602617">
        <ele>27.5349</ele>
        <time>2012-05-20T13:35:57Z</time>
      </trkpt>
      <trkpt lat="59.6513265" lon="17.9611041">
        <ele>28.0155</ele>
        <time>2012-05-20T13:36:04Z</time>
      </trkpt>
      <trkpt lat="59.6511647" lon="17.9617154">
        <ele>28.0155</ele>
        <time>2012-05-20T13:36:10Z</time>
      </trkpt>
      <trkpt lat="59.6508851" lon="17.9626539">
        <ele>28.0155</ele>
        <time>2012-05-20T13:36:20Z</time>
      </trkpt>
      <trkpt lat="59.6506203" lon="17.9635432">
        <ele>28.0155</ele>
        <time>2012-05-20T13:36:30Z</time>
      </trkpt>
      <trkpt lat="59.6503511" lon="17.9644457">
        <ele>28.0155</ele>
        <time>2012-05-20T13:36:40Z</time>
      </trkpt>
      <trkpt lat="59.6501509" lon="17.965161">
        <ele>28.4962</ele>
        <time>2012-05-20T13:36:48Z</time>
      </trkpt>
      <trkpt lat="59.6501187" lon="17.9653497">
        <ele>28.9769</ele>
        <time>2012-05-20T13:36:50Z</time>
      </trkpt>
      <trkpt lat="59.6499118" lon="17.965963">
        <ele>28.9769</ele>
        <time>2012-05-20T13:36:58Z</time>
      </trkpt>
      <trkpt lat="59.6498389" lon="17.9663722">
        <ele>28.9769</ele>
        <time>2012-05-20T13:37:03Z</time>
      </trkpt>
      <trkpt lat="59.6498999" lon="17.9665987">
        <ele>29.4575</ele>
        <time>2012-05-20T13:37:06Z</time>
      </trkpt>
      <trkpt lat="59.649993" lon="17.9667926">
        <ele>30.4188</ele>
        <time>2012-05-20T13:37:09Z</time>
      </trkpt>
      <trkpt lat="59.6500359" lon="17.9668224">
        <ele>30.8995</ele>
        <time>2012-05-20T13:37:10Z</time>
      </trkpt>
      <trkpt lat="59.6503581" lon="17.9669854">
        <ele>33.3029</ele>
        <time>2012-05-20T13:37:18Z</time>
      </trkpt>
      <trkpt lat="59.650682" lon="17.9672544">
        <ele>35.2255</ele>
        <time>2012-05-20T13:37:26Z</time>
      </trkpt>
      <trkpt lat="59.6510614" lon="17.9677403">
        <ele>36.1868</ele>
        <time>2012-05-20T13:37:35Z</time>
      </trkpt>
      <trkpt lat="59.6514973" lon="17.9684628">
        <ele>37.1481</ele>
        <time>2012-05-20T13:37:45Z</time>
      </trkpt>
      <trkpt lat="59.6518457" lon="17.969102">
        <ele>36.6675</ele>
        <time>2012-05-20T13:37:53Z</time>
      </trkpt>
      <trkpt lat="59.652226" lon="17.969778">
        <ele>35.7061</ele>
        <time>2012-05-20T13:38:01Z</time>
      </trkpt>
      <trkpt lat="59.6526329" lon="17.9704752">
        <ele>34.2642</ele>
        <time>2012-05-20T13:38:10Z</time>
      </trkpt>
      <trkpt lat="59.6531231" lon="17.9712861">
        <ele>33.3029</ele>
        <time>2012-05-20T13:38:21Z</time>
      </trkpt>
      <trkpt lat="59.653607" lon="17.9720838">
        <ele>32.8223</ele>
        <time>2012-05-20T13:38:32Z</time>
      </trkpt>
      <trkpt lat="59.65406" lon="17.9727889">
        <ele>32.8223</ele>
        <time>2012-05-20T13:38:42Z</time>
      </trkpt>
      <trkpt lat="59.6544746" lon="17.9732089">
        <ele>33.3029</ele>
        <time>2012-05-20T13:38:50Z</time>
      </trkpt>
      <trkpt lat="59.6550265" lon="17.9736431">
        <ele>35.7061</ele>
        <time>2012-05-20T13:39:00Z</time>
      </trkpt>
      <trkpt lat="59.655731" lon="17.9741755">
        <ele>38.5901</ele>
        <time>2012-05-20T13:39:12Z</time>
      </trkpt>
      <trkpt lat="59.6562185" lon="17.9745189">
        <ele>37.6287</ele>
        <time>2012-05-20T13:39:20Z</time>
      </trkpt>
      <trkpt lat="59.6566204" lon="17.9748562">
        <ele>35.7061</ele>
        <time>2012-05-20T13:39:26Z</time>
      </trkpt>
      <trkpt lat="59.6571004" lon="17.9752522">
        <ele>32.3416</ele>
        <time>2012-05-20T13:39:32Z</time>
      </trkpt>
      <trkpt lat="59.6577325" lon="17.9757469">
        <ele>30.8995</ele>
        <time>2012-05-20T13:39:39Z</time>
      </trkpt>
      <trkpt lat="59.6582203" lon="17.9761315">
        <ele>30.8995</ele>
        <time>2012-05-20T13:39:45Z</time>
      </trkpt>
      <trkpt lat="59.6587083" lon="17.9765012">
        <ele>32.8223</ele>
        <time>2012-05-20T13:39:52Z</time>
      </trkpt>
      <trkpt lat="59.6590526" lon="17.9767741">
        <ele>35.7061</ele>
        <time>2012-05-20T13:39:58Z</time>
      </trkpt>
      <trkpt lat="59.6594927" lon="17.9772134">
        <ele>40.0321</ele>
        <time>2012-05-20T13:40:07Z</time>
      </trkpt>
      <trkpt lat="59.6599208" lon="17.9777439">
        <ele>44.8386</ele>
        <time>2012-05-20T13:40:17Z</time>
      </trkpt>
      <trkpt lat="59.6602201" lon="17.9781751">
        <ele>48.684</ele>
        <time>2012-05-20T13:40:25Z</time>
      </trkpt>
      <trkpt lat="59.6604966" lon="17.9786577">
        <ele>48.2034</ele>
        <time>2012-05-20T13:40:33Z</time>
      </trkpt>
      <trkpt lat="59.66078" lon="17.9792613">
        <ele>46.7612</ele>
        <time>2012-05-20T13:40:41Z</time>
      </trkpt>
      <trkpt lat="59.6610713" lon="17.9800243">
        <ele>44.8386</ele>
        <time>2012-05-20T13:40:49Z</time>
      </trkpt>
      <trkpt lat="59.661355" lon="17.98095">
        <ele>42.4354</ele>
        <time>2012-05-20T13:40:57Z</time>
      </trkpt>
      <trkpt lat="59.6616607" lon="17.9819606">
        <ele>39.5513</ele>
        <time>2012-05-20T13:41:05Z</time>
      </trkpt>
      <trkpt lat="59.6619943" lon="17.9828366">
        <ele>36.6675</ele>
        <time>2012-05-20T13:41:12Z</time>
      </trkpt>
      <trkpt lat="59.6623989" lon="17.9836234">
        <ele>34.7449</ele>
        <time>2012-05-20T13:41:19Z</time>
      </trkpt>
      <trkpt lat="59.6628366" lon="17.984224">
        <ele>32.3416</ele>
        <time>2012-05-20T13:41:26Z</time>
      </trkpt>
      <trkpt lat="59.6633621" lon="17.9847393">
        <ele>31.3801</ele>
        <time>2012-05-20T13:41:34Z</time>
      </trkpt>
      <trkpt lat="59.6638275" lon="17.9850139">
        <ele>30.8995</ele>
        <time>2012-05-20T13:41:41Z</time>
      </trkpt>
      <trkpt lat="59.664374" lon="17.9851894">
        <ele>30.8995</ele>
        <time>2012-05-20T13:41:49Z</time>
      </trkpt>
      <trkpt lat="59.6649386" lon="17.9851589">
        <ele>31.3801</ele>
        <time>2012-05-20T13:41:57Z</time>
      </trkpt>
      <trkpt lat="59.6654976" lon="17.9849727">
        <ele>31.3801</ele>
        <time>2012-05-20T13:42:05Z</time>
      </trkpt>
      <trkpt lat="59.6660425" lon="17.9846231">
        <ele>31.3801</ele>
        <time>2012-05-20T13:42:13Z</time>
      </trkpt>
      <trkpt lat="59.6665206" lon="17.9842503">
        <ele>31.8607</ele>
        <time>2012-05-20T13:42:20Z</time>
      </trkpt>
      <trkpt lat="59.6671465" lon="17.9837473">
        <ele>31.8607</ele>
        <time>2012-05-20T13:42:29Z</time>
      </trkpt>
      <trkpt lat="59.6677841" lon="17.9832447">
        <ele>30.8995</ele>
        <time>2012-05-20T13:42:38Z</time>
      </trkpt>
      <trkpt lat="59.6682865" lon="17.9828681">
        <ele>29.9381</ele>
        <time>2012-05-20T13:42:45Z</time>
      </trkpt>
      <trkpt lat="59.6688599" lon="17.9824827">
        <ele>28.4962</ele>
        <time>2012-05-20T13:42:53Z</time>
      </trkpt>
      <trkpt lat="59.6695132" lon="17.9820927">
        <ele>28.0155</ele>
        <time>2012-05-20T13:43:02Z</time>
      </trkpt>
      <trkpt lat="59.6700348" lon="17.9818281">
        <ele>28.9769</ele>
        <time>2012-05-20T13:43:09Z</time>
      </trkpt>
      <trkpt lat="59.6704369" lon="17.9816338">
        <ele>29.4575</ele>
        <time>2012-05-20T13:43:15Z</time>
      </trkpt>
      <trkpt lat="59.6708795" lon="17.981457">
        <ele>28.0155</ele>
        <time>2012-05-20T13:43:22Z</time>
      </trkpt>
      <trkpt lat="59.670934" lon="17.981439">
        <ele>27.5349</ele>
        <time>2012-05-20T13:43:23Z</time>
      </trkpt>
      <trkpt lat="59.6713346" lon="17.9812746">
        <ele>28.9769</ele>
        <time>2012-05-20T13:43:30Z</time>
      </trkpt>
      <trkpt lat="59.6716769" lon="17.981169">
        <ele>29.9381</ele>
        <time>2012-05-20T13:43:37Z</time>
      </trkpt>
      <trkpt lat="59.6721251" lon="17.9810251">
        <ele>33.3029</ele>
        <time>2012-05-20T13:43:47Z</time>
      </trkpt>
      <trkpt lat="59.6724782" lon="17.9809111">
        <ele>36.6675</ele>
        <time>2012-05-20T13:43:56Z</time>
      </trkpt>
      <trkpt lat="59.6727901" lon="17.9808077">
        <ele>38.5901</ele>
        <time>2012-05-20T13:44:05Z</time>
      </trkpt>
      <trkpt lat="59.6730606" lon="17.9807053">
        <ele>39.5513</ele>
        <time>2012-05-20T13:44:14Z</time>
      </trkpt>
      <trkpt lat="59.6733076" lon="17.9806221">
        <ele>40.0321</ele>
        <time>2012-05-20T13:44:23Z</time>
      </trkpt>
      <trkpt lat="59.6735976" lon="17.9805346">
        <ele>40.9934</ele>
        <time>2012-05-20T13:44:33Z</time>
      </trkpt>
      <trkpt lat="59.6738591" lon="17.9804486">
        <ele>41.9547</ele>
        <time>2012-05-20T13:44:42Z</time>
      </trkpt>
      <trkpt lat="59.6741483" lon="17.980356">
        <ele>41.9547</ele>
        <time>2012-05-20T13:44:52Z</time>
      </trkpt>
      <trkpt lat="59.6744332" lon="17.98026">
        <ele>41.9547</ele>
        <time>2012-05-20T13:45:01Z</time>
      </trkpt>
      <trkpt lat="59.6747677" lon="17.9801374">
        <ele>41.9547</ele>
        <time>2012-05-20T13:45:10Z</time>
      </trkpt>
      <trkpt lat="59.6751253" lon="17.9800097">
        <ele>42.4354</ele>
        <time>2012-05-20T13:45:18Z</time>
      </trkpt>
      <trkpt lat="59.6754953" lon="17.9798392">
        <ele>42.916</ele>
        <time>2012-05-20T13:45:25Z</time>
      </trkpt>
      <trkpt lat="59.6759866" lon="17.9794784">
        <ele>46.2806</ele>
        <time>2012-05-20T13:45:33Z</time>
      </trkpt>
      <trkpt lat="59.6764027" lon="17.9789951">
        <ele>46.2806</ele>
        <time>2012-05-20T13:45:40Z</time>
      </trkpt>
      <trkpt lat="59.6767693" lon="17.9783484">
        <ele>44.8386</ele>
        <time>2012-05-20T13:45:46Z</time>
      </trkpt>
      <trkpt lat="59.6772422" lon="17.9774344">
        <ele>42.4354</ele>
        <time>2012-05-20T13:45:53Z</time>
      </trkpt>
      <trkpt lat="59.6776894" lon="17.9765836">
        <ele>42.4354</ele>
        <time>2012-05-20T13:46:00Z</time>
      </trkpt>
      <trkpt lat="59.6779578" lon="17.9759973">
        <ele>42.916</ele>
        <time>2012-05-20T13:46:05Z</time>
      </trkpt>
      <trkpt lat="59.6781972" lon="17.9754207">
        <ele>44.358</ele>
        <time>2012-05-20T13:46:11Z</time>
      </trkpt>
      <trkpt lat="59.6784914" lon="17.9746904">
        <ele>46.7612</ele>
        <time>2012-05-20T13:46:20Z</time>
      </trkpt>
      <trkpt lat="59.6787036" lon="17.9742395">
        <ele>48.2034</ele>
        <time>2012-05-20T13:46:27Z</time>
      </trkpt>
      <trkpt lat="59.6790005" lon="17.9738445">
        <ele>48.684</ele>
        <time>2012-05-20T13:46:36Z</time>
      </trkpt>
      <trkpt lat="59.679242" lon="17.973587">
        <ele>47.7225</ele>
        <time>2012-05-20T13:46:42Z</time>
      </trkpt>
      <trkpt lat="59.6796123" lon="17.9731471">
        <ele>46.2806</ele>
        <time>2012-05-20T13:46:50Z</time>
      </trkpt>
      <trkpt lat="59.6799733" lon="17.9727167">
        <ele>45.7999</ele>
        <time>2012-05-20T13:46:57Z</time>
      </trkpt>
      <trkpt lat="59.6804282" lon="17.9723118">
        <ele>44.358</ele>
        <time>2012-05-20T13:47:05Z</time>
      </trkpt>
      <trkpt lat="59.6808819" lon="17.972066">
        <ele>44.8386</ele>
        <time>2012-05-20T13:47:13Z</time>
      </trkpt>
      <trkpt lat="59.6814096" lon="17.9718686">
        <ele>45.7999</ele>
        <time>2012-05-20T13:47:22Z</time>
      </trkpt>
      <trkpt lat="59.6819107" lon="17.9717548">
        <ele>47.7225</ele>
        <time>2012-05-20T13:47:30Z</time>
      </trkpt>
      <trkpt lat="59.6822764" lon="17.9717849">
        <ele>48.684</ele>
        <time>2012-05-20T13:47:36Z</time>
      </trkpt>
      <trkpt lat="59.6827079" lon="17.9718993">
        <ele>49.1646</ele>
        <time>2012-05-20T13:47:43Z</time>
      </trkpt>
      <trkpt lat="59.6831356" lon="17.9721894">
        <ele>48.2034</ele>
        <time>2012-05-20T13:47:50Z</time>
      </trkpt>
      <trkpt lat="59.683628" lon="17.9726189">
        <ele>46.2806</ele>
        <time>2012-05-20T13:47:58Z</time>
      </trkpt>
      <trkpt lat="59.6839864" lon="17.9727563">
        <ele>46.2806</ele>
        <time>2012-05-20T13:48:03Z</time>
      </trkpt>
      <trkpt lat="59.684355" lon="17.9726415">
        <ele>43.8773</ele>
        <time>2012-05-20T13:48:08Z</time>
      </trkpt>
      <trkpt lat="59.6847302" lon="17.9723543">
        <ele>42.4354</ele>
        <time>2012-05-20T13:48:14Z</time>
      </trkpt>
      <trkpt lat="59.6853178" lon="17.9719148">
        <ele>42.4354</ele>
        <time>2012-05-20T13:48:24Z</time>
      </trkpt>
      <trkpt lat="59.685788" lon="17.9716072">
        <ele>40.5128</ele>
        <time>2012-05-20T13:48:32Z</time>
      </trkpt>
      <trkpt lat="59.6862488" lon="17.9712881">
        <ele>39.0707</ele>
        <time>2012-05-20T13:48:39Z</time>
      </trkpt>
      <trkpt lat="59.6866584" lon="17.9710037">
        <ele>36.1868</ele>
        <time>2012-05-20T13:48:45Z</time>
      </trkpt>
      <trkpt lat="59.687108" lon="17.9707051">
        <ele>33.7834</ele>
        <time>2012-05-20T13:48:51Z</time>
      </trkpt>
      <trkpt lat="59.6875498" lon="17.97053">
        <ele>32.8223</ele>
        <time>2012-05-20T13:48:56Z</time>
      </trkpt>
      <trkpt lat="59.6882433" lon="17.9704259">
        <ele>31.8607</ele>
        <time>2012-05-20T13:49:03Z</time>
      </trkpt>
      <trkpt lat="59.6883387" lon="17.970436">
        <ele>31.8607</ele>
        <time>2012-05-20T13:49:04Z</time>
      </trkpt>
      <trkpt lat="59.6888184" lon="17.9706958">
        <ele>30.4188</ele>
        <time>2012-05-20T13:49:10Z</time>
      </trkpt>
      <trkpt lat="59.6891415" lon="17.9709032">
        <ele>31.8607</ele>
        <time>2012-05-20T13:49:15Z</time>
      </trkpt>
      <trkpt lat="59.6894848" lon="17.9710372">
        <ele>35.7061</ele>
        <time>2012-05-20T13:49:21Z</time>
      </trkpt>
      <trkpt lat="59.6895414" lon="17.9710483">
        <ele>35.7061</ele>
        <time>2012-05-20T13:49:22Z</time>
      </trkpt>
      <trkpt lat="59.6897164" lon="17.9710556">
        <ele>35.7061</ele>
        <time>2012-05-20T13:49:25Z</time>
      </trkpt>
      <trkpt lat="59.6900486" lon="17.971037">
        <ele>34.2642</ele>
        <time>2012-05-20T13:49:30Z</time>
      </trkpt>
      <trkpt lat="59.6903786" lon="17.9712059">
        <ele>33.3029</ele>
        <time>2012-05-20T13:49:35Z</time>
      </trkpt>
      <trkpt lat="59.6904942" lon="17.9714155">
        <ele>31.3801</ele>
        <time>2012-05-20T13:49:37Z</time>
      </trkpt>
      <trkpt lat="59.6909391" lon="17.9725821">
        <ele>28.9769</ele>
        <time>2012-05-20T13:49:46Z</time>
      </trkpt>
      <trkpt lat="59.6912184" lon="17.9731861">
        <ele>28.0155</ele>
        <time>2012-05-20T13:49:51Z</time>
      </trkpt>
      <trkpt lat="59.6912858" lon="17.9732887">
        <ele>27.5349</ele>
        <time>2012-05-20T13:49:52Z</time>
      </trkpt>
      <trkpt lat="59.6916576" lon="17.9735787">
        <ele>28.9769</ele>
        <time>2012-05-20T13:49:57Z</time>
      </trkpt>
      <trkpt lat="59.6922068" lon="17.9736833">
        <ele>31.8607</ele>
        <time>2012-05-20T13:50:05Z</time>
      </trkpt>
      <trkpt lat="59.6925304" lon="17.9737448">
        <ele>32.8223</ele>
        <time>2012-05-20T13:50:10Z</time>
      </trkpt>
      <trkpt lat="59.69282" lon="17.9737782">
        <ele>32.3416</ele>
        <time>2012-05-20T13:50:15Z</time>
      </trkpt>
      <trkpt lat="59.6931583" lon="17.9738917">
        <ele>28.0155</ele>
        <time>2012-05-20T13:50:21Z</time>
      </trkpt>
      <trkpt lat="59.6935062" lon="17.9741285">
        <ele>24.651</ele>
        <time>2012-05-20T13:50:26Z</time>
      </trkpt>
      <trkpt lat="59.6939962" lon="17.9746355">
        <ele>21.767</ele>
        <time>2012-05-20T13:50:33Z</time>
      </trkpt>
      <trkpt lat="59.6944419" lon="17.9750999">
        <ele>23.209</ele>
        <time>2012-05-20T13:50:40Z</time>
      </trkpt>
      <trkpt lat="59.6947568" lon="17.9752296">
        <ele>23.6896</ele>
        <time>2012-05-20T13:50:45Z</time>
      </trkpt>
      <trkpt lat="59.6948195" lon="17.975226">
        <ele>23.6896</ele>
        <time>2012-05-20T13:50:46Z</time>
      </trkpt>
      <trkpt lat="59.6953514" lon="17.9749618">
        <ele>23.209</ele>
        <time>2012-05-20T13:50:54Z</time>
      </trkpt>
      <trkpt lat="59.6958566" lon="17.974555">
        <ele>22.2476</ele>
        <time>2012-05-20T13:51:01Z</time>
      </trkpt>
      <trkpt lat="59.6959986" lon="17.9744728">
        <ele>22.2476</ele>
        <time>2012-05-20T13:51:03Z</time>
      </trkpt>
      <trkpt lat="59.6964171" lon="17.974374">
        <ele>23.6896</ele>
        <time>2012-05-20T13:51:10Z</time>
      </trkpt>
      <trkpt lat="59.6967246" lon="17.9743642">
        <ele>23.209</ele>
        <time>2012-05-20T13:51:15Z</time>
      </trkpt>
      <trkpt lat="59.6970676" lon="17.9741826">
        <ele>22.7283</ele>
        <time>2012-05-20T13:51:20Z</time>
      </trkpt>
      <trkpt lat="59.6975264" lon="17.9737103">
        <ele>21.2864</ele>
        <time>2012-05-20T13:51:27Z</time>
      </trkpt>
      <trkpt lat="59.6979009" lon="17.9733814">
        <ele>21.767</ele>
        <time>2012-05-20T13:51:33Z</time>
      </trkpt>
      <trkpt lat="59.6983415" lon="17.9731755">
        <ele>21.767</ele>
        <time>2012-05-20T13:51:40Z</time>
      </trkpt>
      <trkpt lat="59.6986839" lon="17.9730504">
        <ele>22.2476</ele>
        <time>2012-05-20T13:51:46Z</time>
      </trkpt>
      <trkpt lat="59.699004" lon="17.9729738">
        <ele>22.7283</ele>
        <time>2012-05-20T13:51:52Z</time>
      </trkpt>
      <trkpt lat="59.6992537" lon="17.9731716">
        <ele>22.7283</ele>
        <time>2012-05-20T13:51:57Z</time>
      </trkpt>
      <trkpt lat="59.6993843" lon="17.9734183">
        <ele>22.7283</ele>
        <time>2012-05-20T13:52:00Z</time>
      </trkpt>
      <trkpt lat="59.6997754" lon="17.9743634">
        <ele>21.2864</ele>
        <time>2012-05-20T13:52:09Z</time>
      </trkpt>
      <trkpt lat="59.7001835" lon="17.9751968">
        <ele>19.3638</ele>
        <time>2012-05-20T13:52:17Z</time>
      </trkpt>
      <trkpt lat="59.7004363" lon="17.9758584">
        <ele>18.8831</ele>
        <time>2012-05-20T13:52:23Z</time>
      </trkpt>
      <trkpt lat="59.7004723" lon="17.9759735">
        <ele>18.8831</ele>
        <time>2012-05-20T13:52:24Z</time>
      </trkpt>
      <trkpt lat="59.7007259" lon="17.9762347">
        <ele>20.8057</ele>
        <time>2012-05-20T13:52:28Z</time>
      </trkpt>
      <trkpt lat="59.7009363" lon="17.9760741">
        <ele>22.7283</ele>
        <time>2012-05-20T13:52:31Z</time>
      </trkpt>
      <trkpt lat="59.7012747" lon="17.9757093">
        <ele>25.1317</ele>
        <time>2012-05-20T13:52:38Z</time>
      </trkpt>
      <trkpt lat="59.7015403" lon="17.9754317">
        <ele>24.1703</ele>
        <time>2012-05-20T13:52:44Z</time>
      </trkpt>
      <trkpt lat="59.7015819" lon="17.9753911">
        <ele>23.6896</ele>
        <time>2012-05-20T13:52:45Z</time>
      </trkpt>
      <trkpt lat="59.7017489" lon="17.9754172">
        <ele>23.209</ele>
        <time>2012-05-20T13:52:49Z</time>
      </trkpt>
      <trkpt lat="59.7018187" lon="17.9755652">
        <ele>22.2476</ele>
        <time>2012-05-20T13:52:51Z</time>
      </trkpt>
      <trkpt lat="59.7021124" lon="17.9764527">
        <ele>21.767</ele>
        <time>2012-05-20T13:52:59Z</time>
      </trkpt>
      <trkpt lat="59.7023945" lon="17.9772562">
        <ele>20.8057</ele>
        <time>2012-05-20T13:53:06Z</time>
      </trkpt>
      <trkpt lat="59.7027759" lon="17.9783575">
        <ele>18.8831</ele>
        <time>2012-05-20T13:53:16Z</time>
      </trkpt>
      <trkpt lat="59.703146" lon="17.9793981">
        <ele>15.999</ele>
        <time>2012-05-20T13:53:25Z</time>
      </trkpt>
      <trkpt lat="59.703487" lon="17.9803469">
        <ele>13.1151</ele>
        <time>2012-05-20T13:53:32Z</time>
      </trkpt>
      <trkpt lat="59.7039448" lon="17.9816083">
        <ele>10.2312</ele>
        <time>2012-05-20T13:53:40Z</time>
      </trkpt>
      <trkpt lat="59.7044359" lon="17.9828087">
        <ele>12.1538</ele>
        <time>2012-05-20T13:53:48Z</time>
      </trkpt>
      <trkpt lat="59.7048357" lon="17.9836758">
        <ele>12.1538</ele>
        <time>2012-05-20T13:53:55Z</time>
      </trkpt>
      <trkpt lat="59.705042" lon="17.9838436">
        <ele>12.6344</ele>
        <time>2012-05-20T13:53:58Z</time>
      </trkpt>
      <trkpt lat="59.7052419" lon="17.9836815">
        <ele>13.1151</ele>
        <time>2012-05-20T13:54:01Z</time>
      </trkpt>
      <trkpt lat="59.7052998" lon="17.9836011">
        <ele>13.5958</ele>
        <time>2012-05-20T13:54:02Z</time>
      </trkpt>
      <trkpt lat="59.7057462" lon="17.9827595">
        <ele>15.5184</ele>
        <time>2012-05-20T13:54:11Z</time>
      </trkpt>
      <trkpt lat="59.7060053" lon="17.9821989">
        <ele>16.4797</ele>
        <time>2012-05-20T13:54:18Z</time>
      </trkpt>
      <trkpt lat="59.7062003" lon="17.9817367">
        <ele>17.4412</ele>
        <time>2012-05-20T13:54:25Z</time>
      </trkpt>
      <trkpt lat="59.7064074" lon="17.9811627">
        <ele>18.4023</ele>
        <time>2012-05-20T13:54:33Z</time>
      </trkpt>
      <trkpt lat="59.706638" lon="17.9804179">
        <ele>19.3638</ele>
        <time>2012-05-20T13:54:42Z</time>
      </trkpt>
      <trkpt lat="59.7068165" lon="17.9797168">
        <ele>21.2864</ele>
        <time>2012-05-20T13:54:50Z</time>
      </trkpt>
      <trkpt lat="59.706971" lon="17.9789411">
        <ele>23.209</ele>
        <time>2012-05-20T13:54:59Z</time>
      </trkpt>
      <trkpt lat="59.7071445" lon="17.9779231">
        <ele>24.1703</ele>
        <time>2012-05-20T13:55:11Z</time>
      </trkpt>
      <trkpt lat="59.7072721" lon="17.9771174">
        <ele>24.651</ele>
        <time>2012-05-20T13:55:20Z</time>
      </trkpt>
      <trkpt lat="59.7073811" lon="17.976375">
        <ele>26.0929</ele>
        <time>2012-05-20T13:55:29Z</time>
      </trkpt>
      <trkpt lat="59.7074486" lon="17.9758524">
        <ele>27.0543</ele>
        <time>2012-05-20T13:55:37Z</time>
      </trkpt>
      <trkpt lat="59.7075102" lon="17.9752786">
        <ele>27.5349</ele>
        <time>2012-05-20T13:55:45Z</time>
      </trkpt>
      <trkpt lat="59.7075644" lon="17.9747221">
        <ele>27.0543</ele>
        <time>2012-05-20T13:55:52Z</time>
      </trkpt>
      <trkpt lat="59.7076278" lon="17.9738651">
        <ele>29.9381</ele>
        <time>2012-05-20T13:56:02Z</time>
      </trkpt>
      <trkpt lat="59.7076765" lon="17.9733736">
        <ele>29.9381</ele>
        <time>2012-05-20T13:56:09Z</time>
      </trkpt>
      <trkpt lat="59.707759" lon="17.9729173">
        <ele>30.4188</ele>
        <time>2012-05-20T13:56:16Z</time>
      </trkpt>
      <trkpt lat="59.7079016" lon="17.9722784">
        <ele>31.8607</ele>
        <time>2012-05-20T13:56:26Z</time>
      </trkpt>
      <trkpt lat="59.7080387" lon="17.9718144">
        <ele>34.7449</ele>
        <time>2012-05-20T13:56:34Z</time>
      </trkpt>
      <trkpt lat="59.7081764" lon="17.9715321">
        <ele>35.7061</ele>
        <time>2012-05-20T13:56:40Z</time>
      </trkpt>
      <trkpt lat="59.7084379" lon="17.9711304">
        <ele>36.6675</ele>
        <time>2012-05-20T13:56:50Z</time>
      </trkpt>
      <trkpt lat="59.7086674" lon="17.9708131">
        <ele>36.1868</ele>
        <time>2012-05-20T13:56:58Z</time>
      </trkpt>
      <trkpt lat="59.7089166" lon="17.9705036">
        <ele>35.2255</ele>
        <time>2012-05-20T13:57:06Z</time>
      </trkpt>
      <trkpt lat="59.7091316" lon="17.9701879">
        <ele>32.8223</ele>
        <time>2012-05-20T13:57:13Z</time>
      </trkpt>
      <trkpt lat="59.709337" lon="17.9697879">
        <ele>33.7834</ele>
        <time>2012-05-20T13:57:21Z</time>
      </trkpt>
      <trkpt lat="59.709588" lon="17.9692685">
        <ele>36.6675</ele>
        <time>2012-05-20T13:57:29Z</time>
      </trkpt>
      <trkpt lat="59.7098659" lon="17.9686882">
        <ele>39.0707</ele>
        <time>2012-05-20T13:57:37Z</time>
      </trkpt>
      <trkpt lat="59.709962" lon="17.968494">
        <ele>40.0321</ele>
        <time>2012-05-20T13:57:40Z</time>
      </trkpt>
      <trkpt lat="59.7103136" lon="17.9680024">
        <ele>39.5513</ele>
        <time>2012-05-20T13:57:50Z</time>
      </trkpt>
      <trkpt lat="59.7106262" lon="17.9676434">
        <ele>40.0321</ele>
        <time>2012-05-20T13:57:59Z</time>
      </trkpt>
      <trkpt lat="59.7109141" lon="17.9673218">
        <ele>40.0321</ele>
        <time>2012-05-20T13:58:08Z</time>
      </trkpt>
      <trkpt lat="59.7111605" lon="17.9670269">
        <ele>41.474</ele>
        <time>2012-05-20T13:58:16Z</time>
      </trkpt>
      <trkpt lat="59.7113647" lon="17.9667194">
        <ele>42.916</ele>
        <time>2012-05-20T13:58:24Z</time>
      </trkpt>
      <trkpt lat="59.7116218" lon="17.9663792">
        <ele>44.8386</ele>
        <time>2012-05-20T13:58:33Z</time>
      </trkpt>
      <trkpt lat="59.7118813" lon="17.9662252">
        <ele>46.7612</ele>
        <time>2012-05-20T13:58:40Z</time>
      </trkpt>
      <trkpt lat="59.7122049" lon="17.9661992">
        <ele>47.7225</ele>
        <time>2012-05-20T13:58:47Z</time>
      </trkpt>
      <trkpt lat="59.7125883" lon="17.9662441">
        <ele>49.1646</ele>
        <time>2012-05-20T13:58:54Z</time>
      </trkpt>
      <trkpt lat="59.7126416" lon="17.9662313">
        <ele>49.1646</ele>
        <time>2012-05-20T13:58:55Z</time>
      </trkpt>
      <trkpt lat="59.7128291" lon="17.9661686">
        <ele>53.4905</ele>
        <time>2012-05-20T13:59:25Z</time>
      </trkpt>
      <trkpt lat="59.7128452" lon="17.9661541">
        <ele>53.4905</ele>
        <time>2012-05-20T13:59:26Z</time>
      </trkpt>
      <trkpt lat="59.7128861" lon="17.9660883">
        <ele>53.0098</ele>
        <time>2012-05-20T13:59:27Z</time>
      </trkpt>
      <trkpt lat="59.7130789" lon="17.9657885">
        <ele>51.0872</ele>
        <time>2012-05-20T13:59:32Z</time>
      </trkpt>
      <trkpt lat="59.7132871" lon="17.9653472">
        <ele>46.7612</ele>
        <time>2012-05-20T13:59:36Z</time>
      </trkpt>
      <trkpt lat="59.7136071" lon="17.9648994">
        <ele>44.358</ele>
        <time>2012-05-20T13:59:41Z</time>
      </trkpt>
      <trkpt lat="59.7141326" lon="17.9642634">
        <ele>43.8773</ele>
        <time>2012-05-20T13:59:49Z</time>
      </trkpt>
      <trkpt lat="59.714423" lon="17.9638232">
        <ele>43.3966</ele>
        <time>2012-05-20T13:59:54Z</time>
      </trkpt>
      <trkpt lat="59.7147976" lon="17.9631893">
        <ele>40.9934</ele>
        <time>2012-05-20T14:00:01Z</time>
      </trkpt>
      <trkpt lat="59.7151813" lon="17.9626643">
        <ele>39.5513</ele>
        <time>2012-05-20T14:00:07Z</time>
      </trkpt>
      <trkpt lat="59.7155715" lon="17.962188">
        <ele>39.0707</ele>
        <time>2012-05-20T14:00:13Z</time>
      </trkpt>
      <trkpt lat="59.7158715" lon="17.961809">
        <ele>38.1094</ele>
        <time>2012-05-20T14:00:18Z</time>
      </trkpt>
      <trkpt lat="59.7162433" lon="17.9613597">
        <ele>38.5901</ele>
        <time>2012-05-20T14:00:24Z</time>
      </trkpt>
      <trkpt lat="59.7166366" lon="17.9610269">
        <ele>39.5513</ele>
        <time>2012-05-20T14:00:30Z</time>
      </trkpt>
      <trkpt lat="59.7171031" lon="17.9607364">
        <ele>40.0321</ele>
        <time>2012-05-20T14:00:37Z</time>
      </trkpt>
      <trkpt lat="59.7176171" lon="17.9605348">
        <ele>40.9934</ele>
        <time>2012-05-20T14:00:45Z</time>
      </trkpt>
      <trkpt lat="59.7180455" lon="17.9602843">
        <ele>41.474</ele>
        <time>2012-05-20T14:00:52Z</time>
      </trkpt>
      <trkpt lat="59.7184424" lon="17.9600069">
        <ele>40.0321</ele>
        <time>2012-05-20T14:00:58Z</time>
      </trkpt>
      <trkpt lat="59.7185189" lon="17.9599743">
        <ele>39.5513</ele>
        <time>2012-05-20T14:00:59Z</time>
      </trkpt>
      <trkpt lat="59.7188442" lon="17.9599679">
        <ele>37.6287</ele>
        <time>2012-05-20T14:01:03Z</time>
      </trkpt>
      <trkpt lat="59.719326" lon="17.9602058">
        <ele>35.7061</ele>
        <time>2012-05-20T14:01:09Z</time>
      </trkpt>
      <trkpt lat="59.7199357" lon="17.9605802">
        <ele>33.7834</ele>
        <time>2012-05-20T14:01:17Z</time>
      </trkpt>
      <trkpt lat="59.7205645" lon="17.9608171">
        <ele>33.7834</ele>
        <time>2012-05-20T14:01:25Z</time>
      </trkpt>
      <trkpt lat="59.7211086" lon="17.9608094">
        <ele>33.7834</ele>
        <time>2012-05-20T14:01:32Z</time>
      </trkpt>
      <trkpt lat="59.7216367" lon="17.9606394">
        <ele>33.7834</ele>
        <time>2012-05-20T14:01:39Z</time>
      </trkpt>
      <trkpt lat="59.722241" lon="17.9604098">
        <ele>33.3029</ele>
        <time>2012-05-20T14:01:47Z</time>
      </trkpt>
      <trkpt lat="59.722776" lon="17.9600816">
        <ele>33.7834</ele>
        <time>2012-05-20T14:01:54Z</time>
      </trkpt>
      <trkpt lat="59.7229079" lon="17.9599328">
        <ele>33.3029</ele>
        <time>2012-05-20T14:01:56Z</time>
      </trkpt>
      <trkpt lat="59.7232816" lon="17.9592616">
        <ele>33.7834</ele>
        <time>2012-05-20T14:02:03Z</time>
      </trkpt>
      <trkpt lat="59.7236348" lon="17.9584213">
        <ele>35.2255</ele>
        <time>2012-05-20T14:02:11Z</time>
      </trkpt>
      <trkpt lat="59.7239242" lon="17.9577369">
        <ele>38.1094</ele>
        <time>2012-05-20T14:02:18Z</time>
      </trkpt>
      <trkpt lat="59.7240695" lon="17.9575194">
        <ele>38.1094</ele>
        <time>2012-05-20T14:02:21Z</time>
      </trkpt>
      <trkpt lat="59.7242373" lon="17.9573801">
        <ele>39.0707</ele>
        <time>2012-05-20T14:02:24Z</time>
      </trkpt>
      <trkpt lat="59.7246361" lon="17.9572935">
        <ele>40.5128</ele>
        <time>2012-05-20T14:02:31Z</time>
      </trkpt>
      <trkpt lat="59.7251858" lon="17.9572729">
        <ele>40.5128</ele>
        <time>2012-05-20T14:02:40Z</time>
      </trkpt>
      <trkpt lat="59.7257664" lon="17.9572526">
        <ele>37.1481</ele>
        <time>2012-05-20T14:02:48Z</time>
      </trkpt>
      <trkpt lat="59.7265194" lon="17.9572211">
        <ele>35.2255</ele>
        <time>2012-05-20T14:02:57Z</time>
      </trkpt>
      <trkpt lat="59.7273319" lon="17.9571918">
        <ele>32.8223</ele>
        <time>2012-05-20T14:03:06Z</time>
      </trkpt>
      <trkpt lat="59.7282254" lon="17.957151">
        <ele>28.9769</ele>
        <time>2012-05-20T14:03:15Z</time>
      </trkpt>
      <trkpt lat="59.7288435" lon="17.9569257">
        <ele>25.1317</ele>
        <time>2012-05-20T14:03:21Z</time>
      </trkpt>
      <trkpt lat="59.7293307" lon="17.9565216">
        <ele>22.2476</ele>
        <time>2012-05-20T14:03:26Z</time>
      </trkpt>
      <trkpt lat="59.729809" lon="17.9558586">
        <ele>19.8444</ele>
        <time>2012-05-20T14:03:32Z</time>
      </trkpt>
      <trkpt lat="59.7301442" lon="17.9551913">
        <ele>19.8444</ele>
        <time>2012-05-20T14:03:37Z</time>
      </trkpt>
      <trkpt lat="59.730452" lon="17.9543952">
        <ele>21.767</ele>
        <time>2012-05-20T14:03:43Z</time>
      </trkpt>
      <trkpt lat="59.730873" lon="17.9532848">
        <ele>24.1703</ele>
        <time>2012-05-20T14:03:52Z</time>
      </trkpt>
      <trkpt lat="59.7313335" lon="17.9520635">
        <ele>24.651</ele>
        <time>2012-05-20T14:04:02Z</time>
      </trkpt>
      <trkpt lat="59.7317102" lon="17.9509488">
        <ele>26.0929</ele>
        <time>2012-05-20T14:04:11Z</time>
      </trkpt>
      <trkpt lat="59.7319955" lon="17.9499569">
        <ele>26.0929</ele>
        <time>2012-05-20T14:04:19Z</time>
      </trkpt>
      <trkpt lat="59.7322017" lon="17.9491261">
        <ele>26.5736</ele>
        <time>2012-05-20T14:04:26Z</time>
      </trkpt>
      <trkpt lat="59.7324085" lon="17.9481085">
        <ele>26.5736</ele>
        <time>2012-05-20T14:04:34Z</time>
      </trkpt>
      <trkpt lat="59.7326999" lon="17.9466365">
        <ele>25.1317</ele>
        <time>2012-05-20T14:04:45Z</time>
      </trkpt>
      <trkpt lat="59.7330058" lon="17.9454107">
        <ele>25.6123</ele>
        <time>2012-05-20T14:04:54Z</time>
      </trkpt>
      <trkpt lat="59.7333848" lon="17.944065">
        <ele>25.1317</ele>
        <time>2012-05-20T14:05:04Z</time>
      </trkpt>
      <trkpt lat="59.7336911" lon="17.942854">
        <ele>24.1703</ele>
        <time>2012-05-20T14:05:13Z</time>
      </trkpt>
      <trkpt lat="59.7339027" lon="17.9416902">
        <ele>25.1317</ele>
        <time>2012-05-20T14:05:22Z</time>
      </trkpt>
      <trkpt lat="59.7339829" lon="17.9410217">
        <ele>27.0543</ele>
        <time>2012-05-20T14:05:28Z</time>
      </trkpt>
      <trkpt lat="59.7340299" lon="17.9405069">
        <ele>28.9769</ele>
        <time>2012-05-20T14:05:34Z</time>
      </trkpt>
      <trkpt lat="59.7340596" lon="17.9397979">
        <ele>30.8995</ele>
        <time>2012-05-20T14:05:44Z</time>
      </trkpt>
      <trkpt lat="59.734064" lon="17.9391808">
        <ele>31.8607</ele>
        <time>2012-05-20T14:05:53Z</time>
      </trkpt>
      <trkpt lat="59.7340428" lon="17.9385769">
        <ele>34.2642</ele>
        <time>2012-05-20T14:06:02Z</time>
      </trkpt>
      <trkpt lat="59.7340086" lon="17.9380364">
        <ele>37.6287</ele>
        <time>2012-05-20T14:06:10Z</time>
      </trkpt>
      <trkpt lat="59.7339537" lon="17.9374729">
        <ele>42.4354</ele>
        <time>2012-05-20T14:06:18Z</time>
      </trkpt>
      <trkpt lat="59.7338681" lon="17.9368156">
        <ele>47.7225</ele>
        <time>2012-05-20T14:06:27Z</time>
      </trkpt>
      <trkpt lat="59.7337973" lon="17.9361166">
        <ele>48.2034</ele>
        <time>2012-05-20T14:06:36Z</time>
      </trkpt>
      <trkpt lat="59.733727" lon="17.9354577">
        <ele>45.3192</ele>
        <time>2012-05-20T14:06:44Z</time>
      </trkpt>
      <trkpt lat="59.7336633" lon="17.9345358">
        <ele>44.8386</ele>
        <time>2012-05-20T14:06:54Z</time>
      </trkpt>
      <trkpt lat="59.7336764" lon="17.9338479">
        <ele>41.9547</ele>
        <time>2012-05-20T14:07:01Z</time>
      </trkpt>
      <trkpt lat="59.7337812" lon="17.9331237">
        <ele>40.0321</ele>
        <time>2012-05-20T14:07:08Z</time>
      </trkpt>
      <trkpt lat="59.7339749" lon="17.9324383">
        <ele>40.0321</ele>
        <time>2012-05-20T14:07:15Z</time>
      </trkpt>
      <trkpt lat="59.7342458" lon="17.9316807">
        <ele>40.0321</ele>
        <time>2012-05-20T14:07:23Z</time>
      </trkpt>
      <trkpt lat="59.7344943" lon="17.9309833">
        <ele>39.0707</ele>
        <time>2012-05-20T14:07:31Z</time>
      </trkpt>
      <trkpt lat="59.7346767" lon="17.9304766">
        <ele>39.0707</ele>
        <time>2012-05-20T14:07:37Z</time>
      </trkpt>
      <trkpt lat="59.7348917" lon="17.929837">
        <ele>37.6287</ele>
        <time>2012-05-20T14:07:44Z</time>
      </trkpt>
      <trkpt lat="59.7351761" lon="17.929222">
        <ele>36.6675</ele>
        <time>2012-05-20T14:07:51Z</time>
      </trkpt>
      <trkpt lat="59.7355292" lon="17.9287244">
        <ele>35.7061</ele>
        <time>2012-05-20T14:07:58Z</time>
      </trkpt>
      <trkpt lat="59.7359257" lon="17.9284207">
        <ele>34.7449</ele>
        <time>2012-05-20T14:08:05Z</time>
      </trkpt>
      <trkpt lat="59.736424" lon="17.9281296">
        <ele>31.8607</ele>
        <time>2012-05-20T14:08:13Z</time>
      </trkpt>
      <trkpt lat="59.7369794" lon="17.9277736">
        <ele>28.9769</ele>
        <time>2012-05-20T14:08:21Z</time>
      </trkpt>
      <trkpt lat="59.737636" lon="17.9272843">
        <ele>26.0929</ele>
        <time>2012-05-20T14:08:30Z</time>
      </trkpt>
      <trkpt lat="59.7382226" lon="17.9266906">
        <ele>22.7283</ele>
        <time>2012-05-20T14:08:38Z</time>
      </trkpt>
      <trkpt lat="59.7388043" lon="17.9259674">
        <ele>21.767</ele>
        <time>2012-05-20T14:08:46Z</time>
      </trkpt>
      <trkpt lat="59.7393305" lon="17.925167">
        <ele>19.8444</ele>
        <time>2012-05-20T14:08:54Z</time>
      </trkpt>
      <trkpt lat="59.7397185" lon="17.9245315">
        <ele>19.3638</ele>
        <time>2012-05-20T14:09:01Z</time>
      </trkpt>
      <trkpt lat="59.7401982" lon="17.9237337">
        <ele>18.4023</ele>
        <time>2012-05-20T14:09:10Z</time>
      </trkpt>
      <trkpt lat="59.7406904" lon="17.9229205">
        <ele>18.8831</ele>
        <time>2012-05-20T14:09:19Z</time>
      </trkpt>
      <trkpt lat="59.7411363" lon="17.922217">
        <ele>21.2864</ele>
        <time>2012-05-20T14:09:27Z</time>
      </trkpt>
      <trkpt lat="59.7415735" lon="17.9215848">
        <ele>21.767</ele>
        <time>2012-05-20T14:09:35Z</time>
      </trkpt>
      <trkpt lat="59.7420426" lon="17.9209173">
        <ele>20.8057</ele>
        <time>2012-05-20T14:09:43Z</time>
      </trkpt>
      <trkpt lat="59.7425868" lon="17.920166">
        <ele>18.8831</ele>
        <time>2012-05-20T14:09:52Z</time>
      </trkpt>
      <trkpt lat="59.7431038" lon="17.9194478">
        <ele>19.8444</ele>
        <time>2012-05-20T14:10:01Z</time>
      </trkpt>
      <trkpt lat="59.7434959" lon="17.9188965">
        <ele>20.8057</ele>
        <time>2012-05-20T14:10:08Z</time>
      </trkpt>
      <trkpt lat="59.7441207" lon="17.9180165">
        <ele>20.8057</ele>
        <time>2012-05-20T14:10:19Z</time>
      </trkpt>
      <trkpt lat="59.7445945" lon="17.9173649">
        <ele>20.325</ele>
        <time>2012-05-20T14:10:27Z</time>
      </trkpt>
      <trkpt lat="59.7451198" lon="17.9166314">
        <ele>18.8831</ele>
        <time>2012-05-20T14:10:36Z</time>
      </trkpt>
      <trkpt lat="59.7456788" lon="17.915874">
        <ele>17.9218</ele>
        <time>2012-05-20T14:10:46Z</time>
      </trkpt>
      <trkpt lat="59.7463" lon="17.9150225">
        <ele>16.9604</ele>
        <time>2012-05-20T14:10:57Z</time>
      </trkpt>
      <trkpt lat="59.7468943" lon="17.9142153">
        <ele>15.5184</ele>
        <time>2012-05-20T14:11:07Z</time>
      </trkpt>
      <trkpt lat="59.7475638" lon="17.9134084">
        <ele>15.5184</ele>
        <time>2012-05-20T14:11:18Z</time>
      </trkpt>
      <trkpt lat="59.7481912" lon="17.9127923">
        <ele>15.5184</ele>
        <time>2012-05-20T14:11:28Z</time>
      </trkpt>
      <trkpt lat="59.7487991" lon="17.9122376">
        <ele>16.4797</ele>
        <time>2012-05-20T14:11:38Z</time>
      </trkpt>
      <trkpt lat="59.7493375" lon="17.9117439">
        <ele>15.5184</ele>
        <time>2012-05-20T14:11:47Z</time>
      </trkpt>
      <trkpt lat="59.749717" lon="17.9113978">
        <ele>15.5184</ele>
        <time>2012-05-20T14:11:54Z</time>
      </trkpt>
      <trkpt lat="59.7500477" lon="17.9111155">
        <ele>15.0377</ele>
        <time>2012-05-20T14:12:01Z</time>
      </trkpt>
      <trkpt lat="59.7501343" lon="17.9110421">
        <ele>15.0377</ele>
        <time>2012-05-20T14:12:03Z</time>
      </trkpt>
      <trkpt lat="59.7504268" lon="17.9109677">
        <ele>15.0377</ele>
        <time>2012-05-20T14:12:09Z</time>
      </trkpt>
      <trkpt lat="59.7504818" lon="17.9109691">
        <ele>15.5184</ele>
        <time>2012-05-20T14:12:10Z</time>
      </trkpt>
      <trkpt lat="59.7509317" lon="17.9111285">
        <ele>16.4797</ele>
        <time>2012-05-20T14:12:18Z</time>
      </trkpt>
      <trkpt lat="59.7514717" lon="17.9113057">
        <ele>16.9604</ele>
        <time>2012-05-20T14:12:27Z</time>
      </trkpt>
      <trkpt lat="59.7519539" lon="17.9113233">
        <ele>17.4412</ele>
        <time>2012-05-20T14:12:35Z</time>
      </trkpt>
      <trkpt lat="59.7522983" lon="17.9111024">
        <ele>17.4412</ele>
        <time>2012-05-20T14:12:41Z</time>
      </trkpt>
      <trkpt lat="59.7525582" lon="17.9107478">
        <ele>17.9218</ele>
        <time>2012-05-20T14:12:46Z</time>
      </trkpt>
      <trkpt lat="59.7529687" lon="17.9099759">
        <ele>18.4023</ele>
        <time>2012-05-20T14:12:55Z</time>
      </trkpt>
      <trkpt lat="59.7534535" lon="17.9090718">
        <ele>17.9218</ele>
        <time>2012-05-20T14:13:05Z</time>
      </trkpt>
      <trkpt lat="59.754019" lon="17.9080956">
        <ele>17.9218</ele>
        <time>2012-05-20T14:13:16Z</time>
      </trkpt>
      <trkpt lat="59.7544673" lon="17.9073277">
        <ele>16.9604</ele>
        <time>2012-05-20T14:13:25Z</time>
      </trkpt>
      <trkpt lat="59.7549439" lon="17.9064053">
        <ele>17.4412</ele>
        <time>2012-05-20T14:13:35Z</time>
      </trkpt>
      <trkpt lat="59.7552024" lon="17.9056749">
        <ele>16.9604</ele>
        <time>2012-05-20T14:13:42Z</time>
      </trkpt>
      <trkpt lat="59.7555764" lon="17.9045068">
        <ele>16.9604</ele>
        <time>2012-05-20T14:13:53Z</time>
      </trkpt>
      <trkpt lat="59.7559591" lon="17.9033107">
        <ele>16.4797</ele>
        <time>2012-05-20T14:14:04Z</time>
      </trkpt>
      <trkpt lat="59.7563174" lon="17.9022135">
        <ele>15.999</ele>
        <time>2012-05-20T14:14:14Z</time>
      </trkpt>
      <trkpt lat="59.7565415" lon="17.9014816">
        <ele>18.4023</ele>
        <time>2012-05-20T14:14:21Z</time>
      </trkpt>
      <trkpt lat="59.7567875" lon="17.9006725">
        <ele>21.767</ele>
        <time>2012-05-20T14:14:30Z</time>
      </trkpt>
      <trkpt lat="59.7569952" lon="17.8999746">
        <ele>23.209</ele>
        <time>2012-05-20T14:14:39Z</time>
      </trkpt>
      <trkpt lat="59.7571554" lon="17.8994174">
        <ele>22.2476</ele>
        <time>2012-05-20T14:14:46Z</time>
      </trkpt>
      <trkpt lat="59.7571987" lon="17.8992367">
        <ele>22.2476</ele>
        <time>2012-05-20T14:14:48Z</time>
      </trkpt>
      <trkpt lat="59.7573892" lon="17.8985517">
        <ele>22.2476</ele>
        <time>2012-05-20T14:14:56Z</time>
      </trkpt>
      <trkpt lat="59.7575369" lon="17.8980669">
        <ele>23.209</ele>
        <time>2012-05-20T14:15:02Z</time>
      </trkpt>
      <trkpt lat="59.7577184" lon="17.8974269">
        <ele>23.6896</ele>
        <time>2012-05-20T14:15:11Z</time>
      </trkpt>
      <trkpt lat="59.7578706" lon="17.8969443">
        <ele>24.651</ele>
        <time>2012-05-20T14:15:19Z</time>
      </trkpt>
      <trkpt lat="59.7580068" lon="17.896472">
        <ele>25.6123</ele>
        <time>2012-05-20T14:15:27Z</time>
      </trkpt>
      <trkpt lat="59.7580992" lon="17.8960374">
        <ele>28.0155</ele>
        <time>2012-05-20T14:15:34Z</time>
      </trkpt>
      <trkpt lat="59.7582032" lon="17.8957041">
        <ele>27.5349</ele>
        <time>2012-05-20T14:15:39Z</time>
      </trkpt>
      <trkpt lat="59.7583528" lon="17.8951913">
        <ele>27.5349</ele>
        <time>2012-05-20T14:15:46Z</time>
      </trkpt>
      <trkpt lat="59.7585124" lon="17.8945677">
        <ele>27.0543</ele>
        <time>2012-05-20T14:15:52Z</time>
      </trkpt>
      <trkpt lat="59.7587565" lon="17.8937597">
        <ele>26.0929</ele>
        <time>2012-05-20T14:15:59Z</time>
      </trkpt>
      <trkpt lat="59.7590342" lon="17.8930339">
        <ele>24.1703</ele>
        <time>2012-05-20T14:16:06Z</time>
      </trkpt>
      <trkpt lat="59.7590734" lon="17.8929303">
        <ele>24.1703</ele>
        <time>2012-05-20T14:16:07Z</time>
      </trkpt>
      <trkpt lat="59.7594268" lon="17.8920532">
        <ele>24.651</ele>
        <time>2012-05-20T14:16:16Z</time>
      </trkpt>
      <trkpt lat="59.7597216" lon="17.8913053">
        <ele>24.1703</ele>
        <time>2012-05-20T14:16:23Z</time>
      </trkpt>
      <trkpt lat="59.7600749" lon="17.8904388">
        <ele>23.209</ele>
        <time>2012-05-20T14:16:30Z</time>
      </trkpt>
      <trkpt lat="59.760605" lon="17.8891705">
        <ele>21.767</ele>
        <time>2012-05-20T14:16:40Z</time>
      </trkpt>
      <trkpt lat="59.7610828" lon="17.8880287">
        <ele>22.2476</ele>
        <time>2012-05-20T14:16:49Z</time>
      </trkpt>
      <trkpt lat="59.7614647" lon="17.8871219">
        <ele>23.209</ele>
        <time>2012-05-20T14:16:57Z</time>
      </trkpt>
      <trkpt lat="59.7617563" lon="17.886435">
        <ele>23.6896</ele>
        <time>2012-05-20T14:17:04Z</time>
      </trkpt>
      <trkpt lat="59.7621155" lon="17.8855697">
        <ele>22.7283</ele>
        <time>2012-05-20T14:17:13Z</time>
      </trkpt>
      <trkpt lat="59.762515" lon="17.8846231">
        <ele>22.7283</ele>
        <time>2012-05-20T14:17:23Z</time>
      </trkpt>
      <trkpt lat="59.7628581" lon="17.8838028">
        <ele>22.7283</ele>
        <time>2012-05-20T14:17:32Z</time>
      </trkpt>
      <trkpt lat="59.7631433" lon="17.883086">
        <ele>21.767</ele>
        <time>2012-05-20T14:17:40Z</time>
      </trkpt>
      <trkpt lat="59.7634719" lon="17.8821904">
        <ele>21.2864</ele>
        <time>2012-05-20T14:17:49Z</time>
      </trkpt>
      <trkpt lat="59.7638302" lon="17.881232">
        <ele>22.7283</ele>
        <time>2012-05-20T14:17:58Z</time>
      </trkpt>
      <trkpt lat="59.7640987" lon="17.8806149">
        <ele>23.6896</ele>
        <time>2012-05-20T14:18:05Z</time>
      </trkpt>
      <trkpt lat="59.7643597" lon="17.8801406">
        <ele>24.1703</ele>
        <time>2012-05-20T14:18:12Z</time>
      </trkpt>
      <trkpt lat="59.7645864" lon="17.8797983">
        <ele>24.1703</ele>
        <time>2012-05-20T14:18:18Z</time>
      </trkpt>
      <trkpt lat="59.7648225" lon="17.8793132">
        <ele>22.2476</ele>
        <time>2012-05-20T14:18:24Z</time>
      </trkpt>
      <trkpt lat="59.7650563" lon="17.8786669">
        <ele>21.2864</ele>
        <time>2012-05-20T14:18:30Z</time>
      </trkpt>
      <trkpt lat="59.7654417" lon="17.8774247">
        <ele>20.8057</ele>
        <time>2012-05-20T14:18:41Z</time>
      </trkpt>
      <trkpt lat="59.7656836" lon="17.8766285">
        <ele>22.7283</ele>
        <time>2012-05-20T14:18:49Z</time>
      </trkpt>
      <trkpt lat="59.7658615" lon="17.8760705">
        <ele>24.1703</ele>
        <time>2012-05-20T14:18:56Z</time>
      </trkpt>
      <trkpt lat="59.7660402" lon="17.8754884">
        <ele>24.651</ele>
        <time>2012-05-20T14:19:03Z</time>
      </trkpt>
      <trkpt lat="59.7663065" lon="17.8746503">
        <ele>23.209</ele>
        <time>2012-05-20T14:19:12Z</time>
      </trkpt>
      <trkpt lat="59.7665326" lon="17.8738919">
        <ele>24.651</ele>
        <time>2012-05-20T14:19:19Z</time>
      </trkpt>
      <trkpt lat="59.7668161" lon="17.8728556">
        <ele>25.6123</ele>
        <time>2012-05-20T14:19:28Z</time>
      </trkpt>
      <trkpt lat="59.7669747" lon="17.872056">
        <ele>27.0543</ele>
        <time>2012-05-20T14:19:35Z</time>
      </trkpt>
      <trkpt lat="59.7670491" lon="17.8713801">
        <ele>26.5736</ele>
        <time>2012-05-20T14:19:41Z</time>
      </trkpt>
      <trkpt lat="59.7670903" lon="17.8704715">
        <ele>24.651</ele>
        <time>2012-05-20T14:19:48Z</time>
      </trkpt>
      <trkpt lat="59.7671283" lon="17.8691836">
        <ele>23.6896</ele>
        <time>2012-05-20T14:19:57Z</time>
      </trkpt>
      <trkpt lat="59.7671726" lon="17.8679818">
        <ele>25.1317</ele>
        <time>2012-05-20T14:20:06Z</time>
      </trkpt>
      <trkpt lat="59.7672161" lon="17.8670475">
        <ele>26.5736</ele>
        <time>2012-05-20T14:20:14Z</time>
      </trkpt>
      <trkpt lat="59.7673135" lon="17.8661386">
        <ele>25.6123</ele>
        <time>2012-05-20T14:20:22Z</time>
      </trkpt>
      <trkpt lat="59.7674512" lon="17.8651261">
        <ele>27.0543</ele>
        <time>2012-05-20T14:20:30Z</time>
      </trkpt>
      <trkpt lat="59.7675439" lon="17.8645568">
        <ele>28.0155</ele>
        <time>2012-05-20T14:20:36Z</time>
      </trkpt>
      <trkpt lat="59.7676341" lon="17.8638926">
        <ele>30.8995</ele>
        <time>2012-05-20T14:20:43Z</time>
      </trkpt>
      <trkpt lat="59.767739" lon="17.8631023">
        <ele>32.8223</ele>
        <time>2012-05-20T14:20:50Z</time>
      </trkpt>
      <trkpt lat="59.7679276" lon="17.8620204">
        <ele>29.9381</ele>
        <time>2012-05-20T14:20:59Z</time>
      </trkpt>
      <trkpt lat="59.7681178" lon="17.861272">
        <ele>28.0155</ele>
        <time>2012-05-20T14:21:06Z</time>
      </trkpt>
      <trkpt lat="59.7683624" lon="17.860619">
        <ele>26.5736</ele>
        <time>2012-05-20T14:21:13Z</time>
      </trkpt>
      <trkpt lat="59.7686116" lon="17.8599855">
        <ele>25.6123</ele>
        <time>2012-05-20T14:21:19Z</time>
      </trkpt>
      <trkpt lat="59.7689491" lon="17.8592041">
        <ele>24.1703</ele>
        <time>2012-05-20T14:21:27Z</time>
      </trkpt>
      <trkpt lat="59.7692399" lon="17.8587521">
        <ele>22.7283</ele>
        <time>2012-05-20T14:21:33Z</time>
      </trkpt>
      <trkpt lat="59.7696153" lon="17.8583796">
        <ele>20.8057</ele>
        <time>2012-05-20T14:21:39Z</time>
      </trkpt>
      <trkpt lat="59.7701382" lon="17.8580048">
        <ele>20.325</ele>
        <time>2012-05-20T14:21:47Z</time>
      </trkpt>
      <trkpt lat="59.7705739" lon="17.8576935">
        <ele>20.8057</ele>
        <time>2012-05-20T14:21:54Z</time>
      </trkpt>
      <trkpt lat="59.7710814" lon="17.857386">
        <ele>21.767</ele>
        <time>2012-05-20T14:22:02Z</time>
      </trkpt>
      <trkpt lat="59.7714727" lon="17.8571414">
        <ele>25.1317</ele>
        <time>2012-05-20T14:22:08Z</time>
      </trkpt>
      <trkpt lat="59.7719381" lon="17.8567706">
        <ele>24.651</ele>
        <time>2012-05-20T14:22:15Z</time>
      </trkpt>
      <trkpt lat="59.7723268" lon="17.8561349">
        <ele>22.7283</ele>
        <time>2012-05-20T14:22:22Z</time>
      </trkpt>
      <trkpt lat="59.7726661" lon="17.8553953">
        <ele>21.2864</ele>
        <time>2012-05-20T14:22:29Z</time>
      </trkpt>
      <trkpt lat="59.7730075" lon="17.854616">
        <ele>20.325</ele>
        <time>2012-05-20T14:22:36Z</time>
      </trkpt>
      <trkpt lat="59.7732417" lon="17.8540574">
        <ele>19.8444</ele>
        <time>2012-05-20T14:22:41Z</time>
      </trkpt>
      <trkpt lat="59.7735041" lon="17.8533143">
        <ele>18.4023</ele>
        <time>2012-05-20T14:22:47Z</time>
      </trkpt>
      <trkpt lat="59.7737606" lon="17.8523824">
        <ele>17.9218</ele>
        <time>2012-05-20T14:22:54Z</time>
      </trkpt>
      <trkpt lat="59.7740233" lon="17.8513801">
        <ele>18.4023</ele>
        <time>2012-05-20T14:23:02Z</time>
      </trkpt>
      <trkpt lat="59.7743403" lon="17.8501927">
        <ele>19.8444</ele>
        <time>2012-05-20T14:23:12Z</time>
      </trkpt>
      <trkpt lat="59.7746449" lon="17.8492885">
        <ele>20.325</ele>
        <time>2012-05-20T14:23:20Z</time>
      </trkpt>
      <trkpt lat="59.7750712" lon="17.8483253">
        <ele>21.2864</ele>
        <time>2012-05-20T14:23:29Z</time>
      </trkpt>
      <trkpt lat="59.7754017" lon="17.8475796">
        <ele>22.2476</ele>
        <time>2012-05-20T14:23:36Z</time>
      </trkpt>
      <trkpt lat="59.7758293" lon="17.8466027">
        <ele>22.7283</ele>
        <time>2012-05-20T14:23:45Z</time>
      </trkpt>
      <trkpt lat="59.7761914" lon="17.8458339">
        <ele>23.6896</ele>
        <time>2012-05-20T14:23:52Z</time>
      </trkpt>
      <trkpt lat="59.7765903" lon="17.8450479">
        <ele>25.6123</ele>
        <time>2012-05-20T14:24:00Z</time>
      </trkpt>
      <trkpt lat="59.7771125" lon="17.8439782">
        <ele>24.1703</ele>
        <time>2012-05-20T14:24:11Z</time>
      </trkpt>
      <trkpt lat="59.7774888" lon="17.8432709">
        <ele>24.651</ele>
        <time>2012-05-20T14:24:19Z</time>
      </trkpt>
      <trkpt lat="59.7778979" lon="17.842719">
        <ele>24.1703</ele>
        <time>2012-05-20T14:24:27Z</time>
      </trkpt>
      <trkpt lat="59.7782916" lon="17.8422538">
        <ele>24.651</ele>
        <time>2012-05-20T14:24:34Z</time>
      </trkpt>
      <trkpt lat="59.7787662" lon="17.8417193">
        <ele>22.7283</ele>
        <time>2012-05-20T14:24:42Z</time>
      </trkpt>
      <trkpt lat="59.7793043" lon="17.8411187">
        <ele>21.767</ele>
        <time>2012-05-20T14:24:51Z</time>
      </trkpt>
      <trkpt lat="59.7798326" lon="17.8405376">
        <ele>22.7283</ele>
        <time>2012-05-20T14:25:00Z</time>
      </trkpt>
      <trkpt lat="59.7803305" lon="17.83996">
        <ele>23.209</ele>
        <time>2012-05-20T14:25:09Z</time>
      </trkpt>
      <trkpt lat="59.7806677" lon="17.8394176">
        <ele>23.6896</ele>
        <time>2012-05-20T14:25:16Z</time>
      </trkpt>
      <trkpt lat="59.7808589" lon="17.8389919">
        <ele>23.6896</ele>
        <time>2012-05-20T14:25:21Z</time>
      </trkpt>
      <trkpt lat="59.7809826" lon="17.8389609">
        <ele>22.2476</ele>
        <time>2012-05-20T14:25:24Z</time>
      </trkpt>
      <trkpt lat="59.7810993" lon="17.8391008">
        <ele>22.2476</ele>
        <time>2012-05-20T14:25:26Z</time>
      </trkpt>
      <trkpt lat="59.7814929" lon="17.8394425">
        <ele>20.325</ele>
        <time>2012-05-20T14:25:32Z</time>
      </trkpt>
      <trkpt lat="59.7821891" lon="17.8396716">
        <ele>21.2864</ele>
        <time>2012-05-20T14:25:42Z</time>
      </trkpt>
      <trkpt lat="59.782674" lon="17.8398669">
        <ele>22.2476</ele>
        <time>2012-05-20T14:25:50Z</time>
      </trkpt>
      <trkpt lat="59.7830982" lon="17.8400333">
        <ele>23.6896</ele>
        <time>2012-05-20T14:25:58Z</time>
      </trkpt>
      <trkpt lat="59.7832449" lon="17.8400664">
        <ele>24.1703</ele>
        <time>2012-05-20T14:26:01Z</time>
      </trkpt>
      <trkpt lat="59.7834219" lon="17.8400125">
        <ele>24.651</ele>
        <time>2012-05-20T14:26:05Z</time>
      </trkpt>
      <trkpt lat="59.7835877" lon="17.8397513">
        <ele>23.6896</ele>
        <time>2012-05-20T14:26:10Z</time>
      </trkpt>
      <trkpt lat="59.7836655" lon="17.8395298">
        <ele>22.2476</ele>
        <time>2012-05-20T14:26:13Z</time>
      </trkpt>
      <trkpt lat="59.7837914" lon="17.8391033">
        <ele>19.3638</ele>
        <time>2012-05-20T14:26:18Z</time>
      </trkpt>
      <trkpt lat="59.7839565" lon="17.8388993">
        <ele>18.4023</ele>
        <time>2012-05-20T14:26:22Z</time>
      </trkpt>
      <trkpt lat="59.7841228" lon="17.8389964">
        <ele>17.4412</ele>
        <time>2012-05-20T14:26:25Z</time>
      </trkpt>
      <trkpt lat="59.7843556" lon="17.8392101">
        <ele>18.8831</ele>
        <time>2012-05-20T14:26:29Z</time>
      </trkpt>
      <trkpt lat="59.7846034" lon="17.8392353">
        <ele>18.4023</ele>
        <time>2012-05-20T14:26:33Z</time>
      </trkpt>
      <trkpt lat="59.7847581" lon="17.8390381">
        <ele>18.8831</ele>
        <time>2012-05-20T14:26:36Z</time>
      </trkpt>
      <trkpt lat="59.7851392" lon="17.8385012">
        <ele>19.8444</ele>
        <time>2012-05-20T14:26:44Z</time>
      </trkpt>
      <trkpt lat="59.785287" lon="17.8382782">
        <ele>19.3638</ele>
        <time>2012-05-20T14:26:47Z</time>
      </trkpt>
      <trkpt lat="59.7855197" lon="17.8376208">
        <ele>15.999</ele>
        <time>2012-05-20T14:26:53Z</time>
      </trkpt>
      <trkpt lat="59.7856193" lon="17.8371411">
        <ele>14.0764</ele>
        <time>2012-05-20T14:26:57Z</time>
      </trkpt>
      <trkpt lat="59.7856969" lon="17.836421">
        <ele>10.7118</ele>
        <time>2012-05-20T14:27:03Z</time>
      </trkpt>
      <trkpt lat="59.7858551" lon="17.8358873">
        <ele>9.75061</ele>
        <time>2012-05-20T14:27:08Z</time>
      </trkpt>
      <trkpt lat="59.786069" lon="17.8355576">
        <ele>10.7118</ele>
        <time>2012-05-20T14:27:12Z</time>
      </trkpt>
      <trkpt lat="59.7862688" lon="17.8355249">
        <ele>11.6732</ele>
        <time>2012-05-20T14:27:15Z</time>
      </trkpt>
      <trkpt lat="59.7864731" lon="17.8356822">
        <ele>14.0764</ele>
        <time>2012-05-20T14:27:18Z</time>
      </trkpt>
      <trkpt lat="59.7869911" lon="17.8363128">
        <ele>16.4797</ele>
        <time>2012-05-20T14:27:27Z</time>
      </trkpt>
      <trkpt lat="59.7873998" lon="17.8368379">
        <ele>16.4797</ele>
        <time>2012-05-20T14:27:34Z</time>
      </trkpt>
      <trkpt lat="59.7877399" lon="17.8373675">
        <ele>16.4797</ele>
        <time>2012-05-20T14:27:40Z</time>
      </trkpt>
      <trkpt lat="59.7880968" lon="17.8380383">
        <ele>15.999</ele>
        <time>2012-05-20T14:27:47Z</time>
      </trkpt>
      <trkpt lat="59.788379" lon="17.8385768">
        <ele>16.4797</ele>
        <time>2012-05-20T14:27:53Z</time>
      </trkpt>
      <trkpt lat="59.7884845" lon="17.838722">
        <ele>16.4797</ele>
        <time>2012-05-20T14:27:55Z</time>
      </trkpt>
      <trkpt lat="59.7888788" lon="17.8389876">
        <ele>17.4412</ele>
        <time>2012-05-20T14:28:02Z</time>
      </trkpt>
      <trkpt lat="59.7892026" lon="17.8391658">
        <ele>18.8831</ele>
        <time>2012-05-20T14:28:08Z</time>
      </trkpt>
      <trkpt lat="59.7896634" lon="17.8394011">
        <ele>20.325</ele>
        <time>2012-05-20T14:28:16Z</time>
      </trkpt>
      <trkpt lat="59.78999" lon="17.8395866">
        <ele>18.8831</ele>
        <time>2012-05-20T14:28:22Z</time>
      </trkpt>
      <trkpt lat="59.790081" lon="17.8396333">
        <ele>19.8444</ele>
        <time>2012-05-20T14:28:24Z</time>
      </trkpt>
      <trkpt lat="59.7902823" lon="17.8397227">
        <ele>21.767</ele>
        <time>2012-05-20T14:28:29Z</time>
      </trkpt>
      <trkpt lat="59.7905706" lon="17.839861">
        <ele>23.6896</ele>
        <time>2012-05-20T14:28:36Z</time>
      </trkpt>
      <trkpt lat="59.7907752" lon="17.839744">
        <ele>25.1317</ele>
        <time>2012-05-20T14:28:41Z</time>
      </trkpt>
      <trkpt lat="59.7908755" lon="17.8395654">
        <ele>26.0929</ele>
        <time>2012-05-20T14:28:44Z</time>
      </trkpt>
      <trkpt lat="59.7910684" lon="17.8389469">
        <ele>27.0543</ele>
        <time>2012-05-20T14:28:52Z</time>
      </trkpt>
      <trkpt lat="59.7911243" lon="17.8387162">
        <ele>27.0543</ele>
        <time>2012-05-20T14:28:55Z</time>
      </trkpt>
      <trkpt lat="59.7912371" lon="17.8384715">
        <ele>28.0155</ele>
        <time>2012-05-20T14:28:59Z</time>
      </trkpt>
      <trkpt lat="59.7915558" lon="17.8381655">
        <ele>28.0155</ele>
        <time>2012-05-20T14:29:06Z</time>
      </trkpt>
      <trkpt lat="59.7919628" lon="17.8377672">
        <ele>28.0155</ele>
        <time>2012-05-20T14:29:14Z</time>
      </trkpt>
      <trkpt lat="59.7924478" lon="17.8371866">
        <ele>28.0155</ele>
        <time>2012-05-20T14:29:24Z</time>
      </trkpt>
      <trkpt lat="59.7928877" lon="17.836875">
        <ele>28.9769</ele>
        <time>2012-05-20T14:29:32Z</time>
      </trkpt>
      <trkpt lat="59.7934642" lon="17.8365238">
        <ele>29.9381</ele>
        <time>2012-05-20T14:29:42Z</time>
      </trkpt>
      <trkpt lat="59.7938506" lon="17.8363162">
        <ele>30.4188</ele>
        <time>2012-05-20T14:29:49Z</time>
      </trkpt>
      <trkpt lat="59.7940597" lon="17.8361886">
        <ele>31.3801</ele>
        <time>2012-05-20T14:29:53Z</time>
      </trkpt>
      <trkpt lat="59.7942568" lon="17.8358684">
        <ele>32.8223</ele>
        <time>2012-05-20T14:29:58Z</time>
      </trkpt>
      <trkpt lat="59.7942848" lon="17.8357861">
        <ele>33.3029</ele>
        <time>2012-05-20T14:29:59Z</time>
      </trkpt>
      <trkpt lat="59.7945081" lon="17.8351709">
        <ele>34.2642</ele>
        <time>2012-05-20T14:30:07Z</time>
      </trkpt>
      <trkpt lat="59.7945324" lon="17.835095">
        <ele>34.7449</ele>
        <time>2012-05-20T14:30:08Z</time>
      </trkpt>
      <trkpt lat="59.7947736" lon="17.8345405">
        <ele>34.7449</ele>
        <time>2012-05-20T14:30:16Z</time>
      </trkpt>
      <trkpt lat="59.794894" lon="17.8343735">
        <ele>34.2642</ele>
        <time>2012-05-20T14:30:19Z</time>
      </trkpt>
      <trkpt lat="59.7951532" lon="17.8343294">
        <ele>35.7061</ele>
        <time>2012-05-20T14:30:24Z</time>
      </trkpt>
      <trkpt lat="59.7953391" lon="17.8345255">
        <ele>36.1868</ele>
        <time>2012-05-20T14:30:28Z</time>
      </trkpt>
      <trkpt lat="59.7953777" lon="17.8345967">
        <ele>36.1868</ele>
        <time>2012-05-20T14:30:29Z</time>
      </trkpt>
      <trkpt lat="59.7954507" lon="17.8347427">
        <ele>36.1868</ele>
        <time>2012-05-20T14:30:31Z</time>
      </trkpt>
      <trkpt lat="59.7957186" lon="17.835307">
        <ele>34.2642</ele>
        <time>2012-05-20T14:30:38Z</time>
      </trkpt>
      <trkpt lat="59.796052" lon="17.8359709">
        <ele>34.2642</ele>
        <time>2012-05-20T14:30:46Z</time>
      </trkpt>
      <trkpt lat="59.7962345" lon="17.8364132">
        <ele>33.7834</ele>
        <time>2012-05-20T14:30:51Z</time>
      </trkpt>
      <trkpt lat="59.7963092" lon="17.836612">
        <ele>33.7834</ele>
        <time>2012-05-20T14:30:53Z</time>
      </trkpt>
      <trkpt lat="59.7965269" lon="17.8370009">
        <ele>34.2642</ele>
        <time>2012-05-20T14:30:57Z</time>
      </trkpt>
      <trkpt lat="59.79675" lon="17.8372976">
        <ele>33.7834</ele>
        <time>2012-05-20T14:31:00Z</time>
      </trkpt>
      <trkpt lat="59.7970058" lon="17.8375337">
        <ele>32.8223</ele>
        <time>2012-05-20T14:31:03Z</time>
      </trkpt>
      <trkpt lat="59.7973571" lon="17.8375927">
        <ele>31.8607</ele>
        <time>2012-05-20T14:31:07Z</time>
      </trkpt>
      <trkpt lat="59.7974346" lon="17.8375518">
        <ele>31.3801</ele>
        <time>2012-05-20T14:31:08Z</time>
      </trkpt>
      <trkpt lat="59.7980602" lon="17.8372126">
        <ele>28.4962</ele>
        <time>2012-05-20T14:31:17Z</time>
      </trkpt>
      <trkpt lat="59.7983355" lon="17.836884">
        <ele>29.4575</ele>
        <time>2012-05-20T14:31:22Z</time>
      </trkpt>
      <trkpt lat="59.7986168" lon="17.8364595">
        <ele>30.4188</ele>
        <time>2012-05-20T14:31:27Z</time>
      </trkpt>
      <trkpt lat="59.7990234" lon="17.8360564">
        <ele>30.4188</ele>
        <time>2012-05-20T14:31:33Z</time>
      </trkpt>
      <trkpt lat="59.7994683" lon="17.8356102">
        <ele>26.5736</ele>
        <time>2012-05-20T14:31:40Z</time>
      </trkpt>
      <trkpt lat="59.7998879" lon="17.8352255">
        <ele>26.0929</ele>
        <time>2012-05-20T14:31:47Z</time>
      </trkpt>
      <trkpt lat="59.8000542" lon="17.8350629">
        <ele>24.651</ele>
        <time>2012-05-20T14:31:50Z</time>
      </trkpt>
      <trkpt lat="59.8003664" lon="17.8350073">
        <ele>24.1703</ele>
        <time>2012-05-20T14:31:55Z</time>
      </trkpt>
      <trkpt lat="59.8005348" lon="17.8352556">
        <ele>23.209</ele>
        <time>2012-05-20T14:31:58Z</time>
      </trkpt>
      <trkpt lat="59.8006267" lon="17.8355019">
        <ele>22.2476</ele>
        <time>2012-05-20T14:32:00Z</time>
      </trkpt>
      <trkpt lat="59.8009777" lon="17.8366515">
        <ele>21.2864</ele>
        <time>2012-05-20T14:32:08Z</time>
      </trkpt>
      <trkpt lat="59.8013435" lon="17.8377296">
        <ele>18.8831</ele>
        <time>2012-05-20T14:32:15Z</time>
      </trkpt>
      <trkpt lat="59.8017803" lon="17.8389292">
        <ele>16.4797</ele>
        <time>2012-05-20T14:32:23Z</time>
      </trkpt>
      <trkpt lat="59.8019435" lon="17.8395006">
        <ele>15.999</ele>
        <time>2012-05-20T14:32:27Z</time>
      </trkpt>
      <trkpt lat="59.8021502" lon="17.840444">
        <ele>16.4797</ele>
        <time>2012-05-20T14:32:34Z</time>
      </trkpt>
      <trkpt lat="59.8023511" lon="17.8409739">
        <ele>16.9604</ele>
        <time>2012-05-20T14:32:39Z</time>
      </trkpt>
      <trkpt lat="59.8027368" lon="17.841771">
        <ele>18.4023</ele>
        <time>2012-05-20T14:32:48Z</time>
      </trkpt>
      <trkpt lat="59.8031021" lon="17.8425056">
        <ele>19.3638</ele>
        <time>2012-05-20T14:32:57Z</time>
      </trkpt>
      <trkpt lat="59.8034519" lon="17.8430981">
        <ele>19.3638</ele>
        <time>2012-05-20T14:33:05Z</time>
      </trkpt>
      <trkpt lat="59.8037796" lon="17.8434775">
        <ele>19.8444</ele>
        <time>2012-05-20T14:33:12Z</time>
      </trkpt>
      <trkpt lat="59.8041568" lon="17.8438975">
        <ele>20.8057</ele>
        <time>2012-05-20T14:33:20Z</time>
      </trkpt>
      <trkpt lat="59.8045077" lon="17.8443776">
        <ele>21.767</ele>
        <time>2012-05-20T14:33:28Z</time>
      </trkpt>
      <trkpt lat="59.8048403" lon="17.8450029">
        <ele>23.6896</ele>
        <time>2012-05-20T14:33:37Z</time>
      </trkpt>
      <trkpt lat="59.8050905" lon="17.8455893">
        <ele>25.6123</ele>
        <time>2012-05-20T14:33:45Z</time>
      </trkpt>
      <trkpt lat="59.8051205" lon="17.8456641">
        <ele>26.0929</ele>
        <time>2012-05-20T14:33:46Z</time>
      </trkpt>
      <trkpt lat="59.8053084" lon="17.8458836">
        <ele>26.5736</ele>
        <time>2012-05-20T14:33:51Z</time>
      </trkpt>
      <trkpt lat="59.8054956" lon="17.8457876">
        <ele>27.5349</ele>
        <time>2012-05-20T14:33:56Z</time>
      </trkpt>
      <trkpt lat="59.8055623" lon="17.8457152">
        <ele>27.5349</ele>
        <time>2012-05-20T14:33:58Z</time>
      </trkpt>
      <trkpt lat="59.8058463" lon="17.8453365">
        <ele>28.9769</ele>
        <time>2012-05-20T14:34:07Z</time>
      </trkpt>
      <trkpt lat="59.8060756" lon="17.8451033">
        <ele>27.5349</ele>
        <time>2012-05-20T14:34:12Z</time>
      </trkpt>
      <trkpt lat="59.8064753" lon="17.8447201">
        <ele>27.0543</ele>
        <time>2012-05-20T14:34:20Z</time>
      </trkpt>
      <trkpt lat="59.80691" lon="17.8443047">
        <ele>28.4962</ele>
        <time>2012-05-20T14:34:28Z</time>
      </trkpt>
      <trkpt lat="59.8071494" lon="17.8440351">
        <ele>28.4962</ele>
        <time>2012-05-20T14:34:33Z</time>
      </trkpt>
      <trkpt lat="59.8074453" lon="17.8436713">
        <ele>25.1317</ele>
        <time>2012-05-20T14:34:40Z</time>
      </trkpt>
      <trkpt lat="59.8076608" lon="17.8433463">
        <ele>24.651</ele>
        <time>2012-05-20T14:34:46Z</time>
      </trkpt>
      <trkpt lat="59.8078125" lon="17.8430703">
        <ele>29.4575</ele>
        <time>2012-05-20T14:34:51Z</time>
      </trkpt>
      <trkpt lat="59.8079918" lon="17.8428651">
        <ele>29.4575</ele>
        <time>2012-05-20T14:34:55Z</time>
      </trkpt>
      <trkpt lat="59.8082953" lon="17.8424284">
        <ele>31.3801</ele>
        <time>2012-05-20T14:35:02Z</time>
      </trkpt>
      <trkpt lat="59.8086154" lon="17.8419872">
        <ele>33.7834</ele>
        <time>2012-05-20T14:35:09Z</time>
      </trkpt>
      <trkpt lat="59.8090392" lon="17.8415069">
        <ele>34.2642</ele>
        <time>2012-05-20T14:35:17Z</time>
      </trkpt>
      <trkpt lat="59.8091845" lon="17.8413438">
        <ele>33.7834</ele>
        <time>2012-05-20T14:35:20Z</time>
      </trkpt>
      <trkpt lat="59.8093852" lon="17.8412344">
        <ele>32.3416</ele>
        <time>2012-05-20T14:35:24Z</time>
      </trkpt>
      <trkpt lat="59.8095477" lon="17.8412048">
        <ele>32.8223</ele>
        <time>2012-05-20T14:35:27Z</time>
      </trkpt>
      <trkpt lat="59.8099196" lon="17.8409846">
        <ele>36.1868</ele>
        <time>2012-05-20T14:35:35Z</time>
      </trkpt>
      <trkpt lat="59.8099901" lon="17.8409452">
        <ele>37.6287</ele>
        <time>2012-05-20T14:35:37Z</time>
      </trkpt>
      <trkpt lat="59.8101172" lon="17.840895">
        <ele>37.6287</ele>
        <time>2012-05-20T14:35:40Z</time>
      </trkpt>
      <trkpt lat="59.8102886" lon="17.8407698">
        <ele>38.1094</ele>
        <time>2012-05-20T14:35:44Z</time>
      </trkpt>
      <trkpt lat="59.8104814" lon="17.8405352">
        <ele>39.5513</ele>
        <time>2012-05-20T14:35:49Z</time>
      </trkpt>
      <trkpt lat="59.8106498" lon="17.8403492">
        <ele>39.0707</ele>
        <time>2012-05-20T14:35:53Z</time>
      </trkpt>
      <trkpt lat="59.8109681" lon="17.8402355">
        <ele>39.5513</ele>
        <time>2012-05-20T14:36:00Z</time>
      </trkpt>
      <trkpt lat="59.8113593" lon="17.8402345">
        <ele>41.9547</ele>
        <time>2012-05-20T14:36:08Z</time>
      </trkpt>
      <trkpt lat="59.8116487" lon="17.8401994">
        <ele>43.3966</ele>
        <time>2012-05-20T14:36:14Z</time>
      </trkpt>
      <trkpt lat="59.8119469" lon="17.8402238">
        <ele>44.8386</ele>
        <time>2012-05-20T14:36:20Z</time>
      </trkpt>
      <trkpt lat="59.8121425" lon="17.8403031">
        <ele>45.7999</ele>
        <time>2012-05-20T14:36:24Z</time>
      </trkpt>
      <trkpt lat="59.8123749" lon="17.840459">
        <ele>46.2806</ele>
        <time>2012-05-20T14:36:29Z</time>
      </trkpt>
      <trkpt lat="59.8127715" lon="17.8408231">
        <ele>43.8773</ele>
        <time>2012-05-20T14:36:37Z</time>
      </trkpt>
      <trkpt lat="59.8131008" lon="17.8409909">
        <ele>43.3966</ele>
        <time>2012-05-20T14:36:42Z</time>
      </trkpt>
      <trkpt lat="59.8135137" lon="17.8411672">
        <ele>42.4354</ele>
        <time>2012-05-20T14:36:48Z</time>
      </trkpt>
      <trkpt lat="59.813972" lon="17.8413759">
        <ele>42.4354</ele>
        <time>2012-05-20T14:36:55Z</time>
      </trkpt>
      <trkpt lat="59.8143717" lon="17.8414519">
        <ele>42.916</ele>
        <time>2012-05-20T14:37:01Z</time>
      </trkpt>
      <trkpt lat="59.8147539" lon="17.8412697">
        <ele>42.916</ele>
        <time>2012-05-20T14:37:07Z</time>
      </trkpt>
      <trkpt lat="59.8152554" lon="17.8411297">
        <ele>39.0707</ele>
        <time>2012-05-20T14:37:14Z</time>
      </trkpt>
      <trkpt lat="59.8156292" lon="17.841184">
        <ele>38.5901</ele>
        <time>2012-05-20T14:37:18Z</time>
      </trkpt>
      <trkpt lat="59.8158674" lon="17.8413213">
        <ele>38.1094</ele>
        <time>2012-05-20T14:37:21Z</time>
      </trkpt>
      <trkpt lat="59.8162622" lon="17.8413687">
        <ele>37.6287</ele>
        <time>2012-05-20T14:37:27Z</time>
      </trkpt>
      <trkpt lat="59.8164457" lon="17.8413223">
        <ele>37.1481</ele>
        <time>2012-05-20T14:37:31Z</time>
      </trkpt>
      <trkpt lat="59.8167326" lon="17.8412487">
        <ele>39.5513</ele>
        <time>2012-05-20T14:37:37Z</time>
      </trkpt>
      <trkpt lat="59.8170021" lon="17.8410609">
        <ele>37.1481</ele>
        <time>2012-05-20T14:37:43Z</time>
      </trkpt>
      <trkpt lat="59.817224" lon="17.841053">
        <ele>37.6287</ele>
        <time>2012-05-20T14:37:48Z</time>
      </trkpt>
      <trkpt lat="59.8173527" lon="17.8411956">
        <ele>40.9934</ele>
        <time>2012-05-20T14:37:51Z</time>
      </trkpt>
      <trkpt lat="59.8174431" lon="17.8413593">
        <ele>41.9547</ele>
        <time>2012-05-20T14:37:54Z</time>
      </trkpt>
      <trkpt lat="59.8174821" lon="17.8414891">
        <ele>41.474</ele>
        <time>2012-05-20T14:37:56Z</time>
      </trkpt>
      <trkpt lat="59.8175314" lon="17.8416124">
        <ele>42.4354</ele>
        <time>2012-05-20T14:37:58Z</time>
      </trkpt>
      <trkpt lat="59.8176766" lon="17.8417908">
        <ele>43.3966</ele>
        <time>2012-05-20T14:38:03Z</time>
      </trkpt>
      <trkpt lat="59.8179778" lon="17.8418991">
        <ele>47.7225</ele>
        <time>2012-05-20T14:38:12Z</time>
      </trkpt>
      <trkpt lat="59.8182307" lon="17.8418302">
        <ele>50.126</ele>
        <time>2012-05-20T14:38:19Z</time>
      </trkpt>
      <trkpt lat="59.8185012" lon="17.8417695">
        <ele>49.6453</ele>
        <time>2012-05-20T14:38:25Z</time>
      </trkpt>
      <trkpt lat="59.8188699" lon="17.8417607">
        <ele>50.126</ele>
        <time>2012-05-20T14:38:32Z</time>
      </trkpt>
      <trkpt lat="59.8192372" lon="17.8419136">
        <ele>52.0486</ele>
        <time>2012-05-20T14:38:40Z</time>
      </trkpt>
      <trkpt lat="59.8193662" lon="17.8419936">
        <ele>52.0486</ele>
        <time>2012-05-20T14:38:43Z</time>
      </trkpt>
      <trkpt lat="59.8197481" lon="17.8423483">
        <ele>52.5292</ele>
        <time>2012-05-20T14:38:52Z</time>
      </trkpt>
      <trkpt lat="59.8200048" lon="17.842478">
        <ele>53.4905</ele>
        <time>2012-05-20T14:38:58Z</time>
      </trkpt>
      <trkpt lat="59.8203134" lon="17.842516">
        <ele>54.4518</ele>
        <time>2012-05-20T14:39:04Z</time>
      </trkpt>
      <trkpt lat="59.8206405" lon="17.8426924">
        <ele>53.9712</ele>
        <time>2012-05-20T14:39:09Z</time>
      </trkpt>
      <trkpt lat="59.8209468" lon="17.8428683">
        <ele>53.0098</ele>
        <time>2012-05-20T14:39:14Z</time>
      </trkpt>
      <trkpt lat="59.8213693" lon="17.8429527">
        <ele>52.5292</ele>
        <time>2012-05-20T14:39:21Z</time>
      </trkpt>
      <trkpt lat="59.8217545" lon="17.8430221">
        <ele>52.0486</ele>
        <time>2012-05-20T14:39:28Z</time>
      </trkpt>
      <trkpt lat="59.8221317" lon="17.8431049">
        <ele>52.5292</ele>
        <time>2012-05-20T14:39:35Z</time>
      </trkpt>
      <trkpt lat="59.8225059" lon="17.8432108">
        <ele>52.5292</ele>
        <time>2012-05-20T14:39:41Z</time>
      </trkpt>
      <trkpt lat="59.8228817" lon="17.8432349">
        <ele>52.5292</ele>
        <time>2012-05-20T14:39:46Z</time>
      </trkpt>
      <trkpt lat="59.8230496" lon="17.8431918">
        <ele>52.0486</ele>
        <time>2012-05-20T14:39:48Z</time>
      </trkpt>
      <trkpt lat="59.8233901" lon="17.8428719">
        <ele>49.6453</ele>
        <time>2012-05-20T14:39:52Z</time>
      </trkpt>
      <trkpt lat="59.8235429" lon="17.8426295">
        <ele>48.684</ele>
        <time>2012-05-20T14:39:54Z</time>
      </trkpt>
      <trkpt lat="59.8239081" lon="17.8424003">
        <ele>47.7225</ele>
        <time>2012-05-20T14:39:58Z</time>
      </trkpt>
      <trkpt lat="59.8240913" lon="17.8424176">
        <ele>47.2418</ele>
        <time>2012-05-20T14:40:00Z</time>
      </trkpt>
      <trkpt lat="59.824599" lon="17.8424372">
        <ele>47.7225</ele>
        <time>2012-05-20T14:40:06Z</time>
      </trkpt>
      <trkpt lat="59.8246746" lon="17.8424312">
        <ele>48.2034</ele>
        <time>2012-05-20T14:40:07Z</time>
      </trkpt>
      <trkpt lat="59.8249069" lon="17.8424783">
        <ele>47.2418</ele>
        <time>2012-05-20T14:40:10Z</time>
      </trkpt>
      <trkpt lat="59.8252781" lon="17.8423764">
        <ele>46.7612</ele>
        <time>2012-05-20T14:40:14Z</time>
      </trkpt>
      <trkpt lat="59.8258465" lon="17.8419059">
        <ele>44.8386</ele>
        <time>2012-05-20T14:40:20Z</time>
      </trkpt>
      <trkpt lat="59.826465" lon="17.8412821">
        <ele>45.3192</ele>
        <time>2012-05-20T14:40:27Z</time>
      </trkpt>
      <trkpt lat="59.8268371" lon="17.8412154">
        <ele>42.4354</ele>
        <time>2012-05-20T14:40:31Z</time>
      </trkpt>
      <trkpt lat="59.8269393" lon="17.8412872">
        <ele>41.9547</ele>
        <time>2012-05-20T14:40:32Z</time>
      </trkpt>
      <trkpt lat="59.8276269" lon="17.8418276">
        <ele>39.0707</ele>
        <time>2012-05-20T14:40:39Z</time>
      </trkpt>
      <trkpt lat="59.8278181" lon="17.8419347">
        <ele>38.1094</ele>
        <time>2012-05-20T14:40:41Z</time>
      </trkpt>
      <trkpt lat="59.828136" lon="17.8423523">
        <ele>33.7834</ele>
        <time>2012-05-20T14:40:45Z</time>
      </trkpt>
      <trkpt lat="59.8283666" lon="17.8426925">
        <ele>31.3801</ele>
        <time>2012-05-20T14:40:48Z</time>
      </trkpt>
      <trkpt lat="59.828671" lon="17.8426926">
        <ele>28.9769</ele>
        <time>2012-05-20T14:40:51Z</time>
      </trkpt>
      <trkpt lat="59.8290127" lon="17.8428596">
        <ele>26.5736</ele>
        <time>2012-05-20T14:40:54Z</time>
      </trkpt>
      <trkpt lat="59.8293182" lon="17.843226">
        <ele>24.1703</ele>
        <time>2012-05-20T14:40:57Z</time>
      </trkpt>
      <trkpt lat="59.829394" lon="17.8433943">
        <ele>24.1703</ele>
        <time>2012-05-20T14:40:58Z</time>
      </trkpt>
      <trkpt lat="59.8297129" lon="17.844042">
        <ele>22.7283</ele>
        <time>2012-05-20T14:41:02Z</time>
      </trkpt>
      <trkpt lat="59.8300324" lon="17.8448795">
        <ele>21.767</ele>
        <time>2012-05-20T14:41:07Z</time>
      </trkpt>
      <trkpt lat="59.8302463" lon="17.8453923">
        <ele>21.767</ele>
        <time>2012-05-20T14:41:11Z</time>
      </trkpt>
      <trkpt lat="59.8302936" lon="17.8454966">
        <ele>21.767</ele>
        <time>2012-05-20T14:41:12Z</time>
      </trkpt>
      <trkpt lat="59.8305284" lon="17.8457789">
        <ele>22.2476</ele>
        <time>2012-05-20T14:41:16Z</time>
      </trkpt>
      <trkpt lat="59.8306579" lon="17.8458679">
        <ele>24.1703</ele>
        <time>2012-05-20T14:41:18Z</time>
      </trkpt>
      <trkpt lat="59.8310877" lon="17.8461725">
        <ele>24.651</ele>
        <time>2012-05-20T14:41:25Z</time>
      </trkpt>
      <trkpt lat="59.8315107" lon="17.8465108">
        <ele>22.7283</ele>
        <time>2012-05-20T14:41:32Z</time>
      </trkpt>
      <trkpt lat="59.8317786" lon="17.8467067">
        <ele>22.7283</ele>
        <time>2012-05-20T14:41:37Z</time>
      </trkpt>
      <trkpt lat="59.831874" lon="17.8467777">
        <ele>21.767</ele>
        <time>2012-05-20T14:41:39Z</time>
      </trkpt>
      <trkpt lat="59.8319947" lon="17.8469045">
        <ele>22.7283</ele>
        <time>2012-05-20T14:41:41Z</time>
      </trkpt>
      <trkpt lat="59.8322217" lon="17.8474983">
        <ele>22.2476</ele>
        <time>2012-05-20T14:41:46Z</time>
      </trkpt>
      <trkpt lat="59.8324689" lon="17.8482037">
        <ele>24.1703</ele>
        <time>2012-05-20T14:41:52Z</time>
      </trkpt>
      <trkpt lat="59.8325483" lon="17.8484398">
        <ele>25.1317</ele>
        <time>2012-05-20T14:41:54Z</time>
      </trkpt>
      <trkpt lat="59.8328386" lon="17.8490423">
        <ele>25.1317</ele>
        <time>2012-05-20T14:42:00Z</time>
      </trkpt>
      <trkpt lat="59.8332026" lon="17.8496082">
        <ele>22.2476</ele>
        <time>2012-05-20T14:42:06Z</time>
      </trkpt>
      <trkpt lat="59.8333847" lon="17.8499064">
        <ele>21.2864</ele>
        <time>2012-05-20T14:42:09Z</time>
      </trkpt>
      <trkpt lat="59.8335408" lon="17.8503541">
        <ele>18.8831</ele>
        <time>2012-05-20T14:42:13Z</time>
      </trkpt>
      <trkpt lat="59.8337892" lon="17.8508513">
        <ele>18.4023</ele>
        <time>2012-05-20T14:42:19Z</time>
      </trkpt>
      <trkpt lat="59.8341057" lon="17.851236">
        <ele>18.8831</ele>
        <time>2012-05-20T14:42:26Z</time>
      </trkpt>
      <trkpt lat="59.8344609" lon="17.8515385">
        <ele>20.8057</ele>
        <time>2012-05-20T14:42:34Z</time>
      </trkpt>
      <trkpt lat="59.8346433" lon="17.8517571">
        <ele>22.7283</ele>
        <time>2012-05-20T14:42:39Z</time>
      </trkpt>
      <trkpt lat="59.8347258" lon="17.8519001">
        <ele>23.6896</ele>
        <time>2012-05-20T14:42:42Z</time>
      </trkpt>
      <trkpt lat="59.8349257" lon="17.8523307">
        <ele>26.0929</ele>
        <time>2012-05-20T14:42:51Z</time>
      </trkpt>
      <trkpt lat="59.8350516" lon="17.8526664">
        <ele>27.5349</ele>
        <time>2012-05-20T14:42:56Z</time>
      </trkpt>
      <trkpt lat="59.8352656" lon="17.853157">
        <ele>28.0155</ele>
        <time>2012-05-20T14:43:02Z</time>
      </trkpt>
      <trkpt lat="59.8355367" lon="17.8535732">
        <ele>28.9769</ele>
        <time>2012-05-20T14:43:08Z</time>
      </trkpt>
      <trkpt lat="59.8357484" lon="17.8538564">
        <ele>28.4962</ele>
        <time>2012-05-20T14:43:12Z</time>
      </trkpt>
      <trkpt lat="59.8361569" lon="17.8543752">
        <ele>27.5349</ele>
        <time>2012-05-20T14:43:19Z</time>
      </trkpt>
      <trkpt lat="59.8366102" lon="17.8549254">
        <ele>26.5736</ele>
        <time>2012-05-20T14:43:27Z</time>
      </trkpt>
      <trkpt lat="59.8368806" lon="17.8554014">
        <ele>25.1317</ele>
        <time>2012-05-20T14:43:32Z</time>
      </trkpt>
      <trkpt lat="59.8372312" lon="17.856007">
        <ele>23.209</ele>
        <time>2012-05-20T14:43:38Z</time>
      </trkpt>
      <trkpt lat="59.8376467" lon="17.8563747">
        <ele>21.767</ele>
        <time>2012-05-20T14:43:44Z</time>
      </trkpt>
      <trkpt lat="59.8379592" lon="17.8568426">
        <ele>21.2864</ele>
        <time>2012-05-20T14:43:49Z</time>
      </trkpt>
      <trkpt lat="59.8383247" lon="17.8577113">
        <ele>18.8831</ele>
        <time>2012-05-20T14:43:56Z</time>
      </trkpt>
      <trkpt lat="59.8387041" lon="17.8585207">
        <ele>18.8831</ele>
        <time>2012-05-20T14:44:03Z</time>
      </trkpt>
      <trkpt lat="59.8390616" lon="17.8591983">
        <ele>18.4023</ele>
        <time>2012-05-20T14:44:10Z</time>
      </trkpt>
      <trkpt lat="59.839367" lon="17.8596646">
        <ele>17.9218</ele>
        <time>2012-05-20T14:44:16Z</time>
      </trkpt>
      <trkpt lat="59.8398521" lon="17.8601711">
        <ele>18.4023</ele>
        <time>2012-05-20T14:44:24Z</time>
      </trkpt>
      <trkpt lat="59.8404566" lon="17.8605454">
        <ele>19.3638</ele>
        <time>2012-05-20T14:44:33Z</time>
      </trkpt>
      <trkpt lat="59.8409807" lon="17.860848">
        <ele>20.325</ele>
        <time>2012-05-20T14:44:41Z</time>
      </trkpt>
      <trkpt lat="59.841463" lon="17.8612275">
        <ele>21.2864</ele>
        <time>2012-05-20T14:44:48Z</time>
      </trkpt>
      <trkpt lat="59.8419212" lon="17.8617412">
        <ele>22.7283</ele>
        <time>2012-05-20T14:44:55Z</time>
      </trkpt>
      <trkpt lat="59.8423468" lon="17.8621308">
        <ele>22.7283</ele>
        <time>2012-05-20T14:45:02Z</time>
      </trkpt>
      <trkpt lat="59.8424125" lon="17.8621594">
        <ele>22.7283</ele>
        <time>2012-05-20T14:45:03Z</time>
      </trkpt>
      <trkpt lat="59.8428356" lon="17.8621573">
        <ele>22.7283</ele>
        <time>2012-05-20T14:45:09Z</time>
      </trkpt>
      <trkpt lat="59.8433324" lon="17.8619999">
        <ele>21.767</ele>
        <time>2012-05-20T14:45:16Z</time>
      </trkpt>
      <trkpt lat="59.8437669" lon="17.8617768">
        <ele>21.2864</ele>
        <time>2012-05-20T14:45:22Z</time>
      </trkpt>
      <trkpt lat="59.8443818" lon="17.8614938">
        <ele>20.325</ele>
        <time>2012-05-20T14:45:30Z</time>
      </trkpt>
      <trkpt lat="59.8449802" lon="17.8612291">
        <ele>20.8057</ele>
        <time>2012-05-20T14:45:38Z</time>
      </trkpt>
      <trkpt lat="59.8455318" lon="17.8609613">
        <ele>22.7283</ele>
        <time>2012-05-20T14:45:46Z</time>
      </trkpt>
      <trkpt lat="59.8461286" lon="17.8607127">
        <ele>22.2476</ele>
        <time>2012-05-20T14:45:55Z</time>
      </trkpt>
      <trkpt lat="59.8466217" lon="17.8604878">
        <ele>20.325</ele>
        <time>2012-05-20T14:46:02Z</time>
      </trkpt>
      <trkpt lat="59.8471011" lon="17.8602713">
        <ele>19.3638</ele>
        <time>2012-05-20T14:46:08Z</time>
      </trkpt>
      <trkpt lat="59.8478193" lon="17.8599548">
        <ele>18.4023</ele>
        <time>2012-05-20T14:46:17Z</time>
      </trkpt>
      <trkpt lat="59.8484144" lon="17.8596632">
        <ele>17.4412</ele>
        <time>2012-05-20T14:46:25Z</time>
      </trkpt>
      <trkpt lat="59.8488927" lon="17.8594326">
        <ele>17.9218</ele>
        <time>2012-05-20T14:46:32Z</time>
      </trkpt>
      <trkpt lat="59.8492705" lon="17.8592133">
        <ele>16.9604</ele>
        <time>2012-05-20T14:46:38Z</time>
      </trkpt>
      <trkpt lat="59.8496076" lon="17.8589961">
        <ele>15.0377</ele>
        <time>2012-05-20T14:46:44Z</time>
      </trkpt>
      <trkpt lat="59.8500028" lon="17.8587137">
        <ele>14.557</ele>
        <time>2012-05-20T14:46:51Z</time>
      </trkpt>
      <trkpt lat="59.8504432" lon="17.8583997">
        <ele>14.557</ele>
        <time>2012-05-20T14:46:59Z</time>
      </trkpt>
      <trkpt lat="59.8508872" lon="17.8581635">
        <ele>15.0377</ele>
        <time>2012-05-20T14:47:07Z</time>
      </trkpt>
      <trkpt lat="59.8513818" lon="17.8579398">
        <ele>15.5184</ele>
        <time>2012-05-20T14:47:15Z</time>
      </trkpt>
      <trkpt lat="59.8519782" lon="17.8577206">
        <ele>15.0377</ele>
        <time>2012-05-20T14:47:24Z</time>
      </trkpt>
      <trkpt lat="59.8523799" lon="17.8576406">
        <ele>14.0764</ele>
        <time>2012-05-20T14:47:30Z</time>
      </trkpt>
      <trkpt lat="59.8527892" lon="17.8577904">
        <ele>15.0377</ele>
        <time>2012-05-20T14:47:36Z</time>
      </trkpt>
      <trkpt lat="59.8531195" lon="17.8580843">
        <ele>17.4412</ele>
        <time>2012-05-20T14:47:42Z</time>
      </trkpt>
      <trkpt lat="59.8535044" lon="17.8585358">
        <ele>18.8831</ele>
        <time>2012-05-20T14:47:49Z</time>
      </trkpt>
      <trkpt lat="59.8540038" lon="17.8591279">
        <ele>18.8831</ele>
        <time>2012-05-20T14:47:58Z</time>
      </trkpt>
      <trkpt lat="59.8543329" lon="17.8594398">
        <ele>18.4023</ele>
        <time>2012-05-20T14:48:05Z</time>
      </trkpt>
      <trkpt lat="59.854681" lon="17.8596031">
        <ele>18.4023</ele>
        <time>2012-05-20T14:48:12Z</time>
      </trkpt>
      <trkpt lat="59.8549074" lon="17.8596673">
        <ele>18.4023</ele>
        <time>2012-05-20T14:48:17Z</time>
      </trkpt>
      <trkpt lat="59.8549272" lon="17.8596672">
        <ele>17.9218</ele>
        <time>2012-05-20T14:48:18Z</time>
      </trkpt>
      <trkpt lat="59.854911" lon="17.8596072">
        <ele>16.4797</ele>
        <time>2012-05-20T14:48:22Z</time>
      </trkpt>
      <trkpt lat="59.8549165" lon="17.8596712">
        <ele>15.999</ele>
        <time>2012-05-20T14:48:25Z</time>
      </trkpt>
      <trkpt lat="59.8549405" lon="17.8596679">
        <ele>15.5184</ele>
        <time>2012-05-20T14:48:29Z</time>
      </trkpt>
      <trkpt lat="59.8550033" lon="17.8596589">
        <ele>15.999</ele>
        <time>2012-05-20T14:48:38Z</time>
      </trkpt>
      <trkpt lat="59.8550269" lon="17.85963">
        <ele>15.5184</ele>
        <time>2012-05-20T14:48:39Z</time>
      </trkpt>
      <trkpt lat="59.8550774" lon="17.8594236">
        <ele>15.5184</ele>
        <time>2012-05-20T14:48:41Z</time>
      </trkpt>
      <trkpt lat="59.8551317" lon="17.8587795">
        <ele>14.0764</ele>
        <time>2012-05-20T14:48:47Z</time>
      </trkpt>
      <trkpt lat="59.8552191" lon="17.8576348">
        <ele>12.1538</ele>
        <time>2012-05-20T14:48:56Z</time>
      </trkpt>
      <trkpt lat="59.855334" lon="17.8561775">
        <ele>12.1538</ele>
        <time>2012-05-20T14:49:08Z</time>
      </trkpt>
      <trkpt lat="59.8554065" lon="17.8552517">
        <ele>13.1151</ele>
        <time>2012-05-20T14:49:17Z</time>
      </trkpt>
      <trkpt lat="59.8554768" lon="17.8541138">
        <ele>14.0764</ele>
        <time>2012-05-20T14:49:29Z</time>
      </trkpt>
      <trkpt lat="59.8555171" lon="17.8530351">
        <ele>14.557</ele>
        <time>2012-05-20T14:49:40Z</time>
      </trkpt>
      <trkpt lat="59.8555493" lon="17.8517747">
        <ele>14.557</ele>
        <time>2012-05-20T14:49:52Z</time>
      </trkpt>
      <trkpt lat="59.8555725" lon="17.8505327">
        <ele>14.557</ele>
        <time>2012-05-20T14:50:03Z</time>
      </trkpt>
      <trkpt lat="59.855599" lon="17.8493079">
        <ele>14.557</ele>
        <time>2012-05-20T14:50:13Z</time>
      </trkpt>
      <trkpt lat="59.8556305" lon="17.8478615">
        <ele>15.0377</ele>
        <time>2012-05-20T14:50:25Z</time>
      </trkpt>
      <trkpt lat="59.8556521" lon="17.8468367">
        <ele>15.999</ele>
        <time>2012-05-20T14:50:34Z</time>
      </trkpt>
      <trkpt lat="59.8556798" lon="17.8455136">
        <ele>15.999</ele>
        <time>2012-05-20T14:50:46Z</time>
      </trkpt>
      <trkpt lat="59.8557066" lon="17.8442332">
        <ele>15.5184</ele>
        <time>2012-05-20T14:50:57Z</time>
      </trkpt>
      <trkpt lat="59.8557404" lon="17.8427311">
        <ele>15.5184</ele>
        <time>2012-05-20T14:51:09Z</time>
      </trkpt>
      <trkpt lat="59.8557728" lon="17.8413002">
        <ele>15.0377</ele>
        <time>2012-05-20T14:51:20Z</time>
      </trkpt>
      <trkpt lat="59.8558055" lon="17.8398404">
        <ele>15.999</ele>
        <time>2012-05-20T14:51:31Z</time>
      </trkpt>
      <trkpt lat="59.8558251" lon="17.838666">
        <ele>17.4412</ele>
        <time>2012-05-20T14:51:41Z</time>
      </trkpt>
      <trkpt lat="59.8558201" lon="17.8376773">
        <ele>19.8444</ele>
        <time>2012-05-20T14:51:51Z</time>
      </trkpt>
      <trkpt lat="59.8557805" lon="17.8368473">
        <ele>21.767</ele>
        <time>2012-05-20T14:52:00Z</time>
      </trkpt>
      <trkpt lat="59.8557013" lon="17.8357301">
        <ele>23.6896</ele>
        <time>2012-05-20T14:52:12Z</time>
      </trkpt>
      <trkpt lat="59.8556228" lon="17.8346961">
        <ele>25.1317</ele>
        <time>2012-05-20T14:52:23Z</time>
      </trkpt>
      <trkpt lat="59.8555532" lon="17.8338115">
        <ele>26.0929</ele>
        <time>2012-05-20T14:52:33Z</time>
      </trkpt>
      <trkpt lat="59.8554518" lon="17.8325548">
        <ele>27.5349</ele>
        <time>2012-05-20T14:52:47Z</time>
      </trkpt>
      <trkpt lat="59.8553978" lon="17.8317384">
        <ele>28.4962</ele>
        <time>2012-05-20T14:52:56Z</time>
      </trkpt>
      <trkpt lat="59.855387" lon="17.8315881">
        <ele>28.9769</ele>
        <time>2012-05-20T14:52:58Z</time>
      </trkpt>
      <trkpt lat="59.8553876" lon="17.8314029">
        <ele>28.9769</ele>
        <time>2012-05-20T14:53:02Z</time>
      </trkpt>
      <trkpt lat="59.8553977" lon="17.8313089">
        <ele>28.4962</ele>
        <time>2012-05-20T14:53:30Z</time>
      </trkpt>
      <trkpt lat="59.8553916" lon="17.8312519">
        <ele>28.9769</ele>
        <time>2012-05-20T14:53:31Z</time>
      </trkpt>
      <trkpt lat="59.8553841" lon="17.8311887">
        <ele>28.9769</ele>
        <time>2012-05-20T14:53:32Z</time>
      </trkpt>
      <trkpt lat="59.8553368" lon="17.8306115">
        <ele>29.4575</ele>
        <time>2012-05-20T14:53:38Z</time>
      </trkpt>
      <trkpt lat="59.8553068" lon="17.8298593">
        <ele>28.9769</ele>
        <time>2012-05-20T14:53:45Z</time>
      </trkpt>
      <trkpt lat="59.8552875" lon="17.8291633">
        <ele>28.9769</ele>
        <time>2012-05-20T14:53:51Z</time>
      </trkpt>
      <trkpt lat="59.8552819" lon="17.8282711">
        <ele>26.5736</ele>
        <time>2012-05-20T14:53:58Z</time>
      </trkpt>
      <trkpt lat="59.8553358" lon="17.8268418">
        <ele>25.6123</ele>
        <time>2012-05-20T14:54:09Z</time>
      </trkpt>
      <trkpt lat="59.8554389" lon="17.8255325">
        <ele>25.1317</ele>
        <time>2012-05-20T14:54:19Z</time>
      </trkpt>
      <trkpt lat="59.8555879" lon="17.8242587">
        <ele>24.1703</ele>
        <time>2012-05-20T14:54:29Z</time>
      </trkpt>
      <trkpt lat="59.8557764" lon="17.8231217">
        <ele>22.2476</ele>
        <time>2012-05-20T14:54:38Z</time>
      </trkpt>
      <trkpt lat="59.8560235" lon="17.821885">
        <ele>21.767</ele>
        <time>2012-05-20T14:54:48Z</time>
      </trkpt>
      <trkpt lat="59.856355" lon="17.8204849">
        <ele>21.2864</ele>
        <time>2012-05-20T14:55:00Z</time>
      </trkpt>
      <trkpt lat="59.8566847" lon="17.8191071">
        <ele>21.2864</ele>
        <time>2012-05-20T14:55:12Z</time>
      </trkpt>
      <trkpt lat="59.8569516" lon="17.8179893">
        <ele>22.2476</ele>
        <time>2012-05-20T14:55:22Z</time>
      </trkpt>
      <trkpt lat="59.8572467" lon="17.8167709">
        <ele>22.7283</ele>
        <time>2012-05-20T14:55:33Z</time>
      </trkpt>
      <trkpt lat="59.857599" lon="17.815349">
        <ele>22.2476</ele>
        <time>2012-05-20T14:55:46Z</time>
      </trkpt>
      <trkpt lat="59.8576443" lon="17.815145">
        <ele>22.2476</ele>
        <time>2012-05-20T14:55:48Z</time>
      </trkpt>
      <trkpt lat="59.857804" lon="17.8149272">
        <ele>22.7283</ele>
        <time>2012-05-20T14:55:52Z</time>
      </trkpt>
      <trkpt lat="59.8578583" lon="17.8149549">
        <ele>22.7283</ele>
        <time>2012-05-20T14:55:53Z</time>
      </trkpt>
      <trkpt lat="59.8581836" lon="17.8151645">
        <ele>25.6123</ele>
        <time>2012-05-20T14:56:00Z</time>
      </trkpt>
      <trkpt lat="59.8582233" lon="17.8151849">
        <ele>26.0929</ele>
        <time>2012-05-20T14:56:01Z</time>
      </trkpt>
      <trkpt lat="59.8583341" lon="17.8152778">
        <ele>27.0543</ele>
        <time>2012-05-20T14:56:04Z</time>
      </trkpt>
      <trkpt lat="59.8586314" lon="17.8155137">
        <ele>26.5736</ele>
        <time>2012-05-20T14:56:10Z</time>
      </trkpt>
      <trkpt lat="59.8591676" lon="17.8159655">
        <ele>27.0543</ele>
        <time>2012-05-20T14:56:18Z</time>
      </trkpt>
      <trkpt lat="59.8596529" lon="17.8163859">
        <ele>27.5349</ele>
        <time>2012-05-20T14:56:25Z</time>
      </trkpt>
      <trkpt lat="59.8601941" lon="17.8169205">
        <ele>28.0155</ele>
        <time>2012-05-20T14:56:33Z</time>
      </trkpt>
      <trkpt lat="59.8606253" lon="17.8175064">
        <ele>28.4962</ele>
        <time>2012-05-20T14:56:40Z</time>
      </trkpt>
      <trkpt lat="59.8609294" lon="17.8179157">
        <ele>29.4575</ele>
        <time>2012-05-20T14:56:46Z</time>
      </trkpt>
      <trkpt lat="59.8612202" lon="17.8182316">
        <ele>31.8607</ele>
        <time>2012-05-20T14:56:52Z</time>
      </trkpt>
      <trkpt lat="59.8615395" lon="17.8184838">
        <ele>32.8223</ele>
        <time>2012-05-20T14:56:58Z</time>
      </trkpt>
      <trkpt lat="59.8615897" lon="17.8185269">
        <ele>33.3029</ele>
        <time>2012-05-20T14:56:59Z</time>
      </trkpt>
      <trkpt lat="59.8619218" lon="17.8187268">
        <ele>32.8223</ele>
        <time>2012-05-20T14:57:06Z</time>
      </trkpt>
      <trkpt lat="59.8622433" lon="17.8189693">
        <ele>30.4188</ele>
        <time>2012-05-20T14:57:11Z</time>
      </trkpt>
      <trkpt lat="59.8623029" lon="17.8190393">
        <ele>29.9381</ele>
        <time>2012-05-20T14:57:12Z</time>
      </trkpt>
      <trkpt lat="59.8624812" lon="17.8194403">
        <ele>27.5349</ele>
        <time>2012-05-20T14:57:16Z</time>
      </trkpt>
      <trkpt lat="59.8626381" lon="17.8202634">
        <ele>25.6123</ele>
        <time>2012-05-20T14:57:23Z</time>
      </trkpt>
      <trkpt lat="59.8627766" lon="17.8208228">
        <ele>23.6896</ele>
        <time>2012-05-20T14:57:27Z</time>
      </trkpt>
      <trkpt lat="59.8630106" lon="17.8216817">
        <ele>19.3638</ele>
        <time>2012-05-20T14:57:32Z</time>
      </trkpt>
      <trkpt lat="59.8634746" lon="17.8230279">
        <ele>15.0377</ele>
        <time>2012-05-20T14:57:40Z</time>
      </trkpt>
      <trkpt lat="59.8639002" lon="17.8240156">
        <ele>13.5958</ele>
        <time>2012-05-20T14:57:47Z</time>
      </trkpt>
      <trkpt lat="59.8642096" lon="17.8246921">
        <ele>14.0764</ele>
        <time>2012-05-20T14:57:53Z</time>
      </trkpt>
      <trkpt lat="59.864546" lon="17.8254171">
        <ele>15.5184</ele>
        <time>2012-05-20T14:58:01Z</time>
      </trkpt>
      <trkpt lat="59.8647751" lon="17.8259039">
        <ele>18.4023</ele>
        <time>2012-05-20T14:58:08Z</time>
      </trkpt>
      <trkpt lat="59.8649701" lon="17.8262774">
        <ele>21.767</ele>
        <time>2012-05-20T14:58:15Z</time>
      </trkpt>
      <trkpt lat="59.8651697" lon="17.8265804">
        <ele>21.2864</ele>
        <time>2012-05-20T14:58:21Z</time>
      </trkpt>
      <trkpt lat="59.8655473" lon="17.8267043">
        <ele>21.2864</ele>
        <time>2012-05-20T14:58:28Z</time>
      </trkpt>
      <trkpt lat="59.8660445" lon="17.8268032">
        <ele>24.1703</ele>
        <time>2012-05-20T14:58:36Z</time>
      </trkpt>
      <trkpt lat="59.8663418" lon="17.8268302">
        <ele>27.5349</ele>
        <time>2012-05-20T14:58:41Z</time>
      </trkpt>
      <trkpt lat="59.8668175" lon="17.8266472">
        <ele>29.4575</ele>
        <time>2012-05-20T14:58:49Z</time>
      </trkpt>
      <trkpt lat="59.8672707" lon="17.8263345">
        <ele>30.4188</ele>
        <time>2012-05-20T14:58:57Z</time>
      </trkpt>
      <trkpt lat="59.8676777" lon="17.8260312">
        <ele>32.3416</ele>
        <time>2012-05-20T14:59:05Z</time>
      </trkpt>
      <trkpt lat="59.8680623" lon="17.825734">
        <ele>36.1868</ele>
        <time>2012-05-20T14:59:13Z</time>
      </trkpt>
      <trkpt lat="59.8681675" lon="17.8256889">
        <ele>37.1481</ele>
        <time>2012-05-20T14:59:15Z</time>
      </trkpt>
      <trkpt lat="59.868487" lon="17.8257791">
        <ele>38.1094</ele>
        <time>2012-05-20T14:59:21Z</time>
      </trkpt>
      <trkpt lat="59.8685935" lon="17.8258913">
        <ele>38.1094</ele>
        <time>2012-05-20T14:59:23Z</time>
      </trkpt>
      <trkpt lat="59.8689302" lon="17.8264696">
        <ele>35.7061</ele>
        <time>2012-05-20T14:59:30Z</time>
      </trkpt>
      <trkpt lat="59.8692437" lon="17.8270332">
        <ele>35.2255</ele>
        <time>2012-05-20T14:59:36Z</time>
      </trkpt>
      <trkpt lat="59.8696081" lon="17.8276465">
        <ele>33.3029</ele>
        <time>2012-05-20T14:59:43Z</time>
      </trkpt>
      <trkpt lat="59.869996" lon="17.8281797">
        <ele>30.8995</ele>
        <time>2012-05-20T14:59:49Z</time>
      </trkpt>
      <trkpt lat="59.870616" lon="17.8287854">
        <ele>27.5349</ele>
        <time>2012-05-20T14:59:57Z</time>
      </trkpt>
      <trkpt lat="59.87122" lon="17.8293526">
        <ele>26.5736</ele>
        <time>2012-05-20T15:00:05Z</time>
      </trkpt>
      <trkpt lat="59.8717091" lon="17.8298034">
        <ele>26.5736</ele>
        <time>2012-05-20T15:00:12Z</time>
      </trkpt>
      <trkpt lat="59.8720414" lon="17.8301127">
        <ele>27.5349</ele>
        <time>2012-05-20T15:00:18Z</time>
      </trkpt>
      <trkpt lat="59.8724492" lon="17.8304952">
        <ele>28.0155</ele>
        <time>2012-05-20T15:00:26Z</time>
      </trkpt>
      <trkpt lat="59.8726669" lon="17.8306404">
        <ele>28.0155</ele>
        <time>2012-05-20T15:00:31Z</time>
      </trkpt>
      <trkpt lat="59.8730031" lon="17.8307839">
        <ele>28.4962</ele>
        <time>2012-05-20T15:00:39Z</time>
      </trkpt>
      <trkpt lat="59.8732707" lon="17.8309701">
        <ele>28.0155</ele>
        <time>2012-05-20T15:00:46Z</time>
      </trkpt>
      <trkpt lat="59.8735827" lon="17.8312291">
        <ele>28.4962</ele>
        <time>2012-05-20T15:00:55Z</time>
      </trkpt>
      <trkpt lat="59.8738961" lon="17.8316233">
        <ele>29.9381</ele>
        <time>2012-05-20T15:01:05Z</time>
      </trkpt>
      <trkpt lat="59.8741007" lon="17.8318922">
        <ele>30.8995</ele>
        <time>2012-05-20T15:01:11Z</time>
      </trkpt>
      <trkpt lat="59.8743928" lon="17.8322022">
        <ele>32.8223</ele>
        <time>2012-05-20T15:01:18Z</time>
      </trkpt>
      <trkpt lat="59.8746889" lon="17.832369">
        <ele>31.8607</ele>
        <time>2012-05-20T15:01:23Z</time>
      </trkpt>
      <trkpt lat="59.8751714" lon="17.8325038">
        <ele>31.3801</ele>
        <time>2012-05-20T15:01:30Z</time>
      </trkpt>
      <trkpt lat="59.8755432" lon="17.8326795">
        <ele>32.3416</ele>
        <time>2012-05-20T15:01:36Z</time>
      </trkpt>
      <trkpt lat="59.8759168" lon="17.8330409">
        <ele>31.3801</ele>
        <time>2012-05-20T15:01:43Z</time>
      </trkpt>
      <trkpt lat="59.8762663" lon="17.8333359">
        <ele>30.8995</ele>
        <time>2012-05-20T15:01:49Z</time>
      </trkpt>
      <trkpt lat="59.8765193" lon="17.8334921">
        <ele>30.4188</ele>
        <time>2012-05-20T15:01:54Z</time>
      </trkpt>
      <trkpt lat="59.8768434" lon="17.8337094">
        <ele>29.9381</ele>
        <time>2012-05-20T15:02:00Z</time>
      </trkpt>
      <trkpt lat="59.8772505" lon="17.8340708">
        <ele>28.9769</ele>
        <time>2012-05-20T15:02:06Z</time>
      </trkpt>
      <trkpt lat="59.8776734" lon="17.8346159">
        <ele>29.4575</ele>
        <time>2012-05-20T15:02:13Z</time>
      </trkpt>
      <trkpt lat="59.878154" lon="17.8351684">
        <ele>28.9769</ele>
        <time>2012-05-20T15:02:21Z</time>
      </trkpt>
      <trkpt lat="59.8787139" lon="17.8356311">
        <ele>31.8607</ele>
        <time>2012-05-20T15:02:29Z</time>
      </trkpt>
      <trkpt lat="59.8791171" lon="17.8358238">
        <ele>33.3029</ele>
        <time>2012-05-20T15:02:35Z</time>
      </trkpt>
      <trkpt lat="59.8791759" lon="17.8358456">
        <ele>32.8223</ele>
        <time>2012-05-20T15:02:36Z</time>
      </trkpt>
      <trkpt lat="59.8796802" lon="17.8358773">
        <ele>34.7449</ele>
        <time>2012-05-20T15:02:43Z</time>
      </trkpt>
      <trkpt lat="59.8799702" lon="17.8359434">
        <ele>36.1868</ele>
        <time>2012-05-20T15:02:48Z</time>
      </trkpt>
      <trkpt lat="59.8802743" lon="17.836216">
        <ele>36.1868</ele>
        <time>2012-05-20T15:02:53Z</time>
      </trkpt>
      <trkpt lat="59.8806802" lon="17.8367364">
        <ele>33.7834</ele>
        <time>2012-05-20T15:03:00Z</time>
      </trkpt>
      <trkpt lat="59.880943" lon="17.837194">
        <ele>31.3801</ele>
        <time>2012-05-20T15:03:06Z</time>
      </trkpt>
      <trkpt lat="59.8812889" lon="17.8377439">
        <ele>32.3416</ele>
        <time>2012-05-20T15:03:13Z</time>
      </trkpt>
      <trkpt lat="59.8817537" lon="17.8384608">
        <ele>34.7449</ele>
        <time>2012-05-20T15:03:22Z</time>
      </trkpt>
      <trkpt lat="59.8820029" lon="17.8387989">
        <ele>34.7449</ele>
        <time>2012-05-20T15:03:27Z</time>
      </trkpt>
      <trkpt lat="59.8823417" lon="17.839009">
        <ele>35.7061</ele>
        <time>2012-05-20T15:03:33Z</time>
      </trkpt>
      <trkpt lat="59.8827121" lon="17.8391335">
        <ele>38.5901</ele>
        <time>2012-05-20T15:03:41Z</time>
      </trkpt>
      <trkpt lat="59.8830052" lon="17.8393794">
        <ele>38.5901</ele>
        <time>2012-05-20T15:03:48Z</time>
      </trkpt>
      <trkpt lat="59.8833025" lon="17.8397627">
        <ele>38.5901</ele>
        <time>2012-05-20T15:03:53Z</time>
      </trkpt>
      <trkpt lat="59.8837921" lon="17.8404414">
        <ele>36.6675</ele>
        <time>2012-05-20T15:04:00Z</time>
      </trkpt>
      <trkpt lat="59.8843022" lon="17.841091">
        <ele>35.2255</ele>
        <time>2012-05-20T15:04:07Z</time>
      </trkpt>
      <trkpt lat="59.8846691" lon="17.8414157">
        <ele>33.3029</ele>
        <time>2012-05-20T15:04:12Z</time>
      </trkpt>
      <trkpt lat="59.8850622" lon="17.8415425">
        <ele>32.3416</ele>
        <time>2012-05-20T15:04:17Z</time>
      </trkpt>
      <trkpt lat="59.8853915" lon="17.8415171">
        <ele>29.9381</ele>
        <time>2012-05-20T15:04:22Z</time>
      </trkpt>
      <trkpt lat="59.8858781" lon="17.8414725">
        <ele>25.6123</ele>
        <time>2012-05-20T15:04:29Z</time>
      </trkpt>
      <trkpt lat="59.8862776" lon="17.8414102">
        <ele>24.651</ele>
        <time>2012-05-20T15:04:35Z</time>
      </trkpt>
      <trkpt lat="59.8866952" lon="17.8411977">
        <ele>18.4023</ele>
        <time>2012-05-20T15:04:42Z</time>
      </trkpt>
      <trkpt lat="59.8870214" lon="17.8412982">
        <ele>17.4412</ele>
        <time>2012-05-20T15:04:47Z</time>
      </trkpt>
      <trkpt lat="59.8872991" lon="17.8417223">
        <ele>20.325</ele>
        <time>2012-05-20T15:04:52Z</time>
      </trkpt>
      <trkpt lat="59.8874445" lon="17.8420379">
        <ele>24.1703</ele>
        <time>2012-05-20T15:04:55Z</time>
      </trkpt>
      <trkpt lat="59.8878272" lon="17.8425863">
        <ele>29.4575</ele>
        <time>2012-05-20T15:05:02Z</time>
      </trkpt>
      <trkpt lat="59.8882667" lon="17.8429972">
        <ele>30.8995</ele>
        <time>2012-05-20T15:05:09Z</time>
      </trkpt>
      <trkpt lat="59.8885875" lon="17.8431649">
        <ele>29.4575</ele>
        <time>2012-05-20T15:05:14Z</time>
      </trkpt>
      <trkpt lat="59.888742" lon="17.8432051">
        <ele>28.9769</ele>
        <time>2012-05-20T15:05:17Z</time>
      </trkpt>
      <trkpt lat="59.8888474" lon="17.8432077">
        <ele>29.4575</ele>
        <time>2012-05-20T15:05:19Z</time>
      </trkpt>
      <trkpt lat="59.889062" lon="17.8433027">
        <ele>31.8607</ele>
        <time>2012-05-20T15:05:23Z</time>
      </trkpt>
      <trkpt lat="59.8892661" lon="17.8434456">
        <ele>33.7834</ele>
        <time>2012-05-20T15:05:27Z</time>
      </trkpt>
      <trkpt lat="59.8895403" lon="17.8434499">
        <ele>34.7449</ele>
        <time>2012-05-20T15:05:32Z</time>
      </trkpt>
      <trkpt lat="59.8896872" lon="17.8432527">
        <ele>35.7061</ele>
        <time>2012-05-20T15:05:36Z</time>
      </trkpt>
      <trkpt lat="59.8897693" lon="17.8430594">
        <ele>36.1868</ele>
        <time>2012-05-20T15:05:39Z</time>
      </trkpt>
      <trkpt lat="59.8898387" lon="17.8428423">
        <ele>37.6287</ele>
        <time>2012-05-20T15:05:42Z</time>
      </trkpt>
      <trkpt lat="59.8898938" lon="17.8424998">
        <ele>39.0707</ele>
        <time>2012-05-20T15:05:46Z</time>
      </trkpt>
      <trkpt lat="59.889911" lon="17.8422347">
        <ele>40.9934</ele>
        <time>2012-05-20T15:05:49Z</time>
      </trkpt>
      <trkpt lat="59.8899447" lon="17.8418773">
        <ele>42.916</ele>
        <time>2012-05-20T15:05:53Z</time>
      </trkpt>
      <trkpt lat="59.8900207" lon="17.8413599">
        <ele>41.474</ele>
        <time>2012-05-20T15:05:58Z</time>
      </trkpt>
      <trkpt lat="59.8901481" lon="17.8409459">
        <ele>35.7061</ele>
        <time>2012-05-20T15:06:03Z</time>
      </trkpt>
      <trkpt lat="59.890289" lon="17.8409579">
        <ele>35.7061</ele>
        <time>2012-05-20T15:06:06Z</time>
      </trkpt>
      <trkpt lat="59.8903781" lon="17.8410455">
        <ele>36.1868</ele>
        <time>2012-05-20T15:06:08Z</time>
      </trkpt>
      <trkpt lat="59.8907635" lon="17.8416502">
        <ele>35.7061</ele>
        <time>2012-05-20T15:06:17Z</time>
      </trkpt>
      <trkpt lat="59.891153" lon="17.842071">
        <ele>38.1094</ele>
        <time>2012-05-20T15:06:25Z</time>
      </trkpt>
      <trkpt lat="59.8913797" lon="17.8422206">
        <ele>38.5901</ele>
        <time>2012-05-20T15:06:29Z</time>
      </trkpt>
      <trkpt lat="59.8917211" lon="17.8423307">
        <ele>38.1094</ele>
        <time>2012-05-20T15:06:35Z</time>
      </trkpt>
      <trkpt lat="59.892131" lon="17.8424312">
        <ele>36.6675</ele>
        <time>2012-05-20T15:06:41Z</time>
      </trkpt>
      <trkpt lat="59.8926294" lon="17.8426631">
        <ele>36.6675</ele>
        <time>2012-05-20T15:06:48Z</time>
      </trkpt>
      <trkpt lat="59.8931863" lon="17.8429247">
        <ele>36.1868</ele>
        <time>2012-05-20T15:06:55Z</time>
      </trkpt>
      <trkpt lat="59.8936422" lon="17.8430661">
        <ele>33.7834</ele>
        <time>2012-05-20T15:07:01Z</time>
      </trkpt>
      <trkpt lat="59.8941079" lon="17.8431201">
        <ele>34.2642</ele>
        <time>2012-05-20T15:07:07Z</time>
      </trkpt>
      <trkpt lat="59.8946204" lon="17.8431677">
        <ele>34.7449</ele>
        <time>2012-05-20T15:07:13Z</time>
      </trkpt>
      <trkpt lat="59.895001" lon="17.8432177">
        <ele>35.7061</ele>
        <time>2012-05-20T15:07:17Z</time>
      </trkpt>
      <trkpt lat="59.8953579" lon="17.8431054">
        <ele>32.8223</ele>
        <time>2012-05-20T15:07:22Z</time>
      </trkpt>
      <trkpt lat="59.8956481" lon="17.8429665">
        <ele>30.8995</ele>
        <time>2012-05-20T15:07:27Z</time>
      </trkpt>
      <trkpt lat="59.8960534" lon="17.8428396">
        <ele>33.3029</ele>
        <time>2012-05-20T15:07:33Z</time>
      </trkpt>
      <trkpt lat="59.8963554" lon="17.8429081">
        <ele>34.2642</ele>
        <time>2012-05-20T15:07:38Z</time>
      </trkpt>
      <trkpt lat="59.8965647" lon="17.8429887">
        <ele>36.6675</ele>
        <time>2012-05-20T15:07:42Z</time>
      </trkpt>
      <trkpt lat="59.8968021" lon="17.8429754">
        <ele>42.916</ele>
        <time>2012-05-20T15:07:49Z</time>
      </trkpt>
      <trkpt lat="59.8970634" lon="17.8428435">
        <ele>44.358</ele>
        <time>2012-05-20T15:07:57Z</time>
      </trkpt>
      <trkpt lat="59.8972324" lon="17.8427045">
        <ele>48.2034</ele>
        <time>2012-05-20T15:08:03Z</time>
      </trkpt>
      <trkpt lat="59.8974135" lon="17.8425361">
        <ele>48.2034</ele>
        <time>2012-05-20T15:08:09Z</time>
      </trkpt>
      <trkpt lat="59.8976725" lon="17.8423931">
        <ele>47.2418</ele>
        <time>2012-05-20T15:08:15Z</time>
      </trkpt>
      <trkpt lat="59.8978525" lon="17.8423414">
        <ele>46.2806</ele>
        <time>2012-05-20T15:08:19Z</time>
      </trkpt>
      <trkpt lat="59.8980452" lon="17.8423553">
        <ele>47.2418</ele>
        <time>2012-05-20T15:08:23Z</time>
      </trkpt>
      <trkpt lat="59.8984532" lon="17.8423067">
        <ele>50.6066</ele>
        <time>2012-05-20T15:08:31Z</time>
      </trkpt>
      <trkpt lat="59.8987258" lon="17.8421819">
        <ele>50.126</ele>
        <time>2012-05-20T15:08:37Z</time>
      </trkpt>
      <trkpt lat="59.8989024" lon="17.8420879">
        <ele>50.126</ele>
        <time>2012-05-20T15:08:41Z</time>
      </trkpt>
      <trkpt lat="59.8990277" lon="17.8420425">
        <ele>49.6453</ele>
        <time>2012-05-20T15:08:44Z</time>
      </trkpt>
      <trkpt lat="59.8991846" lon="17.8418963">
        <ele>46.2806</ele>
        <time>2012-05-20T15:08:48Z</time>
      </trkpt>
      <trkpt lat="59.8994412" lon="17.841627">
        <ele>41.474</ele>
        <time>2012-05-20T15:08:54Z</time>
      </trkpt>
      <trkpt lat="59.8997674" lon="17.8414939">
        <ele>40.9934</ele>
        <time>2012-05-20T15:08:59Z</time>
      </trkpt>
      <trkpt lat="59.90027" lon="17.8414339">
        <ele>34.7449</ele>
        <time>2012-05-20T15:09:05Z</time>
      </trkpt>
      <trkpt lat="59.9007435" lon="17.8414742">
        <ele>30.4188</ele>
        <time>2012-05-20T15:09:10Z</time>
      </trkpt>
      <trkpt lat="59.9015059" lon="17.8415701">
        <ele>29.9381</ele>
        <time>2012-05-20T15:09:18Z</time>
      </trkpt>
      <trkpt lat="59.9020001" lon="17.8416592">
        <ele>35.2255</ele>
        <time>2012-05-20T15:09:24Z</time>
      </trkpt>
      <trkpt lat="59.9023173" lon="17.8416565">
        <ele>32.8223</ele>
        <time>2012-05-20T15:09:29Z</time>
      </trkpt>
      <trkpt lat="59.9027228" lon="17.8414795">
        <ele>29.4575</ele>
        <time>2012-05-20T15:09:34Z</time>
      </trkpt>
      <trkpt lat="59.9030466" lon="17.8413483">
        <ele>26.5736</ele>
        <time>2012-05-20T15:09:38Z</time>
      </trkpt>
      <trkpt lat="59.9033437" lon="17.8414179">
        <ele>28.0155</ele>
        <time>2012-05-20T15:09:42Z</time>
      </trkpt>
      <trkpt lat="59.9034817" lon="17.8415627">
        <ele>28.4962</ele>
        <time>2012-05-20T15:09:44Z</time>
      </trkpt>
      <trkpt lat="59.903736" lon="17.8419363">
        <ele>27.5349</ele>
        <time>2012-05-20T15:09:48Z</time>
      </trkpt>
      <trkpt lat="59.9040541" lon="17.8420922">
        <ele>28.9769</ele>
        <time>2012-05-20T15:09:52Z</time>
      </trkpt>
      <trkpt lat="59.9043973" lon="17.8419691">
        <ele>29.9381</ele>
        <time>2012-05-20T15:09:56Z</time>
      </trkpt>
      <trkpt lat="59.9048601" lon="17.8416385">
        <ele>29.4575</ele>
        <time>2012-05-20T15:10:02Z</time>
      </trkpt>
      <trkpt lat="59.9052807" lon="17.8414577">
        <ele>24.1703</ele>
        <time>2012-05-20T15:10:07Z</time>
      </trkpt>
      <trkpt lat="59.9058359" lon="17.8412189">
        <ele>20.8057</ele>
        <time>2012-05-20T15:10:13Z</time>
      </trkpt>
      <trkpt lat="59.9061314" lon="17.8408625">
        <ele>21.2864</ele>
        <time>2012-05-20T15:10:17Z</time>
      </trkpt>
      <trkpt lat="59.9064934" lon="17.8403945">
        <ele>23.6896</ele>
        <time>2012-05-20T15:10:23Z</time>
      </trkpt>
      <trkpt lat="59.9068931" lon="17.8400639">
        <ele>28.0155</ele>
        <time>2012-05-20T15:10:31Z</time>
      </trkpt>
      <trkpt lat="59.9072236" lon="17.8398125">
        <ele>30.8995</ele>
        <time>2012-05-20T15:10:39Z</time>
      </trkpt>
      <trkpt lat="59.9074293" lon="17.8396248">
        <ele>32.3416</ele>
        <time>2012-05-20T15:10:46Z</time>
      </trkpt>
      <trkpt lat="59.9076207" lon="17.8394297">
        <ele>33.7834</ele>
        <time>2012-05-20T15:10:53Z</time>
      </trkpt>
      <trkpt lat="59.9077931" lon="17.8392214">
        <ele>33.3029</ele>
        <time>2012-05-20T15:10:58Z</time>
      </trkpt>
      <trkpt lat="59.9081014" lon="17.8388868">
        <ele>30.8995</ele>
        <time>2012-05-20T15:11:04Z</time>
      </trkpt>
      <trkpt lat="59.9082319" lon="17.8387949">
        <ele>31.3801</ele>
        <time>2012-05-20T15:11:06Z</time>
      </trkpt>
      <trkpt lat="59.9085968" lon="17.8388189">
        <ele>30.4188</ele>
        <time>2012-05-20T15:11:11Z</time>
      </trkpt>
      <trkpt lat="59.9088316" lon="17.8390811">
        <ele>28.9769</ele>
        <time>2012-05-20T15:11:14Z</time>
      </trkpt>
      <trkpt lat="59.9089659" lon="17.8393609">
        <ele>27.5349</ele>
        <time>2012-05-20T15:11:16Z</time>
      </trkpt>
      <trkpt lat="59.9094999" lon="17.8408502">
        <ele>20.8057</ele>
        <time>2012-05-20T15:11:25Z</time>
      </trkpt>
      <trkpt lat="59.9096261" lon="17.8416742">
        <ele>17.9218</ele>
        <time>2012-05-20T15:11:30Z</time>
      </trkpt>
      <trkpt lat="59.9096246" lon="17.8418167">
        <ele>18.4023</ele>
        <time>2012-05-20T15:11:31Z</time>
      </trkpt>
      <trkpt lat="59.9095809" lon="17.8425575">
        <ele>18.8831</ele>
        <time>2012-05-20T15:11:37Z</time>
      </trkpt>
      <trkpt lat="59.909578" lon="17.8426776">
        <ele>19.3638</ele>
        <time>2012-05-20T15:11:38Z</time>
      </trkpt>
      <trkpt lat="59.909688" lon="17.8430967">
        <ele>20.8057</ele>
        <time>2012-05-20T15:11:42Z</time>
      </trkpt>
      <trkpt lat="59.9097432" lon="17.8431701">
        <ele>20.8057</ele>
        <time>2012-05-20T15:11:43Z</time>
      </trkpt>
      <trkpt lat="59.9103008" lon="17.8437338">
        <ele>21.767</ele>
        <time>2012-05-20T15:11:52Z</time>
      </trkpt>
      <trkpt lat="59.9107493" lon="17.8440559">
        <ele>23.6896</ele>
        <time>2012-05-20T15:11:58Z</time>
      </trkpt>
      <trkpt lat="59.910989" lon="17.844241">
        <ele>23.209</ele>
        <time>2012-05-20T15:12:01Z</time>
      </trkpt>
      <trkpt lat="59.9114725" lon="17.8443451">
        <ele>23.209</ele>
        <time>2012-05-20T15:12:07Z</time>
      </trkpt>
      <trkpt lat="59.9118207" lon="17.8442972">
        <ele>25.6123</ele>
        <time>2012-05-20T15:12:12Z</time>
      </trkpt>
      <trkpt lat="59.9122024" lon="17.8440539">
        <ele>24.651</ele>
        <time>2012-05-20T15:12:18Z</time>
      </trkpt>
      <trkpt lat="59.9125182" lon="17.8437138">
        <ele>22.2476</ele>
        <time>2012-05-20T15:12:24Z</time>
      </trkpt>
      <trkpt lat="59.9129034" lon="17.8434173">
        <ele>20.325</ele>
        <time>2012-05-20T15:12:31Z</time>
      </trkpt>
      <trkpt lat="59.9134183" lon="17.8432532">
        <ele>16.9604</ele>
        <time>2012-05-20T15:12:39Z</time>
      </trkpt>
      <trkpt lat="59.9135506" lon="17.843196">
        <ele>15.999</ele>
        <time>2012-05-20T15:12:41Z</time>
      </trkpt>
      <trkpt lat="59.9140531" lon="17.8427812">
        <ele>15.0377</ele>
        <time>2012-05-20T15:12:49Z</time>
      </trkpt>
      <trkpt lat="59.9144794" lon="17.8423109">
        <ele>14.0764</ele>
        <time>2012-05-20T15:12:56Z</time>
      </trkpt>
      <trkpt lat="59.9145889" lon="17.8421823">
        <ele>14.0764</ele>
        <time>2012-05-20T15:12:58Z</time>
      </trkpt>
      <trkpt lat="59.9148045" lon="17.8420052">
        <ele>13.5958</ele>
        <time>2012-05-20T15:13:02Z</time>
      </trkpt>
      <trkpt lat="59.9151595" lon="17.8418767">
        <ele>13.1151</ele>
        <time>2012-05-20T15:13:08Z</time>
      </trkpt>
      <trkpt lat="59.9155833" lon="17.8419198">
        <ele>9.2699</ele>
        <time>2012-05-20T15:13:16Z</time>
      </trkpt>
      <trkpt lat="59.9159352" lon="17.8419819">
        <ele>5.90527</ele>
        <time>2012-05-20T15:13:22Z</time>
      </trkpt>
      <trkpt lat="59.9162071" lon="17.8422169">
        <ele>5.42456</ele>
        <time>2012-05-20T15:13:27Z</time>
      </trkpt>
      <trkpt lat="59.9165504" lon="17.8426709">
        <ele>10.7118</ele>
        <time>2012-05-20T15:13:35Z</time>
      </trkpt>
      <trkpt lat="59.9168116" lon="17.8429697">
        <ele>15.5184</ele>
        <time>2012-05-20T15:13:41Z</time>
      </trkpt>
      <trkpt lat="59.9170318" lon="17.8430614">
        <ele>15.999</ele>
        <time>2012-05-20T15:13:46Z</time>
      </trkpt>
      <trkpt lat="59.9171293" lon="17.8430138">
        <ele>16.9604</ele>
        <time>2012-05-20T15:13:48Z</time>
      </trkpt>
      <trkpt lat="59.9175565" lon="17.8426621">
        <ele>17.9218</ele>
        <time>2012-05-20T15:13:57Z</time>
      </trkpt>
      <trkpt lat="59.9179112" lon="17.8422943">
        <ele>15.999</ele>
        <time>2012-05-20T15:14:05Z</time>
      </trkpt>
      <trkpt lat="59.918403" lon="17.8418152">
        <ele>19.3638</ele>
        <time>2012-05-20T15:14:14Z</time>
      </trkpt>
      <trkpt lat="59.9188097" lon="17.8414941">
        <ele>20.325</ele>
        <time>2012-05-20T15:14:21Z</time>
      </trkpt>
      <trkpt lat="59.9192184" lon="17.8412192">
        <ele>19.8444</ele>
        <time>2012-05-20T15:14:28Z</time>
      </trkpt>
      <trkpt lat="59.9197736" lon="17.8408665">
        <ele>21.767</ele>
        <time>2012-05-20T15:14:37Z</time>
      </trkpt>
      <trkpt lat="59.9201166" lon="17.8408164">
        <ele>22.2476</ele>
        <time>2012-05-20T15:14:43Z</time>
      </trkpt>
      <trkpt lat="59.920547" lon="17.8408203">
        <ele>22.2476</ele>
        <time>2012-05-20T15:14:50Z</time>
      </trkpt>
      <trkpt lat="59.9210883" lon="17.8407806">
        <ele>19.8444</ele>
        <time>2012-05-20T15:14:58Z</time>
      </trkpt>
      <trkpt lat="59.9215841" lon="17.8407076">
        <ele>18.4023</ele>
        <time>2012-05-20T15:15:05Z</time>
      </trkpt>
      <trkpt lat="59.9220203" lon="17.8406004">
        <ele>17.9218</ele>
        <time>2012-05-20T15:15:12Z</time>
      </trkpt>
      <trkpt lat="59.922532" lon="17.8404116">
        <ele>19.3638</ele>
        <time>2012-05-20T15:15:20Z</time>
      </trkpt>
      <trkpt lat="59.9229666" lon="17.840191">
        <ele>19.8444</ele>
        <time>2012-05-20T15:15:27Z</time>
      </trkpt>
      <trkpt lat="59.9234073" lon="17.8399518">
        <ele>18.8831</ele>
        <time>2012-05-20T15:15:34Z</time>
      </trkpt>
      <trkpt lat="59.9238399" lon="17.8397419">
        <ele>18.4023</ele>
        <time>2012-05-20T15:15:41Z</time>
      </trkpt>
      <trkpt lat="59.9243127" lon="17.8395586">
        <ele>17.4412</ele>
        <time>2012-05-20T15:15:48Z</time>
      </trkpt>
      <trkpt lat="59.9247497" lon="17.8394816">
        <ele>17.9218</ele>
        <time>2012-05-20T15:15:55Z</time>
      </trkpt>
      <trkpt lat="59.9253283" lon="17.8394448">
        <ele>21.767</ele>
        <time>2012-05-20T15:16:04Z</time>
      </trkpt>
      <trkpt lat="59.9256695" lon="17.8394711">
        <ele>21.767</ele>
        <time>2012-05-20T15:16:09Z</time>
      </trkpt>
      <trkpt lat="59.9259196" lon="17.8392965">
        <ele>22.2476</ele>
        <time>2012-05-20T15:16:13Z</time>
      </trkpt>
      <trkpt lat="59.9261919" lon="17.8387925">
        <ele>21.2864</ele>
        <time>2012-05-20T15:16:19Z</time>
      </trkpt>
      <trkpt lat="59.9264704" lon="17.8381505">
        <ele>19.3638</ele>
        <time>2012-05-20T15:16:26Z</time>
      </trkpt>
      <trkpt lat="59.9266324" lon="17.8378967">
        <ele>18.4023</ele>
        <time>2012-05-20T15:16:30Z</time>
      </trkpt>
      <trkpt lat="59.9268926" lon="17.8377102">
        <ele>19.8444</ele>
        <time>2012-05-20T15:16:36Z</time>
      </trkpt>
      <trkpt lat="59.9270039" lon="17.837613">
        <ele>20.325</ele>
        <time>2012-05-20T15:16:39Z</time>
      </trkpt>
      <trkpt lat="59.9271144" lon="17.8374621">
        <ele>20.8057</ele>
        <time>2012-05-20T15:16:42Z</time>
      </trkpt>
      <trkpt lat="59.9272971" lon="17.837243">
        <ele>21.767</ele>
        <time>2012-05-20T15:16:47Z</time>
      </trkpt>
      <trkpt lat="59.9276549" lon="17.8367436">
        <ele>22.7283</ele>
        <time>2012-05-20T15:16:57Z</time>
      </trkpt>
      <trkpt lat="59.9279187" lon="17.8363318">
        <ele>22.7283</ele>
        <time>2012-05-20T15:17:03Z</time>
      </trkpt>
      <trkpt lat="59.9284182" lon="17.8356026">
        <ele>25.1317</ele>
        <time>2012-05-20T15:17:13Z</time>
      </trkpt>
      <trkpt lat="59.9289291" lon="17.834894">
        <ele>27.0543</ele>
        <time>2012-05-20T15:17:23Z</time>
      </trkpt>
      <trkpt lat="59.9293851" lon="17.8342998">
        <ele>28.0155</ele>
        <time>2012-05-20T15:17:32Z</time>
      </trkpt>
      <trkpt lat="59.929766" lon="17.8336815">
        <ele>27.5349</ele>
        <time>2012-05-20T15:17:40Z</time>
      </trkpt>
      <trkpt lat="59.9303384" lon="17.832797">
        <ele>27.5349</ele>
        <time>2012-05-20T15:17:51Z</time>
      </trkpt>
      <trkpt lat="59.9308599" lon="17.8319967">
        <ele>27.5349</ele>
        <time>2012-05-20T15:18:01Z</time>
      </trkpt>
      <trkpt lat="59.9313013" lon="17.8312353">
        <ele>26.5736</ele>
        <time>2012-05-20T15:18:09Z</time>
      </trkpt>
      <trkpt lat="59.9316007" lon="17.8305159">
        <ele>26.5736</ele>
        <time>2012-05-20T15:18:16Z</time>
      </trkpt>
      <trkpt lat="59.9317884" lon="17.8298299">
        <ele>24.1703</ele>
        <time>2012-05-20T15:18:22Z</time>
      </trkpt>
      <trkpt lat="59.9320613" lon="17.8287866">
        <ele>21.2864</ele>
        <time>2012-05-20T15:18:30Z</time>
      </trkpt>
      <trkpt lat="59.9323298" lon="17.8281077">
        <ele>20.325</ele>
        <time>2012-05-20T15:18:36Z</time>
      </trkpt>
      <trkpt lat="59.9327051" lon="17.8273839">
        <ele>19.8444</ele>
        <time>2012-05-20T15:18:43Z</time>
      </trkpt>
      <trkpt lat="59.9331316" lon="17.8266968">
        <ele>19.8444</ele>
        <time>2012-05-20T15:18:51Z</time>
      </trkpt>
      <trkpt lat="59.9335501" lon="17.826239">
        <ele>20.325</ele>
        <time>2012-05-20T15:18:58Z</time>
      </trkpt>
      <trkpt lat="59.9340432" lon="17.8259548">
        <ele>20.8057</ele>
        <time>2012-05-20T15:19:05Z</time>
      </trkpt>
      <trkpt lat="59.9347075" lon="17.8256599">
        <ele>19.3638</ele>
        <time>2012-05-20T15:19:14Z</time>
      </trkpt>
      <trkpt lat="59.9351107" lon="17.8254787">
        <ele>18.8831</ele>
        <time>2012-05-20T15:19:20Z</time>
      </trkpt>
      <trkpt lat="59.9356853" lon="17.8252215">
        <ele>18.8831</ele>
        <time>2012-05-20T15:19:28Z</time>
      </trkpt>
      <trkpt lat="59.9361412" lon="17.825033">
        <ele>18.8831</ele>
        <time>2012-05-20T15:19:35Z</time>
      </trkpt>
      <trkpt lat="59.9365972" lon="17.8248056">
        <ele>20.8057</ele>
        <time>2012-05-20T15:19:42Z</time>
      </trkpt>
      <trkpt lat="59.9366576" lon="17.8247496">
        <ele>20.8057</ele>
        <time>2012-05-20T15:19:43Z</time>
      </trkpt>
      <trkpt lat="59.9369442" lon="17.8242929">
        <ele>20.8057</ele>
        <time>2012-05-20T15:19:49Z</time>
      </trkpt>
      <trkpt lat="59.9372117" lon="17.8236056">
        <ele>20.8057</ele>
        <time>2012-05-20T15:19:57Z</time>
      </trkpt>
      <trkpt lat="59.9375552" lon="17.8227083">
        <ele>21.2864</ele>
        <time>2012-05-20T15:20:07Z</time>
      </trkpt>
      <trkpt lat="59.9377987" lon="17.8220204">
        <ele>20.8057</ele>
        <time>2012-05-20T15:20:14Z</time>
      </trkpt>
      <trkpt lat="59.9380697" lon="17.8213403">
        <ele>20.8057</ele>
        <time>2012-05-20T15:20:21Z</time>
      </trkpt>
      <trkpt lat="59.9384068" lon="17.8205954">
        <ele>21.2864</ele>
        <time>2012-05-20T15:20:30Z</time>
      </trkpt>
      <trkpt lat="59.9386965" lon="17.8199783">
        <ele>21.767</ele>
        <time>2012-05-20T15:20:38Z</time>
      </trkpt>
      <trkpt lat="59.9389543" lon="17.8194519">
        <ele>22.2476</ele>
        <time>2012-05-20T15:20:45Z</time>
      </trkpt>
      <trkpt lat="59.9393192" lon="17.8186889">
        <ele>22.2476</ele>
        <time>2012-05-20T15:20:54Z</time>
      </trkpt>
      <trkpt lat="59.9394596" lon="17.8183419">
        <ele>22.2476</ele>
        <time>2012-05-20T15:20:58Z</time>
      </trkpt>
      <trkpt lat="59.939644" lon="17.8181974">
        <ele>24.1703</ele>
        <time>2012-05-20T15:21:03Z</time>
      </trkpt>
      <trkpt lat="59.9397574" lon="17.8183056">
        <ele>24.1703</ele>
        <time>2012-05-20T15:21:06Z</time>
      </trkpt>
      <trkpt lat="59.9402089" lon="17.8188669">
        <ele>23.209</ele>
        <time>2012-05-20T15:21:15Z</time>
      </trkpt>
      <trkpt lat="59.9408287" lon="17.8196392">
        <ele>21.767</ele>
        <time>2012-05-20T15:21:26Z</time>
      </trkpt>
      <trkpt lat="59.9414441" lon="17.8203901">
        <ele>19.3638</ele>
        <time>2012-05-20T15:21:36Z</time>
      </trkpt>
      <trkpt lat="59.9419968" lon="17.8210749">
        <ele>18.4023</ele>
        <time>2012-05-20T15:21:45Z</time>
      </trkpt>
      <trkpt lat="59.9424664" lon="17.8216505">
        <ele>18.8831</ele>
        <time>2012-05-20T15:21:54Z</time>
      </trkpt>
      <trkpt lat="59.9430256" lon="17.822346">
        <ele>20.8057</ele>
        <time>2012-05-20T15:22:04Z</time>
      </trkpt>
      <trkpt lat="59.9434799" lon="17.8229107">
        <ele>21.767</ele>
        <time>2012-05-20T15:22:12Z</time>
      </trkpt>
      <trkpt lat="59.9437962" lon="17.8233107">
        <ele>23.209</ele>
        <time>2012-05-20T15:22:19Z</time>
      </trkpt>
      <trkpt lat="59.9441108" lon="17.8237107">
        <ele>24.1703</ele>
        <time>2012-05-20T15:22:26Z</time>
      </trkpt>
      <trkpt lat="59.944306" lon="17.823966">
        <ele>24.1703</ele>
        <time>2012-05-20T15:22:31Z</time>
      </trkpt>
      <trkpt lat="59.9445967" lon="17.8242471">
        <ele>22.7283</ele>
        <time>2012-05-20T15:22:37Z</time>
      </trkpt>
      <trkpt lat="59.9450127" lon="17.8246823">
        <ele>23.6896</ele>
        <time>2012-05-20T15:22:45Z</time>
      </trkpt>
      <trkpt lat="59.9456019" lon="17.8252926">
        <ele>21.2864</ele>
        <time>2012-05-20T15:22:56Z</time>
      </trkpt>
      <trkpt lat="59.9460999" lon="17.8258046">
        <ele>20.325</ele>
        <time>2012-05-20T15:23:04Z</time>
      </trkpt>
      <trkpt lat="59.9465465" lon="17.8262643">
        <ele>20.325</ele>
        <time>2012-05-20T15:23:11Z</time>
      </trkpt>
      <trkpt lat="59.9470945" lon="17.8268213">
        <ele>20.325</ele>
        <time>2012-05-20T15:23:20Z</time>
      </trkpt>
      <trkpt lat="59.9475733" lon="17.8273177">
        <ele>20.325</ele>
        <time>2012-05-20T15:23:28Z</time>
      </trkpt>
      <trkpt lat="59.9480912" lon="17.8278589">
        <ele>20.8057</ele>
        <time>2012-05-20T15:23:36Z</time>
      </trkpt>
      <trkpt lat="59.948485" lon="17.8282687">
        <ele>19.8444</ele>
        <time>2012-05-20T15:23:43Z</time>
      </trkpt>
      <trkpt lat="59.9488397" lon="17.8286472">
        <ele>19.3638</ele>
        <time>2012-05-20T15:23:49Z</time>
      </trkpt>
      <trkpt lat="59.9493764" lon="17.82927">
        <ele>19.8444</ele>
        <time>2012-05-20T15:23:58Z</time>
      </trkpt>
      <trkpt lat="59.949724" lon="17.829792">
        <ele>20.8057</ele>
        <time>2012-05-20T15:24:05Z</time>
      </trkpt>
      <trkpt lat="59.9497638" lon="17.8298688">
        <ele>20.8057</ele>
        <time>2012-05-20T15:24:06Z</time>
      </trkpt>
      <trkpt lat="59.949799" lon="17.8299487">
        <ele>21.2864</ele>
        <time>2012-05-20T15:24:07Z</time>
      </trkpt>
      <trkpt lat="59.9501445" lon="17.8303624">
        <ele>24.1703</ele>
        <time>2012-05-20T15:30:50Z</time>
      </trkpt>
      <trkpt lat="59.9501228" lon="17.8303037">
        <ele>24.1703</ele>
        <time>2012-05-20T15:30:51Z</time>
      </trkpt>
      <trkpt lat="59.9501124" lon="17.8302367">
        <ele>24.651</ele>
        <time>2012-05-20T15:30:52Z</time>
      </trkpt>
      <trkpt lat="59.950046" lon="17.8296899">
        <ele>24.1703</ele>
        <time>2012-05-20T15:30:57Z</time>
      </trkpt>
      <trkpt lat="59.9500446" lon="17.8292977">
        <ele>23.209</ele>
        <time>2012-05-20T15:31:01Z</time>
      </trkpt>
      <trkpt lat="59.950048" lon="17.8289509">
        <ele>22.7283</ele>
        <time>2012-05-20T15:31:04Z</time>
      </trkpt>
      <trkpt lat="59.950011" lon="17.8280432">
        <ele>21.767</ele>
        <time>2012-05-20T15:31:12Z</time>
      </trkpt>
      <trkpt lat="59.9500035" lon="17.8271938">
        <ele>22.7283</ele>
        <time>2012-05-20T15:31:20Z</time>
      </trkpt>
      <trkpt lat="59.9500622" lon="17.8263962">
        <ele>23.209</ele>
        <time>2012-05-20T15:31:27Z</time>
      </trkpt>
      <trkpt lat="59.9501886" lon="17.8257765">
        <ele>25.1317</ele>
        <time>2012-05-20T15:31:33Z</time>
      </trkpt>
      <trkpt lat="59.9504034" lon="17.8248545">
        <ele>24.651</ele>
        <time>2012-05-20T15:31:42Z</time>
      </trkpt>
      <trkpt lat="59.9505179" lon="17.8243062">
        <ele>22.7283</ele>
        <time>2012-05-20T15:31:48Z</time>
      </trkpt>
      <trkpt lat="59.9506284" lon="17.8238666">
        <ele>20.8057</ele>
        <time>2012-05-20T15:31:53Z</time>
      </trkpt>
      <trkpt lat="59.9507105" lon="17.8232512">
        <ele>19.3638</ele>
        <time>2012-05-20T15:31:59Z</time>
      </trkpt>
      <trkpt lat="59.9507593" lon="17.822585">
        <ele>16.9604</ele>
        <time>2012-05-20T15:32:06Z</time>
      </trkpt>
      <trkpt lat="59.9508289" lon="17.8218899">
        <ele>18.4023</ele>
        <time>2012-05-20T15:32:13Z</time>
      </trkpt>
      <trkpt lat="59.9509089" lon="17.8211127">
        <ele>22.7283</ele>
        <time>2012-05-20T15:32:21Z</time>
      </trkpt>
      <trkpt lat="59.9509459" lon="17.8206346">
        <ele>22.7283</ele>
        <time>2012-05-20T15:32:26Z</time>
      </trkpt>
      <trkpt lat="59.9509851" lon="17.8198674">
        <ele>24.1703</ele>
        <time>2012-05-20T15:32:34Z</time>
      </trkpt>
      <trkpt lat="59.950991" lon="17.8193256">
        <ele>23.209</ele>
        <time>2012-05-20T15:32:40Z</time>
      </trkpt>
      <trkpt lat="59.9510281" lon="17.8186327">
        <ele>21.2864</ele>
        <time>2012-05-20T15:32:47Z</time>
      </trkpt>
      <trkpt lat="59.9510926" lon="17.818064">
        <ele>24.1703</ele>
        <time>2012-05-20T15:32:53Z</time>
      </trkpt>
      <trkpt lat="59.9511643" lon="17.8173868">
        <ele>26.0929</ele>
        <time>2012-05-20T15:33:01Z</time>
      </trkpt>
      <trkpt lat="59.9512083" lon="17.8167575">
        <ele>25.6123</ele>
        <time>2012-05-20T15:33:08Z</time>
      </trkpt>
      <trkpt lat="59.9512469" lon="17.8161346">
        <ele>24.1703</ele>
        <time>2012-05-20T15:33:15Z</time>
      </trkpt>
      <trkpt lat="59.9512874" lon="17.8152396">
        <ele>24.1703</ele>
        <time>2012-05-20T15:33:24Z</time>
      </trkpt>
      <trkpt lat="59.9512986" lon="17.8144243">
        <ele>25.1317</ele>
        <time>2012-05-20T15:33:32Z</time>
      </trkpt>
      <trkpt lat="59.9513188" lon="17.8135541">
        <ele>27.5349</ele>
        <time>2012-05-20T15:33:40Z</time>
      </trkpt>
      <trkpt lat="59.9513296" lon="17.8127775">
        <ele>27.0543</ele>
        <time>2012-05-20T15:33:48Z</time>
      </trkpt>
      <trkpt lat="59.9513441" lon="17.8120606">
        <ele>25.1317</ele>
        <time>2012-05-20T15:33:55Z</time>
      </trkpt>
      <trkpt lat="59.9514135" lon="17.8114054">
        <ele>26.0929</ele>
        <time>2012-05-20T15:34:01Z</time>
      </trkpt>
      <trkpt lat="59.9515331" lon="17.8106616">
        <ele>27.0543</ele>
        <time>2012-05-20T15:34:08Z</time>
      </trkpt>
      <trkpt lat="59.9516183" lon="17.8102809">
        <ele>28.0155</ele>
        <time>2012-05-20T15:34:12Z</time>
      </trkpt>
      <trkpt lat="59.9517892" lon="17.8096365">
        <ele>28.4962</ele>
        <time>2012-05-20T15:34:19Z</time>
      </trkpt>
      <trkpt lat="59.9519966" lon="17.8088913">
        <ele>27.5349</ele>
        <time>2012-05-20T15:34:27Z</time>
      </trkpt>
      <trkpt lat="59.9521688" lon="17.8082202">
        <ele>27.0543</ele>
        <time>2012-05-20T15:34:34Z</time>
      </trkpt>
      <trkpt lat="59.9523108" lon="17.8076855">
        <ele>27.0543</ele>
        <time>2012-05-20T15:34:40Z</time>
      </trkpt>
      <trkpt lat="59.9525054" lon="17.8069109">
        <ele>28.0155</ele>
        <time>2012-05-20T15:34:49Z</time>
      </trkpt>
      <trkpt lat="59.952616" lon="17.8064038">
        <ele>28.9769</ele>
        <time>2012-05-20T15:34:55Z</time>
      </trkpt>
      <trkpt lat="59.9527138" lon="17.8058508">
        <ele>28.4962</ele>
        <time>2012-05-20T15:35:01Z</time>
      </trkpt>
      <trkpt lat="59.9528123" lon="17.8050348">
        <ele>28.0155</ele>
        <time>2012-05-20T15:35:10Z</time>
      </trkpt>
      <trkpt lat="59.9528817" lon="17.804492">
        <ele>28.0155</ele>
        <time>2012-05-20T15:35:16Z</time>
      </trkpt>
      <trkpt lat="59.9529273" lon="17.8043365">
        <ele>28.4962</ele>
        <time>2012-05-20T15:35:18Z</time>
      </trkpt>
      <trkpt lat="59.9530098" lon="17.8041377">
        <ele>31.3801</ele>
        <time>2012-05-20T15:35:21Z</time>
      </trkpt>
      <trkpt lat="59.9530698" lon="17.8040148">
        <ele>34.2642</ele>
        <time>2012-05-20T15:35:23Z</time>
      </trkpt>
      <trkpt lat="59.9532727" lon="17.8035166">
        <ele>32.8223</ele>
        <time>2012-05-20T15:35:32Z</time>
      </trkpt>
      <trkpt lat="59.9534251" lon="17.8031021">
        <ele>34.7449</ele>
        <time>2012-05-20T15:35:38Z</time>
      </trkpt>
      <trkpt lat="59.9535588" lon="17.8024536">
        <ele>37.6287</ele>
        <time>2012-05-20T15:35:46Z</time>
      </trkpt>
      <trkpt lat="59.9536754" lon="17.801866">
        <ele>37.6287</ele>
        <time>2012-05-20T15:35:52Z</time>
      </trkpt>
      <trkpt lat="59.9537038" lon="17.8017511">
        <ele>38.1094</ele>
        <time>2012-05-20T15:35:53Z</time>
      </trkpt>
      <trkpt lat="59.9539478" lon="17.8010002">
        <ele>37.1481</ele>
        <time>2012-05-20T15:35:59Z</time>
      </trkpt>
      <trkpt lat="59.954257" lon="17.8001682">
        <ele>33.7834</ele>
        <time>2012-05-20T15:36:06Z</time>
      </trkpt>
      <trkpt lat="59.9546164" lon="17.7993809">
        <ele>28.9769</ele>
        <time>2012-05-20T15:36:13Z</time>
      </trkpt>
      <trkpt lat="59.954891" lon="17.7988709">
        <ele>29.9381</ele>
        <time>2012-05-20T15:36:19Z</time>
      </trkpt>
      <trkpt lat="59.9551636" lon="17.7983009">
        <ele>30.4188</ele>
        <time>2012-05-20T15:36:25Z</time>
      </trkpt>
      <trkpt lat="59.9554275" lon="17.7974536">
        <ele>29.9381</ele>
        <time>2012-05-20T15:36:32Z</time>
      </trkpt>
      <trkpt lat="59.9556536" lon="17.7965595">
        <ele>30.4188</ele>
        <time>2012-05-20T15:36:39Z</time>
      </trkpt>
      <trkpt lat="59.9558576" lon="17.7954635">
        <ele>28.9769</ele>
        <time>2012-05-20T15:36:47Z</time>
      </trkpt>
      <trkpt lat="59.9561006" lon="17.7944494">
        <ele>27.5349</ele>
        <time>2012-05-20T15:36:55Z</time>
      </trkpt>
      <trkpt lat="59.9563348" lon="17.7933491">
        <ele>27.0543</ele>
        <time>2012-05-20T15:37:04Z</time>
      </trkpt>
      <trkpt lat="59.9564912" lon="17.7925416">
        <ele>27.0543</ele>
        <time>2012-05-20T15:37:11Z</time>
      </trkpt>
      <trkpt lat="59.9566761" lon="17.7914976">
        <ele>26.5736</ele>
        <time>2012-05-20T15:37:20Z</time>
      </trkpt>
      <trkpt lat="59.9567124" lon="17.7910884">
        <ele>27.5349</ele>
        <time>2012-05-20T15:37:24Z</time>
      </trkpt>
      <trkpt lat="59.9566309" lon="17.7906626">
        <ele>31.3801</ele>
        <time>2012-05-20T15:37:29Z</time>
      </trkpt>
      <trkpt lat="59.9565563" lon="17.7902111">
        <ele>32.3416</ele>
        <time>2012-05-20T15:37:33Z</time>
      </trkpt>
      <trkpt lat="59.9565732" lon="17.7897281">
        <ele>33.3029</ele>
        <time>2012-05-20T15:37:37Z</time>
      </trkpt>
      <trkpt lat="59.9567027" lon="17.7894375">
        <ele>30.4188</ele>
        <time>2012-05-20T15:37:40Z</time>
      </trkpt>
      <trkpt lat="59.9567581" lon="17.7893598">
        <ele>29.9381</ele>
        <time>2012-05-20T15:37:41Z</time>
      </trkpt>
      <trkpt lat="59.9571349" lon="17.7888044">
        <ele>26.0929</ele>
        <time>2012-05-20T15:37:48Z</time>
      </trkpt>
      <trkpt lat="59.9573264" lon="17.7882871">
        <ele>24.651</ele>
        <time>2012-05-20T15:37:54Z</time>
      </trkpt>
      <trkpt lat="59.9575232" lon="17.787534">
        <ele>24.1703</ele>
        <time>2012-05-20T15:38:01Z</time>
      </trkpt>
      <trkpt lat="59.9576567" lon="17.7868589">
        <ele>25.1317</ele>
        <time>2012-05-20T15:38:07Z</time>
      </trkpt>
      <trkpt lat="59.957876" lon="17.7863847">
        <ele>25.1317</ele>
        <time>2012-05-20T15:38:12Z</time>
      </trkpt>
      <trkpt lat="59.9582017" lon="17.7859918">
        <ele>25.1317</ele>
        <time>2012-05-20T15:38:18Z</time>
      </trkpt>
      <trkpt lat="59.9585762" lon="17.7855556">
        <ele>27.0543</ele>
        <time>2012-05-20T15:38:25Z</time>
      </trkpt>
      <trkpt lat="59.9589218" lon="17.785264">
        <ele>26.5736</ele>
        <time>2012-05-20T15:38:31Z</time>
      </trkpt>
      <trkpt lat="59.9593345" lon="17.7848631">
        <ele>25.1317</ele>
        <time>2012-05-20T15:38:38Z</time>
      </trkpt>
      <trkpt lat="59.9596361" lon="17.7843966">
        <ele>25.6123</ele>
        <time>2012-05-20T15:38:44Z</time>
      </trkpt>
      <trkpt lat="59.9598289" lon="17.7840789">
        <ele>23.209</ele>
        <time>2012-05-20T15:38:48Z</time>
      </trkpt>
      <trkpt lat="59.9601597" lon="17.7832127">
        <ele>23.6896</ele>
        <time>2012-05-20T15:38:57Z</time>
      </trkpt>
      <trkpt lat="59.9603526" lon="17.7825585">
        <ele>26.5736</ele>
        <time>2012-05-20T15:39:04Z</time>
      </trkpt>
      <trkpt lat="59.9605213" lon="17.7819996">
        <ele>27.0543</ele>
        <time>2012-05-20T15:39:10Z</time>
      </trkpt>
      <trkpt lat="59.960832" lon="17.7813243">
        <ele>28.9769</ele>
        <time>2012-05-20T15:39:18Z</time>
      </trkpt>
      <trkpt lat="59.961115" lon="17.7808301">
        <ele>29.9381</ele>
        <time>2012-05-20T15:39:24Z</time>
      </trkpt>
      <trkpt lat="59.9614883" lon="17.7801616">
        <ele>28.9769</ele>
        <time>2012-05-20T15:39:31Z</time>
      </trkpt>
      <trkpt lat="59.9617382" lon="17.7796177">
        <ele>28.0155</ele>
        <time>2012-05-20T15:39:37Z</time>
      </trkpt>
      <trkpt lat="59.9620273" lon="17.7789614">
        <ele>28.0155</ele>
        <time>2012-05-20T15:39:44Z</time>
      </trkpt>
      <trkpt lat="59.9623026" lon="17.7783563">
        <ele>27.5349</ele>
        <time>2012-05-20T15:39:51Z</time>
      </trkpt>
      <trkpt lat="59.9625202" lon="17.7778896">
        <ele>27.0543</ele>
        <time>2012-05-20T15:39:57Z</time>
      </trkpt>
      <trkpt lat="59.9626988" lon="17.777523">
        <ele>26.5736</ele>
        <time>2012-05-20T15:40:03Z</time>
      </trkpt>
      <trkpt lat="59.9628829" lon="17.7771572">
        <ele>28.0155</ele>
        <time>2012-05-20T15:40:10Z</time>
      </trkpt>
      <trkpt lat="59.963059" lon="17.7766862">
        <ele>25.6123</ele>
        <time>2012-05-20T15:40:16Z</time>
      </trkpt>
      <trkpt lat="59.9632642" lon="17.7760067">
        <ele>26.0929</ele>
        <time>2012-05-20T15:40:23Z</time>
      </trkpt>
      <trkpt lat="59.9635108" lon="17.7752141">
        <ele>25.1317</ele>
        <time>2012-05-20T15:40:31Z</time>
      </trkpt>
      <trkpt lat="59.9636356" lon="17.7746536">
        <ele>25.1317</ele>
        <time>2012-05-20T15:40:37Z</time>
      </trkpt>
      <trkpt lat="59.9637828" lon="17.7737678">
        <ele>26.0929</ele>
        <time>2012-05-20T15:40:46Z</time>
      </trkpt>
      <trkpt lat="59.9638497" lon="17.7733532">
        <ele>26.0929</ele>
        <time>2012-05-20T15:40:50Z</time>
      </trkpt>
      <trkpt lat="59.963877" lon="17.7730346">
        <ele>26.0929</ele>
        <time>2012-05-20T15:40:53Z</time>
      </trkpt>
      <trkpt lat="59.9638238" lon="17.772327">
        <ele>25.6123</ele>
        <time>2012-05-20T15:41:00Z</time>
      </trkpt>
      <trkpt lat="59.9637017" lon="17.7717385">
        <ele>26.5736</ele>
        <time>2012-05-20T15:41:06Z</time>
      </trkpt>
      <trkpt lat="59.9635212" lon="17.7709503">
        <ele>28.4962</ele>
        <time>2012-05-20T15:41:14Z</time>
      </trkpt>
      <trkpt lat="59.9634687" lon="17.7705488">
        <ele>29.9381</ele>
        <time>2012-05-20T15:41:18Z</time>
      </trkpt>
      <trkpt lat="59.9634588" lon="17.7699066">
        <ele>28.9769</ele>
        <time>2012-05-20T15:41:25Z</time>
      </trkpt>
      <trkpt lat="59.9635148" lon="17.7694397">
        <ele>28.0155</ele>
        <time>2012-05-20T15:41:30Z</time>
      </trkpt>
      <trkpt lat="59.9637149" lon="17.7687305">
        <ele>27.5349</ele>
        <time>2012-05-20T15:41:38Z</time>
      </trkpt>
      <trkpt lat="59.9638925" lon="17.7680562">
        <ele>28.9769</ele>
        <time>2012-05-20T15:41:46Z</time>
      </trkpt>
      <trkpt lat="59.9639993" lon="17.7674896">
        <ele>30.8995</ele>
        <time>2012-05-20T15:41:53Z</time>
      </trkpt>
      <trkpt lat="59.9640324" lon="17.7672197">
        <ele>30.8995</ele>
        <time>2012-05-20T15:41:56Z</time>
      </trkpt>
      <trkpt lat="59.9640366" lon="17.7664394">
        <ele>30.8995</ele>
        <time>2012-05-20T15:42:04Z</time>
      </trkpt>
      <trkpt lat="59.9640335" lon="17.7663379">
        <ele>30.4188</ele>
        <time>2012-05-20T15:42:05Z</time>
      </trkpt>
      <trkpt lat="59.9640495" lon="17.7656445">
        <ele>29.4575</ele>
        <time>2012-05-20T15:42:11Z</time>
      </trkpt>
      <trkpt lat="59.9640568" lon="17.7655056">
        <ele>28.4962</ele>
        <time>2012-05-20T15:42:12Z</time>
      </trkpt>
      <trkpt lat="59.9641052" lon="17.7650657">
        <ele>26.5736</ele>
        <time>2012-05-20T15:42:15Z</time>
      </trkpt>
      <trkpt lat="59.9643173" lon="17.7641251">
        <ele>25.6123</ele>
        <time>2012-05-20T15:42:22Z</time>
      </trkpt>
      <trkpt lat="59.9646022" lon="17.7631155">
        <ele>19.3638</ele>
        <time>2012-05-20T15:42:31Z</time>
      </trkpt>
      <trkpt lat="59.9648173" lon="17.7624428">
        <ele>18.4023</ele>
        <time>2012-05-20T15:42:37Z</time>
      </trkpt>
      <trkpt lat="59.9650353" lon="17.7618777">
        <ele>19.3638</ele>
        <time>2012-05-20T15:42:43Z</time>
      </trkpt>
      <trkpt lat="59.9652434" lon="17.7612817">
        <ele>19.3638</ele>
        <time>2012-05-20T15:42:50Z</time>
      </trkpt>
      <trkpt lat="59.9655085" lon="17.7606542">
        <ele>21.2864</ele>
        <time>2012-05-20T15:42:57Z</time>
      </trkpt>
      <trkpt lat="59.965621" lon="17.7604606">
        <ele>23.209</ele>
        <time>2012-05-20T15:43:00Z</time>
      </trkpt>
      <trkpt lat="59.9658862" lon="17.7599063">
        <ele>22.7283</ele>
        <time>2012-05-20T15:43:07Z</time>
      </trkpt>
      <trkpt lat="59.9661615" lon="17.7594438">
        <ele>21.767</ele>
        <time>2012-05-20T15:43:14Z</time>
      </trkpt>
      <trkpt lat="59.9663293" lon="17.7591193">
        <ele>22.2476</ele>
        <time>2012-05-20T15:43:19Z</time>
      </trkpt>
      <trkpt lat="59.9666654" lon="17.758746">
        <ele>23.6896</ele>
        <time>2012-05-20T15:43:26Z</time>
      </trkpt>
      <trkpt lat="59.9667707" lon="17.7586533">
        <ele>23.6896</ele>
        <time>2012-05-20T15:43:28Z</time>
      </trkpt>
      <trkpt lat="59.9671701" lon="17.7583123">
        <ele>25.1317</ele>
        <time>2012-05-20T15:43:36Z</time>
      </trkpt>
      <trkpt lat="59.9676232" lon="17.7579011">
        <ele>26.5736</ele>
        <time>2012-05-20T15:43:45Z</time>
      </trkpt>
      <trkpt lat="59.9678532" lon="17.7576011">
        <ele>28.4962</ele>
        <time>2012-05-20T15:43:51Z</time>
      </trkpt>
      <trkpt lat="59.9681818" lon="17.7571744">
        <ele>33.3029</ele>
        <time>2012-05-20T15:44:00Z</time>
      </trkpt>
      <trkpt lat="59.9684197" lon="17.7568682">
        <ele>33.7834</ele>
        <time>2012-05-20T15:44:07Z</time>
      </trkpt>
      <trkpt lat="59.9687514" lon="17.7563227">
        <ele>34.7449</ele>
        <time>2012-05-20T15:44:16Z</time>
      </trkpt>
      <trkpt lat="59.9689679" lon="17.755856">
        <ele>34.7449</ele>
        <time>2012-05-20T15:44:22Z</time>
      </trkpt>
      <trkpt lat="59.9693242" lon="17.7551366">
        <ele>32.8223</ele>
        <time>2012-05-20T15:44:31Z</time>
      </trkpt>
      <trkpt lat="59.9696754" lon="17.7543859">
        <ele>35.2255</ele>
        <time>2012-05-20T15:44:40Z</time>
      </trkpt>
      <trkpt lat="59.9700201" lon="17.7536391">
        <ele>35.2255</ele>
        <time>2012-05-20T15:44:48Z</time>
      </trkpt>
      <trkpt lat="59.9702868" lon="17.7529173">
        <ele>31.3801</ele>
        <time>2012-05-20T15:44:55Z</time>
      </trkpt>
      <trkpt lat="59.9705406" lon="17.7523057">
        <ele>28.0155</ele>
        <time>2012-05-20T15:45:02Z</time>
      </trkpt>
      <trkpt lat="59.9708438" lon="17.7517358">
        <ele>28.0155</ele>
        <time>2012-05-20T15:45:09Z</time>
      </trkpt>
      <trkpt lat="59.9709443" lon="17.7515926">
        <ele>27.5349</ele>
        <time>2012-05-20T15:45:11Z</time>
      </trkpt>
      <trkpt lat="59.9713026" lon="17.7511794">
        <ele>27.5349</ele>
        <time>2012-05-20T15:45:18Z</time>
      </trkpt>
      <trkpt lat="59.971715" lon="17.7506163">
        <ele>31.3801</ele>
        <time>2012-05-20T15:45:27Z</time>
      </trkpt>
      <trkpt lat="59.9720315" lon="17.7499854">
        <ele>35.7061</ele>
        <time>2012-05-20T15:45:36Z</time>
      </trkpt>
      <trkpt lat="59.9722034" lon="17.7495804">
        <ele>37.6287</ele>
        <time>2012-05-20T15:45:42Z</time>
      </trkpt>
      <trkpt lat="59.9724086" lon="17.7490804">
        <ele>38.5901</ele>
        <time>2012-05-20T15:45:48Z</time>
      </trkpt>
      <trkpt lat="59.9726365" lon="17.7484752">
        <ele>42.916</ele>
        <time>2012-05-20T15:45:54Z</time>
      </trkpt>
      <trkpt lat="59.972832" lon="17.7480885">
        <ele>39.0707</ele>
        <time>2012-05-20T15:45:58Z</time>
      </trkpt>
      <trkpt lat="59.9731805" lon="17.7476276">
        <ele>35.2255</ele>
        <time>2012-05-20T15:46:04Z</time>
      </trkpt>
      <trkpt lat="59.9736136" lon="17.7471887">
        <ele>35.2255</ele>
        <time>2012-05-20T15:46:12Z</time>
      </trkpt>
      <trkpt lat="59.9739536" lon="17.7468187">
        <ele>36.6675</ele>
        <time>2012-05-20T15:46:19Z</time>
      </trkpt>
      <trkpt lat="59.9744308" lon="17.7461641">
        <ele>39.0707</ele>
        <time>2012-05-20T15:46:29Z</time>
      </trkpt>
      <trkpt lat="59.9746247" lon="17.745858">
        <ele>39.5513</ele>
        <time>2012-05-20T15:46:34Z</time>
      </trkpt>
      <trkpt lat="59.9749023" lon="17.7451903">
        <ele>38.1094</ele>
        <time>2012-05-20T15:46:42Z</time>
      </trkpt>
      <trkpt lat="59.9751104" lon="17.7445242">
        <ele>38.5901</ele>
        <time>2012-05-20T15:46:48Z</time>
      </trkpt>
      <trkpt lat="59.9752544" lon="17.7438334">
        <ele>39.0707</ele>
        <time>2012-05-20T15:46:54Z</time>
      </trkpt>
      <trkpt lat="59.975421" lon="17.7430389">
        <ele>35.7061</ele>
        <time>2012-05-20T15:47:01Z</time>
      </trkpt>
      <trkpt lat="59.97567" lon="17.7421428">
        <ele>30.8995</ele>
        <time>2012-05-20T15:47:09Z</time>
      </trkpt>
      <trkpt lat="59.9758954" lon="17.7411255">
        <ele>33.3029</ele>
        <time>2012-05-20T15:47:17Z</time>
      </trkpt>
      <trkpt lat="59.9761775" lon="17.7401831">
        <ele>35.2255</ele>
        <time>2012-05-20T15:47:25Z</time>
      </trkpt>
      <trkpt lat="59.9762917" lon="17.7398209">
        <ele>36.1868</ele>
        <time>2012-05-20T15:47:28Z</time>
      </trkpt>
      <trkpt lat="59.976597" lon="17.7393783">
        <ele>35.2255</ele>
        <time>2012-05-20T15:47:33Z</time>
      </trkpt>
      <trkpt lat="59.9767403" lon="17.7392886">
        <ele>34.7449</ele>
        <time>2012-05-20T15:47:35Z</time>
      </trkpt>
      <trkpt lat="59.9770509" lon="17.7391886">
        <ele>31.3801</ele>
        <time>2012-05-20T15:47:40Z</time>
      </trkpt>
      <trkpt lat="59.977429" lon="17.7390244">
        <ele>29.9381</ele>
        <time>2012-05-20T15:47:47Z</time>
      </trkpt>
      <trkpt lat="59.9776824" lon="17.7390321">
        <ele>31.8607</ele>
        <time>2012-05-20T15:47:53Z</time>
      </trkpt>
      <trkpt lat="59.9779373" lon="17.7391523">
        <ele>35.2255</ele>
        <time>2012-05-20T15:48:00Z</time>
      </trkpt>
      <trkpt lat="59.9781586" lon="17.7391891">
        <ele>42.4354</ele>
        <time>2012-05-20T15:48:06Z</time>
      </trkpt>
      <trkpt lat="59.9783899" lon="17.7392381">
        <ele>47.2418</ele>
        <time>2012-05-20T15:48:11Z</time>
      </trkpt>
      <trkpt lat="59.978705" lon="17.739293">
        <ele>45.7999</ele>
        <time>2012-05-20T15:48:16Z</time>
      </trkpt>
      <trkpt lat="59.9789423" lon="17.7392914">
        <ele>44.358</ele>
        <time>2012-05-20T15:48:20Z</time>
      </trkpt>
      <trkpt lat="59.9792827" lon="17.7390904">
        <ele>42.916</ele>
        <time>2012-05-20T15:48:26Z</time>
      </trkpt>
      <trkpt lat="59.979635" lon="17.7388358">
        <ele>44.358</ele>
        <time>2012-05-20T15:48:33Z</time>
      </trkpt>
      <trkpt lat="59.9797639" lon="17.7387668">
        <ele>43.3966</ele>
        <time>2012-05-20T15:48:36Z</time>
      </trkpt>
      <trkpt lat="59.9799168" lon="17.7387359">
        <ele>44.358</ele>
        <time>2012-05-20T15:48:39Z</time>
      </trkpt>
      <trkpt lat="59.9800742" lon="17.738724">
        <ele>41.9547</ele>
        <time>2012-05-20T15:48:44Z</time>
      </trkpt>
      <trkpt lat="59.9800035" lon="17.7387456">
        <ele>39.5513</ele>
        <time>2012-05-20T15:48:47Z</time>
      </trkpt>
      <trkpt lat="59.9799555" lon="17.7387559">
        <ele>38.5901</ele>
        <time>2012-05-20T15:48:48Z</time>
      </trkpt>
      <trkpt lat="59.9796526" lon="17.7389309">
        <ele>35.7061</ele>
        <time>2012-05-20T15:48:55Z</time>
      </trkpt>
      <trkpt lat="59.9795033" lon="17.7389633">
        <ele>38.1094</ele>
        <time>2012-05-20T15:48:58Z</time>
      </trkpt>
      <trkpt lat="59.9790752" lon="17.7392455">
        <ele>37.1481</ele>
        <time>2012-05-20T15:49:05Z</time>
      </trkpt>
      <trkpt lat="59.9790188" lon="17.739286">
        <ele>37.6287</ele>
        <time>2012-05-20T15:49:06Z</time>
      </trkpt>
    </trkseg>
  </trk>
</gpx>